<?xml version='1.0' encoding='UTF-8'?><gpx version="1.1" creator="JPX - https://github.com/jenetics/jpx" xmlns="http://www.topografix.com/GPX/1/1"><trk><trkseg><trkpt lat="44.712251358229736" lon="9.567049759802947"><ele>438.0</ele><time>2026-04-22T08:57:02.606Z</time></trkpt><trkpt lat="44.71232278082274" lon="9.567089600413562"><ele>437.99999999999994</ele><time>2026-04-22T08:59:11Z</time></trkpt><trkpt lat="44.7123812422938" lon="9.567219366348588"><ele>437.99999999999994</ele><time>2026-04-22T08:59:13Z</time></trkpt><trkpt lat="44.71245475609441" lon="9.567318556703517"><ele>438.0</ele><time>2026-04-22T08:59:15Z</time></trkpt><trkpt lat="44.71257132903988" lon="9.567300170105458"><ele>438.0</ele><time>2026-04-22T08:59:17Z</time></trkpt><trkpt lat="44.712637660402414" lon="9.567233242097803"><ele>438.0</ele><time>2026-04-22T08:59:18Z</time></trkpt><trkpt lat="44.71269586844637" lon="9.567156527101881"><ele>438.0</ele><time>2026-04-22T08:59:19Z</time></trkpt><trkpt lat="44.712762475574074" lon="9.567092335421275"><ele>438.0</ele><time>2026-04-22T08:59:20Z</time></trkpt><trkpt lat="44.71281895905753" lon="9.567007447873515"><ele>438.0</ele><time>2026-04-22T08:59:21Z</time></trkpt><trkpt lat="44.7128789452626" lon="9.566922968544613"><ele>438.0</ele><time>2026-04-22T08:59:22Z</time></trkpt><trkpt lat="44.71292389452188" lon="9.566859649593429"><ele>438.0</ele><time>2026-04-22T08:59:23Z</time></trkpt><trkpt lat="44.712995123491105" lon="9.566775537339044"><ele>441.0</ele><time>2026-04-22T08:59:25Z</time></trkpt><trkpt lat="44.71301066767106" lon="9.566637910237386"><ele>443.99999999999994</ele><time>2026-04-22T08:59:27Z</time></trkpt><trkpt lat="44.71298581398491" lon="9.566538030522068"><ele>446.99999999999994</ele><time>2026-04-22T08:59:28Z</time></trkpt><trkpt lat="44.71294213373628" lon="9.566413321986499"><ele>450.0</ele><time>2026-04-22T08:59:29Z</time></trkpt><trkpt lat="44.712929793728776" lon="9.566306589220204"><ele>453.0</ele><time>2026-04-22T08:59:30Z</time></trkpt><trkpt lat="44.71301818852355" lon="9.566178796133785"><ele>453.4</ele><time>2026-04-22T08:59:32Z</time></trkpt><trkpt lat="44.71306850579639" lon="9.566102949037298"><ele>453.79999999999995</ele><time>2026-04-22T08:59:33Z</time></trkpt><trkpt lat="44.71311454176606" lon="9.56600785952249"><ele>454.2</ele><time>2026-04-22T08:59:34Z</time></trkpt><trkpt lat="44.713138261798605" lon="9.565893811681853"><ele>454.6</ele><time>2026-04-22T08:59:35Z</time></trkpt><trkpt lat="44.713019530900034" lon="9.565686824577602"><ele>455.0</ele><time>2026-04-22T08:59:36Z</time></trkpt><trkpt lat="44.71306415777975" lon="9.565572090700117"><ele>455.0</ele><time>2026-04-22T08:59:37Z</time></trkpt><trkpt lat="44.71309107415413" lon="9.565457016719254"><ele>455.0</ele><time>2026-04-22T08:59:38Z</time></trkpt><trkpt lat="44.7131162714395" lon="9.565314585380468"><ele>455.0</ele><time>2026-04-22T08:59:39Z</time></trkpt><trkpt lat="44.713105085700654" lon="9.56511007024278"><ele>455.0</ele><time>2026-04-22T08:59:41Z</time></trkpt><trkpt lat="44.713086399942846" lon="9.565020987362153"><ele>455.0</ele><time>2026-04-22T08:59:42Z</time></trkpt><trkpt lat="44.713008438552734" lon="9.56492340412317"><ele>458.5</ele><time>2026-04-22T08:59:44Z</time></trkpt><trkpt lat="44.712992045175554" lon="9.564809976180543"><ele>462.0</ele><time>2026-04-22T08:59:45Z</time></trkpt><trkpt lat="44.71343645464027" lon="9.564427004011437"><ele>463.8</ele><time>2026-04-22T08:59:46Z</time></trkpt><trkpt lat="44.713463467374744" lon="9.56428437696199"><ele>465.6</ele><time>2026-04-22T08:59:47Z</time></trkpt><trkpt lat="44.71349047118834" lon="9.564174247298027"><ele>467.40000000000003</ele><time>2026-04-22T08:59:48Z</time></trkpt><trkpt lat="44.71356859500887" lon="9.564047406383413"><ele>469.20000000000005</ele><time>2026-04-22T08:59:50Z</time></trkpt><trkpt lat="44.71362129879242" lon="9.563962353840076"><ele>471.0</ele><time>2026-04-22T08:59:51Z</time></trkpt><trkpt lat="44.71365156228368" lon="9.563849883710217"><ele>472.0</ele><time>2026-04-22T08:59:52Z</time></trkpt><trkpt lat="44.71366433313907" lon="9.563718713858817"><ele>473.0</ele><time>2026-04-22T08:59:53Z</time></trkpt><trkpt lat="44.71368628928039" lon="9.563593575346786"><ele>474.0</ele><time>2026-04-22T08:59:54Z</time></trkpt><trkpt lat="44.713710794100514" lon="9.56348911197493"><ele>475.0</ele><time>2026-04-22T08:59:55Z</time></trkpt><trkpt lat="44.71373099985724" lon="9.563393997393193"><ele>476.0</ele><time>2026-04-22T08:59:56Z</time></trkpt><trkpt lat="44.71379464704619" lon="9.563286266896512"><ele>477.0</ele><time>2026-04-22T08:59:58Z</time></trkpt><trkpt lat="44.71387624442311" lon="9.563261300775247"><ele>478.3333333333333</ele><time>2026-04-22T08:59:59Z</time></trkpt><trkpt lat="44.71393949980828" lon="9.563226752776227"><ele>479.66666666666663</ele><time>2026-04-22T09:00:00Z</time></trkpt><trkpt lat="44.714004103103115" lon="9.563188862369188"><ele>481.0</ele><time>2026-04-22T09:00:01Z</time></trkpt><trkpt lat="44.714072980579765" lon="9.563195389878274"><ele>482.3333333333333</ele><time>2026-04-22T09:00:02Z</time></trkpt><trkpt lat="44.71414496006945" lon="9.563218458935197"><ele>483.66666666666663</ele><time>2026-04-22T09:00:03Z</time></trkpt><trkpt lat="44.71423067753609" lon="9.563248299745892"><ele>485.0</ele><time>2026-04-22T09:00:04Z</time></trkpt><trkpt lat="44.71431439534003" lon="9.563224130175461"><ele>485.0</ele><time>2026-04-22T09:00:05Z</time></trkpt><trkpt lat="44.714396280572934" lon="9.563158772139388"><ele>485.0</ele><time>2026-04-22T09:00:06Z</time></trkpt><trkpt lat="44.71446414437771" lon="9.563097385845401"><ele>485.0</ele><time>2026-04-22T09:00:07Z</time></trkpt><trkpt lat="44.71455099371027" lon="9.562924240481387"><ele>485.0</ele><time>2026-04-22T09:00:09Z</time></trkpt><trkpt lat="44.71459545358763" lon="9.562818114916954"><ele>485.0</ele><time>2026-04-22T09:00:10Z</time></trkpt><trkpt lat="44.71462791119457" lon="9.562719814949178"><ele>487.8333333333333</ele><time>2026-04-22T09:00:11Z</time></trkpt><trkpt lat="44.7146588863629" lon="9.562619506344166"><ele>490.66666666666663</ele><time>2026-04-22T09:00:12Z</time></trkpt><trkpt lat="44.71468666928517" lon="9.562531293000255"><ele>493.5</ele><time>2026-04-22T09:00:13Z</time></trkpt><trkpt lat="44.71471083866975" lon="9.562426479428867"><ele>496.33333333333337</ele><time>2026-04-22T09:00:14Z</time></trkpt><trkpt lat="44.714739628965084" lon="9.562302355000893"><ele>499.1666666666667</ele><time>2026-04-22T09:00:15Z</time></trkpt><trkpt lat="44.71477156615649" lon="9.562189827050892"><ele>502.0</ele><time>2026-04-22T09:00:16Z</time></trkpt><trkpt lat="44.714817643493184" lon="9.562078080971007"><ele>503.33333333333337</ele><time>2026-04-22T09:00:17Z</time></trkpt><trkpt lat="44.71486879931559" lon="9.56197100205965"><ele>504.6666666666667</ele><time>2026-04-22T09:00:18Z</time></trkpt><trkpt lat="44.71492333908227" lon="9.561903176182481"><ele>506.0</ele><time>2026-04-22T09:00:19Z</time></trkpt><trkpt lat="44.71498942743716" lon="9.561849979783485"><ele>507.33333333333337</ele><time>2026-04-22T09:00:20Z</time></trkpt><trkpt lat="44.7150496949899" lon="9.561793464028437"><ele>508.6666666666667</ele><time>2026-04-22T09:00:21Z</time></trkpt><trkpt lat="44.71511437813126" lon="9.561740792355778"><ele>510.0</ele><time>2026-04-22T09:00:22Z</time></trkpt><trkpt lat="44.71519106310088" lon="9.561681867890126"><ele>512.1666666666666</ele><time>2026-04-22T09:00:23Z</time></trkpt><trkpt lat="44.71526395493573" lon="9.561642839468124"><ele>514.3333333333334</ele><time>2026-04-22T09:00:24Z</time></trkpt><trkpt lat="44.71531263976864" lon="9.561501268098967"><ele>516.5</ele><time>2026-04-22T09:00:26Z</time></trkpt><trkpt lat="44.715322299113275" lon="9.561413597264353"><ele>518.6666666666667</ele><time>2026-04-22T09:00:27Z</time></trkpt><trkpt lat="44.71534343065904" lon="9.561328703810071"><ele>520.8333333333334</ele><time>2026-04-22T09:00:28Z</time></trkpt><trkpt lat="44.71538564470295" lon="9.561155611927516"><ele>523.0</ele><time>2026-04-22T09:00:30Z</time></trkpt><trkpt lat="44.71541327569265" lon="9.561049130784262"><ele>523.1666666666667</ele><time>2026-04-22T09:00:31Z</time></trkpt><trkpt lat="44.71544873818653" lon="9.560956158047992"><ele>523.3333333333334</ele><time>2026-04-22T09:00:32Z</time></trkpt><trkpt lat="44.71550561584097" lon="9.560854614838135"><ele>523.5</ele><time>2026-04-22T09:00:33Z</time></trkpt><trkpt lat="44.715570885075905" lon="9.560728435224775"><ele>523.6666666666666</ele><time>2026-04-22T09:00:34Z</time></trkpt><trkpt lat="44.71561562204155" lon="9.560638563419854"><ele>523.8333333333333</ele><time>2026-04-22T09:00:35Z</time></trkpt><trkpt lat="44.715646110773825" lon="9.560543442556138"><ele>524.0</ele><time>2026-04-22T09:00:36Z</time></trkpt><trkpt lat="44.71571663851495" lon="9.560383299558987"><ele>525.0</ele><time>2026-04-22T09:00:38Z</time></trkpt><trkpt lat="44.7157764456531" lon="9.560257233599613"><ele>526.0</ele><time>2026-04-22T09:00:40Z</time></trkpt><trkpt lat="44.71590368857733" lon="9.560173109330865"><ele>527.0</ele><time>2026-04-22T09:00:42Z</time></trkpt><trkpt lat="44.71599226601909" lon="9.560126367011799"><ele>528.0</ele><time>2026-04-22T09:00:43Z</time></trkpt><trkpt lat="44.716080377793105" lon="9.56007491045738"><ele>529.0</ele><time>2026-04-22T09:00:44Z</time></trkpt><trkpt lat="44.71615779393963" lon="9.560033075826846"><ele>531.3333333333334</ele><time>2026-04-22T09:00:45Z</time></trkpt><trkpt lat="44.71621177251532" lon="9.55995756951272"><ele>533.6666666666667</ele><time>2026-04-22T09:00:46Z</time></trkpt><trkpt lat="44.71627222794753" lon="9.559851763098"><ele>536.0</ele><time>2026-04-22T09:00:47Z</time></trkpt><trkpt lat="44.716333712980855" lon="9.559720125617483"><ele>538.3333333333334</ele><time>2026-04-22T09:00:47.999Z</time></trkpt><trkpt lat="44.71637847045938" lon="9.559615139005315"><ele>540.6666666666666</ele><time>2026-04-22T09:00:48.999Z</time></trkpt><trkpt lat="44.71641259700797" lon="9.55953668399876"><ele>543.0</ele><time>2026-04-22T09:00:49.999Z</time></trkpt><trkpt lat="44.71646841583174" lon="9.559455736676481"><ele>543.0</ele><time>2026-04-22T09:00:50.999Z</time></trkpt><trkpt lat="44.71652318456186" lon="9.559360810044074"><ele>543.0</ele><time>2026-04-22T09:00:51.999Z</time></trkpt><trkpt lat="44.716564755996714" lon="9.559266796204415"><ele>543.0</ele><time>2026-04-22T09:00:52.999Z</time></trkpt><trkpt lat="44.71661326970561" lon="9.5591524836442"><ele>543.0</ele><time>2026-04-22T09:00:53.999Z</time></trkpt><trkpt lat="44.7166382865605" lon="9.559035929015122"><ele>543.0</ele><time>2026-04-22T09:00:54.999Z</time></trkpt><trkpt lat="44.71663088187023" lon="9.55886695911077"><ele>543.0</ele><time>2026-04-22T09:00:56.999Z</time></trkpt><trkpt lat="44.71664270624472" lon="9.558761423158737"><ele>543.0</ele><time>2026-04-22T09:00:57.999Z</time></trkpt><trkpt lat="44.71665448893361" lon="9.558647499560223"><ele>543.0</ele><time>2026-04-22T09:00:58.999Z</time></trkpt><trkpt lat="44.71663516941849" lon="9.558557665612815"><ele>543.0</ele><time>2026-04-22T09:00:59.999Z</time></trkpt><trkpt lat="44.716625281291144" lon="9.558460666834671"><ele>543.0</ele><time>2026-04-22T09:01:00.999Z</time></trkpt><trkpt lat="44.71662648081688" lon="9.558341974594267"><ele>543.0</ele><time>2026-04-22T09:01:01.999Z</time></trkpt><trkpt lat="44.716628328792176" lon="9.558230782865056"><ele>543.7142857142858</ele><time>2026-04-22T09:01:02.999Z</time></trkpt><trkpt lat="44.7166243377329" lon="9.558135951076759"><ele>544.4285714285714</ele><time>2026-04-22T09:01:03.999Z</time></trkpt><trkpt lat="44.71663550939075" lon="9.558025708566001"><ele>545.1428571428571</ele><time>2026-04-22T09:01:04.999Z</time></trkpt><trkpt lat="44.716661739828425" lon="9.557931618649231"><ele>545.8571428571429</ele><time>2026-04-22T09:01:05.999Z</time></trkpt><trkpt lat="44.71668398569236" lon="9.557833421114152"><ele>546.5714285714286</ele><time>2026-04-22T09:01:06.999Z</time></trkpt><trkpt lat="44.716706421858845" lon="9.557722787210864"><ele>547.2857142857143</ele><time>2026-04-22T09:01:07.999Z</time></trkpt><trkpt lat="44.71673022906869" lon="9.557624126966447"><ele>548.0</ele><time>2026-04-22T09:01:08.999Z</time></trkpt><trkpt lat="44.716749505704534" lon="9.557533219832084"><ele>549.1666666666666</ele><time>2026-04-22T09:01:09.999Z</time></trkpt><trkpt lat="44.716778999308225" lon="9.557441023173105"><ele>550.3333333333333</ele><time>2026-04-22T09:01:10.999Z</time></trkpt><trkpt lat="44.71679834955159" lon="9.557332937275003"><ele>551.5</ele><time>2026-04-22T09:01:11.999Z</time></trkpt><trkpt lat="44.71681003469345" lon="9.557172622450718"><ele>552.6666666666666</ele><time>2026-04-22T09:01:14Z</time></trkpt><trkpt lat="44.71680945295064" lon="9.557083309894029"><ele>553.8333333333334</ele><time>2026-04-22T09:01:15Z</time></trkpt><trkpt lat="44.7168340392576" lon="9.556937159843372"><ele>555.0</ele><time>2026-04-22T09:01:17Z</time></trkpt><trkpt lat="44.71686202487543" lon="9.55675510279093"><ele>557.0</ele><time>2026-04-22T09:01:19Z</time></trkpt><trkpt lat="44.71684537863856" lon="9.556665335606418"><ele>559.0</ele><time>2026-04-22T09:01:20Z</time></trkpt><trkpt lat="44.71677845851152" lon="9.556516875464913"><ele>561.0</ele><time>2026-04-22T09:01:22Z</time></trkpt><trkpt lat="44.71676330854099" lon="9.556423161842487"><ele>563.0</ele><time>2026-04-22T09:01:23Z</time></trkpt><trkpt lat="44.71678079023669" lon="9.556248129685084"><ele>565.0</ele><time>2026-04-22T09:01:25Z</time></trkpt><trkpt lat="44.71681132642739" lon="9.556136701788075"><ele>566.0</ele><time>2026-04-22T09:01:26Z</time></trkpt><trkpt lat="44.71687541113358" lon="9.556029490139398"><ele>567.0</ele><time>2026-04-22T09:01:27Z</time></trkpt><trkpt lat="44.71693955694952" lon="9.555938251520498"><ele>568.0</ele><time>2026-04-22T09:01:28Z</time></trkpt><trkpt lat="44.71696725000195" lon="9.55585039616938"><ele>569.0</ele><time>2026-04-22T09:01:29Z</time></trkpt><trkpt lat="44.71697742794898" lon="9.555746520081525"><ele>570.0</ele><time>2026-04-22T09:01:30Z</time></trkpt><trkpt lat="44.717003443483385" lon="9.555639508457642"><ele>571.0</ele><time>2026-04-22T09:01:31Z</time></trkpt><trkpt lat="44.71703709874295" lon="9.555562193989816"><ele>571.8</ele><time>2026-04-22T09:01:32Z</time></trkpt><trkpt lat="44.71707793191056" lon="9.55548925953666"><ele>572.6</ele><time>2026-04-22T09:01:33Z</time></trkpt><trkpt lat="44.71709554744054" lon="9.555356363891253"><ele>573.4</ele><time>2026-04-22T09:01:35Z</time></trkpt><trkpt lat="44.717118146596185" lon="9.55515788086408"><ele>574.2</ele><time>2026-04-22T09:01:37Z</time></trkpt><trkpt lat="44.71713342743158" lon="9.554989866568983"><ele>575.0</ele><time>2026-04-22T09:01:39Z</time></trkpt><trkpt lat="44.717193894818834" lon="9.554882948874356"><ele>576.1666666666666</ele><time>2026-04-22T09:01:41Z</time></trkpt><trkpt lat="44.717286083232025" lon="9.554819166255507"><ele>577.3333333333333</ele><time>2026-04-22T09:01:43Z</time></trkpt><trkpt lat="44.71737120459752" lon="9.554780678513279"><ele>578.5</ele><time>2026-04-22T09:01:45Z</time></trkpt><trkpt lat="44.71746408991085" lon="9.554797078911227"><ele>579.6666666666666</ele><time>2026-04-22T09:01:48Z</time></trkpt><trkpt lat="44.717541935088384" lon="9.554801629420302"><ele>580.8333333333334</ele><time>2026-04-22T09:01:51Z</time></trkpt><trkpt lat="44.71760426547884" lon="9.554733867281378"><ele>582.0</ele><time>2026-04-22T09:01:53Z</time></trkpt><trkpt lat="44.71767726089164" lon="9.5545972067736"><ele>583.1666666666666</ele><time>2026-04-22T09:01:55Z</time></trkpt><trkpt lat="44.71771534593066" lon="9.554526429865849"><ele>584.3333333333334</ele><time>2026-04-22T09:01:56Z</time></trkpt><trkpt lat="44.71778388938632" lon="9.554396598670236"><ele>585.5</ele><time>2026-04-22T09:01:58Z</time></trkpt><trkpt lat="44.717839865163604" lon="9.554324463698606"><ele>586.6666666666667</ele><time>2026-04-22T09:02:00Z</time></trkpt><trkpt lat="44.717875338769474" lon="9.554224502237696"><ele>587.8333333333334</ele><time>2026-04-22T09:02:02Z</time></trkpt><trkpt lat="44.7179064554075" lon="9.55411325310029"><ele>589.0</ele><time>2026-04-22T09:02:05Z</time></trkpt><trkpt lat="44.71801102023882" lon="9.55380013707493"><ele>591.5</ele><time>2026-04-22T09:02:07Z</time></trkpt><trkpt lat="44.71803307763181" lon="9.55371027447897"><ele>594.0</ele><time>2026-04-22T09:02:08Z</time></trkpt><trkpt lat="44.71803076733268" lon="9.55362064297165"><ele>596.5</ele><time>2026-04-22T09:02:09Z</time></trkpt><trkpt lat="44.71800382235826" lon="9.553537794213929"><ele>599.0</ele><time>2026-04-22T09:02:10Z</time></trkpt><trkpt lat="44.71799033319395" lon="9.553444751420313"><ele>601.5</ele><time>2026-04-22T09:02:11Z</time></trkpt><trkpt lat="44.71802872586059" lon="9.55328632527152"><ele>604.0</ele><time>2026-04-22T09:02:13Z</time></trkpt><trkpt lat="44.71805782820627" lon="9.55310999640816"><ele>605.1666666666667</ele><time>2026-04-22T09:02:15Z</time></trkpt><trkpt lat="44.71806158789142" lon="9.553015732577602"><ele>606.3333333333334</ele><time>2026-04-22T09:02:16Z</time></trkpt><trkpt lat="44.718072513964756" lon="9.552844962082881"><ele>607.5</ele><time>2026-04-22T09:02:18Z</time></trkpt><trkpt lat="44.718078584618716" lon="9.552752497678721"><ele>608.6666666666666</ele><time>2026-04-22T09:02:19Z</time></trkpt><trkpt lat="44.71803905853341" lon="9.552656664239613"><ele>609.8333333333333</ele><time>2026-04-22T09:02:21Z</time></trkpt><trkpt lat="44.7179613377767" lon="9.552563812069844"><ele>611.0</ele><time>2026-04-22T09:02:23Z</time></trkpt><trkpt lat="44.71792675261078" lon="9.55248394446641"><ele>612.1666666666666</ele><time>2026-04-22T09:02:24Z</time></trkpt><trkpt lat="44.7179118848441" lon="9.552387586552198"><ele>613.3333333333333</ele><time>2026-04-22T09:02:25Z</time></trkpt><trkpt lat="44.717933263841765" lon="9.552294777469756"><ele>614.5</ele><time>2026-04-22T09:02:26Z</time></trkpt><trkpt lat="44.71797293407476" lon="9.552180256119152"><ele>615.6666666666666</ele><time>2026-04-22T09:02:27Z</time></trkpt><trkpt lat="44.71800740168008" lon="9.552102699203452"><ele>616.8333333333334</ele><time>2026-04-22T09:02:28Z</time></trkpt><trkpt lat="44.717986536153205" lon="9.551995541833742"><ele>618.0</ele><time>2026-04-22T09:02:30Z</time></trkpt><trkpt lat="44.717952132516515" lon="9.551869664801224"><ele>618.8333333333334</ele><time>2026-04-22T09:02:32Z</time></trkpt><trkpt lat="44.7179017999544" lon="9.551787634062386"><ele>619.6666666666666</ele><time>2026-04-22T09:02:34Z</time></trkpt><trkpt lat="44.717848405420085" lon="9.55170776622608"><ele>620.5</ele><time>2026-04-22T09:02:37Z</time></trkpt><trkpt lat="44.71781990044239" lon="9.551596583736284"><ele>621.3333333333333</ele><time>2026-04-22T09:02:39Z</time></trkpt><trkpt lat="44.7178317574383" lon="9.551489652812013"><ele>622.1666666666666</ele><time>2026-04-22T09:02:41Z</time></trkpt><trkpt lat="44.71784744627276" lon="9.551391724940984"><ele>623.0</ele><time>2026-04-22T09:02:43.999Z</time></trkpt><trkpt lat="44.71788072838717" lon="9.551279530520285"><ele>624.0</ele><time>2026-04-22T09:02:45.999Z</time></trkpt><trkpt lat="44.71791255590263" lon="9.551114482655843"><ele>625.0</ele><time>2026-04-22T09:02:47.999Z</time></trkpt><trkpt lat="44.71794235687211" lon="9.550989316365643"><ele>626.0</ele><time>2026-04-22T09:02:48.999Z</time></trkpt><trkpt lat="44.71799913620253" lon="9.55089800357271"><ele>627.0</ele><time>2026-04-22T09:02:49.999Z</time></trkpt><trkpt lat="44.71803161615029" lon="9.550761759106425"><ele>628.0</ele><time>2026-04-22T09:02:51.999Z</time></trkpt><trkpt lat="44.7180097574639" lon="9.55066489229866"><ele>628.0</ele><time>2026-04-22T09:02:52.999Z</time></trkpt><trkpt lat="44.71800350580792" lon="9.550570379883952"><ele>628.0</ele><time>2026-04-22T09:02:53.999Z</time></trkpt><trkpt lat="44.71802693406875" lon="9.55042686665924"><ele>628.0</ele><time>2026-04-22T09:02:55.999Z</time></trkpt><trkpt lat="44.71809381866206" lon="9.55036704178935"><ele>628.0</ele><time>2026-04-22T09:02:56.999Z</time></trkpt><trkpt lat="44.71814548280865" lon="9.550308219914093"><ele>628.0</ele><time>2026-04-22T09:02:57.999Z</time></trkpt><trkpt lat="44.718177241860666" lon="9.550175248001466"><ele>628.0</ele><time>2026-04-22T09:02:59.999Z</time></trkpt><trkpt lat="44.71821786952479" lon="9.550091083806226"><ele>629.8</ele><time>2026-04-22T09:03:02.999Z</time></trkpt><trkpt lat="44.7182904160113" lon="9.549926796004888"><ele>631.5999999999999</ele><time>2026-04-22T09:03:04.999Z</time></trkpt><trkpt lat="44.71832694504304" lon="9.54978911617848"><ele>633.4000000000001</ele><time>2026-04-22T09:03:06.999Z</time></trkpt><trkpt lat="44.71835217194874" lon="9.549676907090472"><ele>635.2</ele><time>2026-04-22T09:03:11.999Z</time></trkpt><trkpt lat="44.71837984327757" lon="9.54955358998432"><ele>637.0</ele><time>2026-04-22T09:03:13.999Z</time></trkpt><trkpt lat="44.71840304612723" lon="9.54947093068049"><ele>639.8</ele><time>2026-04-22T09:03:15.999Z</time></trkpt><trkpt lat="44.71844465124096" lon="9.549366888486656"><ele>642.6</ele><time>2026-04-22T09:03:18.999Z</time></trkpt><trkpt lat="44.71850323727211" lon="9.549193091517878"><ele>645.4</ele><time>2026-04-22T09:03:22Z</time></trkpt><trkpt lat="44.71853116055882" lon="9.549092884919391"><ele>648.1999999999999</ele><time>2026-04-22T09:03:23Z</time></trkpt><trkpt lat="44.71856401370924" lon="9.549001849712964"><ele>651.0</ele><time>2026-04-22T09:03:24Z</time></trkpt><trkpt lat="44.71859939328036" lon="9.548857103268421"><ele>653.1999999999999</ele><time>2026-04-22T09:03:26Z</time></trkpt><trkpt lat="44.71864335187407" lon="9.548770262924007"><ele>655.4</ele><time>2026-04-22T09:03:27Z</time></trkpt><trkpt lat="44.71869504602889" lon="9.54865902021598"><ele>657.6</ele><time>2026-04-22T09:03:28Z</time></trkpt><trkpt lat="44.71876124353777" lon="9.548550131239185"><ele>659.8</ele><time>2026-04-22T09:03:29Z</time></trkpt><trkpt lat="44.718808025800676" lon="9.548431799753265"><ele>662.0</ele><time>2026-04-22T09:03:30Z</time></trkpt><trkpt lat="44.718848487221" lon="9.548326113044581"><ele>663.1666666666666</ele><time>2026-04-22T09:03:31Z</time></trkpt><trkpt lat="44.71890258092783" lon="9.548218880219597"><ele>664.3333333333333</ele><time>2026-04-22T09:03:33Z</time></trkpt><trkpt lat="44.71899828299186" lon="9.548153252760713"><ele>665.5</ele><time>2026-04-22T09:03:35Z</time></trkpt><trkpt lat="44.71906824438709" lon="9.548109093287021"><ele>666.6666666666666</ele><time>2026-04-22T09:03:36Z</time></trkpt><trkpt lat="44.71913310562129" lon="9.54804455563206"><ele>667.8333333333334</ele><time>2026-04-22T09:03:37Z</time></trkpt><trkpt lat="44.71920189112462" lon="9.548000228901017"><ele>669.0</ele><time>2026-04-22T09:03:38Z</time></trkpt><trkpt lat="44.71931953370502" lon="9.54798013500416"><ele>672.6</ele><time>2026-04-22T09:03:40Z</time></trkpt><trkpt lat="44.71943896105796" lon="9.547945813785173"><ele>676.2</ele><time>2026-04-22T09:03:42Z</time></trkpt><trkpt lat="44.71948806110612" lon="9.547882396314304"><ele>679.8000000000001</ele><time>2026-04-22T09:03:45Z</time></trkpt><trkpt lat="44.719480523423165" lon="9.54777940493432"><ele>683.4000000000001</ele><time>2026-04-22T09:03:47Z</time></trkpt><trkpt lat="44.719499731063685" lon="9.547654354308923"><ele>687.0</ele><time>2026-04-22T09:03:49Z</time></trkpt><trkpt lat="44.7195534019557" lon="9.547520025630467"><ele>687.8</ele><time>2026-04-22T09:03:51Z</time></trkpt><trkpt lat="44.71947961225285" lon="9.547505248703846"><ele>688.6</ele><time>2026-04-22T09:04:12Z</time></trkpt><trkpt lat="44.71942009056004" lon="9.547630925425738"><ele>689.4</ele><time>2026-04-22T09:04:14Z</time></trkpt><trkpt lat="44.719377328350504" lon="9.547564892370215"><ele>690.1999999999999</ele><time>2026-04-22T09:04:16Z</time></trkpt><trkpt lat="44.719380803228155" lon="9.54742876611713"><ele>691.0</ele><time>2026-04-22T09:04:18Z</time></trkpt><trkpt lat="44.71946380578646" lon="9.547289535515018"><ele>691.0</ele><time>2026-04-22T09:04:20Z</time></trkpt><trkpt lat="44.71952044501944" lon="9.547190969532384"><ele>691.0</ele><time>2026-04-22T09:04:21Z</time></trkpt><trkpt lat="44.71958515976493" lon="9.547086932998674"><ele>691.0</ele><time>2026-04-22T09:04:22Z</time></trkpt><trkpt lat="44.719643172526894" lon="9.54695825028418"><ele>691.0</ele><time>2026-04-22T09:04:23Z</time></trkpt><trkpt lat="44.71968799553125" lon="9.546835703925973"><ele>691.0</ele><time>2026-04-22T09:04:24Z</time></trkpt><trkpt lat="44.719708393441564" lon="9.546704233854763"><ele>692.1666666666667</ele><time>2026-04-22T09:04:25Z</time></trkpt><trkpt lat="44.71970470472101" lon="9.546576572945265"><ele>693.3333333333334</ele><time>2026-04-22T09:04:26Z</time></trkpt><trkpt lat="44.71966809343898" lon="9.546485555450214"><ele>694.5</ele><time>2026-04-22T09:04:27Z</time></trkpt><trkpt lat="44.7196107753217" lon="9.546373711730807"><ele>695.6666666666666</ele><time>2026-04-22T09:04:29Z</time></trkpt><trkpt lat="44.71961252591485" lon="9.546257297806633"><ele>696.8333333333333</ele><time>2026-04-22T09:04:30Z</time></trkpt><trkpt lat="44.719649005776546" lon="9.546123183458851"><ele>698.0</ele><time>2026-04-22T09:04:31Z</time></trkpt><trkpt lat="44.71971839636116" lon="9.545994151128847"><ele>699.8</ele><time>2026-04-22T09:04:32Z</time></trkpt><trkpt lat="44.71977229187771" lon="9.545845286704811"><ele>701.5999999999999</ele><time>2026-04-22T09:04:33Z</time></trkpt><trkpt lat="44.71980755374991" lon="9.54571244118625"><ele>703.4000000000001</ele><time>2026-04-22T09:04:34Z</time></trkpt><trkpt lat="44.71985785567507" lon="9.54555238149297"><ele>705.2</ele><time>2026-04-22T09:04:35Z</time></trkpt><trkpt lat="44.719907862154734" lon="9.545426289995795"><ele>707.0</ele><time>2026-04-22T09:04:36Z</time></trkpt><trkpt lat="44.719944218863034" lon="9.54532440083486"><ele>709.5</ele><time>2026-04-22T09:04:38Z</time></trkpt><trkpt lat="44.719858851389674" lon="9.545201223045554"><ele>712.0</ele><time>2026-04-22T09:04:39.999Z</time></trkpt><trkpt lat="44.719885638827726" lon="9.545114439468216"><ele>714.5</ele><time>2026-04-22T09:04:42.999Z</time></trkpt><trkpt lat="44.719915910948" lon="9.54499840825855"><ele>717.0</ele><time>2026-04-22T09:04:45.999Z</time></trkpt><trkpt lat="44.719981795854736" lon="9.544749261021321"><ele>717.0</ele><time>2026-04-22T09:04:47.999Z</time></trkpt><trkpt lat="44.72003173563633" lon="9.544586686755865"><ele>717.0</ele><time>2026-04-22T09:04:48.999Z</time></trkpt><trkpt lat="44.720089584255724" lon="9.544489323392789"><ele>717.0</ele><time>2026-04-22T09:04:49.999Z</time></trkpt><trkpt lat="44.72015091848919" lon="9.544344043108062"><ele>717.0</ele><time>2026-04-22T09:04:50.999Z</time></trkpt><trkpt lat="44.72021189458821" lon="9.544207592926725"><ele>720.4000000000001</ele><time>2026-04-22T09:04:51.999Z</time></trkpt><trkpt lat="44.72026368680708" lon="9.544103282299828"><ele>723.8000000000001</ele><time>2026-04-22T09:04:52.999Z</time></trkpt><trkpt lat="44.72033247741487" lon="9.543989064198623"><ele>727.2</ele><time>2026-04-22T09:04:53.999Z</time></trkpt><trkpt lat="44.72041128732644" lon="9.543869983027065"><ele>730.6</ele><time>2026-04-22T09:04:54.999Z</time></trkpt><trkpt lat="44.7204758394876" lon="9.543748484437552"><ele>734.0</ele><time>2026-04-22T09:04:55.999Z</time></trkpt><trkpt lat="44.72054821125615" lon="9.543599868339292"><ele>736.2</ele><time>2026-04-22T09:04:56.999Z</time></trkpt><trkpt lat="44.72060877929617" lon="9.543457014822117"><ele>738.4000000000001</ele><time>2026-04-22T09:04:57.999Z</time></trkpt><trkpt lat="44.72064099999278" lon="9.543332522488958"><ele>740.6</ele><time>2026-04-22T09:04:58.999Z</time></trkpt><trkpt lat="44.72066913350448" lon="9.543210425763537"><ele>742.8</ele><time>2026-04-22T09:04:59.999Z</time></trkpt><trkpt lat="44.72067847988751" lon="9.543077438424689"><ele>745.0</ele><time>2026-04-22T09:05:00.999Z</time></trkpt><trkpt lat="44.72067492109794" lon="9.542930837603322"><ele>748.0</ele><time>2026-04-22T09:05:01.999Z</time></trkpt><trkpt lat="44.720671159193564" lon="9.542769179907019"><ele>751.0</ele><time>2026-04-22T09:05:02.999Z</time></trkpt><trkpt lat="44.72066463094955" lon="9.542614577893543"><ele>754.0</ele><time>2026-04-22T09:05:03.999Z</time></trkpt><trkpt lat="44.720617236489645" lon="9.542438361269978"><ele>757.0</ele><time>2026-04-22T09:05:04.999Z</time></trkpt><trkpt lat="44.72061306854854" lon="9.542251231823668"><ele>757.0</ele><time>2026-04-22T09:05:05.999Z</time></trkpt><trkpt lat="44.720634497672194" lon="9.54211998462722"><ele>757.0</ele><time>2026-04-22T09:05:06.999Z</time></trkpt><trkpt lat="44.72067418037771" lon="9.542036123853128"><ele>757.0</ele><time>2026-04-22T09:05:07.999Z</time></trkpt><trkpt lat="44.72071087557522" lon="9.54194923734425"><ele>757.0</ele><time>2026-04-22T09:05:08.999Z</time></trkpt><trkpt lat="44.7207015242331" lon="9.541839703595125"><ele>757.0</ele><time>2026-04-22T09:05:10.999Z</time></trkpt><trkpt lat="44.72067225163529" lon="9.541755297435026"><ele>757.0</ele><time>2026-04-22T09:05:11.999Z</time></trkpt><trkpt lat="44.720669553138706" lon="9.541615688420704"><ele>758.6666666666667</ele><time>2026-04-22T09:05:13.999Z</time></trkpt><trkpt lat="44.72059597936486" lon="9.541548462601812"><ele>760.3333333333334</ele><time>2026-04-22T09:05:44Z</time></trkpt><trkpt lat="44.720500838377376" lon="9.541467702787115"><ele>762.0</ele><time>2026-04-22T09:05:46Z</time></trkpt><trkpt lat="44.72044889580864" lon="9.54138611026136"><ele>763.6666666666666</ele><time>2026-04-22T09:05:48Z</time></trkpt><trkpt lat="44.72044275579069" lon="9.541297122280852"><ele>765.3333333333333</ele><time>2026-04-22T09:05:50Z</time></trkpt><trkpt lat="44.7204790214729" lon="9.541176248586556"><ele>767.0</ele><time>2026-04-22T09:05:52Z</time></trkpt><trkpt lat="44.72052400376564" lon="9.541018504534991"><ele>768.8</ele><time>2026-04-22T09:05:54Z</time></trkpt><trkpt lat="44.720554364423734" lon="9.540933390009155"><ele>770.6</ele><time>2026-04-22T09:05:55Z</time></trkpt><trkpt lat="44.72061206714887" lon="9.540775972813769"><ele>772.4</ele><time>2026-04-22T09:05:57Z</time></trkpt><trkpt lat="44.720641910455306" lon="9.540662315262544"><ele>774.1999999999999</ele><time>2026-04-22T09:05:58Z</time></trkpt><trkpt lat="44.72067747221933" lon="9.540529090742812"><ele>776.0</ele><time>2026-04-22T09:05:59Z</time></trkpt><trkpt lat="44.72071583649181" lon="9.540387446747353"><ele>777.8333333333334</ele><time>2026-04-22T09:06:00Z</time></trkpt><trkpt lat="44.72074441843901" lon="9.54026627608052"><ele>779.6666666666667</ele><time>2026-04-22T09:06:01Z</time></trkpt><trkpt lat="44.72076672398029" lon="9.540148772930765"><ele>781.5</ele><time>2026-04-22T09:06:02Z</time></trkpt><trkpt lat="44.72076116178563" lon="9.540050410818798"><ele>783.3333333333333</ele><time>2026-04-22T09:06:03Z</time></trkpt><trkpt lat="44.7207626523025" lon="9.539922207701997"><ele>785.1666666666666</ele><time>2026-04-22T09:06:04Z</time></trkpt><trkpt lat="44.72075007169199" lon="9.53980990673092"><ele>787.0</ele><time>2026-04-22T09:06:05Z</time></trkpt><trkpt lat="44.72074131203233" lon="9.539702331772961"><ele>787.0</ele><time>2026-04-22T09:06:06Z</time></trkpt><trkpt lat="44.72074756184546" lon="9.539568396274891"><ele>787.0</ele><time>2026-04-22T09:06:07Z</time></trkpt><trkpt lat="44.72074403270689" lon="9.539417131915584"><ele>787.0</ele><time>2026-04-22T09:06:08Z</time></trkpt><trkpt lat="44.72072133674812" lon="9.539255562865872"><ele>787.0</ele><time>2026-04-22T09:06:09Z</time></trkpt><trkpt lat="44.7206948253537" lon="9.539101775127964"><ele>787.0</ele><time>2026-04-22T09:06:10Z</time></trkpt><trkpt lat="44.72066933622627" lon="9.538968082529797"><ele>788.9999999999999</ele><time>2026-04-22T09:06:11Z</time></trkpt><trkpt lat="44.72064927751179" lon="9.538846387671171"><ele>791.0</ele><time>2026-04-22T09:06:12Z</time></trkpt><trkpt lat="44.72063622558045" lon="9.53872475758577"><ele>793.0</ele><time>2026-04-22T09:06:13Z</time></trkpt><trkpt lat="44.72069871869967" lon="9.538647564297648"><ele>795.0</ele><time>2026-04-22T09:06:15Z</time></trkpt><trkpt lat="44.72078068245246" lon="9.538682360648593"><ele>796.9999999999999</ele><time>2026-04-22T09:06:17Z</time></trkpt><trkpt lat="44.72082433176309" lon="9.538757589856786"><ele>799.0</ele><time>2026-04-22T09:06:18Z</time></trkpt><trkpt lat="44.72087243311993" lon="9.538862707760355"><ele>798.9999999999999</ele><time>2026-04-22T09:06:19Z</time></trkpt><trkpt lat="44.720927146158125" lon="9.538953374701812"><ele>799.0</ele><time>2026-04-22T09:06:20Z</time></trkpt><trkpt lat="44.72097979641469" lon="9.539002710972582"><ele>799.0</ele><time>2026-04-22T09:06:21Z</time></trkpt><trkpt lat="44.72109441631622" lon="9.53896964851258"><ele>799.0</ele><time>2026-04-22T09:06:23Z</time></trkpt><trkpt lat="44.721145123730594" lon="9.538907145767151"><ele>798.9999999999999</ele><time>2026-04-22T09:06:24Z</time></trkpt><trkpt lat="44.72121358390344" lon="9.538785145819725"><ele>799.0</ele><time>2026-04-22T09:06:26Z</time></trkpt><trkpt lat="44.72120257886294" lon="9.538676146077954"><ele>800.3333333333333</ele><time>2026-04-22T09:06:28Z</time></trkpt><trkpt lat="44.72110052774886" lon="9.538582549132407"><ele>801.6666666666666</ele><time>2026-04-22T09:06:30Z</time></trkpt><trkpt lat="44.72104930049141" lon="9.538497773892598"><ele>803.0</ele><time>2026-04-22T09:06:31Z</time></trkpt><trkpt lat="44.72102630818555" lon="9.53839478458118"><ele>804.3333333333333</ele><time>2026-04-22T09:06:32Z</time></trkpt><trkpt lat="44.721038102027045" lon="9.53829967161974"><ele>805.6666666666666</ele><time>2026-04-22T09:06:33Z</time></trkpt><trkpt lat="44.721080597301146" lon="9.538198616625342"><ele>807.0</ele><time>2026-04-22T09:06:34Z</time></trkpt><trkpt lat="44.7211569729891" lon="9.53811314229591"><ele>808.6</ele><time>2026-04-22T09:06:35Z</time></trkpt><trkpt lat="44.72122099222921" lon="9.538002787818714"><ele>810.2</ele><time>2026-04-22T09:06:36Z</time></trkpt><trkpt lat="44.7212788185411" lon="9.537903108536494"><ele>811.8</ele><time>2026-04-22T09:06:37Z</time></trkpt><trkpt lat="44.7213254402829" lon="9.537822743349468"><ele>813.4</ele><time>2026-04-22T09:06:38Z</time></trkpt><trkpt lat="44.721374694158186" lon="9.53773784097715"><ele>815.0</ele><time>2026-04-22T09:06:38.999Z</time></trkpt><trkpt lat="44.7213307108968" lon="9.537557572085301"><ele>817.6</ele><time>2026-04-22T09:06:39.999Z</time></trkpt><trkpt lat="44.72136909980596" lon="9.537474828520427"><ele>820.2</ele><time>2026-04-22T09:06:40.999Z</time></trkpt><trkpt lat="44.72143794281625" lon="9.53745675301886"><ele>822.8</ele><time>2026-04-22T09:06:42.999Z</time></trkpt><trkpt lat="44.721548201393915" lon="9.53748032703752"><ele>825.4</ele><time>2026-04-22T09:06:44.999Z</time></trkpt><trkpt lat="44.72165489436968" lon="9.537421295850207"><ele>828.0</ele><time>2026-04-22T09:06:46.999Z</time></trkpt><trkpt lat="44.72173440638796" lon="9.53737151340031"><ele>828.0</ele><time>2026-04-22T09:06:47.999Z</time></trkpt><trkpt lat="44.72180803340653" lon="9.537335305617143"><ele>828.0</ele><time>2026-04-22T09:06:48.999Z</time></trkpt><trkpt lat="44.7218753871012" lon="9.537295110550614"><ele>828.0</ele><time>2026-04-22T09:06:49.999Z</time></trkpt><trkpt lat="44.721902653465484" lon="9.53711824895214"><ele>828.0</ele><time>2026-04-22T09:06:51.999Z</time></trkpt><trkpt lat="44.72190912097646" lon="9.537005968455958"><ele>828.0</ele><time>2026-04-22T09:06:52.999Z</time></trkpt><trkpt lat="44.72194009680006" lon="9.536910241956146"><ele>828.0</ele><time>2026-04-22T09:06:53.999Z</time></trkpt><trkpt lat="44.72199607597553" lon="9.536849812119634"><ele>831.2</ele><time>2026-04-22T09:06:54.999Z</time></trkpt><trkpt lat="44.72206155617263" lon="9.536761568223508"><ele>834.4</ele><time>2026-04-22T09:06:55.999Z</time></trkpt><trkpt lat="44.722091017659466" lon="9.536647817185152"><ele>837.6</ele><time>2026-04-22T09:06:56.999Z</time></trkpt><trkpt lat="44.722099227779296" lon="9.536517818015696"><ele>840.8000000000001</ele><time>2026-04-22T09:06:57.999Z</time></trkpt><trkpt lat="44.722113643978595" lon="9.536391649487484"><ele>844.0</ele><time>2026-04-22T09:06:58.999Z</time></trkpt><trkpt lat="44.7221860822953" lon="9.536256037818099"><ele>845.4999999999999</ele><time>2026-04-22T09:07:00.999Z</time></trkpt><trkpt lat="44.722232971989165" lon="9.536150662060985"><ele>847.0</ele><time>2026-04-22T09:07:01.999Z</time></trkpt><trkpt lat="44.72225600420829" lon="9.536031725723285"><ele>848.5</ele><time>2026-04-22T09:07:02.999Z</time></trkpt><trkpt lat="44.72226088740937" lon="9.535903940269963"><ele>850.0</ele><time>2026-04-22T09:07:03.999Z</time></trkpt><trkpt lat="44.72228347663738" lon="9.535780003410034"><ele>851.4999999999999</ele><time>2026-04-22T09:07:04.999Z</time></trkpt><trkpt lat="44.722341060052955" lon="9.53567984809758"><ele>853.0</ele><time>2026-04-22T09:07:05.999Z</time></trkpt><trkpt lat="44.722405566662864" lon="9.53560211014614"><ele>853.0</ele><time>2026-04-22T09:07:06.999Z</time></trkpt><trkpt lat="44.7224929386889" lon="9.535482425723282"><ele>853.0</ele><time>2026-04-22T09:07:08.999Z</time></trkpt><trkpt lat="44.722524287440145" lon="9.535387579665413"><ele>853.0</ele><time>2026-04-22T09:07:09.999Z</time></trkpt><trkpt lat="44.72255425558477" lon="9.535282848587196"><ele>853.0</ele><time>2026-04-22T09:07:10.999Z</time></trkpt><trkpt lat="44.722611825103115" lon="9.535142182788494"><ele>853.0</ele><time>2026-04-22T09:07:12.999Z</time></trkpt><trkpt lat="44.72263979099858" lon="9.534943566931545"><ele>854.4</ele><time>2026-04-22T09:07:14.999Z</time></trkpt><trkpt lat="44.72265673936407" lon="9.534762066031153"><ele>855.8</ele><time>2026-04-22T09:07:15.999Z</time></trkpt><trkpt lat="44.722690831668004" lon="9.534591835044383"><ele>857.2</ele><time>2026-04-22T09:07:16.999Z</time></trkpt><trkpt lat="44.72271611826843" lon="9.534487309979886"><ele>858.6</ele><time>2026-04-22T09:07:17.999Z</time></trkpt><trkpt lat="44.72268596698369" lon="9.534352717759935"><ele>860.0</ele><time>2026-04-22T09:07:19.999Z</time></trkpt><trkpt lat="44.722614390199844" lon="9.534230774273324"><ele>862.4</ele><time>2026-04-22T09:07:21.999Z</time></trkpt><trkpt lat="44.722552070276784" lon="9.534155841311206"><ele>864.8</ele><time>2026-04-22T09:07:22.999Z</time></trkpt><trkpt lat="44.72248133493032" lon="9.534081147105654"><ele>867.2</ele><time>2026-04-22T09:07:23.999Z</time></trkpt><trkpt lat="44.722404920046394" lon="9.533995208560954"><ele>869.6</ele><time>2026-04-22T09:07:24.999Z</time></trkpt><trkpt lat="44.722329915397744" lon="9.533913275803195"><ele>872.0</ele><time>2026-04-22T09:07:25.999Z</time></trkpt><trkpt lat="44.72225122525836" lon="9.533834986152707"><ele>872.0</ele><time>2026-04-22T09:07:26.999Z</time></trkpt><trkpt lat="44.722168606708074" lon="9.533750576726161"><ele>872.0</ele><time>2026-04-22T09:07:27.999Z</time></trkpt><trkpt lat="44.72207957323406" lon="9.53366608621508"><ele>872.0</ele><time>2026-04-22T09:07:28.999Z</time></trkpt><trkpt lat="44.72198708252833" lon="9.53357041389088"><ele>872.0</ele><time>2026-04-22T09:07:29.999Z</time></trkpt><trkpt lat="44.721900690487395" lon="9.533465214616683"><ele>872.0</ele><time>2026-04-22T09:07:30.999Z</time></trkpt><trkpt lat="44.72183039482058" lon="9.53335657299786"><ele>871.8</ele><time>2026-04-22T09:07:32Z</time></trkpt><trkpt lat="44.72177464463326" lon="9.533255192236524"><ele>871.6</ele><time>2026-04-22T09:07:33Z</time></trkpt><trkpt lat="44.72173024657821" lon="9.533152582864341"><ele>871.3999999999999</ele><time>2026-04-22T09:07:34Z</time></trkpt><trkpt lat="44.72170483274218" lon="9.533024534702381"><ele>871.1999999999999</ele><time>2026-04-22T09:07:35Z</time></trkpt><trkpt lat="44.72170815517088" lon="9.532868218107808"><ele>871.0</ele><time>2026-04-22T09:07:36Z</time></trkpt><trkpt lat="44.72171917405543" lon="9.532699707091354"><ele>871.75</ele><time>2026-04-22T09:07:37Z</time></trkpt><trkpt lat="44.72169965453238" lon="9.532556434788441"><ele>872.5</ele><time>2026-04-22T09:07:38Z</time></trkpt><trkpt lat="44.72164199455524" lon="9.532430349841476"><ele>873.25</ele><time>2026-04-22T09:07:39Z</time></trkpt><trkpt lat="44.721560995025236" lon="9.532312902722259"><ele>874.0</ele><time>2026-04-22T09:07:40Z</time></trkpt><trkpt lat="44.72146319228461" lon="9.532203606072073"><ele>874.0</ele><time>2026-04-22T09:07:41Z</time></trkpt><trkpt lat="44.721368685696206" lon="9.532095540094689"><ele>874.0</ele><time>2026-04-22T09:07:42Z</time></trkpt><trkpt lat="44.721271667881176" lon="9.531998747902245"><ele>874.0</ele><time>2026-04-22T09:07:43Z</time></trkpt><trkpt lat="44.72117159674497" lon="9.53191611979592"><ele>874.0</ele><time>2026-04-22T09:07:44Z</time></trkpt><trkpt lat="44.721076272245114" lon="9.531840472262228"><ele>872.8000000000001</ele><time>2026-04-22T09:07:45Z</time></trkpt><trkpt lat="44.72098401596037" lon="9.531768552456919"><ele>871.6000000000001</ele><time>2026-04-22T09:07:46Z</time></trkpt><trkpt lat="44.72089072146873" lon="9.53170743261563"><ele>870.4</ele><time>2026-04-22T09:07:47Z</time></trkpt><trkpt lat="44.72078910097109" lon="9.531657663051043"><ele>869.2</ele><time>2026-04-22T09:07:48Z</time></trkpt><trkpt lat="44.720675727438234" lon="9.531632887492309"><ele>868.0</ele><time>2026-04-22T09:07:49Z</time></trkpt><trkpt lat="44.72058165516155" lon="9.531604550396885"><ele>868.0</ele><time>2026-04-22T09:07:50Z</time></trkpt><trkpt lat="44.720491820686235" lon="9.531529280834466"><ele>868.0</ele><time>2026-04-22T09:07:52Z</time></trkpt><trkpt lat="44.720387964716075" lon="9.53146511611227"><ele>868.0</ele><time>2026-04-22T09:07:54Z</time></trkpt><trkpt lat="44.72044636176982" lon="9.531089892324724"><ele>869.8</ele><time>2026-04-22T09:07:56Z</time></trkpt><trkpt lat="44.7204804737956" lon="9.530936691342733"><ele>871.5999999999999</ele><time>2026-04-22T09:07:57Z</time></trkpt><trkpt lat="44.7205133284185" lon="9.530783828173412"><ele>873.4000000000001</ele><time>2026-04-22T09:07:58Z</time></trkpt><trkpt lat="44.72054317822131" lon="9.530647954927502"><ele>875.2</ele><time>2026-04-22T09:07:59Z</time></trkpt><trkpt lat="44.72055373213777" lon="9.530512536097776"><ele>877.0</ele><time>2026-04-22T09:08:00Z</time></trkpt><trkpt lat="44.72055709356307" lon="9.530391759270575"><ele>877.9999999999999</ele><time>2026-04-22T09:08:01Z</time></trkpt><trkpt lat="44.720562656116265" lon="9.530286557365377"><ele>879.0</ele><time>2026-04-22T09:08:02Z</time></trkpt><trkpt lat="44.72057696267485" lon="9.53018765364433"><ele>880.0</ele><time>2026-04-22T09:08:03Z</time></trkpt><trkpt lat="44.72060303240273" lon="9.530085213325968"><ele>881.0</ele><time>2026-04-22T09:08:04Z</time></trkpt><trkpt lat="44.72060374390625" lon="9.529987397603879"><ele>881.9999999999999</ele><time>2026-04-22T09:08:05Z</time></trkpt><trkpt lat="44.720537255313445" lon="9.52982825107646"><ele>883.0</ele><time>2026-04-22T09:08:07Z</time></trkpt><trkpt lat="44.72052464437009" lon="9.529714887444257"><ele>882.9999999999999</ele><time>2026-04-22T09:08:08Z</time></trkpt><trkpt lat="44.720551424667725" lon="9.529588841292343"><ele>883.0</ele><time>2026-04-22T09:08:09Z</time></trkpt><trkpt lat="44.7205742567702" lon="9.52946699124153"><ele>883.0</ele><time>2026-04-22T09:08:10Z</time></trkpt><trkpt lat="44.72057830126814" lon="9.529339712401708"><ele>883.0</ele><time>2026-04-22T09:08:11Z</time></trkpt><trkpt lat="44.72056908781082" lon="9.52919903868081"><ele>882.9999999999999</ele><time>2026-04-22T09:08:12Z</time></trkpt><trkpt lat="44.72056406516588" lon="9.529097083057934"><ele>883.0</ele><time>2026-04-22T09:08:13Z</time></trkpt><trkpt lat="44.72054656250902" lon="9.528956670958669"><ele>885.6666666666666</ele><time>2026-04-22T09:08:15Z</time></trkpt><trkpt lat="44.72050481203206" lon="9.528866992815207"><ele>888.3333333333333</ele><time>2026-04-22T09:08:18Z</time></trkpt><trkpt lat="44.720523390185626" lon="9.528728423905171"><ele>891.0</ele><time>2026-04-22T09:08:21Z</time></trkpt><trkpt lat="44.72055645590034" lon="9.52863281283202"><ele>893.6666666666667</ele><time>2026-04-22T09:08:22Z</time></trkpt><trkpt lat="44.720597519579314" lon="9.528541076822295"><ele>896.3333333333334</ele><time>2026-04-22T09:08:23Z</time></trkpt><trkpt lat="44.720637221939434" lon="9.52843980642946"><ele>899.0</ele><time>2026-04-22T09:08:24Z</time></trkpt><trkpt lat="44.72070183898031" lon="9.52828546588703"><ele>901.5000000000001</ele><time>2026-04-22T09:08:26Z</time></trkpt><trkpt lat="44.720768474935696" lon="9.528217286834698"><ele>904.0</ele><time>2026-04-22T09:08:28Z</time></trkpt><trkpt lat="44.72083441204655" lon="9.528111257965517"><ele>906.5</ele><time>2026-04-22T09:08:30Z</time></trkpt><trkpt lat="44.72084578880497" lon="9.527996974813526"><ele>909.0</ele><time>2026-04-22T09:08:32Z</time></trkpt><trkpt lat="44.72082955774406" lon="9.527899971932438"><ele>911.5000000000001</ele><time>2026-04-22T09:08:32.999Z</time></trkpt><trkpt lat="44.720820945878316" lon="9.52778308213674"><ele>914.0</ele><time>2026-04-22T09:08:33.999Z</time></trkpt><trkpt lat="44.72084683862885" lon="9.527697996679862"><ele>916.3333333333334</ele><time>2026-04-22T09:08:34.999Z</time></trkpt><trkpt lat="44.720906363165746" lon="9.527608536558594"><ele>918.6666666666667</ele><time>2026-04-22T09:08:35.999Z</time></trkpt><trkpt lat="44.72095579701712" lon="9.52749707715079"><ele>921.0</ele><time>2026-04-22T09:08:36.999Z</time></trkpt><trkpt lat="44.720984940974105" lon="9.527410923450566"><ele>923.3333333333333</ele><time>2026-04-22T09:08:37.999Z</time></trkpt><trkpt lat="44.72099624244305" lon="9.527319002787697"><ele>925.6666666666666</ele><time>2026-04-22T09:08:38.999Z</time></trkpt><trkpt lat="44.72097622602524" lon="9.527230030924613"><ele>928.0</ele><time>2026-04-22T09:08:39.999Z</time></trkpt><trkpt lat="44.7209174545563" lon="9.527139627351964"><ele>928.0</ele><time>2026-04-22T09:08:40.999Z</time></trkpt><trkpt lat="44.72085187036108" lon="9.527063917494937"><ele>928.0</ele><time>2026-04-22T09:08:41.999Z</time></trkpt><trkpt lat="44.72086958543515" lon="9.526962710200443"><ele>928.0</ele><time>2026-04-22T09:08:43.999Z</time></trkpt><trkpt lat="44.72091533056493" lon="9.526852946134637"><ele>928.0</ele><time>2026-04-22T09:08:45.999Z</time></trkpt><trkpt lat="44.72102130472262" lon="9.52666915908516"><ele>928.0</ele><time>2026-04-22T09:08:46.999Z</time></trkpt><trkpt lat="44.72103046228365" lon="9.526577548515437"><ele>930.5999999999999</ele><time>2026-04-22T09:08:47.999Z</time></trkpt><trkpt lat="44.72103425715535" lon="9.526464416615179"><ele>933.1999999999999</ele><time>2026-04-22T09:08:48.999Z</time></trkpt><trkpt lat="44.72105487582989" lon="9.526336087735674"><ele>935.8</ele><time>2026-04-22T09:08:49.999Z</time></trkpt><trkpt lat="44.721053346647665" lon="9.52620537738932"><ele>938.4</ele><time>2026-04-22T09:08:50.999Z</time></trkpt><trkpt lat="44.72104394796423" lon="9.526038333128433"><ele>941.0</ele><time>2026-04-22T09:08:51.999Z</time></trkpt><trkpt lat="44.72105882018575" lon="9.52587349149271"><ele>944.8</ele><time>2026-04-22T09:08:52.999Z</time></trkpt><trkpt lat="44.72109347161974" lon="9.525714739552686"><ele>948.5999999999999</ele><time>2026-04-22T09:08:53.999Z</time></trkpt><trkpt lat="44.72111040401843" lon="9.525570585873016"><ele>952.4</ele><time>2026-04-22T09:08:54.999Z</time></trkpt><trkpt lat="44.721103843489544" lon="9.525429302357663"><ele>956.2</ele><time>2026-04-22T09:08:55.999Z</time></trkpt><trkpt lat="44.72110481867423" lon="9.525303877185832"><ele>960.0</ele><time>2026-04-22T09:08:56.999Z</time></trkpt><trkpt lat="44.721049153725374" lon="9.525248957788438"><ele>960.0</ele><time>2026-04-22T09:08:58.999Z</time></trkpt><trkpt lat="44.72099536972082" lon="9.525099396491953"><ele>960.0</ele><time>2026-04-22T09:09:00.999Z</time></trkpt><trkpt lat="44.72100479729049" lon="9.524998123340708"><ele>960.0</ele><time>2026-04-22T09:09:02.999Z</time></trkpt><trkpt lat="44.72104130561809" lon="9.524900420094584"><ele>960.0</ele><time>2026-04-22T09:09:05.999Z</time></trkpt><trkpt lat="44.72103930305917" lon="9.524786134956797"><ele>960.0</ele><time>2026-04-22T09:09:07.999Z</time></trkpt><trkpt lat="44.721031019408464" lon="9.524669431749228"><ele>960.0</ele><time>2026-04-22T09:09:10.999Z</time></trkpt><trkpt lat="44.721010956788554" lon="9.524535128387656"><ele>962.5</ele><time>2026-04-22T09:09:13.999Z</time></trkpt><trkpt lat="44.72100139519926" lon="9.524428284965339"><ele>965.0</ele><time>2026-04-22T09:09:14.999Z</time></trkpt><trkpt lat="44.72102477702507" lon="9.524332380517905"><ele>967.5</ele><time>2026-04-22T09:09:17.999Z</time></trkpt><trkpt lat="44.721028706925175" lon="9.524217296135987"><ele>970.0</ele><time>2026-04-22T09:09:19.999Z</time></trkpt><trkpt lat="44.72102356796936" lon="9.524096397993556"><ele>972.5</ele><time>2026-04-22T09:09:20.999Z</time></trkpt><trkpt lat="44.72103632156253" lon="9.523961935035347"><ele>975.0</ele><time>2026-04-22T09:09:21.999Z</time></trkpt><trkpt lat="44.72104517622081" lon="9.523851824466565"><ele>976.5</ele><time>2026-04-22T09:09:22.999Z</time></trkpt><trkpt lat="44.72110457528251" lon="9.523764738187696"><ele>978.0</ele><time>2026-04-22T09:09:24.999Z</time></trkpt><trkpt lat="44.721094756556504" lon="9.52364407272351"><ele>979.5</ele><time>2026-04-22T09:09:28.999Z</time></trkpt><trkpt lat="44.721076508625394" lon="9.52355123698808"><ele>981.0</ele><time>2026-04-22T09:09:31.999Z</time></trkpt><trkpt lat="44.721098297666146" lon="9.523458667315849"><ele>982.5</ele><time>2026-04-22T09:09:34.999Z</time></trkpt><trkpt lat="44.721149661213595" lon="9.52336205164363"><ele>984.0</ele><time>2026-04-22T09:09:38Z</time></trkpt><trkpt lat="44.72122173649315" lon="9.523319204913344"><ele>990.5</ele><time>2026-04-22T09:09:41Z</time></trkpt><trkpt lat="44.72159210600561" lon="9.523130729084498"><ele>997.0</ele><time>2026-04-22T09:09:45Z</time></trkpt><trkpt lat="44.721670954829406" lon="9.523176115372005"><ele>996.9999999999999</ele><time>2026-04-22T09:09:46Z</time></trkpt><trkpt lat="44.7217431691905" lon="9.523180455893542"><ele>997.0</ele><time>2026-04-22T09:09:47Z</time></trkpt><trkpt lat="44.72184253942404" lon="9.523165604967295"><ele>997.0</ele><time>2026-04-22T09:09:49Z</time></trkpt><trkpt lat="44.721899862603316" lon="9.523228854460333"><ele>997.0</ele><time>2026-04-22T09:09:51Z</time></trkpt><trkpt lat="44.72196754981458" lon="9.523306096897695"><ele>996.9999999999999</ele><time>2026-04-22T09:09:53Z</time></trkpt><trkpt lat="44.72200859849316" lon="9.52337529423979"><ele>997.0</ele><time>2026-04-22T09:09:56Z</time></trkpt><trkpt lat="44.72210270393998" lon="9.523401771048288"><ele>999.3333333333333</ele><time>2026-04-22T09:09:59Z</time></trkpt><trkpt lat="44.72222423855553" lon="9.523418340923094"><ele>1001.6666666666666</ele><time>2026-04-22T09:10:01Z</time></trkpt><trkpt lat="44.7222934345293" lon="9.523396483832226"><ele>1004.0</ele><time>2026-04-22T09:10:02Z</time></trkpt><trkpt lat="44.722356017446046" lon="9.523364668992437"><ele>1006.3333333333333</ele><time>2026-04-22T09:10:03Z</time></trkpt><trkpt lat="44.72242163005471" lon="9.523334693319482"><ele>1008.6666666666666</ele><time>2026-04-22T09:10:04Z</time></trkpt><trkpt lat="44.72246233327677" lon="9.523263779649495"><ele>1011.0</ele><time>2026-04-22T09:10:05Z</time></trkpt><trkpt lat="44.72256016001878" lon="9.523257532118718"><ele>1011.0</ele><time>2026-04-22T09:10:06Z</time></trkpt><trkpt lat="44.72265203871401" lon="9.523263551383014"><ele>1010.9999999999999</ele><time>2026-04-22T09:10:07Z</time></trkpt><trkpt lat="44.722734096782126" lon="9.523225618973902"><ele>1010.9999999999999</ele><time>2026-04-22T09:10:08Z</time></trkpt><trkpt lat="44.7228324368719" lon="9.523191132314214"><ele>1011.0</ele><time>2026-04-22T09:10:09Z</time></trkpt><trkpt lat="44.722912963421095" lon="9.523159706346501"><ele>1011.0</ele><time>2026-04-22T09:10:10Z</time></trkpt><trkpt lat="44.72294825690102" lon="9.523018888675514"><ele>1011.1999999999999</ele><time>2026-04-22T09:10:12Z</time></trkpt><trkpt lat="44.722963087998934" lon="9.522920324630723"><ele>1011.3999999999999</ele><time>2026-04-22T09:10:13Z</time></trkpt><trkpt lat="44.72299169855882" lon="9.522775679526966"><ele>1011.6</ele><time>2026-04-22T09:10:14Z</time></trkpt><trkpt lat="44.72303311866329" lon="9.522630010190818"><ele>1011.8</ele><time>2026-04-22T09:10:15Z</time></trkpt><trkpt lat="44.7230839619051" lon="9.522493912316733"><ele>1012.0</ele><time>2026-04-22T09:10:16Z</time></trkpt><trkpt lat="44.7231355311929" lon="9.522434069628831"><ele>1014.0</ele><time>2026-04-22T09:10:17Z</time></trkpt><trkpt lat="44.723169280933035" lon="9.522278338713303"><ele>1016.0</ele><time>2026-04-22T09:10:19Z</time></trkpt><trkpt lat="44.723197650601136" lon="9.522152899633808"><ele>1018.0</ele><time>2026-04-22T09:10:20Z</time></trkpt><trkpt lat="44.72323342633569" lon="9.522034675500937"><ele>1020.0</ele><time>2026-04-22T09:10:21Z</time></trkpt><trkpt lat="44.72328259107629" lon="9.521961588352074"><ele>1022.0</ele><time>2026-04-22T09:10:22Z</time></trkpt><trkpt lat="44.72339483650827" lon="9.521850615723556"><ele>1023.8</ele><time>2026-04-22T09:10:24Z</time></trkpt><trkpt lat="44.7234410595546" lon="9.521741046010025"><ele>1025.6</ele><time>2026-04-22T09:10:25Z</time></trkpt><trkpt lat="44.72347580148761" lon="9.52161571897733"><ele>1027.3999999999999</ele><time>2026-04-22T09:10:27Z</time></trkpt><trkpt lat="44.723558288369304" lon="9.521570016331179"><ele>1029.2</ele><time>2026-04-22T09:10:29Z</time></trkpt><trkpt lat="44.723606244120326" lon="9.52149101659135"><ele>1031.0</ele><time>2026-04-22T09:10:31Z</time></trkpt><trkpt lat="44.72366790726628" lon="9.52132289202521"><ele>1033.75</ele><time>2026-04-22T09:10:34.999Z</time></trkpt><trkpt lat="44.7236465752709" lon="9.521090703500512"><ele>1036.5</ele><time>2026-04-22T09:10:36.999Z</time></trkpt><trkpt lat="44.72374164171015" lon="9.520993969002815"><ele>1039.25</ele><time>2026-04-22T09:10:39.999Z</time></trkpt><trkpt lat="44.72389665042602" lon="9.52096904935941"><ele>1042.0</ele><time>2026-04-22T09:10:42.999Z</time></trkpt><trkpt lat="44.7239889599673" lon="9.520932360252166"><ele>1042.0</ele><time>2026-04-22T09:10:43.999Z</time></trkpt><trkpt lat="44.724064721885405" lon="9.520749233318222"><ele>1042.0</ele><time>2026-04-22T09:10:45.999Z</time></trkpt><trkpt lat="44.7241398501801" lon="9.52064751155928"><ele>1042.0</ele><time>2026-04-22T09:10:47.999Z</time></trkpt><trkpt lat="44.72422724478732" lon="9.520657251499877"><ele>1042.0</ele><time>2026-04-22T09:10:48.999Z</time></trkpt><trkpt lat="44.72432165836266" lon="9.520610101008991"><ele>1042.0</ele><time>2026-04-22T09:10:53.999Z</time></trkpt><trkpt lat="44.72439246796826" lon="9.52054175845304"><ele>1041.8</ele><time>2026-04-22T09:10:55.999Z</time></trkpt><trkpt lat="44.72439733613864" lon="9.520427420969826"><ele>1041.6</ele><time>2026-04-22T09:10:58.999Z</time></trkpt><trkpt lat="44.72438100389708" lon="9.520329132718166"><ele>1041.3999999999999</ele><time>2026-04-22T09:11:00.999Z</time></trkpt><trkpt lat="44.72440058730952" lon="9.520128747848398"><ele>1041.2</ele><time>2026-04-22T09:11:01.999Z</time></trkpt><trkpt lat="44.72439053291449" lon="9.520021490241582"><ele>1041.0</ele><time>2026-04-22T09:11:02.999Z</time></trkpt><trkpt lat="44.72438039234724" lon="9.519882678465455"><ele>1042.25</ele><time>2026-04-22T09:11:03.999Z</time></trkpt><trkpt lat="44.72435998181959" lon="9.519732174632415"><ele>1043.5</ele><time>2026-04-22T09:11:04.999Z</time></trkpt><trkpt lat="44.72431776352179" lon="9.519565794680314"><ele>1044.75</ele><time>2026-04-22T09:11:05.999Z</time></trkpt><trkpt lat="44.72426735725661" lon="9.519407409942668"><ele>1046.0</ele><time>2026-04-22T09:11:06.999Z</time></trkpt><trkpt lat="44.724210212256494" lon="9.519262157359814"><ele>1047.0</ele><time>2026-04-22T09:11:07.999Z</time></trkpt><trkpt lat="44.72414791795254" lon="9.519107497250824"><ele>1048.0</ele><time>2026-04-22T09:11:08.999Z</time></trkpt><trkpt lat="44.72408109455809" lon="9.518962787261383"><ele>1049.0</ele><time>2026-04-22T09:11:09.999Z</time></trkpt><trkpt lat="44.7240113333833" lon="9.518818203063942"><ele>1050.0</ele><time>2026-04-22T09:11:10.999Z</time></trkpt><trkpt lat="44.723947318810666" lon="9.518668322243027"><ele>1050.0</ele><time>2026-04-22T09:11:11.999Z</time></trkpt><trkpt lat="44.72389460178826" lon="9.51850759871161"><ele>1050.0</ele><time>2026-04-22T09:11:12.999Z</time></trkpt><trkpt lat="44.72384117631442" lon="9.518346137487987"><ele>1050.0</ele><time>2026-04-22T09:11:13.999Z</time></trkpt><trkpt lat="44.723778297298026" lon="9.518187072610262"><ele>1050.0</ele><time>2026-04-22T09:11:14.999Z</time></trkpt><trkpt lat="44.723699528506145" lon="9.518031859718864"><ele>1047.75</ele><time>2026-04-22T09:11:15.999Z</time></trkpt><trkpt lat="44.72358656764926" lon="9.517875534338506"><ele>1045.5</ele><time>2026-04-22T09:11:16.999Z</time></trkpt><trkpt lat="44.72347530406452" lon="9.517769583525437"><ele>1043.25</ele><time>2026-04-22T09:11:17.999Z</time></trkpt><trkpt lat="44.72334960192132" lon="9.517675314225565"><ele>1041.0</ele><time>2026-04-22T09:11:18.999Z</time></trkpt><trkpt lat="44.72321138396552" lon="9.517585360086018"><ele>1041.0</ele><time>2026-04-22T09:11:19.999Z</time></trkpt><trkpt lat="44.72306673127337" lon="9.517555610261004"><ele>1041.0</ele><time>2026-04-22T09:11:20.999Z</time></trkpt><trkpt lat="44.72294379307819" lon="9.51750195192908"><ele>1041.0</ele><time>2026-04-22T09:11:21.999Z</time></trkpt><trkpt lat="44.722814751177715" lon="9.517483463297015"><ele>1041.0</ele><time>2026-04-22T09:11:22.999Z</time></trkpt><trkpt lat="44.72268195974256" lon="9.517467256511589"><ele>1041.5</ele><time>2026-04-22T09:11:23.999Z</time></trkpt><trkpt lat="44.722539590361755" lon="9.517457028179535"><ele>1042.0</ele><time>2026-04-22T09:11:24.999Z</time></trkpt><trkpt lat="44.72238348845729" lon="9.517428843668299"><ele>1042.5</ele><time>2026-04-22T09:11:25.999Z</time></trkpt><trkpt lat="44.72225228131793" lon="9.517403856467503"><ele>1043.0</ele><time>2026-04-22T09:11:26.999Z</time></trkpt><trkpt lat="44.7221195951755" lon="9.517377615389758"><ele>1043.0</ele><time>2026-04-22T09:11:27.999Z</time></trkpt><trkpt lat="44.72196817507394" lon="9.51735645949523"><ele>1043.0</ele><time>2026-04-22T09:11:28.999Z</time></trkpt><trkpt lat="44.72185140023134" lon="9.517341463086854"><ele>1043.0</ele><time>2026-04-22T09:11:29.999Z</time></trkpt><trkpt lat="44.72172755314114" lon="9.517298106766"><ele>1043.0</ele><time>2026-04-22T09:11:31.999Z</time></trkpt><trkpt lat="44.721694090405514" lon="9.517198174306785"><ele>1043.8333333333335</ele><time>2026-04-22T09:11:32.999Z</time></trkpt><trkpt lat="44.72161451801062" lon="9.51716057009156"><ele>1044.6666666666667</ele><time>2026-04-22T09:11:33.999Z</time></trkpt><trkpt lat="44.721530167696855" lon="9.517135946055165"><ele>1045.5</ele><time>2026-04-22T09:11:34.999Z</time></trkpt><trkpt lat="44.72144419963313" lon="9.517131835795368"><ele>1046.3333333333333</ele><time>2026-04-22T09:11:35.999Z</time></trkpt><trkpt lat="44.721370049579114" lon="9.517139953721491"><ele>1047.1666666666665</ele><time>2026-04-22T09:11:36.999Z</time></trkpt><trkpt lat="44.721297756144466" lon="9.517141717647792"><ele>1048.0</ele><time>2026-04-22T09:11:37.999Z</time></trkpt><trkpt lat="44.721211692826614" lon="9.517146566287469"><ele>1048.0</ele><time>2026-04-22T09:11:38.999Z</time></trkpt><trkpt lat="44.721128581031635" lon="9.517148929893125"><ele>1048.0</ele><time>2026-04-22T09:11:39.999Z</time></trkpt><trkpt lat="44.72103919525223" lon="9.517143151798658"><ele>1048.0</ele><time>2026-04-22T09:11:40.999Z</time></trkpt><trkpt lat="44.72096046752279" lon="9.517121362411537"><ele>1048.0</ele><time>2026-04-22T09:11:41.999Z</time></trkpt><trkpt lat="44.7208653857699" lon="9.517095167313226"><ele>1048.0</ele><time>2026-04-22T09:11:42.999Z</time></trkpt><trkpt lat="44.72078297084911" lon="9.517013418911425"><ele>1048.5</ele><time>2026-04-22T09:11:44Z</time></trkpt><trkpt lat="44.72071841011627" lon="9.516954067603434"><ele>1049.0</ele><time>2026-04-22T09:11:45Z</time></trkpt><trkpt lat="44.72063371094705" lon="9.516847890799497"><ele>1049.5</ele><time>2026-04-22T09:11:47Z</time></trkpt><trkpt lat="44.72059284595882" lon="9.516775563898644"><ele>1050.0</ele><time>2026-04-22T09:11:48Z</time></trkpt><trkpt lat="44.720557204614714" lon="9.516695016652902"><ele>1050.5</ele><time>2026-04-22T09:11:49Z</time></trkpt><trkpt lat="44.720525066724015" lon="9.516613380210762"><ele>1051.0</ele><time>2026-04-22T09:11:52Z</time></trkpt><trkpt lat="44.720557328226256" lon="9.516699450833006"><ele>1051.0</ele><time>2026-04-22T09:12:00Z</time></trkpt><trkpt lat="44.720546801539435" lon="9.516836288667669"><ele>1051.0</ele><time>2026-04-22T09:12:01Z</time></trkpt><trkpt lat="44.72061179057918" lon="9.516933924296534"><ele>1051.0</ele><time>2026-04-22T09:12:02Z</time></trkpt><trkpt lat="44.72069477425102" lon="9.517031912643128"><ele>1051.0</ele><time>2026-04-22T09:12:03Z</time></trkpt><trkpt lat="44.72078904436123" lon="9.517101124473239"><ele>1051.0</ele><time>2026-04-22T09:12:04Z</time></trkpt><trkpt lat="44.72088233800767" lon="9.517153081422164"><ele>1050.3999999999999</ele><time>2026-04-22T09:12:05Z</time></trkpt><trkpt lat="44.72097975080364" lon="9.517189107256975"><ele>1049.8</ele><time>2026-04-22T09:12:06Z</time></trkpt><trkpt lat="44.721088214568105" lon="9.517207501291264"><ele>1049.1999999999998</ele><time>2026-04-22T09:12:07Z</time></trkpt><trkpt lat="44.72119920220949" lon="9.517209428534533"><ele>1048.6</ele><time>2026-04-22T09:12:08Z</time></trkpt><trkpt lat="44.721308926585984" lon="9.517175312772673"><ele>1048.0</ele><time>2026-04-22T09:12:09Z</time></trkpt><trkpt lat="44.72140739570838" lon="9.517186813946035"><ele>1048.0</ele><time>2026-04-22T09:12:10Z</time></trkpt><trkpt lat="44.72149950717054" lon="9.517182775653827"><ele>1048.0</ele><time>2026-04-22T09:12:11Z</time></trkpt><trkpt lat="44.72159668296003" lon="9.517214536313233"><ele>1048.0</ele><time>2026-04-22T09:12:12Z</time></trkpt><trkpt lat="44.72169231525258" lon="9.51727228785357"><ele>1048.0</ele><time>2026-04-22T09:12:13Z</time></trkpt><trkpt lat="44.72178980818799" lon="9.517323133200565"><ele>1048.0</ele><time>2026-04-22T09:12:14Z</time></trkpt><trkpt lat="44.72188934349637" lon="9.517340158582318"><ele>1047.0</ele><time>2026-04-22T09:12:15Z</time></trkpt><trkpt lat="44.72197391977332" lon="9.517388048115537"><ele>1046.0</ele><time>2026-04-22T09:12:16Z</time></trkpt><trkpt lat="44.72208715678424" lon="9.517418846626043"><ele>1045.0</ele><time>2026-04-22T09:12:18Z</time></trkpt><trkpt lat="44.72216197126837" lon="9.51743098522834"><ele>1044.0</ele><time>2026-04-22T09:12:21Z</time></trkpt><trkpt lat="44.722232335736024" lon="9.517422501767781"><ele>1043.0</ele><time>2026-04-22T09:12:28Z</time></trkpt><trkpt lat="44.722271960520146" lon="9.517172110539411"><ele>1043.0</ele><time>2026-04-22T09:12:30.999Z</time></trkpt><trkpt lat="44.722301072525894" lon="9.517090548942065"><ele>1043.0</ele><time>2026-04-22T09:12:31.999Z</time></trkpt><trkpt lat="44.722329517579276" lon="9.51742888206866"><ele>1043.0</ele><time>2026-04-22T09:12:32.999Z</time></trkpt><trkpt lat="44.72238432813715" lon="9.516905347449871"><ele>1040.8</ele><time>2026-04-22T09:12:33.999Z</time></trkpt><trkpt lat="44.722481126658984" lon="9.51685631624711"><ele>1038.6</ele><time>2026-04-22T09:12:35.999Z</time></trkpt><trkpt lat="44.72255129147086" lon="9.516822875432808"><ele>1036.4</ele><time>2026-04-22T09:12:36.999Z</time></trkpt><trkpt lat="44.72263110638075" lon="9.51671559098883"><ele>1034.2</ele><time>2026-04-22T09:12:38.999Z</time></trkpt><trkpt lat="44.72267930769673" lon="9.516578286840021"><ele>1032.0</ele><time>2026-04-22T09:12:40.999Z</time></trkpt><trkpt lat="44.72273725714626" lon="9.516491013274694"><ele>1030.2</ele><time>2026-04-22T09:12:42.999Z</time></trkpt><trkpt lat="44.722821445975136" lon="9.51649627795676"><ele>1028.4</ele><time>2026-04-22T09:12:44.999Z</time></trkpt><trkpt lat="44.722880688097455" lon="9.51653890513107"><ele>1026.6</ele><time>2026-04-22T09:12:46.999Z</time></trkpt><trkpt lat="44.7229643088322" lon="9.51650245027369"><ele>1024.8</ele><time>2026-04-22T09:12:49.999Z</time></trkpt><trkpt lat="44.723047609626065" lon="9.51632978519147"><ele>1023.0</ele><time>2026-04-22T09:12:51.999Z</time></trkpt><trkpt lat="44.72307735576798" lon="9.516206996398797"><ele>1020.6666666666666</ele><time>2026-04-22T09:12:52.999Z</time></trkpt><trkpt lat="44.72312990399087" lon="9.516109242126332"><ele>1018.3333333333333</ele><time>2026-04-22T09:12:53.999Z</time></trkpt><trkpt lat="44.72315434894433" lon="9.516003977917336"><ele>1016.0</ele><time>2026-04-22T09:12:55.999Z</time></trkpt><trkpt lat="44.72317736552694" lon="9.515900002340766"><ele>1013.6666666666666</ele><time>2026-04-22T09:12:57.999Z</time></trkpt><trkpt lat="44.723174198905696" lon="9.515787972141176"><ele>1011.3333333333333</ele><time>2026-04-22T09:12:59.999Z</time></trkpt><trkpt lat="44.72321923510889" lon="9.515713983700149"><ele>1009.0</ele><time>2026-04-22T09:13:01.999Z</time></trkpt><trkpt lat="44.72326821845427" lon="9.51559307657022"><ele>1008.9999999999999</ele><time>2026-04-22T09:13:03.999Z</time></trkpt><trkpt lat="44.723299876534874" lon="9.515445656220649"><ele>1009.0</ele><time>2026-04-22T09:13:06.999Z</time></trkpt><trkpt lat="44.723299976987825" lon="9.515348356351344"><ele>1009.0</ele><time>2026-04-22T09:13:07.999Z</time></trkpt><trkpt lat="44.723275877540935" lon="9.515182497855985"><ele>1009.0</ele><time>2026-04-22T09:13:08.999Z</time></trkpt><trkpt lat="44.723269753271126" lon="9.515089819672863"><ele>1008.9999999999999</ele><time>2026-04-22T09:13:09.999Z</time></trkpt><trkpt lat="44.72329104597503" lon="9.514999222735376"><ele>1009.0</ele><time>2026-04-22T09:13:10.999Z</time></trkpt><trkpt lat="44.72333042571728" lon="9.514885214807697"><ele>1007.1666666666666</ele><time>2026-04-22T09:13:11.999Z</time></trkpt><trkpt lat="44.72335587166666" lon="9.514768446208418"><ele>1005.3333333333333</ele><time>2026-04-22T09:13:12.999Z</time></trkpt><trkpt lat="44.723388142817676" lon="9.514666487997975"><ele>1003.5</ele><time>2026-04-22T09:13:13.999Z</time></trkpt><trkpt lat="44.72344206709165" lon="9.514601761825881"><ele>1001.6666666666667</ele><time>2026-04-22T09:13:14.999Z</time></trkpt><trkpt lat="44.72351310710406" lon="9.514557419968426"><ele>999.8333333333334</ele><time>2026-04-22T09:13:15.999Z</time></trkpt><trkpt lat="44.723581031024054" lon="9.514511934094632"><ele>998.0</ele><time>2026-04-22T09:13:16.999Z</time></trkpt><trkpt lat="44.723681339279864" lon="9.51440731768624"><ele>994.8333333333334</ele><time>2026-04-22T09:13:18.999Z</time></trkpt><trkpt lat="44.723774069378706" lon="9.514347484307066"><ele>991.6666666666667</ele><time>2026-04-22T09:13:20.999Z</time></trkpt><trkpt lat="44.72381762777823" lon="9.514267811948224"><ele>988.5</ele><time>2026-04-22T09:13:23.999Z</time></trkpt><trkpt lat="44.72385801777918" lon="9.514198729321988"><ele>985.3333333333333</ele><time>2026-04-22T09:13:26.999Z</time></trkpt><trkpt lat="44.72392134125483" lon="9.514109538257681"><ele>982.1666666666666</ele><time>2026-04-22T09:13:29.999Z</time></trkpt><trkpt lat="44.72396305000679" lon="9.51404162065579"><ele>979.0</ele><time>2026-04-22T09:13:30.999Z</time></trkpt><trkpt lat="44.72399351384095" lon="9.513959149382202"><ele>978.9999999999999</ele><time>2026-04-22T09:13:32.999Z</time></trkpt><trkpt lat="44.72401829527614" lon="9.513875852885914"><ele>979.0</ele><time>2026-04-22T09:13:34.999Z</time></trkpt><trkpt lat="44.72404579401401" lon="9.513770969608254"><ele>979.0</ele><time>2026-04-22T09:13:36.999Z</time></trkpt><trkpt lat="44.72407892859492" lon="9.513691426445234"><ele>979.0</ele><time>2026-04-22T09:13:37.999Z</time></trkpt><trkpt lat="44.724146638160505" lon="9.51358129642983"><ele>978.9999999999999</ele><time>2026-04-22T09:13:39.999Z</time></trkpt><trkpt lat="44.72419912469667" lon="9.513485682259493"><ele>979.0</ele><time>2026-04-22T09:13:41.999Z</time></trkpt><trkpt lat="44.72422608796222" lon="9.513210563185893"><ele>976.6666666666666</ele><time>2026-04-22T09:13:45.999Z</time></trkpt><trkpt lat="44.724217852410106" lon="9.513121263644837"><ele>974.3333333333333</ele><time>2026-04-22T09:13:48.999Z</time></trkpt><trkpt lat="44.72427102404126" lon="9.513043323744654"><ele>972.0</ele><time>2026-04-22T09:13:52Z</time></trkpt><trkpt lat="44.72433424845779" lon="9.513018938010115"><ele>969.6666666666667</ele><time>2026-04-22T09:13:54Z</time></trkpt><trkpt lat="44.724407135775294" lon="9.513011527249027"><ele>967.3333333333334</ele><time>2026-04-22T09:13:56Z</time></trkpt><trkpt lat="44.72449141297519" lon="9.512983347056466"><ele>965.0</ele><time>2026-04-22T09:13:59Z</time></trkpt><trkpt lat="44.72455668108144" lon="9.512898574919816"><ele>960.1666666666667</ele><time>2026-04-22T09:14:02Z</time></trkpt><trkpt lat="44.72461481019812" lon="9.512821512858627"><ele>955.3333333333334</ele><time>2026-04-22T09:14:04Z</time></trkpt><trkpt lat="44.7246208638301" lon="9.51268910003382"><ele>950.5</ele><time>2026-04-22T09:14:06Z</time></trkpt><trkpt lat="44.72461707251665" lon="9.512584306226755"><ele>945.6666666666667</ele><time>2026-04-22T09:14:08Z</time></trkpt><trkpt lat="44.72467539428548" lon="9.512527947890105"><ele>940.8333333333334</ele><time>2026-04-22T09:14:10Z</time></trkpt><trkpt lat="44.72473845574984" lon="9.512505187557313"><ele>936.0</ele><time>2026-04-22T09:14:12Z</time></trkpt><trkpt lat="44.72482113182251" lon="9.51245992859049"><ele>936.0</ele><time>2026-04-22T09:14:18Z</time></trkpt><trkpt lat="44.72488500275671" lon="9.512456286020326"><ele>936.0</ele><time>2026-04-22T09:14:21Z</time></trkpt><trkpt lat="44.72497537801532" lon="9.512561601429455"><ele>936.0</ele><time>2026-04-22T09:14:23Z</time></trkpt><trkpt lat="44.72502216354844" lon="9.512629678302396"><ele>936.0</ele><time>2026-04-22T09:14:24Z</time></trkpt><trkpt lat="44.72509299412974" lon="9.512711731498067"><ele>936.0</ele><time>2026-04-22T09:14:26Z</time></trkpt><trkpt lat="44.72518915627527" lon="9.512771845727958"><ele>936.0</ele><time>2026-04-22T09:14:28Z</time></trkpt><trkpt lat="44.72529477920988" lon="9.512743402960322"><ele>933.8333333333334</ele><time>2026-04-22T09:14:30Z</time></trkpt><trkpt lat="44.72537482697127" lon="9.51274201194766"><ele>931.6666666666667</ele><time>2026-04-22T09:14:31Z</time></trkpt><trkpt lat="44.72545718220616" lon="9.512738556911486"><ele>929.5</ele><time>2026-04-22T09:14:32Z</time></trkpt><trkpt lat="44.72552718577811" lon="9.51275153257257"><ele>927.3333333333334</ele><time>2026-04-22T09:14:32.999Z</time></trkpt><trkpt lat="44.72563240812475" lon="9.512796447316518"><ele>925.1666666666667</ele><time>2026-04-22T09:14:34.999Z</time></trkpt><trkpt lat="44.72569726659476" lon="9.512847065989277"><ele>923.0</ele><time>2026-04-22T09:14:35.999Z</time></trkpt><trkpt lat="44.72578285436724" lon="9.512902266592457"><ele>923.0000000000001</ele><time>2026-04-22T09:14:36.999Z</time></trkpt><trkpt lat="44.72584305457111" lon="9.51293110214098"><ele>923.0</ele><time>2026-04-22T09:14:37.999Z</time></trkpt><trkpt lat="44.72596848988039" lon="9.5128764184113"><ele>923.0</ele><time>2026-04-22T09:14:39.999Z</time></trkpt><trkpt lat="44.72604076761917" lon="9.512806421996965"><ele>923.0</ele><time>2026-04-22T09:14:40.999Z</time></trkpt><trkpt lat="44.7261248040408" lon="9.512747071086851"><ele>923.0000000000001</ele><time>2026-04-22T09:14:41.999Z</time></trkpt><trkpt lat="44.726185181248525" lon="9.512700581239125"><ele>923.0</ele><time>2026-04-22T09:14:42.999Z</time></trkpt><trkpt lat="44.72628401806456" lon="9.512632022901276"><ele>919.3333333333334</ele><time>2026-04-22T09:14:44.999Z</time></trkpt><trkpt lat="44.7264010080805" lon="9.512388718665512"><ele>915.6666666666667</ele><time>2026-04-22T09:14:46.999Z</time></trkpt><trkpt lat="44.726513704497165" lon="9.512474372313886"><ele>912.0</ele><time>2026-04-22T09:14:47.999Z</time></trkpt><trkpt lat="44.726505731273605" lon="9.512804972886462"><ele>912.0</ele><time>2026-04-22T09:14:49.999Z</time></trkpt><trkpt lat="44.726479924294274" lon="9.512512315032442"><ele>912.0</ele><time>2026-04-22T09:14:52.999Z</time></trkpt><trkpt lat="44.72641489104323" lon="9.512400656979981"><ele>912.0</ele><time>2026-04-22T09:14:53.999Z</time></trkpt><trkpt lat="44.726325499689565" lon="9.512336828917151"><ele>912.0</ele><time>2026-04-22T09:14:54.999Z</time></trkpt><trkpt lat="44.726217467808254" lon="9.51234451070381"><ele>912.0</ele><time>2026-04-22T09:14:55.999Z</time></trkpt><trkpt lat="44.72610075220748" lon="9.512345515265668"><ele>912.0</ele><time>2026-04-22T09:14:56.999Z</time></trkpt><trkpt lat="44.725996788437904" lon="9.512272702198958"><ele>912.0</ele><time>2026-04-22T09:14:57.999Z</time></trkpt><trkpt lat="44.72594837558999" lon="9.512099334312854"><ele>912.0</ele><time>2026-04-22T09:14:58.999Z</time></trkpt><trkpt lat="44.72586660700111" lon="9.511988390189552"><ele>912.2</ele><time>2026-04-22T09:14:59.999Z</time></trkpt><trkpt lat="44.725797877545595" lon="9.511880269389383"><ele>912.4000000000001</ele><time>2026-04-22T09:15:00.999Z</time></trkpt><trkpt lat="44.72576301731295" lon="9.511769869318469"><ele>912.5999999999999</ele><time>2026-04-22T09:15:01.999Z</time></trkpt><trkpt lat="44.72574992896539" lon="9.511640228553789"><ele>912.8</ele><time>2026-04-22T09:15:02.999Z</time></trkpt><trkpt lat="44.72581656403368" lon="9.511510616173561"><ele>913.0</ele><time>2026-04-22T09:15:03.999Z</time></trkpt><trkpt lat="44.725864148310656" lon="9.511353062515646"><ele>912.25</ele><time>2026-04-22T09:15:04.999Z</time></trkpt><trkpt lat="44.72589987743186" lon="9.511174664602114"><ele>911.5</ele><time>2026-04-22T09:15:05.999Z</time></trkpt><trkpt lat="44.72595277977689" lon="9.510994285698603"><ele>910.75</ele><time>2026-04-22T09:15:06.999Z</time></trkpt><trkpt lat="44.725996583361976" lon="9.510794777891954"><ele>910.0</ele><time>2026-04-22T09:15:07.999Z</time></trkpt><trkpt lat="44.72604017754872" lon="9.510590377552218"><ele>903.75</ele><time>2026-04-22T09:15:08.999Z</time></trkpt><trkpt lat="44.7260867029428" lon="9.510389261807962"><ele>897.5</ele><time>2026-04-22T09:15:09.999Z</time></trkpt><trkpt lat="44.72612957154471" lon="9.510212078586157"><ele>891.25</ele><time>2026-04-22T09:15:10.999Z</time></trkpt><trkpt lat="44.72616103794934" lon="9.510032042715801"><ele>885.0</ele><time>2026-04-22T09:15:11.999Z</time></trkpt><trkpt lat="44.72618997376762" lon="9.509844102616078"><ele>885.0</ele><time>2026-04-22T09:15:12.999Z</time></trkpt><trkpt lat="44.72618118417135" lon="9.509629205176967"><ele>885.0</ele><time>2026-04-22T09:15:13.999Z</time></trkpt><trkpt lat="44.726151991276005" lon="9.509425087622043"><ele>885.0</ele><time>2026-04-22T09:15:14.999Z</time></trkpt><trkpt lat="44.726123391396555" lon="9.509217985704618"><ele>884.0</ele><time>2026-04-22T09:15:15.999Z</time></trkpt><trkpt lat="44.72608069695629" lon="9.509028147060299"><ele>883.0</ele><time>2026-04-22T09:15:16.999Z</time></trkpt><trkpt lat="44.72602737356436" lon="9.508842589652334"><ele>882.0</ele><time>2026-04-22T09:15:17.999Z</time></trkpt><trkpt lat="44.726008667798844" lon="9.508701337497753"><ele>881.0</ele><time>2026-04-22T09:15:18.999Z</time></trkpt><trkpt lat="44.7260782478855" lon="9.508560900310915"><ele>880.0</ele><time>2026-04-22T09:15:19.999Z</time></trkpt><trkpt lat="44.72616615944734" lon="9.508418842507133"><ele>879.0</ele><time>2026-04-22T09:15:20.999Z</time></trkpt><trkpt lat="44.726236946387324" lon="9.508293459861093"><ele>878.0</ele><time>2026-04-22T09:15:21.999Z</time></trkpt><trkpt lat="44.72624493184848" lon="9.508140473857173"><ele>877.0</ele><time>2026-04-22T09:15:22.999Z</time></trkpt><trkpt lat="44.726202293052054" lon="9.507981165305353"><ele>876.0</ele><time>2026-04-22T09:15:23.999Z</time></trkpt><trkpt lat="44.72611305645312" lon="9.507819837005911"><ele>875.0</ele><time>2026-04-22T09:15:24.999Z</time></trkpt><trkpt lat="44.72602209907594" lon="9.507668971516178"><ele>874.0</ele><time>2026-04-22T09:15:25.999Z</time></trkpt><trkpt lat="44.725966958850385" lon="9.507483896406965"><ele>873.0</ele><time>2026-04-22T09:15:26.999Z</time></trkpt><trkpt lat="44.72596999374157" lon="9.507257935674152"><ele>878.0</ele><time>2026-04-22T09:15:27.999Z</time></trkpt><trkpt lat="44.725987780449486" lon="9.50704924483239"><ele>883.0</ele><time>2026-04-22T09:15:28.999Z</time></trkpt><trkpt lat="44.72599350353355" lon="9.506844439337423"><ele>888.0</ele><time>2026-04-22T09:15:29.999Z</time></trkpt><trkpt lat="44.72598119426414" lon="9.506637874647055"><ele>893.0</ele><time>2026-04-22T09:15:30.999Z</time></trkpt><trkpt lat="44.725968881631445" lon="9.506439994133554"><ele>893.0</ele><time>2026-04-22T09:15:31.999Z</time></trkpt><trkpt lat="44.725961328729426" lon="9.506251348997868"><ele>893.0</ele><time>2026-04-22T09:15:32.999Z</time></trkpt><trkpt lat="44.725985264258526" lon="9.506086590971778"><ele>893.0</ele><time>2026-04-22T09:15:33.999Z</time></trkpt><trkpt lat="44.726053133802374" lon="9.505934669056671"><ele>893.0</ele><time>2026-04-22T09:15:34.999Z</time></trkpt><trkpt lat="44.72615210669887" lon="9.505804280395992"><ele>889.0</ele><time>2026-04-22T09:15:35.999Z</time></trkpt><trkpt lat="44.72623076004188" lon="9.505676112660876"><ele>885.0</ele><time>2026-04-22T09:15:36.999Z</time></trkpt><trkpt lat="44.726266866966064" lon="9.5055472160877"><ele>881.0</ele><time>2026-04-22T09:15:37.999Z</time></trkpt><trkpt lat="44.72628031830212" lon="9.505411395482206"><ele>877.0</ele><time>2026-04-22T09:15:38.999Z</time></trkpt><trkpt lat="44.72628523302102" lon="9.505309894319518"><ele>873.0</ele><time>2026-04-22T09:15:39.999Z</time></trkpt><trkpt lat="44.726314265258694" lon="9.50522922500186"><ele>873.0</ele><time>2026-04-22T09:15:41.999Z</time></trkpt><trkpt lat="44.7262605958986" lon="9.505289904302005"><ele>873.0</ele><time>2026-04-22T09:15:57Z</time></trkpt><trkpt lat="44.72621925358173" lon="9.50541411964108"><ele>873.0</ele><time>2026-04-22T09:15:59Z</time></trkpt><trkpt lat="44.72617603402996" lon="9.505485610958464"><ele>873.0</ele><time>2026-04-22T09:16:00Z</time></trkpt><trkpt lat="44.7261761176694" lon="9.505649106999623"><ele>873.0</ele><time>2026-04-22T09:16:02Z</time></trkpt><trkpt lat="44.72612382233225" lon="9.505764985325511"><ele>873.0</ele><time>2026-04-22T09:16:04Z</time></trkpt><trkpt lat="44.72606286157897" lon="9.505829971929687"><ele>884.0</ele><time>2026-04-22T09:16:06Z</time></trkpt><trkpt lat="44.72576820095069" lon="9.505505195414628"><ele>895.0</ele><time>2026-04-22T09:16:07Z</time></trkpt><trkpt lat="44.72571461490995" lon="9.505587337150878"><ele>894.9999999999999</ele><time>2026-04-22T09:16:11Z</time></trkpt><trkpt lat="44.72566721426938" lon="9.505671245920276"><ele>895.0</ele><time>2026-04-22T09:16:13Z</time></trkpt><trkpt lat="44.72562638240421" lon="9.505765759356235"><ele>895.0</ele><time>2026-04-22T09:16:15Z</time></trkpt><trkpt lat="44.72558005571518" lon="9.50584052663485"><ele>895.0</ele><time>2026-04-22T09:16:16Z</time></trkpt><trkpt lat="44.72552305790493" lon="9.505955089521521"><ele>894.9999999999999</ele><time>2026-04-22T09:16:17Z</time></trkpt><trkpt lat="44.725472543313636" lon="9.506059396518951"><ele>895.0</ele><time>2026-04-22T09:16:18Z</time></trkpt><trkpt lat="44.725437276180564" lon="9.50616158011865"><ele>894.6666666666666</ele><time>2026-04-22T09:16:19Z</time></trkpt><trkpt lat="44.72540595738077" lon="9.506311741253311"><ele>894.3333333333333</ele><time>2026-04-22T09:16:21Z</time></trkpt><trkpt lat="44.725391305474716" lon="9.50642437004361"><ele>894.0</ele><time>2026-04-22T09:16:22Z</time></trkpt><trkpt lat="44.72537252907187" lon="9.506515900923636"><ele>893.6666666666667</ele><time>2026-04-22T09:16:23Z</time></trkpt><trkpt lat="44.72529181409162" lon="9.506578640994869"><ele>893.3333333333334</ele><time>2026-04-22T09:16:25Z</time></trkpt><trkpt lat="44.72522937671135" lon="9.506540934311"><ele>893.0</ele><time>2026-04-22T09:16:27Z</time></trkpt><trkpt lat="44.72513527895014" lon="9.506486857279414"><ele>897.0000000000001</ele><time>2026-04-22T09:16:30Z</time></trkpt><trkpt lat="44.72506758408115" lon="9.506530317453654"><ele>901.0</ele><time>2026-04-22T09:16:33.999Z</time></trkpt><trkpt lat="44.725004334067386" lon="9.506602883636962"><ele>905.0</ele><time>2026-04-22T09:16:36.999Z</time></trkpt><trkpt lat="44.72496387474102" lon="9.506671888358312"><ele>909.0</ele><time>2026-04-22T09:16:39.999Z</time></trkpt><trkpt lat="44.724888572157205" lon="9.50676381272646"><ele>913.0000000000001</ele><time>2026-04-22T09:16:56.999Z</time></trkpt><trkpt lat="44.724827165664465" lon="9.50672560467034"><ele>917.0</ele><time>2026-04-22T09:20:29.999Z</time></trkpt><trkpt lat="44.72489090452705" lon="9.506758069090347"><ele>917.0</ele><time>2026-04-22T09:21:18.999Z</time></trkpt><trkpt lat="44.72491767750794" lon="9.50665552970581"><ele>917.0</ele><time>2026-04-22T09:21:25.999Z</time></trkpt><trkpt lat="44.72494893471377" lon="9.506575660478624"><ele>917.0</ele><time>2026-04-22T09:22:14.999Z</time></trkpt><trkpt lat="44.72490399888038" lon="9.50664503513298"><ele>917.0</ele><time>2026-04-22T09:22:32.998Z</time></trkpt><trkpt lat="44.724877955238206" lon="9.506728190633721"><ele>917.0</ele><time>2026-04-22T09:22:43.997Z</time></trkpt><trkpt lat="44.7248451872049" lon="9.50680615385692"><ele>917.0</ele><time>2026-04-22T09:22:54.997Z</time></trkpt><trkpt lat="44.72487354812271" lon="9.506725738517579"><ele>917.0</ele><time>2026-04-22T09:24:09.996Z</time></trkpt><trkpt lat="44.72487883310978" lon="9.506637127975857"><ele>917.0000000000001</ele><time>2026-04-22T09:24:18.996Z</time></trkpt><trkpt lat="44.72490240187532" lon="9.50672995768141"><ele>917.0</ele><time>2026-04-22T09:25:49.999Z</time></trkpt><trkpt lat="44.724854874542736" lon="9.506803883225956"><ele>917.0</ele><time>2026-04-22T09:26:27.999Z</time></trkpt><trkpt lat="44.72483954329775" lon="9.506893500585923"><ele>917.0</ele><time>2026-04-22T09:26:42Z</time></trkpt><trkpt lat="44.7247893335892" lon="9.507011072692762"><ele>917.0000000000001</ele><time>2026-04-22T09:27:59Z</time></trkpt><trkpt lat="44.72469696055868" lon="9.507118520511876"><ele>917.0</ele><time>2026-04-22T09:28:01Z</time></trkpt><trkpt lat="44.72464521888487" lon="9.507185207329602"><ele>917.6666666666667</ele><time>2026-04-22T09:28:03Z</time></trkpt><trkpt lat="44.724589220813556" lon="9.507283282057745"><ele>918.3333333333334</ele><time>2026-04-22T09:28:05Z</time></trkpt><trkpt lat="44.724523894424145" lon="9.507311132941325"><ele>919.0</ele><time>2026-04-22T09:28:06Z</time></trkpt><trkpt lat="44.724436232842464" lon="9.507337449362279"><ele>919.6666666666667</ele><time>2026-04-22T09:28:08Z</time></trkpt><trkpt lat="44.72436575898749" lon="9.507359335092481"><ele>920.3333333333334</ele><time>2026-04-22T09:28:09Z</time></trkpt><trkpt lat="44.72424330657357" lon="9.50732343515085"><ele>921.0</ele><time>2026-04-22T09:28:11Z</time></trkpt><trkpt lat="44.72415841840184" lon="9.507332243886792"><ele>923.8333333333334</ele><time>2026-04-22T09:28:13Z</time></trkpt><trkpt lat="44.7240597167781" lon="9.507306370555625"><ele>926.6666666666667</ele><time>2026-04-22T09:28:15Z</time></trkpt><trkpt lat="44.72396716566667" lon="9.507279776763404"><ele>929.5</ele><time>2026-04-22T09:28:17Z</time></trkpt><trkpt lat="44.7238680007068" lon="9.50726026792255"><ele>932.3333333333334</ele><time>2026-04-22T09:28:19Z</time></trkpt><trkpt lat="44.723812458357806" lon="9.507217809309573"><ele>935.1666666666667</ele><time>2026-04-22T09:28:20Z</time></trkpt><trkpt lat="44.723770873736406" lon="9.507146567946263"><ele>938.0</ele><time>2026-04-22T09:28:25Z</time></trkpt><trkpt lat="44.723471319817335" lon="9.506745581595228"><ele>942.0000000000001</ele><time>2026-04-22T09:28:26Z</time></trkpt><trkpt lat="44.72345717143426" lon="9.506659181283165"><ele>946.0</ele><time>2026-04-22T09:28:27Z</time></trkpt><trkpt lat="44.723427574651296" lon="9.506523442235977"><ele>950.0</ele><time>2026-04-22T09:28:29Z</time></trkpt><trkpt lat="44.72338477492257" lon="9.506415984966363"><ele>954.0</ele><time>2026-04-22T09:28:31Z</time></trkpt><trkpt lat="44.72333936731682" lon="9.506342326355345"><ele>958.0000000000001</ele><time>2026-04-22T09:28:33.001Z</time></trkpt><trkpt lat="44.72328206794525" lon="9.506401472398672"><ele>962.0</ele><time>2026-04-22T09:28:35.001Z</time></trkpt><trkpt lat="44.72325079459074" lon="9.506494660750944"><ele>962.0000000000001</ele><time>2026-04-22T09:28:36.001Z</time></trkpt><trkpt lat="44.723199885943224" lon="9.506563985046967"><ele>962.0</ele><time>2026-04-22T09:28:37.001Z</time></trkpt><trkpt lat="44.72314652741334" lon="9.506619890903778"><ele>962.0</ele><time>2026-04-22T09:28:38.001Z</time></trkpt><trkpt lat="44.72308628458497" lon="9.506671542284243"><ele>962.0</ele><time>2026-04-22T09:28:39.001Z</time></trkpt><trkpt lat="44.72302112420549" lon="9.506715805086676"><ele>962.0000000000001</ele><time>2026-04-22T09:28:40.001Z</time></trkpt><trkpt lat="44.72294299605123" lon="9.506721762507734"><ele>962.0</ele><time>2026-04-22T09:28:41.001Z</time></trkpt><trkpt lat="44.72282671249557" lon="9.50671259605861"><ele>962.0000000000001</ele><time>2026-04-22T09:28:42.001Z</time></trkpt><trkpt lat="44.722770407336576" lon="9.506645760772853"><ele>962.0</ele><time>2026-04-22T09:28:43.001Z</time></trkpt><trkpt lat="44.72273866949088" lon="9.506498199540617"><ele>962.0</ele><time>2026-04-22T09:28:45.001Z</time></trkpt><trkpt lat="44.722705858282964" lon="9.506356806158477"><ele>962.0</ele><time>2026-04-22T09:28:50.001Z</time></trkpt><trkpt lat="44.722732836258096" lon="9.506274963453524"><ele>962.0000000000001</ele><time>2026-04-22T09:28:53.001Z</time></trkpt><trkpt lat="44.72273220928035" lon="9.506177268233644"><ele>962.0</ele><time>2026-04-22T09:28:59.001Z</time></trkpt><trkpt lat="44.722734121552875" lon="9.50601219901789"><ele>962.4285714285713</ele><time>2026-04-22T09:29:01.001Z</time></trkpt><trkpt lat="44.722725349194434" lon="9.505919765456557"><ele>962.8571428571429</ele><time>2026-04-22T09:29:02.001Z</time></trkpt><trkpt lat="44.72273204038205" lon="9.505811982663516"><ele>963.2857142857142</ele><time>2026-04-22T09:29:06Z</time></trkpt><trkpt lat="44.722728298011404" lon="9.505713659021644"><ele>963.7142857142857</ele><time>2026-04-22T09:29:10Z</time></trkpt><trkpt lat="44.72273100133956" lon="9.505620904642242"><ele>964.1428571428571</ele><time>2026-04-22T09:29:23Z</time></trkpt><trkpt lat="44.722687441135434" lon="9.505545382775281"><ele>964.5714285714286</ele><time>2026-04-22T09:29:52Z</time></trkpt><trkpt lat="44.72261686773444" lon="9.505576012111357"><ele>965.0</ele><time>2026-04-22T09:29:57Z</time></trkpt><trkpt lat="44.722510013299235" lon="9.505623859155502"><ele>967.6</ele><time>2026-04-22T09:30:25Z</time></trkpt><trkpt lat="44.72243450634985" lon="9.505719755776347"><ele>970.2</ele><time>2026-04-22T09:30:28Z</time></trkpt><trkpt lat="44.72235914994612" lon="9.505793263267515"><ele>972.8</ele><time>2026-04-22T09:30:30Z</time></trkpt><trkpt lat="44.72225513791684" lon="9.50580486406639"><ele>975.4</ele><time>2026-04-22T09:30:33Z</time></trkpt><trkpt lat="44.72218618996619" lon="9.505879370703969"><ele>978.0</ele><time>2026-04-22T09:30:35Z</time></trkpt><trkpt lat="44.72211489673967" lon="9.505935562422875"><ele>978.0</ele><time>2026-04-22T09:30:37Z</time></trkpt><trkpt lat="44.72203046971577" lon="9.506034971567722"><ele>978.0</ele><time>2026-04-22T09:30:39.001Z</time></trkpt><trkpt lat="44.72194008934059" lon="9.506130706983601"><ele>978.0</ele><time>2026-04-22T09:30:41.001Z</time></trkpt><trkpt lat="44.72184256346577" lon="9.506209909625067"><ele>978.0</ele><time>2026-04-22T09:30:43.001Z</time></trkpt><trkpt lat="44.72175919725398" lon="9.506239033751775"><ele>978.0</ele><time>2026-04-22T09:30:45.001Z</time></trkpt><trkpt lat="44.721695535278926" lon="9.50626388724426"><ele>981.8333333333334</ele><time>2026-04-22T09:30:46.001Z</time></trkpt><trkpt lat="44.72161068540993" lon="9.506288966417342"><ele>985.6666666666667</ele><time>2026-04-22T09:30:48.001Z</time></trkpt><trkpt lat="44.721546311346685" lon="9.506283414498315"><ele>989.5</ele><time>2026-04-22T09:30:50.001Z</time></trkpt><trkpt lat="44.72147346969989" lon="9.50626808078459"><ele>993.3333333333334</ele><time>2026-04-22T09:30:52.001Z</time></trkpt><trkpt lat="44.721402602206624" lon="9.50626497308397"><ele>997.1666666666667</ele><time>2026-04-22T09:30:54.001Z</time></trkpt><trkpt lat="44.7213419836268" lon="9.506310438043489"><ele>1001.0</ele><time>2026-04-22T09:30:56.001Z</time></trkpt><trkpt lat="44.720973319500104" lon="9.506600111294661"><ele>1004.8</ele><time>2026-04-22T09:31:00.001Z</time></trkpt><trkpt lat="44.72092336320157" lon="9.506654032756973"><ele>1008.5999999999999</ele><time>2026-04-22T09:31:01.001Z</time></trkpt><trkpt lat="44.720815446001154" lon="9.506728224785768"><ele>1012.4</ele><time>2026-04-22T09:31:03.001Z</time></trkpt><trkpt lat="44.720704201261356" lon="9.506795876535428"><ele>1016.2</ele><time>2026-04-22T09:31:05.001Z</time></trkpt><trkpt lat="44.72058881201947" lon="9.506822191435747"><ele>1020.0</ele><time>2026-04-22T09:31:07.001Z</time></trkpt><trkpt lat="44.72047220389005" lon="9.506849642493574"><ele>1020.0</ele><time>2026-04-22T09:31:09.001Z</time></trkpt><trkpt lat="44.7203660772107" lon="9.50691429704008"><ele>1020.0</ele><time>2026-04-22T09:31:11.001Z</time></trkpt><trkpt lat="44.72030252823738" lon="9.506958102637066"><ele>1020.0</ele><time>2026-04-22T09:31:12.001Z</time></trkpt><trkpt lat="44.72023983466865" lon="9.50699161874936"><ele>1020.0</ele><time>2026-04-22T09:31:13.001Z</time></trkpt><trkpt lat="44.720172150144926" lon="9.507000618881555"><ele>1020.0</ele><time>2026-04-22T09:32:14.001Z</time></trkpt><trkpt lat="44.72013962357426" lon="9.507104982558085"><ele>1020.0</ele><time>2026-04-22T09:32:17.001Z</time></trkpt><trkpt lat="44.720110271364646" lon="9.507196853054282"><ele>1021.6666666666666</ele><time>2026-04-22T09:32:19Z</time></trkpt><trkpt lat="44.720093397297525" lon="9.507313680635148"><ele>1023.3333333333333</ele><time>2026-04-22T09:32:22Z</time></trkpt><trkpt lat="44.720099773496194" lon="9.507429607190641"><ele>1025.0</ele><time>2026-04-22T09:32:26Z</time></trkpt><trkpt lat="44.72009121764271" lon="9.507561740095658"><ele>1026.6666666666665</ele><time>2026-04-22T09:32:29Z</time></trkpt><trkpt lat="44.72005378180514" lon="9.507650692799254"><ele>1028.3333333333333</ele><time>2026-04-22T09:32:30Z</time></trkpt><trkpt lat="44.72002678046209" lon="9.507776592273835"><ele>1030.0</ele><time>2026-04-22T09:32:32Z</time></trkpt><trkpt lat="44.719844419966925" lon="9.508203005849573"><ele>1030.6</ele><time>2026-04-22T09:32:35Z</time></trkpt><trkpt lat="44.71979071244371" lon="9.508290938922958"><ele>1031.2</ele><time>2026-04-22T09:32:36Z</time></trkpt><trkpt lat="44.719737523233704" lon="9.508381584065312"><ele>1031.8</ele><time>2026-04-22T09:32:37Z</time></trkpt><trkpt lat="44.71968893400541" lon="9.50844148474831"><ele>1032.4</ele><time>2026-04-22T09:32:38Z</time></trkpt><trkpt lat="44.71956732457639" lon="9.508539230570143"><ele>1033.0</ele><time>2026-04-22T09:32:40Z</time></trkpt><trkpt lat="44.71949052327367" lon="9.508567926095305"><ele>1033.0</ele><time>2026-04-22T09:32:41Z</time></trkpt><trkpt lat="44.719409628873194" lon="9.50856974011265"><ele>1033.0</ele><time>2026-04-22T09:32:42Z</time></trkpt><trkpt lat="44.71932366775588" lon="9.508551338685502"><ele>1033.0</ele><time>2026-04-22T09:32:43Z</time></trkpt><trkpt lat="44.71924442828225" lon="9.508531577163374"><ele>1033.0</ele><time>2026-04-22T09:32:44.001Z</time></trkpt><trkpt lat="44.7191727820207" lon="9.508522732243076"><ele>1033.0</ele><time>2026-04-22T09:32:45.001Z</time></trkpt><trkpt lat="44.719050819580914" lon="9.508559545057196"><ele>1033.0</ele><time>2026-04-22T09:32:47.001Z</time></trkpt><trkpt lat="44.718978965862334" lon="9.508557372091307"><ele>1034.5</ele><time>2026-04-22T09:32:48.001Z</time></trkpt><trkpt lat="44.718897424920954" lon="9.508538607583567"><ele>1036.0</ele><time>2026-04-22T09:32:49.001Z</time></trkpt><trkpt lat="44.718824577624474" lon="9.508511992536501"><ele>1037.5</ele><time>2026-04-22T09:32:50.001Z</time></trkpt><trkpt lat="44.71872496104845" lon="9.50846976272639"><ele>1039.0</ele><time>2026-04-22T09:32:52.001Z</time></trkpt><trkpt lat="44.71864032058115" lon="9.508553517490402"><ele>1040.5</ele><time>2026-04-22T09:32:57.001Z</time></trkpt><trkpt lat="44.718566295807655" lon="9.508604463528163"><ele>1042.0</ele><time>2026-04-22T09:32:58.001Z</time></trkpt><trkpt lat="44.71851607883948" lon="9.50865954590149"><ele>1043.75</ele><time>2026-04-22T09:32:59.001Z</time></trkpt><trkpt lat="44.71846094033686" lon="9.508609725231489"><ele>1045.5</ele><time>2026-04-22T09:33:03.001Z</time></trkpt><trkpt lat="44.71838504275205" lon="9.508564607234412"><ele>1047.25</ele><time>2026-04-22T09:33:06.001Z</time></trkpt><trkpt lat="44.71835789676682" lon="9.508646622661356"><ele>1049.0</ele><time>2026-04-22T09:33:09.001Z</time></trkpt><trkpt lat="44.71814040077127" lon="9.508291899704767"><ele>1049.0</ele><time>2026-04-22T09:33:10.001Z</time></trkpt><trkpt lat="44.71806598532659" lon="9.508339325721188"><ele>1049.0</ele><time>2026-04-22T09:33:13.001Z</time></trkpt><trkpt lat="44.71796378287438" lon="9.508408659460097"><ele>1049.0</ele><time>2026-04-22T09:33:15.001Z</time></trkpt><trkpt lat="44.717903881923874" lon="9.50845474346411"><ele>1049.0</ele><time>2026-04-22T09:33:16.001Z</time></trkpt><trkpt lat="44.717849624151285" lon="9.508518157433382"><ele>1049.0</ele><time>2026-04-22T09:33:17.001Z</time></trkpt><trkpt lat="44.71779201949824" lon="9.508569664613113"><ele>1049.0</ele><time>2026-04-22T09:33:18.001Z</time></trkpt><trkpt lat="44.71767087014458" lon="9.508665781045739"><ele>1051.5</ele><time>2026-04-22T09:33:20.001Z</time></trkpt><trkpt lat="44.71760304491521" lon="9.508720595040831"><ele>1054.0</ele><time>2026-04-22T09:33:21.001Z</time></trkpt><trkpt lat="44.71755271022057" lon="9.508784522108087"><ele>1056.5</ele><time>2026-04-22T09:33:22.001Z</time></trkpt><trkpt lat="44.717508294886954" lon="9.50887498551118"><ele>1059.0</ele><time>2026-04-22T09:33:23.001Z</time></trkpt><trkpt lat="44.71744774745229" lon="9.509000650085058"><ele>1061.5</ele><time>2026-04-22T09:33:24.001Z</time></trkpt><trkpt lat="44.717396728303015" lon="9.509094458321647"><ele>1064.0</ele><time>2026-04-22T09:33:25.001Z</time></trkpt><trkpt lat="44.71734469067803" lon="9.509169959235276"><ele>1064.7142857142858</ele><time>2026-04-22T09:33:26.001Z</time></trkpt><trkpt lat="44.717291861504954" lon="9.50922192925536"><ele>1065.4285714285716</ele><time>2026-04-22T09:33:27.001Z</time></trkpt><trkpt lat="44.71721666777474" lon="9.50923194542739"><ele>1066.142857142857</ele><time>2026-04-22T09:33:28.001Z</time></trkpt><trkpt lat="44.71715197938599" lon="9.50924072792364"><ele>1066.857142857143</ele><time>2026-04-22T09:33:29.001Z</time></trkpt><trkpt lat="44.71708579965787" lon="9.50919143081242"><ele>1067.5714285714287</ele><time>2026-04-22T09:33:30.001Z</time></trkpt><trkpt lat="44.717022673763495" lon="9.509155354890263"><ele>1068.2857142857142</ele><time>2026-04-22T09:33:31.001Z</time></trkpt><trkpt lat="44.71693996915051" lon="9.50911749283004"><ele>1069.0</ele><time>2026-04-22T09:33:32.001Z</time></trkpt><trkpt lat="44.71685477991043" lon="9.509085163758458"><ele>1070.6666666666665</ele><time>2026-04-22T09:33:33.001Z</time></trkpt><trkpt lat="44.71678842805158" lon="9.509068302466963"><ele>1072.3333333333333</ele><time>2026-04-22T09:33:34.001Z</time></trkpt><trkpt lat="44.71667529115914" lon="9.509083934757816"><ele>1074.0</ele><time>2026-04-22T09:33:36.001Z</time></trkpt><trkpt lat="44.716586983469696" lon="9.509131450442739"><ele>1075.6666666666667</ele><time>2026-04-22T09:33:38.001Z</time></trkpt><trkpt lat="44.716534545349354" lon="9.509227500742272"><ele>1077.3333333333335</ele><time>2026-04-22T09:33:40.001Z</time></trkpt><trkpt lat="44.71656824034587" lon="9.509304889272569"><ele>1079.0</ele><time>2026-04-22T09:33:43.001Z</time></trkpt><trkpt lat="44.716548444369884" lon="9.509218763767398"><ele>1079.0</ele><time>2026-04-22T09:33:45.001Z</time></trkpt><trkpt lat="44.71653029396767" lon="9.509006441112916"><ele>1079.0</ele><time>2026-04-22T09:33:47.001Z</time></trkpt><trkpt lat="44.716507896450786" lon="9.508885993363874"><ele>1079.0</ele><time>2026-04-22T09:33:48.001Z</time></trkpt><trkpt lat="44.71648719798729" lon="9.50875469858542"><ele>1079.0</ele><time>2026-04-22T09:33:49.001Z</time></trkpt><trkpt lat="44.716464909275345" lon="9.508646078632143"><ele>1079.0</ele><time>2026-04-22T09:33:50.001Z</time></trkpt><trkpt lat="44.71643650338645" lon="9.50853142827588"><ele>1078.2</ele><time>2026-04-22T09:33:51.001Z</time></trkpt><trkpt lat="44.7164130833476" lon="9.50840468519"><ele>1077.4</ele><time>2026-04-22T09:33:52.001Z</time></trkpt><trkpt lat="44.71638372583079" lon="9.508282437830276"><ele>1076.6</ele><time>2026-04-22T09:33:53.001Z</time></trkpt><trkpt lat="44.716345302315624" lon="9.50814991941683"><ele>1075.8</ele><time>2026-04-22T09:33:54.001Z</time></trkpt><trkpt lat="44.71630173852846" lon="9.508019580224643"><ele>1075.0</ele><time>2026-04-22T09:33:55.001Z</time></trkpt><trkpt lat="44.716244244483384" lon="9.507891000418526"><ele>1074.0</ele><time>2026-04-22T09:33:56.001Z</time></trkpt><trkpt lat="44.71617830499343" lon="9.507756405743896"><ele>1073.0</ele><time>2026-04-22T09:33:57.001Z</time></trkpt><trkpt lat="44.71610646724709" lon="9.507611458315784"><ele>1072.0</ele><time>2026-04-22T09:33:58.001Z</time></trkpt><trkpt lat="44.71604258907642" lon="9.507468004470487"><ele>1071.0</ele><time>2026-04-22T09:33:59.001Z</time></trkpt><trkpt lat="44.71598919437952" lon="9.507322994668973"><ele>1072.3999999999999</ele><time>2026-04-22T09:34:00.001Z</time></trkpt><trkpt lat="44.715946214873725" lon="9.507196090842239"><ele>1073.8</ele><time>2026-04-22T09:34:01.001Z</time></trkpt><trkpt lat="44.71591067042774" lon="9.50705880463599"><ele>1075.1999999999998</ele><time>2026-04-22T09:34:02.001Z</time></trkpt><trkpt lat="44.715866761773846" lon="9.506896148654224"><ele>1076.6</ele><time>2026-04-22T09:34:03.001Z</time></trkpt><trkpt lat="44.71581597935087" lon="9.50674015591887"><ele>1078.0</ele><time>2026-04-22T09:34:04.001Z</time></trkpt><trkpt lat="44.71577728237112" lon="9.506566731149837"><ele>1078.0</ele><time>2026-04-22T09:34:05.001Z</time></trkpt><trkpt lat="44.715736688283165" lon="9.506428993099066"><ele>1078.0</ele><time>2026-04-22T09:34:06.001Z</time></trkpt><trkpt lat="44.7156716279207" lon="9.506290950475892"><ele>1078.0</ele><time>2026-04-22T09:34:07.001Z</time></trkpt><trkpt lat="44.71559935914105" lon="9.506139770848025"><ele>1078.0</ele><time>2026-04-22T09:34:08.001Z</time></trkpt><trkpt lat="44.71551761464396" lon="9.505990672017264"><ele>1077.25</ele><time>2026-04-22T09:34:09.001Z</time></trkpt><trkpt lat="44.71544362609408" lon="9.50584285068481"><ele>1076.5</ele><time>2026-04-22T09:34:10.001Z</time></trkpt><trkpt lat="44.715357854020844" lon="9.505693240971356"><ele>1075.75</ele><time>2026-04-22T09:34:11.001Z</time></trkpt><trkpt lat="44.71528326233988" lon="9.505545123715292"><ele>1075.0</ele><time>2026-04-22T09:34:12.001Z</time></trkpt><trkpt lat="44.71521117189261" lon="9.505395978870467"><ele>1075.0</ele><time>2026-04-22T09:34:13.001Z</time></trkpt><trkpt lat="44.715142378891436" lon="9.50526210340589"><ele>1075.0</ele><time>2026-04-22T09:34:14.001Z</time></trkpt><trkpt lat="44.71507756827082" lon="9.505114826586071"><ele>1075.0</ele><time>2026-04-22T09:34:15.001Z</time></trkpt><trkpt lat="44.715030508182" lon="9.50495008684812"><ele>1075.0</ele><time>2026-04-22T09:34:16.001Z</time></trkpt><trkpt lat="44.714979763277285" lon="9.504807611138402"><ele>1075.0</ele><time>2026-04-22T09:34:17.001Z</time></trkpt><trkpt lat="44.71492948686733" lon="9.504657640305044"><ele>1075.0</ele><time>2026-04-22T09:34:18.001Z</time></trkpt><trkpt lat="44.71487573500699" lon="9.504511118473138"><ele>1075.0</ele><time>2026-04-22T09:34:19Z</time></trkpt><trkpt lat="44.71481983119555" lon="9.504369885050986"><ele>1075.0</ele><time>2026-04-22T09:34:20Z</time></trkpt><trkpt lat="44.71476719958143" lon="9.504231927419868"><ele>1074.6</ele><time>2026-04-22T09:34:21Z</time></trkpt><trkpt lat="44.71472235971977" lon="9.504100582190517"><ele>1074.2</ele><time>2026-04-22T09:34:22Z</time></trkpt><trkpt lat="44.71468088347665" lon="9.503970903404653"><ele>1073.8</ele><time>2026-04-22T09:34:23Z</time></trkpt><trkpt lat="44.71464962841775" lon="9.503840076574223"><ele>1073.4</ele><time>2026-04-22T09:34:24Z</time></trkpt><trkpt lat="44.71461316950608" lon="9.503704541354558"><ele>1073.0</ele><time>2026-04-22T09:34:25Z</time></trkpt><trkpt lat="44.71458093460812" lon="9.5035536036397"><ele>1072.5</ele><time>2026-04-22T09:34:26Z</time></trkpt><trkpt lat="44.71451713460131" lon="9.50339814895221"><ele>1072.0</ele><time>2026-04-22T09:34:27Z</time></trkpt><trkpt lat="44.71444670930519" lon="9.503275403126215"><ele>1071.5</ele><time>2026-04-22T09:34:28Z</time></trkpt><trkpt lat="44.714384249325725" lon="9.503155629600316"><ele>1071.0</ele><time>2026-04-22T09:34:29Z</time></trkpt><trkpt lat="44.714298727402394" lon="9.503042259677512"><ele>1073.0</ele><time>2026-04-22T09:34:30Z</time></trkpt><trkpt lat="44.71420203581565" lon="9.502943018177707"><ele>1075.0</ele><time>2026-04-22T09:34:31Z</time></trkpt><trkpt lat="44.714112251543916" lon="9.502811413503055"><ele>1077.0</ele><time>2026-04-22T09:34:32Z</time></trkpt><trkpt lat="44.7140114512143" lon="9.502698051599276"><ele>1079.0</ele><time>2026-04-22T09:34:33Z</time></trkpt><trkpt lat="44.71393853228089" lon="9.50256918045375"><ele>1079.0</ele><time>2026-04-22T09:34:34Z</time></trkpt><trkpt lat="44.71388848727233" lon="9.50238994932376"><ele>1079.0</ele><time>2026-04-22T09:34:35Z</time></trkpt><trkpt lat="44.713822680433815" lon="9.50218970957212"><ele>1079.0</ele><time>2026-04-22T09:34:36Z</time></trkpt><trkpt lat="44.71375763925133" lon="9.502004990868079"><ele>1079.0</ele><time>2026-04-22T09:34:37Z</time></trkpt><trkpt lat="44.71369015785387" lon="9.501850666905423"><ele>1079.5</ele><time>2026-04-22T09:34:38Z</time></trkpt><trkpt lat="44.71361386596903" lon="9.50172368622756"><ele>1080.0</ele><time>2026-04-22T09:34:39Z</time></trkpt><trkpt lat="44.71349681054623" lon="9.501633564495664"><ele>1080.5</ele><time>2026-04-22T09:34:40Z</time></trkpt><trkpt lat="44.71340051336448" lon="9.501527514177708"><ele>1081.0</ele><time>2026-04-22T09:34:41Z</time></trkpt><trkpt lat="44.71332130317858" lon="9.501417370371845"><ele>1081.0</ele><time>2026-04-22T09:34:42Z</time></trkpt><trkpt lat="44.71325718585058" lon="9.501289213650077"><ele>1081.0</ele><time>2026-04-22T09:34:43Z</time></trkpt><trkpt lat="44.71324637665132" lon="9.501112648644794"><ele>1081.0</ele><time>2026-04-22T09:34:44Z</time></trkpt><trkpt lat="44.71316300144704" lon="9.500955801156639"><ele>1081.0</ele><time>2026-04-22T09:34:45Z</time></trkpt><trkpt lat="44.71309432918206" lon="9.500797480749473"><ele>1080.5</ele><time>2026-04-22T09:34:46Z</time></trkpt><trkpt lat="44.713033095763585" lon="9.500632993059968"><ele>1080.0</ele><time>2026-04-22T09:34:47Z</time></trkpt><trkpt lat="44.71297996985306" lon="9.500467310133459"><ele>1079.5</ele><time>2026-04-22T09:34:48Z</time></trkpt><trkpt lat="44.71292924277729" lon="9.50029791052439"><ele>1079.0</ele><time>2026-04-22T09:34:49Z</time></trkpt><trkpt lat="44.71289405816861" lon="9.500150228991757"><ele>1078.8</ele><time>2026-04-22T09:34:50.001Z</time></trkpt><trkpt lat="44.71287296600212" lon="9.500007404663398"><ele>1078.6000000000001</ele><time>2026-04-22T09:34:51.001Z</time></trkpt><trkpt lat="44.71286816092975" lon="9.499873110677832"><ele>1078.4</ele><time>2026-04-22T09:34:52.001Z</time></trkpt><trkpt lat="44.712863431617805" lon="9.499736638483695"><ele>1078.2</ele><time>2026-04-22T09:34:53.001Z</time></trkpt><trkpt lat="44.712860642614935" lon="9.499585860356964"><ele>1078.0</ele><time>2026-04-22T09:34:54.001Z</time></trkpt><trkpt lat="44.71289740902404" lon="9.499426245994043"><ele>1077.75</ele><time>2026-04-22T09:34:55.001Z</time></trkpt><trkpt lat="44.712909707884535" lon="9.499241540613808"><ele>1077.5</ele><time>2026-04-22T09:34:56.001Z</time></trkpt><trkpt lat="44.71294520394001" lon="9.499053580359215"><ele>1077.25</ele><time>2026-04-22T09:34:57.001Z</time></trkpt><trkpt lat="44.713007891271154" lon="9.49886725510593"><ele>1077.0</ele><time>2026-04-22T09:34:58.001Z</time></trkpt><trkpt lat="44.71303536095556" lon="9.498659675697272"><ele>1077.0</ele><time>2026-04-22T09:34:59.001Z</time></trkpt><trkpt lat="44.7130658739158" lon="9.498451975123297"><ele>1077.0</ele><time>2026-04-22T09:35:00.001Z</time></trkpt><trkpt lat="44.71307226861981" lon="9.498240937295035"><ele>1077.0</ele><time>2026-04-22T09:35:01.001Z</time></trkpt><trkpt lat="44.71306656297363" lon="9.49802868493766"><ele>1077.5</ele><time>2026-04-22T09:35:02.001Z</time></trkpt><trkpt lat="44.71305822995262" lon="9.497819713937314"><ele>1078.0</ele><time>2026-04-22T09:35:03.001Z</time></trkpt><trkpt lat="44.71305647155702" lon="9.497619342123567"><ele>1078.5</ele><time>2026-04-22T09:35:04.001Z</time></trkpt><trkpt lat="44.71305846969063" lon="9.497414229522878"><ele>1079.0</ele><time>2026-04-22T09:35:05.001Z</time></trkpt><trkpt lat="44.71306238394982" lon="9.497207591646049"><ele>1080.0</ele><time>2026-04-22T09:35:06.001Z</time></trkpt><trkpt lat="44.713060373537566" lon="9.496993589987937"><ele>1081.0</ele><time>2026-04-22T09:35:07.001Z</time></trkpt><trkpt lat="44.71304389653558" lon="9.496778616171019"><ele>1082.0</ele><time>2026-04-22T09:35:08.001Z</time></trkpt><trkpt lat="44.71300328900473" lon="9.496583071256238"><ele>1082.0</ele><time>2026-04-22T09:35:09.001Z</time></trkpt><trkpt lat="44.71295703197083" lon="9.496405448497605"><ele>1082.0</ele><time>2026-04-22T09:35:10.001Z</time></trkpt><trkpt lat="44.71291538138323" lon="9.496217310416553"><ele>1082.0</ele><time>2026-04-22T09:35:11.001Z</time></trkpt><trkpt lat="44.71288290408562" lon="9.496025968177648"><ele>1082.0</ele><time>2026-04-22T09:35:12.001Z</time></trkpt><trkpt lat="44.712869068002" lon="9.495826056455211"><ele>1082.5</ele><time>2026-04-22T09:35:13.001Z</time></trkpt><trkpt lat="44.71283749222887" lon="9.495628366686448"><ele>1083.0</ele><time>2026-04-22T09:35:14.001Z</time></trkpt><trkpt lat="44.7128014199507" lon="9.495423725637929"><ele>1083.5</ele><time>2026-04-22T09:35:15.001Z</time></trkpt><trkpt lat="44.7127472486629" lon="9.495228889816175"><ele>1084.0</ele><time>2026-04-22T09:35:16.001Z</time></trkpt><trkpt lat="44.71270183591766" lon="9.495027315375667"><ele>1086.3333333333333</ele><time>2026-04-22T09:35:17.001Z</time></trkpt><trkpt lat="44.71265149285472" lon="9.494816582202356"><ele>1088.6666666666667</ele><time>2026-04-22T09:35:18.001Z</time></trkpt><trkpt lat="44.712599504520085" lon="9.494595678945673"><ele>1091.0</ele><time>2026-04-22T09:35:19.001Z</time></trkpt><trkpt lat="44.7125459857804" lon="9.494387110859908"><ele>1092.0</ele><time>2026-04-22T09:35:20.001Z</time></trkpt><trkpt lat="44.71248918247418" lon="9.494186521024144"><ele>1093.0</ele><time>2026-04-22T09:35:21.001Z</time></trkpt><trkpt lat="44.712427686791955" lon="9.493987401331694"><ele>1094.0</ele><time>2026-04-22T09:35:22.001Z</time></trkpt><trkpt lat="44.71236592547285" lon="9.493796868320844"><ele>1093.6000000000001</ele><time>2026-04-22T09:35:23.001Z</time></trkpt><trkpt lat="44.71230119826102" lon="9.49364980702972"><ele>1093.2</ele><time>2026-04-22T09:35:24.001Z</time></trkpt><trkpt lat="44.71226211206561" lon="9.493513468281108"><ele>1092.8000000000002</ele><time>2026-04-22T09:35:25.001Z</time></trkpt><trkpt lat="44.7122090643966" lon="9.493401281721653"><ele>1092.4</ele><time>2026-04-22T09:35:26.001Z</time></trkpt><trkpt lat="44.71213969589696" lon="9.493275896972893"><ele>1092.0</ele><time>2026-04-22T09:35:27.001Z</time></trkpt><trkpt lat="44.71206507211515" lon="9.493136781925822"><ele>1092.0</ele><time>2026-04-22T09:35:28.001Z</time></trkpt><trkpt lat="44.711987281504065" lon="9.493028198303003"><ele>1092.0</ele><time>2026-04-22T09:35:29.001Z</time></trkpt><trkpt lat="44.71193160873088" lon="9.492936618352973"><ele>1092.0</ele><time>2026-04-22T09:35:30.001Z</time></trkpt><trkpt lat="44.71190209840892" lon="9.492845709410513"><ele>1092.0</ele><time>2026-04-22T09:35:31.001Z</time></trkpt><trkpt lat="44.71188784511886" lon="9.49274820310098"><ele>1092.0</ele><time>2026-04-22T09:35:32.001Z</time></trkpt><trkpt lat="44.71188218989954" lon="9.492645511045655"><ele>1092.0</ele><time>2026-04-22T09:35:33.001Z</time></trkpt><trkpt lat="44.711877232873995" lon="9.492536709957195"><ele>1091.2</ele><time>2026-04-22T09:35:34.001Z</time></trkpt><trkpt lat="44.7118679400793" lon="9.492406922867799"><ele>1090.4</ele><time>2026-04-22T09:35:35.001Z</time></trkpt><trkpt lat="44.711862556995435" lon="9.492267885975453"><ele>1089.6</ele><time>2026-04-22T09:35:36.001Z</time></trkpt><trkpt lat="44.711857671515666" lon="9.492139236780616"><ele>1088.8</ele><time>2026-04-22T09:35:37.001Z</time></trkpt><trkpt lat="44.71185303762449" lon="9.492017292401"><ele>1088.0</ele><time>2026-04-22T09:35:38.001Z</time></trkpt><trkpt lat="44.711847270553434" lon="9.491893659585314"><ele>1088.0</ele><time>2026-04-22T09:35:39.001Z</time></trkpt><trkpt lat="44.711843141666705" lon="9.491774308364649"><ele>1088.0</ele><time>2026-04-22T09:35:40.001Z</time></trkpt><trkpt lat="44.71184330607148" lon="9.491665498671686"><ele>1088.0</ele><time>2026-04-22T09:35:41.001Z</time></trkpt><trkpt lat="44.71183483028533" lon="9.491525986747318"><ele>1088.0</ele><time>2026-04-22T09:35:43.001Z</time></trkpt><trkpt lat="44.711767676594064" lon="9.491542948324286"><ele>1088.0</ele><time>2026-04-22T09:35:48.001Z</time></trkpt><trkpt lat="44.71171504318799" lon="9.491633133740363"><ele>1088.0</ele><time>2026-04-22T09:35:52Z</time></trkpt><trkpt lat="44.711661961826955" lon="9.49172802218949"><ele>1088.0</ele><time>2026-04-22T09:35:55Z</time></trkpt><trkpt lat="44.711608019142055" lon="9.491839773135343"><ele>1088.0</ele><time>2026-04-22T09:35:57Z</time></trkpt><trkpt lat="44.71157480090186" lon="9.491945435777287"><ele>1088.0</ele><time>2026-04-22T09:35:59Z</time></trkpt><trkpt lat="44.71154597561946" lon="9.492081392187284"><ele>1088.0</ele><time>2026-04-22T09:36:01Z</time></trkpt><trkpt lat="44.711520641467345" lon="9.492177898729262"><ele>1088.0</ele><time>2026-04-22T09:36:02Z</time></trkpt><trkpt lat="44.711493813074895" lon="9.492269901910783"><ele>1088.0</ele><time>2026-04-22T09:36:03Z</time></trkpt><trkpt lat="44.71142109492806" lon="9.492416011287135"><ele>1087.6</ele><time>2026-04-22T09:36:05Z</time></trkpt><trkpt lat="44.7113478705491" lon="9.492483412666967"><ele>1087.1999999999998</ele><time>2026-04-22T09:36:06Z</time></trkpt><trkpt lat="44.71126068398683" lon="9.492540834322167"><ele>1086.8</ele><time>2026-04-22T09:36:07Z</time></trkpt><trkpt lat="44.71114240383273" lon="9.492613427399297"><ele>1086.3999999999999</ele><time>2026-04-22T09:36:08Z</time></trkpt><trkpt lat="44.711031256521565" lon="9.492680254717992"><ele>1086.0</ele><time>2026-04-22T09:36:09Z</time></trkpt><trkpt lat="44.710940557169806" lon="9.492739956323218"><ele>1083.0</ele><time>2026-04-22T09:36:10Z</time></trkpt><trkpt lat="44.710856499117945" lon="9.492799973848413"><ele>1080.0</ele><time>2026-04-22T09:36:11Z</time></trkpt><trkpt lat="44.710780914102614" lon="9.492867082963338"><ele>1077.0</ele><time>2026-04-22T09:36:12Z</time></trkpt><trkpt lat="44.71070743280329" lon="9.492927233677566"><ele>1074.0</ele><time>2026-04-22T09:36:13Z</time></trkpt><trkpt lat="44.710646311574706" lon="9.49298671570895"><ele>1071.0</ele><time>2026-04-22T09:36:14Z</time></trkpt><trkpt lat="44.71058817358268" lon="9.49309657256799"><ele>1068.0</ele><time>2026-04-22T09:36:16Z</time></trkpt><trkpt lat="44.71058743409685" lon="9.49321202370153"><ele>1066.8</ele><time>2026-04-22T09:36:17Z</time></trkpt><trkpt lat="44.710575496667154" lon="9.493331606422164"><ele>1065.6</ele><time>2026-04-22T09:36:18Z</time></trkpt><trkpt lat="44.71046747100988" lon="9.493444128038572"><ele>1064.4</ele><time>2026-04-22T09:36:20Z</time></trkpt><trkpt lat="44.71040912850305" lon="9.493535466945842"><ele>1063.2</ele><time>2026-04-22T09:36:21Z</time></trkpt><trkpt lat="44.710384189699056" lon="9.493625113035899"><ele>1062.0</ele><time>2026-04-22T09:36:22Z</time></trkpt><trkpt lat="44.71034247491695" lon="9.493724729836998"><ele>1060.4</ele><time>2026-04-22T09:36:23Z</time></trkpt><trkpt lat="44.71029865971718" lon="9.493801226231762"><ele>1058.8000000000002</ele><time>2026-04-22T09:36:24Z</time></trkpt><trkpt lat="44.710206809113146" lon="9.493883221642687"><ele>1057.2</ele><time>2026-04-22T09:36:26Z</time></trkpt><trkpt lat="44.710130239775594" lon="9.493922357913503"><ele>1055.6000000000001</ele><time>2026-04-22T09:36:28Z</time></trkpt><trkpt lat="44.71002555435233" lon="9.493962725602378"><ele>1054.0</ele><time>2026-04-22T09:36:30Z</time></trkpt><trkpt lat="44.709906868447405" lon="9.494031050442388"><ele>1051.1666666666665</ele><time>2026-04-22T09:36:32Z</time></trkpt><trkpt lat="44.709834420810786" lon="9.49408523074667"><ele>1048.3333333333333</ele><time>2026-04-22T09:36:33Z</time></trkpt><trkpt lat="44.70975706782783" lon="9.494144205557706"><ele>1045.5</ele><time>2026-04-22T09:36:34Z</time></trkpt><trkpt lat="44.7096855650948" lon="9.494207894988742"><ele>1042.6666666666667</ele><time>2026-04-22T09:36:35Z</time></trkpt><trkpt lat="44.709621832662876" lon="9.494271241677357"><ele>1039.8333333333335</ele><time>2026-04-22T09:36:36Z</time></trkpt><trkpt lat="44.709564893181366" lon="9.494311592995048"><ele>1037.0</ele><time>2026-04-22T09:36:37Z</time></trkpt><trkpt lat="44.70947827818165" lon="9.494406755875081"><ele>1037.0</ele><time>2026-04-22T09:36:39Z</time></trkpt><trkpt lat="44.70943609722238" lon="9.494497192410815"><ele>1037.0</ele><time>2026-04-22T09:36:40Z</time></trkpt><trkpt lat="44.70938466617539" lon="9.494609673736177"><ele>1037.0</ele><time>2026-04-22T09:36:41Z</time></trkpt><trkpt lat="44.70934263771439" lon="9.494683415820385"><ele>1037.0</ele><time>2026-04-22T09:36:42Z</time></trkpt><trkpt lat="44.70933721893961" lon="9.494807920100437"><ele>1037.0</ele><time>2026-04-22T09:36:44Z</time></trkpt><trkpt lat="44.709355698455404" lon="9.494933395227592"><ele>1037.0</ele><time>2026-04-22T09:36:45Z</time></trkpt><trkpt lat="44.70936299893224" lon="9.495058929502314"><ele>1035.1666666666667</ele><time>2026-04-22T09:36:46Z</time></trkpt><trkpt lat="44.70937084111267" lon="9.49515688585955"><ele>1033.3333333333335</ele><time>2026-04-22T09:36:47Z</time></trkpt><trkpt lat="44.709348005972636" lon="9.495282028493758"><ele>1031.5</ele><time>2026-04-22T09:36:49Z</time></trkpt><trkpt lat="44.70933345737347" lon="9.49543056680628"><ele>1029.6666666666667</ele><time>2026-04-22T09:36:51Z</time></trkpt><trkpt lat="44.70931453154974" lon="9.495552067697176"><ele>1027.8333333333333</ele><time>2026-04-22T09:36:53Z</time></trkpt><trkpt lat="44.70926768280607" lon="9.49561570216959"><ele>1026.0</ele><time>2026-04-22T09:36:55Z</time></trkpt><trkpt lat="44.709244181451794" lon="9.49571275777631"><ele>1024.25</ele><time>2026-04-22T09:36:57.001Z</time></trkpt><trkpt lat="44.70920274429933" lon="9.495799671339999"><ele>1022.5</ele><time>2026-04-22T09:37:00.001Z</time></trkpt><trkpt lat="44.70914327068365" lon="9.49583058022706"><ele>1020.75</ele><time>2026-04-22T09:37:03.001Z</time></trkpt><trkpt lat="44.70907237896635" lon="9.495858063830672"><ele>1019.0</ele><time>2026-04-22T09:37:06.001Z</time></trkpt><trkpt lat="44.7087849161457" lon="9.495928939201267"><ele>1019.0</ele><time>2026-04-22T09:37:09.001Z</time></trkpt><trkpt lat="44.70870433850629" lon="9.495958880516234"><ele>1019.0000000000001</ele><time>2026-04-22T09:37:10.001Z</time></trkpt><trkpt lat="44.70863153169418" lon="9.49601037225771"><ele>1019.0000000000001</ele><time>2026-04-22T09:37:11.001Z</time></trkpt><trkpt lat="44.708585659281276" lon="9.496112263550286"><ele>1019.0</ele><time>2026-04-22T09:37:12.001Z</time></trkpt><trkpt lat="44.70851326791651" lon="9.496231678534167"><ele>1019.0</ele><time>2026-04-22T09:37:13.001Z</time></trkpt><trkpt lat="44.708440910813" lon="9.496336630855462"><ele>1016.75</ele><time>2026-04-22T09:37:14.001Z</time></trkpt><trkpt lat="44.708359011507916" lon="9.496431360389334"><ele>1014.5</ele><time>2026-04-22T09:37:15.001Z</time></trkpt><trkpt lat="44.70825997542517" lon="9.496537686781974"><ele>1012.25</ele><time>2026-04-22T09:37:16.001Z</time></trkpt><trkpt lat="44.70816499242902" lon="9.496648464642163"><ele>1010.0</ele><time>2026-04-22T09:37:17.001Z</time></trkpt><trkpt lat="44.70808658341706" lon="9.496740466589726"><ele>1010.0000000000001</ele><time>2026-04-22T09:37:18.001Z</time></trkpt><trkpt lat="44.708012435866635" lon="9.496808816012114"><ele>1010.0</ele><time>2026-04-22T09:37:20.001Z</time></trkpt><trkpt lat="44.70807817959359" lon="9.496729113821317"><ele>1010.0</ele><time>2026-04-22T09:37:24.001Z</time></trkpt><trkpt lat="44.708094237858255" lon="9.496634720655292"><ele>1010.0</ele><time>2026-04-22T09:37:55Z</time></trkpt><trkpt lat="44.70808766925731" lon="9.496495720643132"><ele>1010.0000000000001</ele><time>2026-04-22T09:37:57Z</time></trkpt><trkpt lat="44.70807220761056" lon="9.496369348309809"><ele>1010.0</ele><time>2026-04-22T09:37:58Z</time></trkpt><trkpt lat="44.70805980246252" lon="9.496246012311392"><ele>1013.0</ele><time>2026-04-22T09:37:59Z</time></trkpt><trkpt lat="44.70804969959003" lon="9.496132454027604"><ele>1016.0</ele><time>2026-04-22T09:38:00Z</time></trkpt><trkpt lat="44.708044223332074" lon="9.496003533153468"><ele>1019.0</ele><time>2026-04-22T09:38:01Z</time></trkpt><trkpt lat="44.708048502977846" lon="9.495875482573034"><ele>1022.0</ele><time>2026-04-22T09:38:02Z</time></trkpt><trkpt lat="44.70803435115035" lon="9.495723040695728"><ele>1025.0</ele><time>2026-04-22T09:38:03Z</time></trkpt><trkpt lat="44.708017872146655" lon="9.495543713281949"><ele>1026.75</ele><time>2026-04-22T09:38:04Z</time></trkpt><trkpt lat="44.70800247668671" lon="9.495336861057332"><ele>1028.5</ele><time>2026-04-22T09:38:05Z</time></trkpt><trkpt lat="44.70799305619899" lon="9.495162085534782"><ele>1030.25</ele><time>2026-04-22T09:38:06Z</time></trkpt><trkpt lat="44.708000178157114" lon="9.495038074478048"><ele>1032.0</ele><time>2026-04-22T09:38:07Z</time></trkpt><trkpt lat="44.70805297925717" lon="9.494915109433055"><ele>1032.0</ele><time>2026-04-22T09:38:09Z</time></trkpt><trkpt lat="44.708095262521" lon="9.49476131861727"><ele>1032.0</ele><time>2026-04-22T09:38:10Z</time></trkpt><trkpt lat="44.708115088798905" lon="9.49460691045176"><ele>1032.0</ele><time>2026-04-22T09:38:11Z</time></trkpt><trkpt lat="44.7081250957575" lon="9.494485822959556"><ele>1032.0</ele><time>2026-04-22T09:38:12Z</time></trkpt><trkpt lat="44.70813819955407" lon="9.494373106437624"><ele>1032.0</ele><time>2026-04-22T09:38:13Z</time></trkpt><trkpt lat="44.7081708409609" lon="9.494164215198433"><ele>1034.0</ele><time>2026-04-22T09:38:14Z</time></trkpt><trkpt lat="44.708181835312324" lon="9.494003865149157"><ele>1036.0</ele><time>2026-04-22T09:38:15Z</time></trkpt><trkpt lat="44.70820462111477" lon="9.49388907789471"><ele>1038.0</ele><time>2026-04-22T09:38:16Z</time></trkpt><trkpt lat="44.70824543268093" lon="9.493756824235385"><ele>1040.0</ele><time>2026-04-22T09:38:17Z</time></trkpt><trkpt lat="44.70826951283737" lon="9.49362824046361"><ele>1042.0</ele><time>2026-04-22T09:38:18Z</time></trkpt><trkpt lat="44.70827743003266" lon="9.493525417493338"><ele>1044.0</ele><time>2026-04-22T09:38:19Z</time></trkpt><trkpt lat="44.708265529003626" lon="9.493407544938052"><ele>1046.0</ele><time>2026-04-22T09:38:20Z</time></trkpt><trkpt lat="44.70825867388388" lon="9.493267988898992"><ele>1048.0</ele><time>2026-04-22T09:38:21Z</time></trkpt><trkpt lat="44.70823555672268" lon="9.493150708027882"><ele>1050.0</ele><time>2026-04-22T09:38:22Z</time></trkpt><trkpt lat="44.708218176502946" lon="9.49297683493849"><ele>1052.0</ele><time>2026-04-22T09:38:24Z</time></trkpt><trkpt lat="44.708192003430376" lon="9.492845331616504"><ele>1052.4</ele><time>2026-04-22T09:38:25Z</time></trkpt><trkpt lat="44.708160486663616" lon="9.492713367241242"><ele>1052.8000000000002</ele><time>2026-04-22T09:38:26Z</time></trkpt><trkpt lat="44.70813414153027" lon="9.492589057975374"><ele>1053.2</ele><time>2026-04-22T09:38:27Z</time></trkpt><trkpt lat="44.70809454901576" lon="9.492461707494055"><ele>1053.6000000000001</ele><time>2026-04-22T09:38:28Z</time></trkpt><trkpt lat="44.708051918050174" lon="9.49233116628383"><ele>1054.0</ele><time>2026-04-22T09:38:29Z</time></trkpt><trkpt lat="44.708022306493" lon="9.4922016382"><ele>1054.6666666666665</ele><time>2026-04-22T09:38:30Z</time></trkpt><trkpt lat="44.70801246584779" lon="9.49205705203996"><ele>1055.3333333333333</ele><time>2026-04-22T09:38:31Z</time></trkpt><trkpt lat="44.70800388765384" lon="9.49191637346358"><ele>1056.0</ele><time>2026-04-22T09:38:32Z</time></trkpt><trkpt lat="44.707977973985464" lon="9.491819015419068"><ele>1056.6666666666667</ele><time>2026-04-22T09:38:33Z</time></trkpt><trkpt lat="44.70793662041383" lon="9.491731593036299"><ele>1057.3333333333335</ele><time>2026-04-22T09:38:34Z</time></trkpt><trkpt lat="44.70789534968977" lon="9.491653475463021"><ele>1058.0</ele><time>2026-04-22T09:38:35Z</time></trkpt><trkpt lat="44.70785058753646" lon="9.49156170824198"><ele>1058.0</ele><time>2026-04-22T09:38:48Z</time></trkpt><trkpt lat="44.707809386077635" lon="9.491488906459178"><ele>1058.0</ele><time>2026-04-22T09:38:51Z</time></trkpt><trkpt lat="44.707686926236434" lon="9.491317052832814"><ele>1058.0</ele><time>2026-04-22T09:38:53Z</time></trkpt><trkpt lat="44.70762762809434" lon="9.491180195263926"><ele>1058.0</ele><time>2026-04-22T09:38:55Z</time></trkpt><trkpt lat="44.70756956698821" lon="9.49108226003656"><ele>1058.0</ele><time>2026-04-22T09:38:57Z</time></trkpt><trkpt lat="44.707514064568606" lon="9.49101263274142"><ele>1061.5</ele><time>2026-04-22T09:38:58Z</time></trkpt><trkpt lat="44.70746348881577" lon="9.490955377935732"><ele>1065.0</ele><time>2026-04-22T09:38:59Z</time></trkpt><trkpt lat="44.70741483752941" lon="9.490885156664369"><ele>1068.5</ele><time>2026-04-22T09:39:00Z</time></trkpt><trkpt lat="44.70738417290309" lon="9.49073426416543"><ele>1072.0</ele><time>2026-04-22T09:39:02.001Z</time></trkpt><trkpt lat="44.70736428347249" lon="9.49060471722144"><ele>1075.5</ele><time>2026-04-22T09:39:03.001Z</time></trkpt><trkpt lat="44.707338568246186" lon="9.490480149284993"><ele>1079.0</ele><time>2026-04-22T09:39:04.001Z</time></trkpt><trkpt lat="44.707319197039375" lon="9.490354105498845"><ele>1081.3333333333335</ele><time>2026-04-22T09:39:05.001Z</time></trkpt><trkpt lat="44.70730874931042" lon="9.490256983243585"><ele>1083.6666666666667</ele><time>2026-04-22T09:39:06.001Z</time></trkpt><trkpt lat="44.70729206229349" lon="9.4901533304815"><ele>1086.0</ele><time>2026-04-22T09:39:07.001Z</time></trkpt><trkpt lat="44.707279008373966" lon="9.490043390154542"><ele>1088.3333333333333</ele><time>2026-04-22T09:39:08.001Z</time></trkpt><trkpt lat="44.70727537200889" lon="9.489916406036519"><ele>1090.6666666666665</ele><time>2026-04-22T09:39:09.001Z</time></trkpt><trkpt lat="44.707283350608336" lon="9.489788825625267"><ele>1093.0</ele><time>2026-04-22T09:39:11.001Z</time></trkpt><trkpt lat="44.70732489084951" lon="9.489935567549942"><ele>1093.0</ele><time>2026-04-22T09:39:12.001Z</time></trkpt><trkpt lat="44.7073285784435" lon="9.489836323293655"><ele>1093.0</ele><time>2026-04-22T09:40:24Z</time></trkpt><trkpt lat="44.70731000680701" lon="9.489928024279614"><ele>1093.0</ele><time>2026-04-22T09:40:30Z</time></trkpt><trkpt lat="44.70732224621015" lon="9.490114521713492"><ele>1093.0</ele><time>2026-04-22T09:40:32Z</time></trkpt><trkpt lat="44.707338648889994" lon="9.490206963947074"><ele>1093.0</ele><time>2026-04-22T09:40:33Z</time></trkpt><trkpt lat="44.70735505579127" lon="9.49032679293509"><ele>1093.0</ele><time>2026-04-22T09:40:34Z</time></trkpt><trkpt lat="44.707368405693146" lon="9.490435938599923"><ele>1090.6666666666665</ele><time>2026-04-22T09:40:35Z</time></trkpt><trkpt lat="44.707371457265836" lon="9.490538416984359"><ele>1088.3333333333333</ele><time>2026-04-22T09:40:36Z</time></trkpt><trkpt lat="44.707380332214015" lon="9.490651199696504"><ele>1086.0</ele><time>2026-04-22T09:40:37Z</time></trkpt><trkpt lat="44.70738916238133" lon="9.490761709986826"><ele>1083.6666666666667</ele><time>2026-04-22T09:40:38Z</time></trkpt><trkpt lat="44.70739658745741" lon="9.490860404151752"><ele>1081.3333333333335</ele><time>2026-04-22T09:40:39Z</time></trkpt><trkpt lat="44.707480149997" lon="9.491013703688587"><ele>1079.0</ele><time>2026-04-22T09:40:41Z</time></trkpt><trkpt lat="44.70754691289553" lon="9.491091061550064"><ele>1079.0</ele><time>2026-04-22T09:40:42Z</time></trkpt><trkpt lat="44.70761198349295" lon="9.49121000126892"><ele>1079.0</ele><time>2026-04-22T09:40:44Z</time></trkpt><trkpt lat="44.70764765372339" lon="9.491354729928542"><ele>1079.0</ele><time>2026-04-22T09:40:46Z</time></trkpt><trkpt lat="44.70769881674966" lon="9.491406967273424"><ele>1079.0</ele><time>2026-04-22T09:40:47Z</time></trkpt><trkpt lat="44.7077743338277" lon="9.491412519400598"><ele>1079.0</ele><time>2026-04-22T09:40:49Z</time></trkpt><trkpt lat="44.70782477704086" lon="9.491478559536766"><ele>1079.0</ele><time>2026-04-22T09:40:51Z</time></trkpt><trkpt lat="44.70783792806871" lon="9.491659461906254"><ele>1073.75</ele><time>2026-04-22T09:40:54Z</time></trkpt><trkpt lat="44.707913885572374" lon="9.491793719975401"><ele>1068.5</ele><time>2026-04-22T09:40:56Z</time></trkpt><trkpt lat="44.70800725926332" lon="9.492051914069798"><ele>1063.25</ele><time>2026-04-22T09:40:59Z</time></trkpt><trkpt lat="44.70800634246673" lon="9.492197680579496"><ele>1058.0</ele><time>2026-04-22T09:41:38Z</time></trkpt><trkpt lat="44.70801404982411" lon="9.49234077594697"><ele>1057.0</ele><time>2026-04-22T09:41:40Z</time></trkpt><trkpt lat="44.7080493290365" lon="9.492435418822781"><ele>1056.0</ele><time>2026-04-22T09:41:41Z</time></trkpt><trkpt lat="44.70809474140718" lon="9.492587283940086"><ele>1055.0</ele><time>2026-04-22T09:41:42Z</time></trkpt><trkpt lat="44.70814619008023" lon="9.492763247745168"><ele>1054.0</ele><time>2026-04-22T09:41:43Z</time></trkpt><trkpt lat="44.7081818469331" lon="9.492936873399023"><ele>1053.6666666666665</ele><time>2026-04-22T09:41:44Z</time></trkpt><trkpt lat="44.70819703444907" lon="9.493079882129287"><ele>1053.3333333333333</ele><time>2026-04-22T09:41:45Z</time></trkpt><trkpt lat="44.70820897619951" lon="9.493205017182289"><ele>1053.0</ele><time>2026-04-22T09:41:46Z</time></trkpt><trkpt lat="44.70822116224074" lon="9.493341203258687"><ele>1052.6666666666667</ele><time>2026-04-22T09:41:47Z</time></trkpt><trkpt lat="44.70823918413472" lon="9.493438553692874"><ele>1052.3333333333335</ele><time>2026-04-22T09:41:48Z</time></trkpt><trkpt lat="44.70824395519202" lon="9.493529605997624"><ele>1052.0</ele><time>2026-04-22T09:41:49Z</time></trkpt><trkpt lat="44.70824864646321" lon="9.493628789797135"><ele>1052.0</ele><time>2026-04-22T09:41:50Z</time></trkpt><trkpt lat="44.7082261058092" lon="9.493719061276368"><ele>1052.0</ele><time>2026-04-22T09:41:51Z</time></trkpt><trkpt lat="44.70818346314001" lon="9.493839437616874"><ele>1052.0</ele><time>2026-04-22T09:41:52Z</time></trkpt><trkpt lat="44.708143591091606" lon="9.493971373681202"><ele>1052.0</ele><time>2026-04-22T09:41:53Z</time></trkpt><trkpt lat="44.708129276300276" lon="9.494101662564654"><ele>1052.0</ele><time>2026-04-22T09:41:54Z</time></trkpt><trkpt lat="44.708123910637575" lon="9.494252786826534"><ele>1049.5</ele><time>2026-04-22T09:41:55Z</time></trkpt><trkpt lat="44.70811034939951" lon="9.494416561002117"><ele>1047.0</ele><time>2026-04-22T09:41:56Z</time></trkpt><trkpt lat="44.70808637918358" lon="9.494598492840089"><ele>1044.5</ele><time>2026-04-22T09:41:57Z</time></trkpt><trkpt lat="44.70806300754032" lon="9.494767072437604"><ele>1042.0</ele><time>2026-04-22T09:41:58Z</time></trkpt><trkpt lat="44.70802791643001" lon="9.494905588984786"><ele>1040.0</ele><time>2026-04-22T09:41:59Z</time></trkpt><trkpt lat="44.707989926890065" lon="9.495020733093966"><ele>1038.0</ele><time>2026-04-22T09:42:00Z</time></trkpt><trkpt lat="44.70796821368301" lon="9.495105357444924"><ele>1036.0</ele><time>2026-04-22T09:42:01Z</time></trkpt><trkpt lat="44.707998782540486" lon="9.495303698550444"><ele>1034.0</ele><time>2026-04-22T09:42:03Z</time></trkpt><trkpt lat="44.70800558377164" lon="9.49546822044702"><ele>1032.0</ele><time>2026-04-22T09:42:04Z</time></trkpt><trkpt lat="44.7080112070381" lon="9.495645901221353"><ele>1030.8333333333333</ele><time>2026-04-22T09:42:05Z</time></trkpt><trkpt lat="44.70802237675486" lon="9.495789627233318"><ele>1029.6666666666667</ele><time>2026-04-22T09:42:06Z</time></trkpt><trkpt lat="44.708026520796516" lon="9.495909887229361"><ele>1028.5</ele><time>2026-04-22T09:42:07Z</time></trkpt><trkpt lat="44.70803682867629" lon="9.496010445914752"><ele>1027.3333333333335</ele><time>2026-04-22T09:42:08Z</time></trkpt><trkpt lat="44.70805021562452" lon="9.496123397766198"><ele>1026.1666666666667</ele><time>2026-04-22T09:42:09Z</time></trkpt><trkpt lat="44.708060530427346" lon="9.496253256411054"><ele>1025.0</ele><time>2026-04-22T09:42:10Z</time></trkpt><trkpt lat="44.70806786282295" lon="9.496391645170773"><ele>1022.5000000000001</ele><time>2026-04-22T09:42:11Z</time></trkpt><trkpt lat="44.70808243122145" lon="9.49651696668315"><ele>1020.0</ele><time>2026-04-22T09:42:12Z</time></trkpt><trkpt lat="44.708084488768044" lon="9.49663321231427"><ele>1017.5</ele><time>2026-04-22T09:42:13Z</time></trkpt><trkpt lat="44.70809046046531" lon="9.49673981699781"><ele>1015.0</ele><time>2026-04-22T09:42:14Z</time></trkpt><trkpt lat="44.708079460263065" lon="9.496831972573165"><ele>1012.5000000000001</ele><time>2026-04-22T09:42:15Z</time></trkpt><trkpt lat="44.708043579092134" lon="9.496927505348868"><ele>1010.0</ele><time>2026-04-22T09:42:16Z</time></trkpt><trkpt lat="44.707997065728385" lon="9.497038887015881"><ele>1008.3333333333334</ele><time>2026-04-22T09:42:17Z</time></trkpt><trkpt lat="44.707957129466784" lon="9.497184411509407"><ele>1006.6666666666667</ele><time>2026-04-22T09:42:18Z</time></trkpt><trkpt lat="44.70793234855835" lon="9.497326009083654"><ele>1005.0</ele><time>2026-04-22T09:42:19Z</time></trkpt><trkpt lat="44.707898530557046" lon="9.497403152060484"><ele>1003.3333333333333</ele><time>2026-04-22T09:42:20Z</time></trkpt><trkpt lat="44.70784750965207" lon="9.497463962711407"><ele>1001.6666666666666</ele><time>2026-04-22T09:42:21Z</time></trkpt><trkpt lat="44.707789020059664" lon="9.497511150926602"><ele>1000.0</ele><time>2026-04-22T09:42:22Z</time></trkpt><trkpt lat="44.70772850038773" lon="9.49754928154569"><ele>1000.0</ele><time>2026-04-22T09:42:23Z</time></trkpt><trkpt lat="44.70765151305224" lon="9.497598878810983"><ele>1000.0</ele><time>2026-04-22T09:42:24Z</time></trkpt><trkpt lat="44.70759033302396" lon="9.497629608753995"><ele>1000.0</ele><time>2026-04-22T09:42:25Z</time></trkpt><trkpt lat="44.7075252385656" lon="9.497635172062664"><ele>1000.0</ele><time>2026-04-22T09:42:26Z</time></trkpt><trkpt lat="44.70765487824777" lon="9.497690678036255"><ele>1000.0</ele><time>2026-04-22T09:42:34Z</time></trkpt><trkpt lat="44.70780465310038" lon="9.497731320078636"><ele>1000.0</ele><time>2026-04-22T09:42:36Z</time></trkpt><trkpt lat="44.70791339321657" lon="9.497747791172857"><ele>1000.0</ele><time>2026-04-22T09:42:37Z</time></trkpt><trkpt lat="44.708004051031295" lon="9.497776315593034"><ele>1000.0</ele><time>2026-04-22T09:42:38Z</time></trkpt><trkpt lat="44.70807058378033" lon="9.497824796582659"><ele>1000.0</ele><time>2026-04-22T09:42:39Z</time></trkpt><trkpt lat="44.70811708355596" lon="9.497936355818279"><ele>1000.0</ele><time>2026-04-22T09:42:40Z</time></trkpt><trkpt lat="44.70814616224374" lon="9.498059522819098"><ele>1000.0</ele><time>2026-04-22T09:42:41Z</time></trkpt><trkpt lat="44.70814219604057" lon="9.498203323802981"><ele>1000.0</ele><time>2026-04-22T09:42:42Z</time></trkpt><trkpt lat="44.70812174250873" lon="9.498361140461558"><ele>1000.0</ele><time>2026-04-22T09:42:43Z</time></trkpt><trkpt lat="44.70809129875656" lon="9.498520101283908"><ele>1000.0</ele><time>2026-04-22T09:42:44Z</time></trkpt><trkpt lat="44.70806628114081" lon="9.49866919643264"><ele>1000.0</ele><time>2026-04-22T09:42:45Z</time></trkpt><trkpt lat="44.708046330055176" lon="9.498829953787903"><ele>1000.4</ele><time>2026-04-22T09:42:46Z</time></trkpt><trkpt lat="44.70803841972683" lon="9.498993718093327"><ele>1000.8</ele><time>2026-04-22T09:42:47Z</time></trkpt><trkpt lat="44.708031521752304" lon="9.499153308848637"><ele>1001.2</ele><time>2026-04-22T09:42:48Z</time></trkpt><trkpt lat="44.70802372555143" lon="9.499304821259244"><ele>1001.6</ele><time>2026-04-22T09:42:49Z</time></trkpt><trkpt lat="44.70802145092132" lon="9.499452380012398"><ele>1002.0</ele><time>2026-04-22T09:42:50Z</time></trkpt><trkpt lat="44.708024770219886" lon="9.499603646759342"><ele>1002.0</ele><time>2026-04-22T09:42:51Z</time></trkpt><trkpt lat="44.708032156720286" lon="9.49977080147308"><ele>1002.0</ele><time>2026-04-22T09:42:52Z</time></trkpt><trkpt lat="44.70806208866494" lon="9.49993008256789"><ele>1002.0</ele><time>2026-04-22T09:42:53Z</time></trkpt><trkpt lat="44.70813044645294" lon="9.500046575167197"><ele>1002.0</ele><time>2026-04-22T09:42:54Z</time></trkpt><trkpt lat="44.70827977368648" lon="9.500109176993085"><ele>1002.0</ele><time>2026-04-22T09:42:55Z</time></trkpt><trkpt lat="44.70841852895946" lon="9.50017969999526"><ele>1002.0</ele><time>2026-04-22T09:42:56Z</time></trkpt><trkpt lat="44.70854637188727" lon="9.500223344886729"><ele>1002.0</ele><time>2026-04-22T09:42:57Z</time></trkpt><trkpt lat="44.70865899729072" lon="9.500239544153233"><ele>1002.0</ele><time>2026-04-22T09:42:58Z</time></trkpt><trkpt lat="44.70877111358932" lon="9.500234518424495"><ele>1004.2</ele><time>2026-04-22T09:42:59Z</time></trkpt><trkpt lat="44.708891334154266" lon="9.500226507350801"><ele>1006.4000000000001</ele><time>2026-04-22T09:43:00Z</time></trkpt><trkpt lat="44.70901411620011" lon="9.500214073085184"><ele>1008.5999999999999</ele><time>2026-04-22T09:43:01Z</time></trkpt><trkpt lat="44.709116239154724" lon="9.500201660693186"><ele>1010.8</ele><time>2026-04-22T09:43:02Z</time></trkpt><trkpt lat="44.709203387593945" lon="9.500195785952172"><ele>1013.0</ele><time>2026-04-22T09:43:03Z</time></trkpt><trkpt lat="44.709298282266175" lon="9.500237601546974"><ele>1013.0</ele><time>2026-04-22T09:43:04Z</time></trkpt><trkpt lat="44.70938544704691" lon="9.500364634291984"><ele>1013.0</ele><time>2026-04-22T09:43:05Z</time></trkpt><trkpt lat="44.70943949594649" lon="9.500499064086139"><ele>1013.0</ele><time>2026-04-22T09:43:06Z</time></trkpt><trkpt lat="44.70947901641963" lon="9.500638323335053"><ele>1013.0</ele><time>2026-04-22T09:43:07Z</time></trkpt><trkpt lat="44.70952302281213" lon="9.500785302343074"><ele>1015.0</ele><time>2026-04-22T09:43:08Z</time></trkpt><trkpt lat="44.709574184982245" lon="9.500920662121423"><ele>1017.0</ele><time>2026-04-22T09:43:09Z</time></trkpt><trkpt lat="44.70962773748787" lon="9.50103174814783"><ele>1019.0</ele><time>2026-04-22T09:43:10Z</time></trkpt><trkpt lat="44.70970989015323" lon="9.501128928910738"><ele>1021.0</ele><time>2026-04-22T09:43:11Z</time></trkpt><trkpt lat="44.70981460845183" lon="9.501206586431021"><ele>1023.0</ele><time>2026-04-22T09:43:12Z</time></trkpt><trkpt lat="44.70993704269635" lon="9.501283771173595"><ele>1023.0</ele><time>2026-04-22T09:43:13Z</time></trkpt><trkpt lat="44.71005476981947" lon="9.50137553878813"><ele>1023.0</ele><time>2026-04-22T09:43:14Z</time></trkpt><trkpt lat="44.7101728969433" lon="9.50146732044006"><ele>1023.0</ele><time>2026-04-22T09:43:15Z</time></trkpt><trkpt lat="44.710276297289965" lon="9.501562249909458"><ele>1023.0</ele><time>2026-04-22T09:43:16Z</time></trkpt><trkpt lat="44.71034366166748" lon="9.50163230034053"><ele>1026.2</ele><time>2026-04-22T09:43:17Z</time></trkpt><trkpt lat="44.71038725220999" lon="9.501741516803921"><ele>1029.4</ele><time>2026-04-22T09:43:18Z</time></trkpt><trkpt lat="44.710413842607096" lon="9.501866830674334"><ele>1032.6000000000001</ele><time>2026-04-22T09:43:19Z</time></trkpt><trkpt lat="44.710427775844565" lon="9.502015865188577"><ele>1035.8</ele><time>2026-04-22T09:43:20Z</time></trkpt><trkpt lat="44.71044972502835" lon="9.502188205880852"><ele>1039.0</ele><time>2026-04-22T09:43:21Z</time></trkpt><trkpt lat="44.71049436555883" lon="9.502396277779908"><ele>1039.0</ele><time>2026-04-22T09:43:22Z</time></trkpt><trkpt lat="44.71054675822021" lon="9.502625249373738"><ele>1039.0</ele><time>2026-04-22T09:43:23Z</time></trkpt><trkpt lat="44.710591659515174" lon="9.502784137065039"><ele>1039.0</ele><time>2026-04-22T09:43:24Z</time></trkpt><trkpt lat="44.71064944948887" lon="9.502902862411275"><ele>1039.0</ele><time>2026-04-22T09:43:25Z</time></trkpt><trkpt lat="44.710742665830224" lon="9.503013286868688"><ele>1038.8</ele><time>2026-04-22T09:43:26Z</time></trkpt><trkpt lat="44.710866744019576" lon="9.503095051332684"><ele>1038.6000000000001</ele><time>2026-04-22T09:43:27Z</time></trkpt><trkpt lat="44.71097793244944" lon="9.503164461316693"><ele>1038.4</ele><time>2026-04-22T09:43:28Z</time></trkpt><trkpt lat="44.71106761371152" lon="9.50321965979225"><ele>1038.2</ele><time>2026-04-22T09:43:29Z</time></trkpt><trkpt lat="44.711147192382555" lon="9.50328596417553"><ele>1038.0</ele><time>2026-04-22T09:43:30Z</time></trkpt><trkpt lat="44.71122640763485" lon="9.503375746976314"><ele>1042.0</ele><time>2026-04-22T09:43:31Z</time></trkpt><trkpt lat="44.71129523525111" lon="9.503499650683688"><ele>1046.0</ele><time>2026-04-22T09:43:32Z</time></trkpt><trkpt lat="44.711323307033496" lon="9.503670551848517"><ele>1050.0</ele><time>2026-04-22T09:43:33Z</time></trkpt><trkpt lat="44.71138153038468" lon="9.50382571866431"><ele>1054.0</ele><time>2026-04-22T09:43:34Z</time></trkpt><trkpt lat="44.71140727262489" lon="9.5039716833676"><ele>1054.0</ele><time>2026-04-22T09:43:35Z</time></trkpt><trkpt lat="44.711412188171515" lon="9.50411541876523"><ele>1054.0</ele><time>2026-04-22T09:43:36Z</time></trkpt><trkpt lat="44.71138715562655" lon="9.504261257154253"><ele>1054.0</ele><time>2026-04-22T09:43:37Z</time></trkpt><trkpt lat="44.711319595484376" lon="9.504387896453196"><ele>1054.0</ele><time>2026-04-22T09:43:38Z</time></trkpt><trkpt lat="44.71122551392947" lon="9.50450571883802"><ele>1054.0</ele><time>2026-04-22T09:43:39Z</time></trkpt><trkpt lat="44.71118211693915" lon="9.50462896755283"><ele>1054.0</ele><time>2026-04-22T09:43:40Z</time></trkpt><trkpt lat="44.711158837321875" lon="9.504712850520619"><ele>1054.0</ele><time>2026-04-22T09:43:41Z</time></trkpt><trkpt lat="44.71116413990965" lon="9.504814328306056"><ele>1054.0</ele><time>2026-04-22T09:43:42Z</time></trkpt><trkpt lat="44.711252468184284" lon="9.504921144745389"><ele>1054.0</ele><time>2026-04-22T09:43:43Z</time></trkpt><trkpt lat="44.71134067428811" lon="9.5049851667336"><ele>1054.0</ele><time>2026-04-22T09:43:44Z</time></trkpt><trkpt lat="44.711413517813114" lon="9.505020040074305"><ele>1054.0</ele><time>2026-04-22T09:43:45Z</time></trkpt><trkpt lat="44.71149539017177" lon="9.50491457792453"><ele>1054.0</ele><time>2026-04-22T09:43:46Z</time></trkpt><trkpt lat="44.71157980532567" lon="9.504803245796474"><ele>1054.0</ele><time>2026-04-22T09:43:47Z</time></trkpt><trkpt lat="44.71168395053485" lon="9.504681273784504"><ele>1054.0</ele><time>2026-04-22T09:43:48Z</time></trkpt><trkpt lat="44.711790712656324" lon="9.504593240026828"><ele>1054.0</ele><time>2026-04-22T09:43:49Z</time></trkpt><trkpt lat="44.71186059651122" lon="9.504487608940677"><ele>1056.5</ele><time>2026-04-22T09:43:50Z</time></trkpt><trkpt lat="44.71193958647892" lon="9.50439513002318"><ele>1059.0</ele><time>2026-04-22T09:43:51Z</time></trkpt><trkpt lat="44.71196968693903" lon="9.504225346776357"><ele>1061.5</ele><time>2026-04-22T09:43:52Z</time></trkpt><trkpt lat="44.71200099610667" lon="9.504057525703749"><ele>1064.0</ele><time>2026-04-22T09:43:53Z</time></trkpt><trkpt lat="44.71204495027459" lon="9.503908969156784"><ele>1064.0</ele><time>2026-04-22T09:43:54Z</time></trkpt><trkpt lat="44.71207401384186" lon="9.503755167493953"><ele>1064.0</ele><time>2026-04-22T09:43:55Z</time></trkpt><trkpt lat="44.71210810058998" lon="9.50357681525176"><ele>1064.0</ele><time>2026-04-22T09:43:56Z</time></trkpt><trkpt lat="44.71212912769928" lon="9.503388939915343"><ele>1064.0</ele><time>2026-04-22T09:43:57Z</time></trkpt><trkpt lat="44.712129747171346" lon="9.503199167352864"><ele>1064.25</ele><time>2026-04-22T09:43:58Z</time></trkpt><trkpt lat="44.712124918684495" lon="9.503010451507373"><ele>1064.5</ele><time>2026-04-22T09:43:59Z</time></trkpt><trkpt lat="44.7121173693579" lon="9.50281601754835"><ele>1064.75</ele><time>2026-04-22T09:44:00Z</time></trkpt><trkpt lat="44.71210817635382" lon="9.502630735258206"><ele>1065.0</ele><time>2026-04-22T09:44:01Z</time></trkpt><trkpt lat="44.71210056772484" lon="9.502467088538157"><ele>1066.5</ele><time>2026-04-22T09:44:02Z</time></trkpt><trkpt lat="44.712097338548354" lon="9.502309793593415"><ele>1068.0</ele><time>2026-04-22T09:44:03Z</time></trkpt><trkpt lat="44.71209501704282" lon="9.502156990687201"><ele>1069.5</ele><time>2026-04-22T09:44:04Z</time></trkpt><trkpt lat="44.712093344961986" lon="9.501999347622457"><ele>1071.0</ele><time>2026-04-22T09:44:05Z</time></trkpt><trkpt lat="44.71209402881574" lon="9.50182694384173"><ele>1072.5</ele><time>2026-04-22T09:44:06Z</time></trkpt><trkpt lat="44.71210334837569" lon="9.501644588488798"><ele>1074.0</ele><time>2026-04-22T09:44:07Z</time></trkpt><trkpt lat="44.71212535566649" lon="9.501490171629857"><ele>1075.5</ele><time>2026-04-22T09:44:08Z</time></trkpt><trkpt lat="44.71217988218136" lon="9.501343728711667"><ele>1077.0</ele><time>2026-04-22T09:44:09Z</time></trkpt><trkpt lat="44.71226348029705" lon="9.501206982791638"><ele>1077.0</ele><time>2026-04-22T09:44:10Z</time></trkpt><trkpt lat="44.712354048249296" lon="9.501043838652919"><ele>1077.0</ele><time>2026-04-22T09:44:11Z</time></trkpt><trkpt lat="44.71245843994372" lon="9.500885778698521"><ele>1077.0</ele><time>2026-04-22T09:44:12Z</time></trkpt><trkpt lat="44.712554125447255" lon="9.500724733725669"><ele>1077.0</ele><time>2026-04-22T09:44:13Z</time></trkpt><trkpt lat="44.71262689621405" lon="9.500558352947955"><ele>1077.0</ele><time>2026-04-22T09:44:14Z</time></trkpt><trkpt lat="44.712672791956116" lon="9.500370616538499"><ele>1077.0</ele><time>2026-04-22T09:44:15Z</time></trkpt><trkpt lat="44.71268396828655" lon="9.50018674791095"><ele>1077.0</ele><time>2026-04-22T09:44:16Z</time></trkpt><trkpt lat="44.71267403378233" lon="9.499992862197454"><ele>1077.0</ele><time>2026-04-22T09:44:17Z</time></trkpt><trkpt lat="44.712672378279755" lon="9.499836059635307"><ele>1077.0</ele><time>2026-04-22T09:44:18Z</time></trkpt><trkpt lat="44.712701322079596" lon="9.499723329937304"><ele>1077.0</ele><time>2026-04-22T09:44:19Z</time></trkpt><trkpt lat="44.71275618987569" lon="9.499649636821646"><ele>1077.0</ele><time>2026-04-22T09:44:20Z</time></trkpt><trkpt lat="44.712834850676394" lon="9.4996324046873"><ele>1077.0</ele><time>2026-04-22T09:44:22Z</time></trkpt><trkpt lat="44.712889600753776" lon="9.499552028494014"><ele>1077.0</ele><time>2026-04-22T09:44:25Z</time></trkpt><trkpt lat="44.712903614606645" lon="9.499454931901903"><ele>1077.0</ele><time>2026-04-22T09:44:27Z</time></trkpt><trkpt lat="44.71292105870333" lon="9.499328858256488"><ele>1077.0</ele><time>2026-04-22T09:44:29Z</time></trkpt><trkpt lat="44.71293901892703" lon="9.499216822443794"><ele>1077.0</ele><time>2026-04-22T09:44:31Z</time></trkpt><trkpt lat="44.71295014904176" lon="9.499101238616918"><ele>1077.0</ele><time>2026-04-22T09:44:32Z</time></trkpt><trkpt lat="44.7129873700614" lon="9.498953201939448"><ele>1077.0</ele><time>2026-04-22T09:44:33Z</time></trkpt><trkpt lat="44.713027093803106" lon="9.49877132630389"><ele>1077.0</ele><time>2026-04-22T09:44:34Z</time></trkpt><trkpt lat="44.713056076261566" lon="9.498557419081488"><ele>1077.0</ele><time>2026-04-22T09:44:35Z</time></trkpt><trkpt lat="44.7130620850969" lon="9.498318984609893"><ele>1077.0</ele><time>2026-04-22T09:44:36Z</time></trkpt><trkpt lat="44.713054786853085" lon="9.498068561029344"><ele>1077.6666666666667</ele><time>2026-04-22T09:44:37Z</time></trkpt><trkpt lat="44.71305042850066" lon="9.49780937661321"><ele>1078.3333333333335</ele><time>2026-04-22T09:44:38Z</time></trkpt><trkpt lat="44.71305364187385" lon="9.497537954103512"><ele>1079.0</ele><time>2026-04-22T09:44:39Z</time></trkpt><trkpt lat="44.71307338476925" lon="9.497268442880948"><ele>1080.0</ele><time>2026-04-22T09:44:40Z</time></trkpt><trkpt lat="44.7130759035465" lon="9.497001152546897"><ele>1081.0</ele><time>2026-04-22T09:44:41Z</time></trkpt><trkpt lat="44.7130282072325" lon="9.496716101509548"><ele>1082.0</ele><time>2026-04-22T09:44:42Z</time></trkpt><trkpt lat="44.71297040403541" lon="9.496438544077686"><ele>1082.6666666666667</ele><time>2026-04-22T09:44:43Z</time></trkpt><trkpt lat="44.71292855509448" lon="9.49619546965261"><ele>1083.3333333333333</ele><time>2026-04-22T09:44:44Z</time></trkpt><trkpt lat="44.71288775089555" lon="9.495954906364934"><ele>1084.0</ele><time>2026-04-22T09:44:45Z</time></trkpt><trkpt lat="44.71285136224447" lon="9.495710928437463"><ele>1084.0</ele><time>2026-04-22T09:44:46Z</time></trkpt><trkpt lat="44.7128066311932" lon="9.495452434652488"><ele>1084.0</ele><time>2026-04-22T09:44:47Z</time></trkpt><trkpt lat="44.71275392308427" lon="9.495187279353845"><ele>1084.0</ele><time>2026-04-22T09:44:48Z</time></trkpt><trkpt lat="44.71268285072067" lon="9.494951487060446"><ele>1086.3333333333333</ele><time>2026-04-22T09:44:49Z</time></trkpt><trkpt lat="44.712618519151874" lon="9.49470204157518"><ele>1088.6666666666667</ele><time>2026-04-22T09:44:50Z</time></trkpt><trkpt lat="44.712555783892846" lon="9.494458938808116"><ele>1091.0</ele><time>2026-04-22T09:44:51Z</time></trkpt><trkpt lat="44.71250036076034" lon="9.494240592606436"><ele>1091.3333333333335</ele><time>2026-04-22T09:44:52Z</time></trkpt><trkpt lat="44.71243838911261" lon="9.494020642489295"><ele>1091.6666666666667</ele><time>2026-04-22T09:44:53Z</time></trkpt><trkpt lat="44.7123695546617" lon="9.493809331998674"><ele>1092.0</ele><time>2026-04-22T09:44:54Z</time></trkpt><trkpt lat="44.71229013093974" lon="9.493603821201337"><ele>1092.0</ele><time>2026-04-22T09:44:55Z</time></trkpt><trkpt lat="44.71221425779814" lon="9.493416650741722"><ele>1092.0</ele><time>2026-04-22T09:44:56Z</time></trkpt><trkpt lat="44.71214797596878" lon="9.493277900145197"><ele>1092.0</ele><time>2026-04-22T09:44:57Z</time></trkpt><trkpt lat="44.71208243836011" lon="9.493179352314133"><ele>1092.0</ele><time>2026-04-22T09:44:58Z</time></trkpt><trkpt lat="44.712022610700274" lon="9.493081569691388"><ele>1092.0</ele><time>2026-04-22T09:44:59Z</time></trkpt><trkpt lat="44.71196348630258" lon="9.492980955590237"><ele>1092.0</ele><time>2026-04-22T09:45:00Z</time></trkpt><trkpt lat="44.71192102404183" lon="9.49289261356776"><ele>1092.0</ele><time>2026-04-22T09:45:01Z</time></trkpt><trkpt lat="44.711882937558315" lon="9.492723959487467"><ele>1092.0</ele><time>2026-04-22T09:45:03Z</time></trkpt><trkpt lat="44.71187627120354" lon="9.49262810230966"><ele>1092.0</ele><time>2026-04-22T09:45:04Z</time></trkpt><trkpt lat="44.711873991248474" lon="9.49252977972897"><ele>1092.0</ele><time>2026-04-22T09:45:05Z</time></trkpt><trkpt lat="44.71186907730576" lon="9.492427394392957"><ele>1091.3333333333333</ele><time>2026-04-22T09:45:06Z</time></trkpt><trkpt lat="44.71186524683944" lon="9.492329117968914"><ele>1090.6666666666667</ele><time>2026-04-22T09:45:07Z</time></trkpt><trkpt lat="44.7118616730035" lon="9.49223642976627"><ele>1090.0</ele><time>2026-04-22T09:45:08Z</time></trkpt><trkpt lat="44.71185922798568" lon="9.492145072782636"><ele>1089.3333333333335</ele><time>2026-04-22T09:45:09Z</time></trkpt><trkpt lat="44.711851067950896" lon="9.49197065056511"><ele>1088.6666666666667</ele><time>2026-04-22T09:45:11Z</time></trkpt><trkpt lat="44.71184917770422" lon="9.491879886206737"><ele>1088.0</ele><time>2026-04-22T09:45:12Z</time></trkpt><trkpt lat="44.71184734226988" lon="9.491725726866092"><ele>1088.0</ele><time>2026-04-22T09:45:14Z</time></trkpt><trkpt lat="44.71184350668056" lon="9.491594778253562"><ele>1088.0</ele><time>2026-04-22T09:45:16Z</time></trkpt><trkpt lat="44.71182759107117" lon="9.491508700922134"><ele>1088.0</ele><time>2026-04-22T09:45:19Z</time></trkpt><trkpt lat="44.71177672017226" lon="9.49156967284605"><ele>1088.0</ele><time>2026-04-22T09:45:51Z</time></trkpt><trkpt lat="44.71174047448154" lon="9.491651404789383"><ele>1088.0</ele><time>2026-04-22T09:45:52Z</time></trkpt><trkpt lat="44.711685658200764" lon="9.491741960128184"><ele>1088.0</ele><time>2026-04-22T09:45:53Z</time></trkpt><trkpt lat="44.7116201220905" lon="9.491869003512184"><ele>1088.0</ele><time>2026-04-22T09:45:54Z</time></trkpt><trkpt lat="44.71156528481332" lon="9.492020054622431"><ele>1088.0</ele><time>2026-04-22T09:45:55Z</time></trkpt><trkpt lat="44.71152839170379" lon="9.492177783633535"><ele>1088.0</ele><time>2026-04-22T09:45:56Z</time></trkpt><trkpt lat="44.711494472671276" lon="9.492303014822909"><ele>1088.0</ele><time>2026-04-22T09:45:57Z</time></trkpt><trkpt lat="44.711400160043276" lon="9.492443319272253"><ele>1087.5</ele><time>2026-04-22T09:45:59Z</time></trkpt><trkpt lat="44.71131500203376" lon="9.492508490237393"><ele>1087.0</ele><time>2026-04-22T09:46:00Z</time></trkpt><trkpt lat="44.71119910823808" lon="9.492579046466357"><ele>1086.5</ele><time>2026-04-22T09:46:01Z</time></trkpt><trkpt lat="44.7110606382987" lon="9.492660854551524"><ele>1086.0</ele><time>2026-04-22T09:46:02Z</time></trkpt><trkpt lat="44.710945083927065" lon="9.49272649275839"><ele>1082.3999999999999</ele><time>2026-04-22T09:46:03Z</time></trkpt><trkpt lat="44.71083707204038" lon="9.49280108102609"><ele>1078.8</ele><time>2026-04-22T09:46:04Z</time></trkpt><trkpt lat="44.71073835899934" lon="9.492878930510987"><ele>1075.1999999999998</ele><time>2026-04-22T09:46:05Z</time></trkpt><trkpt lat="44.71065685206911" lon="9.49294719290499"><ele>1071.6</ele><time>2026-04-22T09:46:06Z</time></trkpt><trkpt lat="44.71059839581024" lon="9.493001106256555"><ele>1068.0</ele><time>2026-04-22T09:46:07Z</time></trkpt><trkpt lat="44.71057796362978" lon="9.49317628037994"><ele>1066.8</ele><time>2026-04-22T09:46:09Z</time></trkpt><trkpt lat="44.71057821032172" lon="9.493331351600752"><ele>1065.6</ele><time>2026-04-22T09:46:10Z</time></trkpt><trkpt lat="44.71054190793303" lon="9.49342327345603"><ele>1064.4</ele><time>2026-04-22T09:46:11Z</time></trkpt><trkpt lat="44.71045886906498" lon="9.493483116373723"><ele>1063.2</ele><time>2026-04-22T09:46:12Z</time></trkpt><trkpt lat="44.71036578962122" lon="9.493609638662232"><ele>1062.0</ele><time>2026-04-22T09:46:13Z</time></trkpt><trkpt lat="44.71030705362138" lon="9.493762376656916"><ele>1060.4</ele><time>2026-04-22T09:46:14Z</time></trkpt><trkpt lat="44.71025997088475" lon="9.493878763225199"><ele>1058.8000000000002</ele><time>2026-04-22T09:46:15Z</time></trkpt><trkpt lat="44.710201911659546" lon="9.493927859216466"><ele>1057.2</ele><time>2026-04-22T09:46:16Z</time></trkpt><trkpt lat="44.71012577146813" lon="9.493953192305787"><ele>1055.6000000000001</ele><time>2026-04-22T09:46:17Z</time></trkpt><trkpt lat="44.71004478430216" lon="9.493965109496358"><ele>1054.0</ele><time>2026-04-22T09:46:18Z</time></trkpt><trkpt lat="44.709922937579904" lon="9.494015622849924"><ele>1051.1666666666665</ele><time>2026-04-22T09:46:20Z</time></trkpt><trkpt lat="44.709855124643205" lon="9.494073465213914"><ele>1048.3333333333333</ele><time>2026-04-22T09:46:21Z</time></trkpt><trkpt lat="44.70977407116204" lon="9.494134437878232"><ele>1045.5</ele><time>2026-04-22T09:46:22Z</time></trkpt><trkpt lat="44.70969920854617" lon="9.49420626592272"><ele>1042.6666666666667</ele><time>2026-04-22T09:46:23Z</time></trkpt><trkpt lat="44.70962259283254" lon="9.49427695981732"><ele>1039.8333333333335</ele><time>2026-04-22T09:46:24Z</time></trkpt><trkpt lat="44.709558796868805" lon="9.494332148403494"><ele>1037.0</ele><time>2026-04-22T09:46:25Z</time></trkpt><trkpt lat="44.70946058649904" lon="9.494423533969842"><ele>1037.0</ele><time>2026-04-22T09:46:27Z</time></trkpt><trkpt lat="44.7094296668492" lon="9.494533680939492"><ele>1037.0</ele><time>2026-04-22T09:46:28Z</time></trkpt><trkpt lat="44.70937405018" lon="9.494645009885238"><ele>1037.0</ele><time>2026-04-22T09:46:29Z</time></trkpt><trkpt lat="44.70932556710707" lon="9.494720678047598"><ele>1037.0</ele><time>2026-04-22T09:46:30Z</time></trkpt><trkpt lat="44.709348928467435" lon="9.494889246431962"><ele>1037.0</ele><time>2026-04-22T09:46:32Z</time></trkpt><trkpt lat="44.709358375816585" lon="9.494994100385856"><ele>1035.1666666666667</ele><time>2026-04-22T09:46:33Z</time></trkpt><trkpt lat="44.70936707537903" lon="9.495090168671783"><ele>1033.3333333333335</ele><time>2026-04-22T09:46:34Z</time></trkpt><trkpt lat="44.70936117337886" lon="9.4951824711837"><ele>1031.5</ele><time>2026-04-22T09:46:35Z</time></trkpt><trkpt lat="44.709356397050264" lon="9.495271355129223"><ele>1029.6666666666667</ele><time>2026-04-22T09:46:36Z</time></trkpt><trkpt lat="44.70932778569212" lon="9.495446074465457"><ele>1027.8333333333333</ele><time>2026-04-22T09:46:38Z</time></trkpt><trkpt lat="44.7093051912545" lon="9.49559618389283"><ele>1026.0</ele><time>2026-04-22T09:46:40Z</time></trkpt><trkpt lat="44.70923938834999" lon="9.495684177195386"><ele>1023.6666666666667</ele><time>2026-04-22T09:46:43Z</time></trkpt><trkpt lat="44.709189198288115" lon="9.495791227659044"><ele>1021.3333333333334</ele><time>2026-04-22T09:46:47Z</time></trkpt><trkpt lat="44.709118715063" lon="9.495858567770421"><ele>1019.0</ele><time>2026-04-22T09:46:49Z</time></trkpt><trkpt lat="44.70873431349025" lon="9.49598414930414"><ele>1019.0000000000001</ele><time>2026-04-22T09:46:52Z</time></trkpt><trkpt lat="44.708657509913785" lon="9.496012612110233"><ele>1019.0</ele><time>2026-04-22T09:46:53Z</time></trkpt><trkpt lat="44.70861461708332" lon="9.496093690087532"><ele>1019.0</ele><time>2026-04-22T09:46:54Z</time></trkpt><trkpt lat="44.70856651583802" lon="9.496192894064833"><ele>1019.0</ele><time>2026-04-22T09:46:55Z</time></trkpt><trkpt lat="44.70850641675941" lon="9.496286442068616"><ele>1019.0000000000001</ele><time>2026-04-22T09:46:56Z</time></trkpt><trkpt lat="44.70843159747769" lon="9.49637477570289"><ele>1019.0</ele><time>2026-04-22T09:46:57Z</time></trkpt><trkpt lat="44.70834405642015" lon="9.496483701252874"><ele>1017.2</ele><time>2026-04-22T09:46:58Z</time></trkpt><trkpt lat="44.708251698194836" lon="9.496581000254077"><ele>1015.4000000000001</ele><time>2026-04-22T09:46:59Z</time></trkpt><trkpt lat="44.708166643450745" lon="9.4966753449899"><ele>1013.6</ele><time>2026-04-22T09:47:00Z</time></trkpt><trkpt lat="44.70809825663351" lon="9.49677090491916"><ele>1011.8</ele><time>2026-04-22T09:47:01Z</time></trkpt><trkpt lat="44.70804535365" lon="9.496848482140742"><ele>1010.0</ele><time>2026-04-22T09:47:02Z</time></trkpt><trkpt lat="44.70801233483146" lon="9.496969517720881"><ele>1010.0000000000001</ele><time>2026-04-22T09:47:04Z</time></trkpt><trkpt lat="44.707977753200865" lon="9.497085540576297"><ele>1010.0</ele><time>2026-04-22T09:47:06Z</time></trkpt><trkpt lat="44.70796105952383" lon="9.497224596596485"><ele>1010.0</ele><time>2026-04-22T09:47:08Z</time></trkpt><trkpt lat="44.707942243832356" lon="9.497315958624476"><ele>1010.0</ele><time>2026-04-22T09:47:09Z</time></trkpt><trkpt lat="44.707913086296514" lon="9.49741269160678"><ele>1010.0000000000001</ele><time>2026-04-22T09:47:10Z</time></trkpt><trkpt lat="44.70786647772664" lon="9.497500246351995"><ele>1010.0</ele><time>2026-04-22T09:47:11Z</time></trkpt><trkpt lat="44.70778945882635" lon="9.497539862021982"><ele>1007.8333333333334</ele><time>2026-04-22T09:47:12Z</time></trkpt><trkpt lat="44.70769561678129" lon="9.49759155931162"><ele>1005.6666666666667</ele><time>2026-04-22T09:47:13Z</time></trkpt><trkpt lat="44.707624064519806" lon="9.49762879875037"><ele>1003.5</ele><time>2026-04-22T09:47:14Z</time></trkpt><trkpt lat="44.70755957278412" lon="9.497628924110607"><ele>1001.3333333333333</ele><time>2026-04-22T09:47:15Z</time></trkpt><trkpt lat="44.7074867789645" lon="9.497646686701776"><ele>999.1666666666666</ele><time>2026-04-22T09:47:16Z</time></trkpt><trkpt lat="44.70738908197828" lon="9.497772151399607"><ele>997.0</ele><time>2026-04-22T09:47:18Z</time></trkpt><trkpt lat="44.70732206388012" lon="9.497914587295469"><ele>995.75</ele><time>2026-04-22T09:47:19Z</time></trkpt><trkpt lat="44.70725849119564" lon="9.498050065144968"><ele>994.5</ele><time>2026-04-22T09:47:20Z</time></trkpt><trkpt lat="44.70720553869197" lon="9.498189968273355"><ele>993.25</ele><time>2026-04-22T09:47:21Z</time></trkpt><trkpt lat="44.70715246717945" lon="9.498351663476164"><ele>992.0</ele><time>2026-04-22T09:47:22Z</time></trkpt><trkpt lat="44.70710446241955" lon="9.498522683914432"><ele>992.0</ele><time>2026-04-22T09:47:23Z</time></trkpt><trkpt lat="44.707067313568935" lon="9.49869822447357"><ele>992.0</ele><time>2026-04-22T09:47:24Z</time></trkpt><trkpt lat="44.70704314498454" lon="9.498855693202106"><ele>992.0</ele><time>2026-04-22T09:47:25Z</time></trkpt><trkpt lat="44.70702330271096" lon="9.498984335116038"><ele>992.0</ele><time>2026-04-22T09:47:26Z</time></trkpt><trkpt lat="44.70700146143593" lon="9.499090682349507"><ele>992.0</ele><time>2026-04-22T09:47:27Z</time></trkpt><trkpt lat="44.70696408766233" lon="9.49917568332527"><ele>992.6</ele><time>2026-04-22T09:47:28Z</time></trkpt><trkpt lat="44.706910131124175" lon="9.499256895874547"><ele>993.2</ele><time>2026-04-22T09:47:29Z</time></trkpt><trkpt lat="44.70684681142575" lon="9.49935254299261"><ele>993.8</ele><time>2026-04-22T09:47:30Z</time></trkpt><trkpt lat="44.70677457068984" lon="9.499451360878485"><ele>994.4</ele><time>2026-04-22T09:47:31Z</time></trkpt><trkpt lat="44.70669060112721" lon="9.499545205694737"><ele>995.0</ele><time>2026-04-22T09:47:32Z</time></trkpt><trkpt lat="44.70660310569893" lon="9.49963986381431"><ele>995.0</ele><time>2026-04-22T09:47:33Z</time></trkpt><trkpt lat="44.70651860586356" lon="9.499756675425632"><ele>995.0</ele><time>2026-04-22T09:47:34Z</time></trkpt><trkpt lat="44.70643254471581" lon="9.499898425365467"><ele>995.0</ele><time>2026-04-22T09:47:35Z</time></trkpt><trkpt lat="44.706351401549576" lon="9.500045650914949"><ele>995.0</ele><time>2026-04-22T09:47:36Z</time></trkpt><trkpt lat="44.70626912341408" lon="9.500196326266318"><ele>995.0</ele><time>2026-04-22T09:47:37Z</time></trkpt><trkpt lat="44.706180819788685" lon="9.500354216080472"><ele>995.0</ele><time>2026-04-22T09:47:38Z</time></trkpt><trkpt lat="44.706098846767226" lon="9.500502381722994"><ele>995.0</ele><time>2026-04-22T09:47:39Z</time></trkpt><trkpt lat="44.70601465265695" lon="9.500653072472865"><ele>995.0</ele><time>2026-04-22T09:47:40Z</time></trkpt><trkpt lat="44.70593430041719" lon="9.500795843966028"><ele>996.3333333333334</ele><time>2026-04-22T09:47:41Z</time></trkpt><trkpt lat="44.70583392366301" lon="9.500949380975168"><ele>997.6666666666667</ele><time>2026-04-22T09:47:42Z</time></trkpt><trkpt lat="44.70573282215996" lon="9.50113693617608"><ele>999.0</ele><time>2026-04-22T09:47:43Z</time></trkpt><trkpt lat="44.70563388597128" lon="9.501306827756798"><ele>997.0</ele><time>2026-04-22T09:47:44Z</time></trkpt><trkpt lat="44.70554476486003" lon="9.501465377585456"><ele>995.0</ele><time>2026-04-22T09:47:45Z</time></trkpt><trkpt lat="44.705453507324336" lon="9.501626933237926"><ele>993.0</ele><time>2026-04-22T09:47:46Z</time></trkpt><trkpt lat="44.70535759532563" lon="9.501797242650508"><ele>991.0</ele><time>2026-04-22T09:47:47Z</time></trkpt><trkpt lat="44.7052606528807" lon="9.501962911863249"><ele>989.75</ele><time>2026-04-22T09:47:48Z</time></trkpt><trkpt lat="44.70517052172833" lon="9.50211758304948"><ele>988.5</ele><time>2026-04-22T09:47:49Z</time></trkpt><trkpt lat="44.70507816135596" lon="9.5022599762229"><ele>987.25</ele><time>2026-04-22T09:47:50Z</time></trkpt><trkpt lat="44.70496731176398" lon="9.502374469146588"><ele>986.0</ele><time>2026-04-22T09:47:51Z</time></trkpt><trkpt lat="44.704840326425774" lon="9.50246097395737"><ele>986.0</ele><time>2026-04-22T09:47:52Z</time></trkpt><trkpt lat="44.704704904225885" lon="9.502517874170515"><ele>986.0</ele><time>2026-04-22T09:47:53Z</time></trkpt><trkpt lat="44.70457777757269" lon="9.50257367493138"><ele>986.0</ele><time>2026-04-22T09:47:54Z</time></trkpt><trkpt lat="44.7044547089981" lon="9.502642678151389"><ele>986.0</ele><time>2026-04-22T09:47:55Z</time></trkpt><trkpt lat="44.70433868482507" lon="9.502725249719465"><ele>986.25</ele><time>2026-04-22T09:47:56Z</time></trkpt><trkpt lat="44.70423978978359" lon="9.502814900939164"><ele>986.5</ele><time>2026-04-22T09:47:57Z</time></trkpt><trkpt lat="44.70415809696909" lon="9.50294116557148"><ele>986.75</ele><time>2026-04-22T09:47:58Z</time></trkpt><trkpt lat="44.7040863308246" lon="9.503097815040505"><ele>987.0</ele><time>2026-04-22T09:47:59Z</time></trkpt><trkpt lat="44.7040132432363" lon="9.503266114544704"><ele>985.8</ele><time>2026-04-22T09:48:00Z</time></trkpt><trkpt lat="44.70394371418867" lon="9.503425989712364"><ele>984.6</ele><time>2026-04-22T09:48:01Z</time></trkpt><trkpt lat="44.70385650819063" lon="9.503529985803242"><ele>983.3999999999999</ele><time>2026-04-22T09:48:02Z</time></trkpt><trkpt lat="44.70378168317023" lon="9.503612943906337"><ele>982.1999999999999</ele><time>2026-04-22T09:48:03Z</time></trkpt><trkpt lat="44.70369236291207" lon="9.50367984930516"><ele>981.0</ele><time>2026-04-22T09:48:04Z</time></trkpt><trkpt lat="44.70358555229251" lon="9.503716786366624"><ele>979.1666666666666</ele><time>2026-04-22T09:48:05Z</time></trkpt><trkpt lat="44.703485819325024" lon="9.503753575538122"><ele>977.3333333333333</ele><time>2026-04-22T09:48:06Z</time></trkpt><trkpt lat="44.70341159037909" lon="9.503796545205978"><ele>975.5</ele><time>2026-04-22T09:48:07Z</time></trkpt><trkpt lat="44.703347587704734" lon="9.503812545094885"><ele>973.6666666666666</ele><time>2026-04-22T09:48:08Z</time></trkpt><trkpt lat="44.703258560406184" lon="9.503851966406106"><ele>971.8333333333333</ele><time>2026-04-22T09:48:10Z</time></trkpt><trkpt lat="44.70325103882222" lon="9.503979812802967"><ele>970.0</ele><time>2026-04-22T09:48:14Z</time></trkpt><trkpt lat="44.70336079104466" lon="9.504038798077671"><ele>969.9999999999999</ele><time>2026-04-22T09:48:16Z</time></trkpt><trkpt lat="44.70343007934089" lon="9.504065480885876"><ele>970.0</ele><time>2026-04-22T09:48:17Z</time></trkpt><trkpt lat="44.70351154529274" lon="9.504092201350744"><ele>970.0</ele><time>2026-04-22T09:48:18Z</time></trkpt><trkpt lat="44.703602242543674" lon="9.504115946400278"><ele>970.0</ele><time>2026-04-22T09:48:19Z</time></trkpt><trkpt lat="44.703698958745456" lon="9.504141475954"><ele>969.9999999999999</ele><time>2026-04-22T09:48:20Z</time></trkpt><trkpt lat="44.70378861427616" lon="9.504180973003086"><ele>970.0</ele><time>2026-04-22T09:48:21Z</time></trkpt><trkpt lat="44.70386978057746" lon="9.504240815990451"><ele>970.8</ele><time>2026-04-22T09:48:22Z</time></trkpt><trkpt lat="44.703944074898445" lon="9.504300749895014"><ele>971.6</ele><time>2026-04-22T09:48:23Z</time></trkpt><trkpt lat="44.70399972990005" lon="9.504351062522971"><ele>972.4000000000001</ele><time>2026-04-22T09:48:24Z</time></trkpt><trkpt lat="44.70410467147882" lon="9.504425682611434"><ele>973.2</ele><time>2026-04-22T09:48:26Z</time></trkpt><trkpt lat="44.704169436490744" lon="9.504472017403948"><ele>974.0</ele><time>2026-04-22T09:48:27Z</time></trkpt><trkpt lat="44.70420953352219" lon="9.504695361953582"><ele>974.0</ele><time>2026-04-22T09:48:28Z</time></trkpt><trkpt lat="44.70429976100171" lon="9.504839771545678"><ele>974.0000000000001</ele><time>2026-04-22T09:48:29Z</time></trkpt><trkpt lat="44.70437808757476" lon="9.504961385195875"><ele>974.0000000000001</ele><time>2026-04-22T09:48:30Z</time></trkpt><trkpt lat="44.70445083983891" lon="9.505047430349812"><ele>974.0</ele><time>2026-04-22T09:48:31Z</time></trkpt><trkpt lat="44.704538444362555" lon="9.505098879325692"><ele>974.0</ele><time>2026-04-22T09:48:32Z</time></trkpt><trkpt lat="44.70466728599006" lon="9.505123499428747"><ele>972.3333333333334</ele><time>2026-04-22T09:48:33Z</time></trkpt><trkpt lat="44.70477319315515" lon="9.50512576725332"><ele>970.6666666666667</ele><time>2026-04-22T09:48:34Z</time></trkpt><trkpt lat="44.70484937709985" lon="9.505120779584201"><ele>969.0</ele><time>2026-04-22T09:48:35Z</time></trkpt><trkpt lat="44.704922044561776" lon="9.505078260242392"><ele>967.3333333333333</ele><time>2026-04-22T09:48:36Z</time></trkpt><trkpt lat="44.70498981149722" lon="9.505021236905572"><ele>965.6666666666666</ele><time>2026-04-22T09:48:37Z</time></trkpt><trkpt lat="44.70504705756467" lon="9.504933178428013"><ele>964.0</ele><time>2026-04-22T09:48:38Z</time></trkpt><trkpt lat="44.70511693928142" lon="9.504825304110195"><ele>964.0</ele><time>2026-04-22T09:48:39Z</time></trkpt><trkpt lat="44.705196148412206" lon="9.504694147117625"><ele>964.0000000000001</ele><time>2026-04-22T09:48:40Z</time></trkpt><trkpt lat="44.70525826015625" lon="9.504601041421234"><ele>964.0000000000001</ele><time>2026-04-22T09:48:41Z</time></trkpt><trkpt lat="44.70534897997113" lon="9.504520579987334"><ele>964.0</ele><time>2026-04-22T09:48:43Z</time></trkpt><trkpt lat="44.7054345924656" lon="9.504513055701254"><ele>964.0</ele><time>2026-04-22T09:48:45Z</time></trkpt><trkpt lat="44.705498180307444" lon="9.504474167956362"><ele>962.4999999999999</ele><time>2026-04-22T09:48:48Z</time></trkpt><trkpt lat="44.70554178474895" lon="9.504403785416205"><ele>961.0</ele><time>2026-04-22T09:48:49Z</time></trkpt><trkpt lat="44.70560099537693" lon="9.5043066479122"><ele>959.5</ele><time>2026-04-22T09:48:50Z</time></trkpt><trkpt lat="44.705700224351304" lon="9.504259991902787"><ele>958.0</ele><time>2026-04-22T09:48:52Z</time></trkpt><trkpt lat="44.70577308726512" lon="9.504289713243818"><ele>956.4999999999999</ele><time>2026-04-22T09:48:53Z</time></trkpt><trkpt lat="44.7058476623547" lon="9.50433022311722"><ele>955.0</ele><time>2026-04-22T09:48:54Z</time></trkpt><trkpt lat="44.70591339377468" lon="9.504355562284793"><ele>954.9999999999999</ele><time>2026-04-22T09:48:55Z</time></trkpt><trkpt lat="44.70598498097899" lon="9.504372037186956"><ele>955.0</ele><time>2026-04-22T09:48:56Z</time></trkpt><trkpt lat="44.706058352722586" lon="9.504352838897097"><ele>954.9999999999999</ele><time>2026-04-22T09:48:58Z</time></trkpt><trkpt lat="44.706128181999965" lon="9.504328617134105"><ele>954.9999999999999</ele><time>2026-04-22T09:49:01Z</time></trkpt><trkpt lat="44.706096039517874" lon="9.504235415936305"><ele>955.0</ele><time>2026-04-22T09:49:09Z</time></trkpt><trkpt lat="44.7061583062689" lon="9.504282657475287"><ele>954.9999999999999</ele><time>2026-04-22T09:49:13Z</time></trkpt><trkpt lat="44.70622005607404" lon="9.504328666303948"><ele>954.9999999999999</ele><time>2026-04-22T09:49:15Z</time></trkpt><trkpt lat="44.706292908577176" lon="9.504326896682427"><ele>955.2</ele><time>2026-04-22T09:49:18Z</time></trkpt><trkpt lat="44.70644310994539" lon="9.504325839361348"><ele>955.4</ele><time>2026-04-22T09:49:21Z</time></trkpt><trkpt lat="44.70653834320199" lon="9.504342710684824"><ele>955.5999999999999</ele><time>2026-04-22T09:49:23Z</time></trkpt><trkpt lat="44.706628279617405" lon="9.504351479626806"><ele>955.8</ele><time>2026-04-22T09:49:24Z</time></trkpt><trkpt lat="44.70671127260295" lon="9.50435207720433"><ele>956.0</ele><time>2026-04-22T09:49:25Z</time></trkpt><trkpt lat="44.706776965986585" lon="9.504333865283932"><ele>956.0000000000001</ele><time>2026-04-22T09:49:26Z</time></trkpt><trkpt lat="44.70683641243612" lon="9.504287262992971"><ele>956.0</ele><time>2026-04-22T09:49:27Z</time></trkpt><trkpt lat="44.70690182854637" lon="9.504240393263556"><ele>956.0</ele><time>2026-04-22T09:49:28Z</time></trkpt><trkpt lat="44.70696075207139" lon="9.504203364934902"><ele>956.0</ele><time>2026-04-22T09:49:29Z</time></trkpt><trkpt lat="44.70709598961939" lon="9.50413342469831"><ele>956.0000000000001</ele><time>2026-04-22T09:49:31Z</time></trkpt><trkpt lat="44.70718417661306" lon="9.50408167247566"><ele>956.0</ele><time>2026-04-22T09:49:32Z</time></trkpt><trkpt lat="44.70727564300217" lon="9.504073452453369"><ele>957.4</ele><time>2026-04-22T09:49:33Z</time></trkpt><trkpt lat="44.707367001979186" lon="9.504094076507995"><ele>958.8</ele><time>2026-04-22T09:49:34Z</time></trkpt><trkpt lat="44.70747624901784" lon="9.50411064071757"><ele>960.1999999999999</ele><time>2026-04-22T09:49:35Z</time></trkpt><trkpt lat="44.70755580588643" lon="9.50412503245199"><ele>961.5999999999999</ele><time>2026-04-22T09:49:36Z</time></trkpt><trkpt lat="44.707638603461376" lon="9.504141509276822"><ele>963.0</ele><time>2026-04-22T09:49:37Z</time></trkpt><trkpt lat="44.707740052952765" lon="9.504167311976682"><ele>965.0000000000001</ele><time>2026-04-22T09:49:39Z</time></trkpt><trkpt lat="44.70781107689339" lon="9.50418730754223"><ele>967.0</ele><time>2026-04-22T09:49:40Z</time></trkpt><trkpt lat="44.70788116036986" lon="9.504197576347927"><ele>969.0000000000001</ele><time>2026-04-22T09:49:41Z</time></trkpt><trkpt lat="44.70794926663963" lon="9.504227512774243"><ele>971.0000000000001</ele><time>2026-04-22T09:49:43Z</time></trkpt><trkpt lat="44.70801714067933" lon="9.504228984330407"><ele>973.0</ele><time>2026-04-22T09:49:47Z</time></trkpt><trkpt lat="44.708110141245626" lon="9.50427683557651"><ele>975.0000000000001</ele><time>2026-04-22T09:49:49Z</time></trkpt><trkpt lat="44.708171118022165" lon="9.504299322223984"><ele>977.0000000000001</ele><time>2026-04-22T09:49:50Z</time></trkpt><trkpt lat="44.708237793486475" lon="9.5043144617592"><ele>977.0000000000001</ele><time>2026-04-22T09:49:51Z</time></trkpt><trkpt lat="44.70831035970878" lon="9.504339748608908"><ele>977.0</ele><time>2026-04-22T09:49:52Z</time></trkpt><trkpt lat="44.708367475234084" lon="9.50438092430691"><ele>977.0</ele><time>2026-04-22T09:49:53Z</time></trkpt><trkpt lat="44.708411764594835" lon="9.504448470977335"><ele>977.0</ele><time>2026-04-22T09:49:54Z</time></trkpt><trkpt lat="44.70847944633558" lon="9.504524069920897"><ele>977.0000000000001</ele><time>2026-04-22T09:49:55Z</time></trkpt><trkpt lat="44.70859683791299" lon="9.504617154673577"><ele>977.0</ele><time>2026-04-22T09:49:56Z</time></trkpt><trkpt lat="44.70870461285853" lon="9.504695209150086"><ele>979.6</ele><time>2026-04-22T09:49:57Z</time></trkpt><trkpt lat="44.70875785877098" lon="9.50475058331947"><ele>982.2</ele><time>2026-04-22T09:49:58Z</time></trkpt><trkpt lat="44.70886858598951" lon="9.504825994348819"><ele>984.8</ele><time>2026-04-22T09:50:00Z</time></trkpt><trkpt lat="44.70893984636222" lon="9.504882118133562"><ele>987.4</ele><time>2026-04-22T09:50:01Z</time></trkpt><trkpt lat="44.70900357763226" lon="9.504936744628706"><ele>990.0</ele><time>2026-04-22T09:50:02Z</time></trkpt><trkpt lat="44.70911912184866" lon="9.504995600436436"><ele>990.0</ele><time>2026-04-22T09:50:04Z</time></trkpt><trkpt lat="44.70918823457996" lon="9.505045020679972"><ele>990.0</ele><time>2026-04-22T09:50:05Z</time></trkpt><trkpt lat="44.70923623434067" lon="9.50513812626213"><ele>990.0</ele><time>2026-04-22T09:50:06Z</time></trkpt><trkpt lat="44.70927879796286" lon="9.50526959741202"><ele>990.0</ele><time>2026-04-22T09:50:07Z</time></trkpt><trkpt lat="44.70932007134424" lon="9.505373364315952"><ele>990.0</ele><time>2026-04-22T09:50:08Z</time></trkpt><trkpt lat="44.70936910401273" lon="9.505432758250304"><ele>990.0</ele><time>2026-04-22T09:50:10Z</time></trkpt><trkpt lat="44.70947069533539" lon="9.505334937359784"><ele>993.5</ele><time>2026-04-22T09:50:12Z</time></trkpt><trkpt lat="44.709571393906245" lon="9.505295539987573"><ele>997.0</ele><time>2026-04-22T09:50:14Z</time></trkpt><trkpt lat="44.70962315556955" lon="9.505380361820832"><ele>1000.5</ele><time>2026-04-22T09:50:17Z</time></trkpt><trkpt lat="44.70978706894235" lon="9.50564472671136"><ele>1004.0</ele><time>2026-04-22T09:50:20Z</time></trkpt><trkpt lat="44.70991823600855" lon="9.505638147783564"><ele>1004.0000000000001</ele><time>2026-04-22T09:50:22Z</time></trkpt><trkpt lat="44.71004707158637" lon="9.505643944635048"><ele>1004.0</ele><time>2026-04-22T09:50:23Z</time></trkpt><trkpt lat="44.710113987491894" lon="9.505679755312077"><ele>1004.0</ele><time>2026-04-22T09:50:24Z</time></trkpt><trkpt lat="44.71015865176312" lon="9.505746797850795"><ele>1004.0</ele><time>2026-04-22T09:50:25Z</time></trkpt><trkpt lat="44.71022218388406" lon="9.505827505941316"><ele>1004.0000000000001</ele><time>2026-04-22T09:50:26Z</time></trkpt><trkpt lat="44.7102985045648" lon="9.505896164169753"><ele>1004.0</ele><time>2026-04-22T09:50:27Z</time></trkpt><trkpt lat="44.71036232369554" lon="9.505953599625803"><ele>1006.0000000000001</ele><time>2026-04-22T09:50:28Z</time></trkpt><trkpt lat="44.7104161307451" lon="9.506013734032964"><ele>1008.0</ele><time>2026-04-22T09:50:29Z</time></trkpt><trkpt lat="44.71046953332553" lon="9.50606944928926"><ele>1010.0</ele><time>2026-04-22T09:50:30Z</time></trkpt><trkpt lat="44.710565470527435" lon="9.506168335530147"><ele>1012.0</ele><time>2026-04-22T09:50:32Z</time></trkpt><trkpt lat="44.71062891715607" lon="9.506216542973599"><ele>1014.0000000000001</ele><time>2026-04-22T09:50:33Z</time></trkpt><trkpt lat="44.71069786989495" lon="9.506262439339526"><ele>1016.0</ele><time>2026-04-22T09:50:34Z</time></trkpt><trkpt lat="44.71074539166342" lon="9.506325121306148"><ele>1016.0</ele><time>2026-04-22T09:50:35Z</time></trkpt><trkpt lat="44.71080773232608" lon="9.50645610134943"><ele>1015.9999999999999</ele><time>2026-04-22T09:50:37Z</time></trkpt><trkpt lat="44.71090292898506" lon="9.506527161189"><ele>1015.9999999999999</ele><time>2026-04-22T09:50:39Z</time></trkpt><trkpt lat="44.71097212039109" lon="9.506545710652608"><ele>1016.0</ele><time>2026-04-22T09:50:40Z</time></trkpt><trkpt lat="44.711062754754145" lon="9.50655471987334"><ele>1016.0</ele><time>2026-04-22T09:50:41Z</time></trkpt><trkpt lat="44.71116029745101" lon="9.506579409163491"><ele>1018.6666666666667</ele><time>2026-04-22T09:50:42Z</time></trkpt><trkpt lat="44.71124649517132" lon="9.506611571621278"><ele>1021.3333333333334</ele><time>2026-04-22T09:50:43Z</time></trkpt><trkpt lat="44.71132451101696" lon="9.506623464481503"><ele>1024.0</ele><time>2026-04-22T09:50:44Z</time></trkpt><trkpt lat="44.7114144044281" lon="9.506643768897929"><ele>1026.6666666666667</ele><time>2026-04-22T09:50:45Z</time></trkpt><trkpt lat="44.71150570029886" lon="9.50664645965668"><ele>1029.3333333333333</ele><time>2026-04-22T09:50:46Z</time></trkpt><trkpt lat="44.71158238110722" lon="9.506643388329778"><ele>1032.0</ele><time>2026-04-22T09:50:47Z</time></trkpt><trkpt lat="44.71165565837869" lon="9.506627018352631"><ele>1032.0</ele><time>2026-04-22T09:50:48Z</time></trkpt><trkpt lat="44.711725457742894" lon="9.50660319801971"><ele>1032.0</ele><time>2026-04-22T09:50:49Z</time></trkpt><trkpt lat="44.71180753916778" lon="9.50658822215251"><ele>1032.0</ele><time>2026-04-22T09:50:50Z</time></trkpt><trkpt lat="44.711922063237914" lon="9.506574699267857"><ele>1032.0</ele><time>2026-04-22T09:50:51Z</time></trkpt><trkpt lat="44.712038367252696" lon="9.50656554742755"><ele>1032.0</ele><time>2026-04-22T09:50:52Z</time></trkpt><trkpt lat="44.71212037425468" lon="9.506573871734407"><ele>1034.75</ele><time>2026-04-22T09:50:53Z</time></trkpt><trkpt lat="44.71226649610144" lon="9.506525925903043"><ele>1037.5</ele><time>2026-04-22T09:50:54Z</time></trkpt><trkpt lat="44.71228983806453" lon="9.506711363716256"><ele>1040.25</ele><time>2026-04-22T09:50:56Z</time></trkpt><trkpt lat="44.712417044959466" lon="9.506702377313038"><ele>1043.0</ele><time>2026-04-22T09:50:58Z</time></trkpt><trkpt lat="44.712483928996555" lon="9.506709830399402"><ele>1043.0</ele><time>2026-04-22T09:50:59Z</time></trkpt><trkpt lat="44.712602412231796" lon="9.5067878049662"><ele>1043.0</ele><time>2026-04-22T09:51:00Z</time></trkpt><trkpt lat="44.71268915029315" lon="9.506885012970182"><ele>1043.0</ele><time>2026-04-22T09:51:01Z</time></trkpt><trkpt lat="44.712762923490374" lon="9.50694971770796"><ele>1043.0</ele><time>2026-04-22T09:51:03Z</time></trkpt><trkpt lat="44.712818985980704" lon="9.506992944813646"><ele>1043.0</ele><time>2026-04-22T09:51:04Z</time></trkpt><trkpt lat="44.71288675988889" lon="9.50706726094342"><ele>1042.3333333333335</ele><time>2026-04-22T09:51:06Z</time></trkpt><trkpt lat="44.71295797576775" lon="9.50713745658149"><ele>1041.6666666666667</ele><time>2026-04-22T09:51:08Z</time></trkpt><trkpt lat="44.71308954602768" lon="9.507270173748799"><ele>1041.0</ele><time>2026-04-22T09:51:11Z</time></trkpt><trkpt lat="44.71328750173179" lon="9.507505830302529"><ele>1041.0</ele><time>2026-04-22T09:51:13Z</time></trkpt><trkpt lat="44.71336391767126" lon="9.507591481708562"><ele>1041.0</ele><time>2026-04-22T09:51:15Z</time></trkpt><trkpt lat="44.7134325196938" lon="9.507725395226425"><ele>1041.0</ele><time>2026-04-22T09:51:17Z</time></trkpt><trkpt lat="44.7134680306135" lon="9.507806783466496"><ele>1041.0</ele><time>2026-04-22T09:51:18Z</time></trkpt><trkpt lat="44.71351562152594" lon="9.507891554434858"><ele>1041.0</ele><time>2026-04-22T09:51:19Z</time></trkpt><trkpt lat="44.71358043561372" lon="9.507977885797098"><ele>1041.0</ele><time>2026-04-22T09:51:20Z</time></trkpt><trkpt lat="44.7136495156292" lon="9.50804677827676"><ele>1041.6666666666667</ele><time>2026-04-22T09:51:21Z</time></trkpt><trkpt lat="44.71371915166735" lon="9.50810852696128"><ele>1042.3333333333333</ele><time>2026-04-22T09:51:22Z</time></trkpt><trkpt lat="44.7137885475913" lon="9.508174222956592"><ele>1043.0</ele><time>2026-04-22T09:51:23Z</time></trkpt><trkpt lat="44.71386505094879" lon="9.508252847142835"><ele>1043.6666666666665</ele><time>2026-04-22T09:51:24Z</time></trkpt><trkpt lat="44.713932978723214" lon="9.508330977931148"><ele>1044.3333333333333</ele><time>2026-04-22T09:51:25Z</time></trkpt><trkpt lat="44.713990883308924" lon="9.508393934042733"><ele>1045.0</ele><time>2026-04-22T09:51:26Z</time></trkpt><trkpt lat="44.71404850569712" lon="9.50845274785186"><ele>1045.0</ele><time>2026-04-22T09:51:28Z</time></trkpt><trkpt lat="44.71411382744927" lon="9.508493701239793"><ele>1045.0</ele><time>2026-04-22T09:53:19Z</time></trkpt><trkpt lat="44.71422482702152" lon="9.508584162814136"><ele>1045.0</ele><time>2026-04-22T09:53:20Z</time></trkpt><trkpt lat="44.71435966846931" lon="9.508695570914277"><ele>1045.0</ele><time>2026-04-22T09:53:21Z</time></trkpt><trkpt lat="44.714499731145516" lon="9.508820356262596"><ele>1049.3333333333333</ele><time>2026-04-22T09:53:22Z</time></trkpt><trkpt lat="44.71464717147682" lon="9.50894625441507"><ele>1053.6666666666667</ele><time>2026-04-22T09:53:23Z</time></trkpt><trkpt lat="44.71479686458878" lon="9.509069770051891"><ele>1058.0</ele><time>2026-04-22T09:53:24Z</time></trkpt><trkpt lat="44.71495045284631" lon="9.5091838171095"><ele>1058.0</ele><time>2026-04-22T09:53:25Z</time></trkpt><trkpt lat="44.71507684642334" lon="9.509301792659883"><ele>1058.0</ele><time>2026-04-22T09:53:26Z</time></trkpt><trkpt lat="44.71519198155049" lon="9.509464246432465"><ele>1058.0</ele><time>2026-04-22T09:53:27Z</time></trkpt><trkpt lat="44.715275134709344" lon="9.509671615626752"><ele>1061.4</ele><time>2026-04-22T09:53:28Z</time></trkpt><trkpt lat="44.7153395650169" lon="9.509877186556674"><ele>1064.8</ele><time>2026-04-22T09:53:29Z</time></trkpt><trkpt lat="44.71538804938772" lon="9.509968904435574"><ele>1068.2</ele><time>2026-04-22T09:53:30Z</time></trkpt><trkpt lat="44.71547762285629" lon="9.50999944427383"><ele>1071.6</ele><time>2026-04-22T09:53:31Z</time></trkpt><trkpt lat="44.715570509400315" lon="9.510012510190961"><ele>1075.0</ele><time>2026-04-22T09:53:32Z</time></trkpt><trkpt lat="44.71564645957605" lon="9.510017587137547"><ele>1075.0</ele><time>2026-04-22T09:53:33Z</time></trkpt><trkpt lat="44.71567783659337" lon="9.509933230789757"><ele>1075.0</ele><time>2026-04-22T09:53:35Z</time></trkpt><trkpt lat="44.715738447387714" lon="9.509821583670258"><ele>1075.0</ele><time>2026-04-22T09:53:37Z</time></trkpt><trkpt lat="44.71579681226095" lon="9.509786430372579"><ele>1075.0</ele><time>2026-04-22T09:53:43Z</time></trkpt><trkpt lat="44.71583489665177" lon="9.50986594258601"><ele>1075.0</ele><time>2026-04-22T09:53:45Z</time></trkpt><trkpt lat="44.71589175059516" lon="9.509971682641213"><ele>1075.0</ele><time>2026-04-22T09:53:46Z</time></trkpt><trkpt lat="44.71595665062858" lon="9.510090370919478"><ele>1075.0</ele><time>2026-04-22T09:53:47Z</time></trkpt><trkpt lat="44.71602968167734" lon="9.510216257840339"><ele>1075.0</ele><time>2026-04-22T09:53:48Z</time></trkpt><trkpt lat="44.71619132603949" lon="9.510337811637493"><ele>1075.0</ele><time>2026-04-22T09:53:50Z</time></trkpt><trkpt lat="44.716262877937545" lon="9.510438686402429"><ele>1075.0</ele><time>2026-04-22T09:53:51Z</time></trkpt><trkpt lat="44.71633819477321" lon="9.510517540107012"><ele>1076.3333333333333</ele><time>2026-04-22T09:53:52Z</time></trkpt><trkpt lat="44.71639139335668" lon="9.510618678936362"><ele>1077.6666666666665</ele><time>2026-04-22T09:53:53Z</time></trkpt><trkpt lat="44.71643608503667" lon="9.510742895486965"><ele>1079.0</ele><time>2026-04-22T09:53:55Z</time></trkpt><trkpt lat="44.71646335049264" lon="9.510825158805016"><ele>1080.3333333333333</ele><time>2026-04-22T09:53:56Z</time></trkpt><trkpt lat="44.716481198753115" lon="9.510923268038384"><ele>1081.6666666666667</ele><time>2026-04-22T09:53:57Z</time></trkpt><trkpt lat="44.71650529080676" lon="9.511037465165497"><ele>1083.0</ele><time>2026-04-22T09:53:58Z</time></trkpt><trkpt lat="44.71654797933094" lon="9.511161491244836"><ele>1084.2</ele><time>2026-04-22T09:53:59Z</time></trkpt><trkpt lat="44.716595415625804" lon="9.511299390197681"><ele>1085.4</ele><time>2026-04-22T09:54:00Z</time></trkpt><trkpt lat="44.71664222387498" lon="9.511428612391486"><ele>1086.6000000000001</ele><time>2026-04-22T09:54:02Z</time></trkpt><trkpt lat="44.7167021987304" lon="9.511517035608145"><ele>1087.8</ele><time>2026-04-22T09:54:03Z</time></trkpt><trkpt lat="44.71678126701886" lon="9.511625962459359"><ele>1089.0</ele><time>2026-04-22T09:54:04Z</time></trkpt><trkpt lat="44.716854572724095" lon="9.511736078166248"><ele>1088.8</ele><time>2026-04-22T09:54:05Z</time></trkpt><trkpt lat="44.716912865691235" lon="9.51179766407579"><ele>1088.6000000000001</ele><time>2026-04-22T09:54:07Z</time></trkpt><trkpt lat="44.71698601928279" lon="9.511908968542812"><ele>1088.4</ele><time>2026-04-22T09:54:11Z</time></trkpt><trkpt lat="44.717047434128084" lon="9.512005992018429"><ele>1088.2</ele><time>2026-04-22T09:54:12Z</time></trkpt><trkpt lat="44.71713000525085" lon="9.512102711444934"><ele>1088.0</ele><time>2026-04-22T09:54:13Z</time></trkpt><trkpt lat="44.71721022168211" lon="9.5122069216749"><ele>1088.0</ele><time>2026-04-22T09:54:15Z</time></trkpt><trkpt lat="44.717204825193484" lon="9.512347243194492"><ele>1088.0</ele><time>2026-04-22T09:54:17Z</time></trkpt><trkpt lat="44.71722260312409" lon="9.512456866265328"><ele>1088.0</ele><time>2026-04-22T09:54:35Z</time></trkpt><trkpt lat="44.717239361578194" lon="9.512553693227444"><ele>1088.0</ele><time>2026-04-22T09:54:37Z</time></trkpt><trkpt lat="44.71727398957435" lon="9.512683095359561"><ele>1088.0</ele><time>2026-04-22T09:54:40Z</time></trkpt><trkpt lat="44.7173138371812" lon="9.512772854588018"><ele>1088.0</ele><time>2026-04-22T09:54:43Z</time></trkpt><trkpt lat="44.7174067388612" lon="9.512797789560206"><ele>1088.25</ele><time>2026-04-22T09:54:45Z</time></trkpt><trkpt lat="44.71745665014401" lon="9.512944988596383"><ele>1088.5</ele><time>2026-04-22T09:54:47Z</time></trkpt><trkpt lat="44.71739307265998" lon="9.513148082217205"><ele>1088.75</ele><time>2026-04-22T09:54:49Z</time></trkpt><trkpt lat="44.71731919055942" lon="9.513268894431013"><ele>1089.0</ele><time>2026-04-22T09:54:50Z</time></trkpt><trkpt lat="44.71725247322786" lon="9.513379425163295"><ele>1089.0</ele><time>2026-04-22T09:54:51Z</time></trkpt><trkpt lat="44.71720293005654" lon="9.513462649386103"><ele>1089.0</ele><time>2026-04-22T09:54:53Z</time></trkpt><trkpt lat="44.71712531035266" lon="9.513528862830912"><ele>1089.0</ele><time>2026-04-22T09:54:55Z</time></trkpt><trkpt lat="44.71707098228148" lon="9.51360011055278"><ele>1089.0</ele><time>2026-04-22T09:54:56Z</time></trkpt><trkpt lat="44.71699062404546" lon="9.513665165195196"><ele>1089.0</ele><time>2026-04-22T09:54:58Z</time></trkpt><trkpt lat="44.71690869571854" lon="9.513636266305046"><ele>1089.0</ele><time>2026-04-22T09:55:00Z</time></trkpt><trkpt lat="44.716824101228354" lon="9.513653085906014"><ele>1090.0</ele><time>2026-04-22T09:55:01Z</time></trkpt><trkpt lat="44.716796389353966" lon="9.513737441268345"><ele>1091.0</ele><time>2026-04-22T09:55:03Z</time></trkpt><trkpt lat="44.716618096399564" lon="9.513987056469842"><ele>1092.0</ele><time>2026-04-22T09:55:06Z</time></trkpt><trkpt lat="44.71661916602859" lon="9.5141077713456"><ele>1093.0</ele><time>2026-04-22T09:55:07Z</time></trkpt><trkpt lat="44.716645340155644" lon="9.514235512143546"><ele>1093.0</ele><time>2026-04-22T09:55:08Z</time></trkpt><trkpt lat="44.71667787088449" lon="9.514400198280464"><ele>1093.0</ele><time>2026-04-22T09:55:09Z</time></trkpt><trkpt lat="44.71669977732602" lon="9.514540367946614"><ele>1093.0</ele><time>2026-04-22T09:55:10Z</time></trkpt><trkpt lat="44.71671789914522" lon="9.514693539587398"><ele>1093.0</ele><time>2026-04-22T09:55:11Z</time></trkpt><trkpt lat="44.71671541732491" lon="9.51481789585998"><ele>1093.0</ele><time>2026-04-22T09:55:13Z</time></trkpt><trkpt lat="44.716754098332935" lon="9.514919370437312"><ele>1093.0</ele><time>2026-04-22T09:55:40Z</time></trkpt><trkpt lat="44.71675854857187" lon="9.515049149418195"><ele>1093.0</ele><time>2026-04-22T09:55:42Z</time></trkpt><trkpt lat="44.716745462688685" lon="9.515154971901739"><ele>1093.0</ele><time>2026-04-22T09:55:44Z</time></trkpt><trkpt lat="44.71675526585613" lon="9.515289522735024"><ele>1093.0</ele><time>2026-04-22T09:55:53Z</time></trkpt><trkpt lat="44.71677608676384" lon="9.515398437638193"><ele>1093.0</ele><time>2026-04-22T09:57:17Z</time></trkpt><trkpt lat="44.716754943880346" lon="9.515500886459913"><ele>1093.0</ele><time>2026-04-22T10:02:13.999Z</time></trkpt><trkpt lat="44.71680736695569" lon="9.51559485734061"><ele>1093.0</ele><time>2026-04-22T10:02:15.999Z</time></trkpt><trkpt lat="44.716867643083845" lon="9.515650302476546"><ele>1093.0</ele><time>2026-04-22T10:02:16.999Z</time></trkpt><trkpt lat="44.71692769120339" lon="9.515716626734804"><ele>1093.0</ele><time>2026-04-22T10:02:17.999Z</time></trkpt><trkpt lat="44.71694989035768" lon="9.515812513036447"><ele>1093.0</ele><time>2026-04-22T10:02:19.999Z</time></trkpt><trkpt lat="44.71698014079823" lon="9.515912612544483"><ele>1093.0</ele><time>2026-04-22T10:02:22Z</time></trkpt><trkpt lat="44.71707509563783" lon="9.515894838922149"><ele>1093.0</ele><time>2026-04-22T10:02:24Z</time></trkpt><trkpt lat="44.71715112541475" lon="9.515916438889953"><ele>1093.5</ele><time>2026-04-22T10:02:26Z</time></trkpt><trkpt lat="44.71719426958008" lon="9.516018743237288"><ele>1094.0</ele><time>2026-04-22T10:02:28Z</time></trkpt><trkpt lat="44.717344576117746" lon="9.51623438977124"><ele>1094.5</ele><time>2026-04-22T10:02:30Z</time></trkpt><trkpt lat="44.71740173783154" lon="9.516278022110608"><ele>1095.0</ele><time>2026-04-22T10:02:31Z</time></trkpt><trkpt lat="44.717487078581094" lon="9.516360996474418"><ele>1095.0</ele><time>2026-04-22T10:02:33Z</time></trkpt><trkpt lat="44.717500947831944" lon="9.51649397318758"><ele>1095.0</ele><time>2026-04-22T10:02:36Z</time></trkpt><trkpt lat="44.71753388215346" lon="9.516581611293322"><ele>1095.0</ele><time>2026-04-22T10:02:38Z</time></trkpt><trkpt lat="44.717625508740454" lon="9.516637620729064"><ele>1095.0</ele><time>2026-04-22T10:02:40Z</time></trkpt><trkpt lat="44.71768496416859" lon="9.516676903728536"><ele>1095.0</ele><time>2026-04-22T10:02:41Z</time></trkpt><trkpt lat="44.7177771041045" lon="9.516646186187218"><ele>1095.0</ele><time>2026-04-22T10:02:42Z</time></trkpt><trkpt lat="44.71786449958669" lon="9.516641322255618"><ele>1093.3333333333333</ele><time>2026-04-22T10:02:43Z</time></trkpt><trkpt lat="44.71795246023639" lon="9.51663599674583"><ele>1091.6666666666667</ele><time>2026-04-22T10:02:44Z</time></trkpt><trkpt lat="44.718029431249775" lon="9.516626976968398"><ele>1090.0</ele><time>2026-04-22T10:02:45Z</time></trkpt><trkpt lat="44.71810378999495" lon="9.516611008961123"><ele>1088.3333333333335</ele><time>2026-04-22T10:02:46Z</time></trkpt><trkpt lat="44.718186497339204" lon="9.516596488436152"><ele>1086.6666666666667</ele><time>2026-04-22T10:02:47Z</time></trkpt><trkpt lat="44.71827860470779" lon="9.516576110246106"><ele>1085.0</ele><time>2026-04-22T10:02:48Z</time></trkpt><trkpt lat="44.71842245424173" lon="9.516517018299664"><ele>1085.0</ele><time>2026-04-22T10:02:49Z</time></trkpt><trkpt lat="44.71852165897155" lon="9.516414271571712"><ele>1085.0</ele><time>2026-04-22T10:02:51Z</time></trkpt><trkpt lat="44.71860450498116" lon="9.516514277032813"><ele>1085.0</ele><time>2026-04-22T10:02:53Z</time></trkpt><trkpt lat="44.71869904327357" lon="9.516599363400115"><ele>1085.0</ele><time>2026-04-22T10:02:55Z</time></trkpt><trkpt lat="44.718765144514315" lon="9.516567661885322"><ele>1085.0</ele><time>2026-04-22T10:02:57Z</time></trkpt><trkpt lat="44.71874002054374" lon="9.516667933895762"><ele>1085.0</ele><time>2026-04-22T10:03:16Z</time></trkpt><trkpt lat="44.718686218896586" lon="9.516719978911267"><ele>1085.0</ele><time>2026-04-22T10:03:17Z</time></trkpt><trkpt lat="44.71861928901804" lon="9.516762878772042"><ele>1085.0</ele><time>2026-04-22T10:03:18Z</time></trkpt><trkpt lat="44.71852792408954" lon="9.516842477600719"><ele>1085.0</ele><time>2026-04-22T10:03:19Z</time></trkpt><trkpt lat="44.718443981467054" lon="9.51690222942182"><ele>1085.0</ele><time>2026-04-22T10:03:20Z</time></trkpt><trkpt lat="44.7183524212413" lon="9.516955289478041"><ele>1085.0</ele><time>2026-04-22T10:03:21Z</time></trkpt><trkpt lat="44.71828222756337" lon="9.51700856098353"><ele>1085.0</ele><time>2026-04-22T10:03:22Z</time></trkpt><trkpt lat="44.71822787271457" lon="9.517068408964798"><ele>1085.0</ele><time>2026-04-22T10:03:23Z</time></trkpt><trkpt lat="44.718184034012864" lon="9.517143346358079"><ele>1085.0</ele><time>2026-04-22T10:03:24Z</time></trkpt><trkpt lat="44.718117161805154" lon="9.517267230999272"><ele>1085.0</ele><time>2026-04-22T10:03:26Z</time></trkpt><trkpt lat="44.718060820838495" lon="9.517327484406989"><ele>1085.0</ele><time>2026-04-22T10:03:27Z</time></trkpt><trkpt lat="44.71799815799617" lon="9.517382407968638"><ele>1085.0</ele><time>2026-04-22T10:03:28Z</time></trkpt><trkpt lat="44.71793147079832" lon="9.517448523385244"><ele>1082.6</ele><time>2026-04-22T10:03:29Z</time></trkpt><trkpt lat="44.717870381973505" lon="9.517502237645619"><ele>1080.2</ele><time>2026-04-22T10:03:30Z</time></trkpt><trkpt lat="44.717809803450805" lon="9.517554272087786"><ele>1077.8</ele><time>2026-04-22T10:03:31Z</time></trkpt><trkpt lat="44.717761387066496" lon="9.517667972947915"><ele>1075.4</ele><time>2026-04-22T10:03:33Z</time></trkpt><trkpt lat="44.71769943138588" lon="9.517776553421916"><ele>1073.0</ele><time>2026-04-22T10:03:37Z</time></trkpt><trkpt lat="44.71757157398523" lon="9.518276506114216"><ele>1070.3333333333335</ele><time>2026-04-22T10:03:41Z</time></trkpt><trkpt lat="44.71751873252937" lon="9.518357774736568"><ele>1067.6666666666667</ele><time>2026-04-22T10:03:42Z</time></trkpt><trkpt lat="44.717460906183994" lon="9.5184301510775"><ele>1065.0</ele><time>2026-04-22T10:03:43Z</time></trkpt><trkpt lat="44.71740210118785" lon="9.518515479938147"><ele>1062.3333333333333</ele><time>2026-04-22T10:03:44Z</time></trkpt><trkpt lat="44.71734830561964" lon="9.518594301681453"><ele>1059.6666666666665</ele><time>2026-04-22T10:03:45Z</time></trkpt><trkpt lat="44.7172895644533" lon="9.518648227638913"><ele>1057.0</ele><time>2026-04-22T10:03:46Z</time></trkpt><trkpt lat="44.71717953164546" lon="9.518695289947576"><ele>1057.0</ele><time>2026-04-22T10:03:48Z</time></trkpt><trkpt lat="44.717091413274595" lon="9.518709202136234"><ele>1057.0</ele><time>2026-04-22T10:03:50Z</time></trkpt><trkpt lat="44.717015277582554" lon="9.518793173859153"><ele>1057.0</ele><time>2026-04-22T10:03:52Z</time></trkpt><trkpt lat="44.71699011482611" lon="9.518918313014153"><ele>1057.0</ele><time>2026-04-22T10:03:54Z</time></trkpt><trkpt lat="44.717032464457496" lon="9.51908152848142"><ele>1057.0</ele><time>2026-04-22T10:03:56Z</time></trkpt><trkpt lat="44.717066220021046" lon="9.519178401306865"><ele>1054.0</ele><time>2026-04-22T10:03:57Z</time></trkpt><trkpt lat="44.717173218802046" lon="9.519297270574606"><ele>1051.0</ele><time>2026-04-22T10:03:59Z</time></trkpt><trkpt lat="44.717243836519295" lon="9.519340542979489"><ele>1048.0</ele><time>2026-04-22T10:04:01Z</time></trkpt><trkpt lat="44.71718538924286" lon="9.519382547750602"><ele>1045.0</ele><time>2026-04-22T10:04:05Z</time></trkpt><trkpt lat="44.71707982879446" lon="9.519399251459033"><ele>1042.0</ele><time>2026-04-22T10:04:08Z</time></trkpt><trkpt lat="44.71700948152699" lon="9.519419039513641"><ele>1042.0</ele><time>2026-04-22T10:04:10Z</time></trkpt><trkpt lat="44.71695164401993" lon="9.519467103130248"><ele>1042.0</ele><time>2026-04-22T10:04:11Z</time></trkpt><trkpt lat="44.7168783549314" lon="9.519531514845676"><ele>1042.0</ele><time>2026-04-22T10:04:12Z</time></trkpt><trkpt lat="44.71680963310577" lon="9.519609822682702"><ele>1042.0</ele><time>2026-04-22T10:04:14Z</time></trkpt><trkpt lat="44.71676977235501" lon="9.519690926840193"><ele>1042.0</ele><time>2026-04-22T10:04:19Z</time></trkpt><trkpt lat="44.716750497846036" lon="9.519793802291607"><ele>1042.0</ele><time>2026-04-22T10:04:26Z</time></trkpt><trkpt lat="44.716760821256926" lon="9.519881951728063"><ele>1038.75</ele><time>2026-04-22T10:04:28Z</time></trkpt><trkpt lat="44.71672486292537" lon="9.519954728635158"><ele>1035.5</ele><time>2026-04-22T10:04:30Z</time></trkpt><trkpt lat="44.71668621550559" lon="9.520028684557428"><ele>1032.25</ele><time>2026-04-22T10:04:32Z</time></trkpt><trkpt lat="44.716625995986064" lon="9.520130456050058"><ele>1029.0</ele><time>2026-04-22T10:04:36Z</time></trkpt><trkpt lat="44.71636279300434" lon="9.520663252288264"><ele>1025.6000000000001</ele><time>2026-04-22T10:04:38Z</time></trkpt><trkpt lat="44.71629730540382" lon="9.520767547908983"><ele>1022.2</ele><time>2026-04-22T10:04:39Z</time></trkpt><trkpt lat="44.716229994193874" lon="9.520869263446771"><ele>1018.8000000000001</ele><time>2026-04-22T10:04:40Z</time></trkpt><trkpt lat="44.71618078487735" lon="9.520927531200241"><ele>1015.4000000000001</ele><time>2026-04-22T10:04:41Z</time></trkpt><trkpt lat="44.716080138042585" lon="9.520934883593359"><ele>1012.0</ele><time>2026-04-22T10:04:43Z</time></trkpt><trkpt lat="44.71599601945387" lon="9.520998218506113"><ele>1011.4000000000001</ele><time>2026-04-22T10:04:45Z</time></trkpt><trkpt lat="44.71597296709058" lon="9.52110969956011"><ele>1010.8000000000001</ele><time>2026-04-22T10:04:47Z</time></trkpt><trkpt lat="44.71597486532456" lon="9.52123987433291"><ele>1010.2</ele><time>2026-04-22T10:04:49Z</time></trkpt><trkpt lat="44.71595422926868" lon="9.521364749612669"><ele>1009.6</ele><time>2026-04-22T10:04:51Z</time></trkpt><trkpt lat="44.71592698475835" lon="9.521487038265137"><ele>1009.0</ele><time>2026-04-22T10:04:53Z</time></trkpt><trkpt lat="44.715890170099755" lon="9.521609713488779"><ele>1006.6</ele><time>2026-04-22T10:04:55Z</time></trkpt><trkpt lat="44.71586058661989" lon="9.52175675704605"><ele>1004.2</ele><time>2026-04-22T10:04:57Z</time></trkpt><trkpt lat="44.71589955630243" lon="9.52184244419959"><ele>1001.8000000000001</ele><time>2026-04-22T10:04:59Z</time></trkpt><trkpt lat="44.71579721388413" lon="9.521940010835364"><ele>999.4000000000001</ele><time>2026-04-22T10:05:21Z</time></trkpt><trkpt lat="44.71571385570855" lon="9.522009766927836"><ele>997.0</ele><time>2026-04-22T10:05:23Z</time></trkpt><trkpt lat="44.71562049483443" lon="9.522078588277454"><ele>996.9999999999999</ele><time>2026-04-22T10:05:25Z</time></trkpt><trkpt lat="44.7155561480605" lon="9.522099628420488"><ele>997.0</ele><time>2026-04-22T10:05:26Z</time></trkpt><trkpt lat="44.71546019440223" lon="9.522058651609418"><ele>997.0</ele><time>2026-04-22T10:05:33Z</time></trkpt><trkpt lat="44.71539430837602" lon="9.52208501699532"><ele>997.0</ele><time>2026-04-22T10:05:35Z</time></trkpt><trkpt lat="44.71534353326598" lon="9.522198846760146"><ele>996.9999999999999</ele><time>2026-04-22T10:05:37Z</time></trkpt><trkpt lat="44.71533370346503" lon="9.522291692796726"><ele>997.0</ele><time>2026-04-22T10:05:38Z</time></trkpt><trkpt lat="44.715318546196336" lon="9.522383995640828"><ele>995.6</ele><time>2026-04-22T10:05:39Z</time></trkpt><trkpt lat="44.715288166787666" lon="9.522491152012487"><ele>994.2</ele><time>2026-04-22T10:05:40Z</time></trkpt><trkpt lat="44.715242595124465" lon="9.52256855706575"><ele>992.8</ele><time>2026-04-22T10:05:41Z</time></trkpt><trkpt lat="44.71510511761399" lon="9.522565631957626"><ele>991.4</ele><time>2026-04-22T10:05:43Z</time></trkpt><trkpt lat="44.71502312176157" lon="9.522570099454184"><ele>990.0</ele><time>2026-04-22T10:05:44Z</time></trkpt><trkpt lat="44.7149863532823" lon="9.522720107017385"><ele>989.9999999999999</ele><time>2026-04-22T10:05:46Z</time></trkpt><trkpt lat="44.71496586486002" lon="9.522817807954594"><ele>990.0</ele><time>2026-04-22T10:05:47Z</time></trkpt><trkpt lat="44.714902696834336" lon="9.522845144269953"><ele>989.9999999999999</ele><time>2026-04-22T10:05:49Z</time></trkpt><trkpt lat="44.71484220884034" lon="9.522894668055281"><ele>989.9999999999999</ele><time>2026-04-22T10:05:50Z</time></trkpt><trkpt lat="44.71478628051273" lon="9.522936294863934"><ele>990.0</ele><time>2026-04-22T10:05:51Z</time></trkpt><trkpt lat="44.71472104637113" lon="9.52298675411423"><ele>989.9999999999999</ele><time>2026-04-22T10:05:53Z</time></trkpt><trkpt lat="44.71469899525311" lon="9.523099631962138"><ele>989.9999999999999</ele><time>2026-04-22T10:05:55Z</time></trkpt><trkpt lat="44.71466178574999" lon="9.523204385908112"><ele>986.3333333333333</ele><time>2026-04-22T10:05:57Z</time></trkpt><trkpt lat="44.71463873269537" lon="9.523288097819414"><ele>982.6666666666666</ele><time>2026-04-22T10:05:58Z</time></trkpt><trkpt lat="44.714613269686176" lon="9.523381780615846"><ele>979.0</ele><time>2026-04-22T10:06:01Z</time></trkpt><trkpt lat="44.71438112817819" lon="9.52403484180835"><ele>978.6</ele><time>2026-04-22T10:06:03Z</time></trkpt><trkpt lat="44.714338162137615" lon="9.524214452294537"><ele>978.2</ele><time>2026-04-22T10:06:04Z</time></trkpt><trkpt lat="44.71430930565907" lon="9.524339242773914"><ele>977.8000000000001</ele><time>2026-04-22T10:06:05Z</time></trkpt><trkpt lat="44.714293144649375" lon="9.52444080894413"><ele>977.4000000000001</ele><time>2026-04-22T10:06:06Z</time></trkpt><trkpt lat="44.71426781905322" lon="9.524607870934755"><ele>977.0</ele><time>2026-04-22T10:06:08Z</time></trkpt><trkpt lat="44.71424765594977" lon="9.524792179462953"><ele>975.0000000000001</ele><time>2026-04-22T10:06:10Z</time></trkpt><trkpt lat="44.71424955510563" lon="9.524891202764378"><ele>973.0</ele><time>2026-04-22T10:06:11Z</time></trkpt><trkpt lat="44.714263385571435" lon="9.52498359045386"><ele>971.0</ele><time>2026-04-22T10:06:12Z</time></trkpt><trkpt lat="44.71430672902122" lon="9.525128821912293"><ele>969.0</ele><time>2026-04-22T10:06:14Z</time></trkpt><trkpt lat="44.71433169456738" lon="9.5252182805089"><ele>967.0000000000001</ele><time>2026-04-22T10:06:15Z</time></trkpt><trkpt lat="44.71435237482887" lon="9.525310905361069"><ele>965.0</ele><time>2026-04-22T10:06:16Z</time></trkpt><trkpt lat="44.714371854425366" lon="9.525414929491165"><ele>963.1666666666667</ele><time>2026-04-22T10:06:17Z</time></trkpt><trkpt lat="44.71440132506264" lon="9.525541201344781"><ele>961.3333333333334</ele><time>2026-04-22T10:06:18Z</time></trkpt><trkpt lat="44.71443674551551" lon="9.52565679056637"><ele>959.5</ele><time>2026-04-22T10:06:19Z</time></trkpt><trkpt lat="44.714475971609936" lon="9.525745187801592"><ele>957.6666666666667</ele><time>2026-04-22T10:06:20Z</time></trkpt><trkpt lat="44.7144357074955" lon="9.525894559107279"><ele>955.8333333333334</ele><time>2026-04-22T10:06:22Z</time></trkpt><trkpt lat="44.71439177183987" lon="9.525962835370626"><ele>954.0</ele><time>2026-04-22T10:06:23Z</time></trkpt><trkpt lat="44.71434200014319" lon="9.526036581392667"><ele>954.0</ele><time>2026-04-22T10:06:24Z</time></trkpt><trkpt lat="44.71429734354323" lon="9.52614093771438"><ele>954.0</ele><time>2026-04-22T10:06:25Z</time></trkpt><trkpt lat="44.714266681797156" lon="9.526254678223532"><ele>954.0</ele><time>2026-04-22T10:06:26Z</time></trkpt><trkpt lat="44.714236572670096" lon="9.526351740142509"><ele>954.0</ele><time>2026-04-22T10:06:27Z</time></trkpt><trkpt lat="44.7142102826348" lon="9.52644914182537"><ele>954.0</ele><time>2026-04-22T10:06:28Z</time></trkpt><trkpt lat="44.714177089711775" lon="9.526550485289983"><ele>954.0</ele><time>2026-04-22T10:06:29Z</time></trkpt><trkpt lat="44.71411187403054" lon="9.526674004369893"><ele>952.5</ele><time>2026-04-22T10:06:31Z</time></trkpt><trkpt lat="44.714075064947075" lon="9.52676243275197"><ele>951.0</ele><time>2026-04-22T10:06:32Z</time></trkpt><trkpt lat="44.71403365864737" lon="9.526886795496962"><ele>949.5</ele><time>2026-04-22T10:06:33Z</time></trkpt><trkpt lat="44.714008684959175" lon="9.526994460084312"><ele>948.0</ele><time>2026-04-22T10:06:34Z</time></trkpt><trkpt lat="44.71402929703538" lon="9.527088680966326"><ele>946.5</ele><time>2026-04-22T10:07:00Z</time></trkpt><trkpt lat="44.714020164423054" lon="9.527220357516981"><ele>945.0</ele><time>2026-04-22T10:07:03Z</time></trkpt><trkpt lat="44.714038010507984" lon="9.527343188723293"><ele>943.3333333333334</ele><time>2026-04-22T10:07:06Z</time></trkpt><trkpt lat="44.714085402559924" lon="9.52740818073343"><ele>941.6666666666667</ele><time>2026-04-22T10:07:09Z</time></trkpt><trkpt lat="44.714124894357184" lon="9.527329296390988"><ele>940.0</ele><time>2026-04-22T10:07:11Z</time></trkpt><trkpt lat="44.71408428970841" lon="9.527218834670053"><ele>938.3333333333334</ele><time>2026-04-22T10:07:13Z</time></trkpt><trkpt lat="44.71403421449127" lon="9.527375131438788"><ele>936.6666666666667</ele><time>2026-04-22T10:07:15Z</time></trkpt><trkpt lat="44.71408339402893" lon="9.527462897309372"><ele>935.0</ele><time>2026-04-22T10:07:16Z</time></trkpt><trkpt lat="44.71415199159594" lon="9.527393029526054"><ele>935.0000000000001</ele><time>2026-04-22T10:07:18Z</time></trkpt><trkpt lat="44.71411182678466" lon="9.527253741474652"><ele>935.0</ele><time>2026-04-22T10:07:20Z</time></trkpt><trkpt lat="44.71405178098861" lon="9.527294298261868"><ele>935.0</ele><time>2026-04-22T10:07:22Z</time></trkpt><trkpt lat="44.71407764407" lon="9.527419244342136"><ele>935.0</ele><time>2026-04-22T10:07:24Z</time></trkpt><trkpt lat="44.714133102404375" lon="9.527474170217552"><ele>935.0000000000001</ele><time>2026-04-22T10:07:26Z</time></trkpt><trkpt lat="44.714128088176935" lon="9.527376439604868"><ele>935.0</ele><time>2026-04-22T10:07:29Z</time></trkpt><trkpt lat="44.71408490823685" lon="9.527288685663647"><ele>935.0000000000001</ele><time>2026-04-22T10:07:30Z</time></trkpt><trkpt lat="44.71400038449515" lon="9.527295614329086"><ele>935.0</ele><time>2026-04-22T10:07:32Z</time></trkpt><trkpt lat="44.71402108543222" lon="9.527392027627707"><ele>935.0</ele><time>2026-04-22T10:07:42Z</time></trkpt><trkpt lat="44.71409393931633" lon="9.527481139350332"><ele>935.0</ele><time>2026-04-22T10:07:44Z</time></trkpt><trkpt lat="44.714139197488876" lon="9.52735020453933"><ele>935.0000000000001</ele><time>2026-04-22T10:07:47Z</time></trkpt><trkpt lat="44.714096856405654" lon="9.527280262244613"><ele>935.0</ele><time>2026-04-22T10:07:48Z</time></trkpt><trkpt lat="44.714037486719775" lon="9.527388515024056"><ele>935.0000000000001</ele><time>2026-04-22T10:07:50Z</time></trkpt><trkpt lat="44.714067991243944" lon="9.527496078570499"><ele>935.0</ele><time>2026-04-22T10:07:51Z</time></trkpt><trkpt lat="44.71412615978533" lon="9.52754053028838"><ele>935.0</ele><time>2026-04-22T10:07:52Z</time></trkpt><trkpt lat="44.71416322911499" lon="9.52741948536307"><ele>935.0</ele><time>2026-04-22T10:07:54Z</time></trkpt><trkpt lat="44.714133896933305" lon="9.527319296910271"><ele>935.0000000000001</ele><time>2026-04-22T10:07:55Z</time></trkpt><trkpt lat="44.71406801877619" lon="9.527338987293351"><ele>935.0</ele><time>2026-04-22T10:07:57Z</time></trkpt><trkpt lat="44.71408713994543" lon="9.527432345819824"><ele>935.0000000000001</ele><time>2026-04-22T10:07:59Z</time></trkpt><trkpt lat="44.71413022583287" lon="9.527363546266207"><ele>935.0</ele><time>2026-04-22T10:08:03Z</time></trkpt><trkpt lat="44.71406207987751" lon="9.52731971519644"><ele>935.0</ele><time>2026-04-22T10:08:04Z</time></trkpt><trkpt lat="44.71405034963516" lon="9.52743657610377"><ele>935.0</ele><time>2026-04-22T10:08:06Z</time></trkpt><trkpt lat="44.7141017801867" lon="9.527555029710832"><ele>935.0000000000001</ele><time>2026-04-22T10:08:08Z</time></trkpt><trkpt lat="44.71413911666405" lon="9.527429044954182"><ele>935.0</ele><time>2026-04-22T10:08:10Z</time></trkpt><trkpt lat="44.71408937050567" lon="9.52728636637974"><ele>935.0000000000001</ele><time>2026-04-22T10:08:12Z</time></trkpt><trkpt lat="44.7140464136165" lon="9.527170255412074"><ele>935.0</ele><time>2026-04-22T10:08:14Z</time></trkpt><trkpt lat="44.71403450364831" lon="9.527033458922668"><ele>935.0</ele><time>2026-04-22T10:08:22Z</time></trkpt><trkpt lat="44.71398050857737" lon="9.527097338571453"><ele>935.0</ele><time>2026-04-22T10:08:28.001Z</time></trkpt><trkpt lat="44.71397765110471" lon="9.527188582831325"><ele>935.0000000000001</ele><time>2026-04-22T10:08:31.001Z</time></trkpt><trkpt lat="44.71402816013584" lon="9.527246923216243"><ele>935.0</ele><time>2026-04-22T10:08:35.001Z</time></trkpt><trkpt lat="44.71410212660708" lon="9.527325584106729"><ele>935.0000000000001</ele><time>2026-04-22T10:08:38.001Z</time></trkpt><trkpt lat="44.71412763288068" lon="9.527444811391302"><ele>935.0</ele><time>2026-04-22T10:08:40.001Z</time></trkpt><trkpt lat="44.714054693923906" lon="9.52743670969618"><ele>935.0</ele><time>2026-04-22T10:08:42Z</time></trkpt><trkpt lat="44.714025823948965" lon="9.527314761655447"><ele>935.0</ele><time>2026-04-22T10:08:43Z</time></trkpt><trkpt lat="44.71410068919763" lon="9.527319634634763"><ele>935.0000000000001</ele><time>2026-04-22T10:08:46Z</time></trkpt><trkpt lat="44.71410806991946" lon="9.527426432635087"><ele>935.0</ele><time>2026-04-22T10:08:48Z</time></trkpt><trkpt lat="44.7140316204854" lon="9.527356140720148"><ele>935.0000000000001</ele><time>2026-04-22T10:08:52Z</time></trkpt><trkpt lat="44.71409866839298" lon="9.52737232495184"><ele>935.0</ele><time>2026-04-22T10:09:17Z</time></trkpt><trkpt lat="44.71414856739845" lon="9.527487366570137"><ele>935.0</ele><time>2026-04-22T10:09:19Z</time></trkpt><trkpt lat="44.7140775734696" lon="9.527487138697824"><ele>935.0</ele><time>2026-04-22T10:09:22Z</time></trkpt><trkpt lat="44.71411894088997" lon="9.527401627452122"><ele>935.0000000000001</ele><time>2026-04-22T10:09:52Z</time></trkpt><trkpt lat="44.71419643126133" lon="9.527442263499488"><ele>935.0</ele><time>2026-04-22T10:09:54Z</time></trkpt><trkpt lat="44.714145264225664" lon="9.52737505978727"><ele>935.0000000000001</ele><time>2026-04-22T10:10:44Z</time></trkpt><trkpt lat="44.71407898139599" lon="9.527376240488191"><ele>935.0</ele><time>2026-04-22T10:10:51Z</time></trkpt><trkpt lat="44.71404702138415" lon="9.52727968376691"><ele>935.0</ele><time>2026-04-22T10:10:54Z</time></trkpt><trkpt lat="44.71400450152098" lon="9.52720325304147"><ele>935.0</ele><time>2026-04-22T10:10:57Z</time></trkpt><trkpt lat="44.71406383483727" lon="9.52714511537077"><ele>935.0000000000001</ele><time>2026-04-22T10:11:00Z</time></trkpt><trkpt lat="44.71416814930532" lon="9.52703456823545"><ele>935.0</ele><time>2026-04-22T10:11:02Z</time></trkpt><trkpt lat="44.71426401248428" lon="9.527004946693271"><ele>936.1666666666667</ele><time>2026-04-22T10:11:03Z</time></trkpt><trkpt lat="44.71434878660719" lon="9.526977451466037"><ele>937.3333333333334</ele><time>2026-04-22T10:11:04Z</time></trkpt><trkpt lat="44.71443112576043" lon="9.526950188885529"><ele>938.5</ele><time>2026-04-22T10:11:05Z</time></trkpt><trkpt lat="44.714505463662064" lon="9.526931410270322"><ele>939.6666666666667</ele><time>2026-04-22T10:11:06Z</time></trkpt><trkpt lat="44.71457159078721" lon="9.526933414432506"><ele>940.8333333333334</ele><time>2026-04-22T10:11:07Z</time></trkpt><trkpt lat="44.714649892416084" lon="9.526959732993319"><ele>942.0</ele><time>2026-04-22T10:11:08Z</time></trkpt><trkpt lat="44.714752584445385" lon="9.527001700129675"><ele>942.0</ele><time>2026-04-22T10:11:09Z</time></trkpt><trkpt lat="44.71485831826311" lon="9.52705159836478"><ele>942.0</ele><time>2026-04-22T10:11:10Z</time></trkpt><trkpt lat="44.71495446751534" lon="9.527115306513629"><ele>942.0</ele><time>2026-04-22T10:11:11Z</time></trkpt><trkpt lat="44.715017761690724" lon="9.527191891842188"><ele>942.0</ele><time>2026-04-22T10:11:12Z</time></trkpt><trkpt lat="44.715053132313955" lon="9.527343110629708"><ele>942.0</ele><time>2026-04-22T10:11:14Z</time></trkpt><trkpt lat="44.7150015307401" lon="9.527499180212784"><ele>939.5</ele><time>2026-04-22T10:11:16Z</time></trkpt><trkpt lat="44.71498360131503" lon="9.527608321017096"><ele>937.0</ele><time>2026-04-22T10:11:17Z</time></trkpt><trkpt lat="44.71496412537924" lon="9.52772139625456"><ele>934.5</ele><time>2026-04-22T10:11:18Z</time></trkpt><trkpt lat="44.71494375572908" lon="9.527833379886495"><ele>932.0</ele><time>2026-04-22T10:11:19Z</time></trkpt><trkpt lat="44.71491569831945" lon="9.52794179780115"><ele>929.5</ele><time>2026-04-22T10:11:20Z</time></trkpt><trkpt lat="44.71484849836253" lon="9.528081978622767"><ele>927.0</ele><time>2026-04-22T10:11:21Z</time></trkpt><trkpt lat="44.71480978725056" lon="9.528216045165745"><ele>924.25</ele><time>2026-04-22T10:11:22Z</time></trkpt><trkpt lat="44.71479439620652" lon="9.528384603555038"><ele>921.5</ele><time>2026-04-22T10:11:23Z</time></trkpt><trkpt lat="44.714787685754466" lon="9.528581476874262"><ele>918.75</ele><time>2026-04-22T10:11:24Z</time></trkpt><trkpt lat="44.714774726558026" lon="9.52876441438893"><ele>916.0</ele><time>2026-04-22T10:11:25Z</time></trkpt><trkpt lat="44.71476116794328" lon="9.528888600425887"><ele>913.75</ele><time>2026-04-22T10:11:26Z</time></trkpt><trkpt lat="44.71472735066295" lon="9.529047139787933"><ele>911.5</ele><time>2026-04-22T10:11:27Z</time></trkpt><trkpt lat="44.714687124445916" lon="9.529248572068886"><ele>909.25</ele><time>2026-04-22T10:11:28Z</time></trkpt><trkpt lat="44.71465993547229" lon="9.5294219483228"><ele>907.0</ele><time>2026-04-22T10:11:29Z</time></trkpt><trkpt lat="44.714626632889065" lon="9.529580107280829"><ele>905.6</ele><time>2026-04-22T10:11:30Z</time></trkpt><trkpt lat="44.71458574268341" lon="9.529722908657302"><ele>904.2</ele><time>2026-04-22T10:11:31Z</time></trkpt><trkpt lat="44.714535083248116" lon="9.52985096657209"><ele>902.8</ele><time>2026-04-22T10:11:32Z</time></trkpt><trkpt lat="44.71449147139706" lon="9.52997569053402"><ele>901.4</ele><time>2026-04-22T10:11:33Z</time></trkpt><trkpt lat="44.71446170590897" lon="9.530089383328427"><ele>900.0</ele><time>2026-04-22T10:11:34Z</time></trkpt><trkpt lat="44.71443083149944" lon="9.530204947794957"><ele>900.0</ele><time>2026-04-22T10:11:35Z</time></trkpt><trkpt lat="44.71441101147412" lon="9.53032249258403"><ele>900.0</ele><time>2026-04-22T10:11:36Z</time></trkpt><trkpt lat="44.714378061839405" lon="9.530450775201299"><ele>900.0</ele><time>2026-04-22T10:11:37Z</time></trkpt><trkpt lat="44.71432194349662" lon="9.530583672841033"><ele>900.0</ele><time>2026-04-22T10:11:38Z</time></trkpt><trkpt lat="44.714268162943114" lon="9.530711256951372"><ele>900.0</ele><time>2026-04-22T10:11:39Z</time></trkpt><trkpt lat="44.71424462936491" lon="9.53084998281351"><ele>899.0</ele><time>2026-04-22T10:11:40Z</time></trkpt><trkpt lat="44.71419317910772" lon="9.530984109575652"><ele>898.0</ele><time>2026-04-22T10:11:41Z</time></trkpt><trkpt lat="44.71411070307304" lon="9.531125059578672"><ele>897.0</ele><time>2026-04-22T10:11:42Z</time></trkpt><trkpt lat="44.71402515468693" lon="9.53127521457815"><ele>896.0</ele><time>2026-04-22T10:11:43Z</time></trkpt><trkpt lat="44.71395370977485" lon="9.531413288247267"><ele>894.6666666666667</ele><time>2026-04-22T10:11:44Z</time></trkpt><trkpt lat="44.713888425568236" lon="9.531513049552602"><ele>893.3333333333334</ele><time>2026-04-22T10:11:45Z</time></trkpt><trkpt lat="44.7138237357308" lon="9.531584020574561"><ele>892.0</ele><time>2026-04-22T10:11:46Z</time></trkpt><trkpt lat="44.71374070851059" lon="9.531639272301579"><ele>890.6666666666667</ele><time>2026-04-22T10:11:47Z</time></trkpt><trkpt lat="44.71366612506039" lon="9.531683244793864"><ele>889.3333333333334</ele><time>2026-04-22T10:11:48Z</time></trkpt><trkpt lat="44.713593672243924" lon="9.53173335446231"><ele>888.0</ele><time>2026-04-22T10:11:49Z</time></trkpt><trkpt lat="44.71352237980002" lon="9.53178293119094"><ele>888.0</ele><time>2026-04-22T10:11:50Z</time></trkpt><trkpt lat="44.71344330523251" lon="9.531843224044975"><ele>888.0</ele><time>2026-04-22T10:11:51Z</time></trkpt><trkpt lat="44.713355006093394" lon="9.531930191107733"><ele>888.0</ele><time>2026-04-22T10:11:52Z</time></trkpt><trkpt lat="44.713262605468366" lon="9.53202846098293"><ele>888.0</ele><time>2026-04-22T10:11:53Z</time></trkpt><trkpt lat="44.713171156711134" lon="9.532121168641266"><ele>888.0</ele><time>2026-04-22T10:11:54Z</time></trkpt><trkpt lat="44.71308241961002" lon="9.532209216436435"><ele>886.6666666666666</ele><time>2026-04-22T10:11:55Z</time></trkpt><trkpt lat="44.71301708828744" lon="9.532295965681291"><ele>885.3333333333333</ele><time>2026-04-22T10:11:56Z</time></trkpt><trkpt lat="44.712989988231406" lon="9.532379601991977"><ele>884.0</ele><time>2026-04-22T10:11:57Z</time></trkpt><trkpt lat="44.71296025313209" lon="9.532480661978315"><ele>882.6666666666666</ele><time>2026-04-22T10:11:58Z</time></trkpt><trkpt lat="44.71291906195648" lon="9.532577665889166"><ele>881.3333333333333</ele><time>2026-04-22T10:11:59Z</time></trkpt><trkpt lat="44.712882455131265" lon="9.532690751555899"><ele>880.0</ele><time>2026-04-22T10:12:00Z</time></trkpt><trkpt lat="44.71284094618214" lon="9.532797807490228"><ele>878.0</ele><time>2026-04-22T10:12:01Z</time></trkpt><trkpt lat="44.71278742304813" lon="9.532911733088378"><ele>876.0</ele><time>2026-04-22T10:12:02Z</time></trkpt><trkpt lat="44.71271460017449" lon="9.533008874404237"><ele>874.0</ele><time>2026-04-22T10:12:03Z</time></trkpt><trkpt lat="44.71264563242804" lon="9.533126951098644"><ele>872.0</ele><time>2026-04-22T10:12:04Z</time></trkpt><trkpt lat="44.71258921544366" lon="9.533239546526714"><ele>870.0</ele><time>2026-04-22T10:12:05Z</time></trkpt><trkpt lat="44.71253877912395" lon="9.533334572309686"><ele>869.3333333333334</ele><time>2026-04-22T10:12:06Z</time></trkpt><trkpt lat="44.712482064815305" lon="9.533415363000028"><ele>868.6666666666667</ele><time>2026-04-22T10:12:07Z</time></trkpt><trkpt lat="44.71243745556265" lon="9.533479792651342"><ele>868.0</ele><time>2026-04-22T10:12:08Z</time></trkpt><trkpt lat="44.71234645362226" lon="9.533593742881783"><ele>867.3333333333334</ele><time>2026-04-22T10:12:10Z</time></trkpt><trkpt lat="44.712263932082536" lon="9.533658642652656"><ele>866.6666666666667</ele><time>2026-04-22T10:12:12Z</time></trkpt><trkpt lat="44.712191350753265" lon="9.533645168214711"><ele>866.0</ele><time>2026-04-22T10:12:22Z</time></trkpt><trkpt lat="44.71208131742781" lon="9.533655452847755"><ele>866.0000000000001</ele><time>2026-04-22T10:12:26Z</time></trkpt><trkpt lat="44.71199924095527" lon="9.53369133731303"><ele>866.0</ele><time>2026-04-22T10:12:27Z</time></trkpt><trkpt lat="44.711916039442876" lon="9.533698873008165"><ele>866.0</ele><time>2026-04-22T10:12:28Z</time></trkpt><trkpt lat="44.711821673697116" lon="9.533700535281369"><ele>866.0</ele><time>2026-04-22T10:12:29Z</time></trkpt><trkpt lat="44.711738471792636" lon="9.533711145890681"><ele>866.0000000000001</ele><time>2026-04-22T10:12:30Z</time></trkpt><trkpt lat="44.71166675128059" lon="9.53372797830391"><ele>866.0</ele><time>2026-04-22T10:12:31Z</time></trkpt><trkpt lat="44.711595191010176" lon="9.533766490736152"><ele>864.4</ele><time>2026-04-22T10:12:32Z</time></trkpt><trkpt lat="44.71151818460242" lon="9.533745799762539"><ele>862.8</ele><time>2026-04-22T10:12:33Z</time></trkpt><trkpt lat="44.71141923205177" lon="9.533723165318847"><ele>861.1999999999999</ele><time>2026-04-22T10:12:34Z</time></trkpt><trkpt lat="44.71133050627326" lon="9.533714117807614"><ele>859.5999999999999</ele><time>2026-04-22T10:12:35Z</time></trkpt><trkpt lat="44.71126014914878" lon="9.533648800242506"><ele>858.0</ele><time>2026-04-22T10:12:36Z</time></trkpt><trkpt lat="44.71118015357448" lon="9.53351798337789"><ele>858.0</ele><time>2026-04-22T10:12:37Z</time></trkpt><trkpt lat="44.71110704749385" lon="9.533425412886487"><ele>858.0</ele><time>2026-04-22T10:12:38Z</time></trkpt><trkpt lat="44.71097361127289" lon="9.533401144310831"><ele>858.0</ele><time>2026-04-22T10:12:40Z</time></trkpt><trkpt lat="44.71086643516511" lon="9.533383215730979"><ele>858.0</ele><time>2026-04-22T10:12:41Z</time></trkpt><trkpt lat="44.7107557292939" lon="9.533378844123066"><ele>855.4</ele><time>2026-04-22T10:12:42Z</time></trkpt><trkpt lat="44.71064100881781" lon="9.533395583995306"><ele>852.8</ele><time>2026-04-22T10:12:43Z</time></trkpt><trkpt lat="44.71053072844317" lon="9.53342026159195"><ele>850.2</ele><time>2026-04-22T10:12:44Z</time></trkpt><trkpt lat="44.71043867627796" lon="9.533429371376396"><ele>847.6</ele><time>2026-04-22T10:12:45Z</time></trkpt><trkpt lat="44.71034470802656" lon="9.533451123443884"><ele>845.0</ele><time>2026-04-22T10:12:46Z</time></trkpt><trkpt lat="44.71025009171474" lon="9.533491016570883"><ele>842.4</ele><time>2026-04-22T10:12:47Z</time></trkpt><trkpt lat="44.710179941015134" lon="9.533504883213126"><ele>839.8</ele><time>2026-04-22T10:12:48Z</time></trkpt><trkpt lat="44.71004857301791" lon="9.53342828007113"><ele>837.2</ele><time>2026-04-22T10:12:50Z</time></trkpt><trkpt lat="44.709984730207886" lon="9.533416546378465"><ele>834.6</ele><time>2026-04-22T10:12:51Z</time></trkpt><trkpt lat="44.70991810412031" lon="9.53338811445132"><ele>832.0</ele><time>2026-04-22T10:12:53Z</time></trkpt><trkpt lat="44.70991535827225" lon="9.533220236066636"><ele>832.0</ele><time>2026-04-22T10:12:55Z</time></trkpt><trkpt lat="44.70988750827193" lon="9.533139080440689"><ele>832.0</ele><time>2026-04-22T10:12:59Z</time></trkpt><trkpt lat="44.70985114869596" lon="9.53323435680364"><ele>832.0</ele><time>2026-04-22T10:13:04Z</time></trkpt><trkpt lat="44.709784720686365" lon="9.533489190180267"><ele>832.0</ele><time>2026-04-22T10:13:07Z</time></trkpt><trkpt lat="44.70978667703793" lon="9.533645260138407"><ele>832.0</ele><time>2026-04-22T10:13:09Z</time></trkpt><trkpt lat="44.70981679030266" lon="9.533801357972006"><ele>831.2</ele><time>2026-04-22T10:13:11Z</time></trkpt><trkpt lat="44.709898361355" lon="9.533912326988897"><ele>830.4000000000001</ele><time>2026-04-22T10:13:13Z</time></trkpt><trkpt lat="44.709956052079775" lon="9.533969852356002"><ele>829.5999999999999</ele><time>2026-04-22T10:13:14Z</time></trkpt><trkpt lat="44.710029700538776" lon="9.53405833555315"><ele>828.8</ele><time>2026-04-22T10:13:15Z</time></trkpt><trkpt lat="44.710105721915006" lon="9.534173810660342"><ele>828.0</ele><time>2026-04-22T10:13:16Z</time></trkpt><trkpt lat="44.71018310220283" lon="9.534322521243885"><ele>831.0</ele><time>2026-04-22T10:13:17Z</time></trkpt><trkpt lat="44.71024453205175" lon="9.534491770502873"><ele>834.0</ele><time>2026-04-22T10:13:18Z</time></trkpt><trkpt lat="44.71029148765909" lon="9.534657180855897"><ele>837.0</ele><time>2026-04-22T10:13:19Z</time></trkpt><trkpt lat="44.71033390095938" lon="9.534842316427422"><ele>840.0</ele><time>2026-04-22T10:13:20Z</time></trkpt><trkpt lat="44.7103862669024" lon="9.535021096041662"><ele>840.0</ele><time>2026-04-22T10:13:21Z</time></trkpt><trkpt lat="44.71044438416455" lon="9.535196744496796"><ele>840.0</ele><time>2026-04-22T10:13:22Z</time></trkpt><trkpt lat="44.71048795110995" lon="9.53535430036642"><ele>840.0</ele><time>2026-04-22T10:13:23Z</time></trkpt><trkpt lat="44.71050898420914" lon="9.535479747533401"><ele>840.0</ele><time>2026-04-22T10:13:24Z</time></trkpt><trkpt lat="44.710517536121294" lon="9.535599816774713"><ele>840.0</ele><time>2026-04-22T10:13:25Z</time></trkpt><trkpt lat="44.71051722740427" lon="9.535731056501772"><ele>839.4</ele><time>2026-04-22T10:13:26Z</time></trkpt><trkpt lat="44.710531452665364" lon="9.53585806485921"><ele>838.8</ele><time>2026-04-22T10:13:27Z</time></trkpt><trkpt lat="44.7105137605784" lon="9.536009675689497"><ele>838.2</ele><time>2026-04-22T10:13:28Z</time></trkpt><trkpt lat="44.7104512155295" lon="9.536155052112864"><ele>837.6</ele><time>2026-04-22T10:13:29Z</time></trkpt><trkpt lat="44.71037091328325" lon="9.536280675031634"><ele>837.0</ele><time>2026-04-22T10:13:30Z</time></trkpt><trkpt lat="44.710252639331465" lon="9.536373953259316"><ele>835.1666666666666</ele><time>2026-04-22T10:13:31Z</time></trkpt><trkpt lat="44.71014435828276" lon="9.536434741769645"><ele>833.3333333333333</ele><time>2026-04-22T10:13:32Z</time></trkpt><trkpt lat="44.710066461157076" lon="9.536491020562305"><ele>831.5</ele><time>2026-04-22T10:13:33Z</time></trkpt><trkpt lat="44.71001658960235" lon="9.536564698993342"><ele>829.6666666666666</ele><time>2026-04-22T10:13:34Z</time></trkpt><trkpt lat="44.7099978331222" lon="9.53666607767959"><ele>827.8333333333333</ele><time>2026-04-22T10:13:36Z</time></trkpt><trkpt lat="44.7100004085323" lon="9.536786507039196"><ele>826.0</ele><time>2026-04-22T10:13:38Z</time></trkpt><trkpt lat="44.70999069209603" lon="9.53687712460918"><ele>826.0</ele><time>2026-04-22T10:13:39Z</time></trkpt><trkpt lat="44.70997091556111" lon="9.536992861754383"><ele>826.0</ele><time>2026-04-22T10:13:40Z</time></trkpt><trkpt lat="44.709918935542" lon="9.537119720795666"><ele>826.0</ele><time>2026-04-22T10:13:41Z</time></trkpt><trkpt lat="44.709871125441786" lon="9.5372453518555"><ele>826.0</ele><time>2026-04-22T10:13:42Z</time></trkpt><trkpt lat="44.70980882008676" lon="9.537355477200947"><ele>826.0</ele><time>2026-04-22T10:13:43Z</time></trkpt><trkpt lat="44.70976986907361" lon="9.537468618519565"><ele>826.4</ele><time>2026-04-22T10:13:44Z</time></trkpt><trkpt lat="44.7097223667216" lon="9.537571689057682"><ele>826.8</ele><time>2026-04-22T10:13:45Z</time></trkpt><trkpt lat="44.70970767857796" lon="9.537684533970715"><ele>827.1999999999999</ele><time>2026-04-22T10:13:46Z</time></trkpt><trkpt lat="44.70972436179247" lon="9.537814138900684"><ele>827.5999999999999</ele><time>2026-04-22T10:13:47Z</time></trkpt><trkpt lat="44.70974908077229" lon="9.537939879577513"><ele>828.0</ele><time>2026-04-22T10:13:48Z</time></trkpt><trkpt lat="44.7097683996561" lon="9.53807074824984"><ele>828.0</ele><time>2026-04-22T10:13:49Z</time></trkpt><trkpt lat="44.70976667361909" lon="9.538197621096552"><ele>828.0</ele><time>2026-04-22T10:13:50Z</time></trkpt><trkpt lat="44.70974025936014" lon="9.538321029751623"><ele>828.0</ele><time>2026-04-22T10:13:51Z</time></trkpt><trkpt lat="44.709700447112134" lon="9.538437274690713"><ele>828.0</ele><time>2026-04-22T10:13:52Z</time></trkpt><trkpt lat="44.70962195492767" lon="9.538519789797277"><ele>828.0</ele><time>2026-04-22T10:13:53Z</time></trkpt><trkpt lat="44.70953742760267" lon="9.538595118019924"><ele>828.0</ele><time>2026-04-22T10:13:54Z</time></trkpt><trkpt lat="44.70945175962102" lon="9.538691657137022"><ele>828.0</ele><time>2026-04-22T10:13:55Z</time></trkpt><trkpt lat="44.70935619401243" lon="9.538744254205417"><ele>828.0</ele><time>2026-04-22T10:13:56Z</time></trkpt><trkpt lat="44.70925959487047" lon="9.538776355406778"><ele>828.0</ele><time>2026-04-22T10:13:57Z</time></trkpt><trkpt lat="44.70916103195965" lon="9.538788846251466"><ele>828.0</ele><time>2026-04-22T10:13:58Z</time></trkpt><trkpt lat="44.70907161485476" lon="9.53879530236646"><ele>827.8</ele><time>2026-04-22T10:13:59Z</time></trkpt><trkpt lat="44.70899291466583" lon="9.538827773590647"><ele>827.5999999999999</ele><time>2026-04-22T10:14:00Z</time></trkpt><trkpt lat="44.70893515685029" lon="9.53889345882844"><ele>827.4000000000001</ele><time>2026-04-22T10:14:01Z</time></trkpt><trkpt lat="44.70890717343374" lon="9.539005408594846"><ele>827.2</ele><time>2026-04-22T10:14:02Z</time></trkpt><trkpt lat="44.708908174491015" lon="9.539153291147944"><ele>827.0</ele><time>2026-04-22T10:14:03Z</time></trkpt><trkpt lat="44.70894242786439" lon="9.539304620169432"><ele>827.0</ele><time>2026-04-22T10:14:04Z</time></trkpt><trkpt lat="44.70899390769269" lon="9.53945230160375"><ele>827.0</ele><time>2026-04-22T10:14:05Z</time></trkpt><trkpt lat="44.70899884743767" lon="9.5396278109695"><ele>827.0</ele><time>2026-04-22T10:14:06Z</time></trkpt><trkpt lat="44.708986753160836" lon="9.539806980399876"><ele>827.0</ele><time>2026-04-22T10:14:07Z</time></trkpt><trkpt lat="44.70893739837427" lon="9.539963031706831"><ele>826.8</ele><time>2026-04-22T10:14:08Z</time></trkpt><trkpt lat="44.708874530572935" lon="9.540103617532823"><ele>826.6</ele><time>2026-04-22T10:14:09Z</time></trkpt><trkpt lat="44.70879943060139" lon="9.540214321938333"><ele>826.4</ele><time>2026-04-22T10:14:10Z</time></trkpt><trkpt lat="44.70873460308987" lon="9.540323494118164"><ele>826.1999999999999</ele><time>2026-04-22T10:14:11Z</time></trkpt><trkpt lat="44.70868456465279" lon="9.54037955774052"><ele>826.0</ele><time>2026-04-22T10:14:12Z</time></trkpt><trkpt lat="44.70863863051431" lon="9.540456502331343"><ele>825.6666666666666</ele><time>2026-04-22T10:14:14Z</time></trkpt><trkpt lat="44.70854600510599" lon="9.540522645855383"><ele>825.3333333333333</ele><time>2026-04-22T10:14:35Z</time></trkpt><trkpt lat="44.70850076822521" lon="9.540588034528632"><ele>825.0</ele><time>2026-04-22T10:14:36Z</time></trkpt><trkpt lat="44.708437999744895" lon="9.540650186576947"><ele>824.6666666666667</ele><time>2026-04-22T10:14:37Z</time></trkpt><trkpt lat="44.70837377053995" lon="9.540737888012735"><ele>824.3333333333334</ele><time>2026-04-22T10:14:38Z</time></trkpt><trkpt lat="44.70830408012298" lon="9.540840707490862"><ele>824.0</ele><time>2026-04-22T10:14:39Z</time></trkpt><trkpt lat="44.708236938721114" lon="9.540934949913288"><ele>824.0000000000001</ele><time>2026-04-22T10:14:40Z</time></trkpt><trkpt lat="44.70817400949844" lon="9.541025379753167"><ele>824.0</ele><time>2026-04-22T10:14:41Z</time></trkpt><trkpt lat="44.708128043015634" lon="9.541092494763541"><ele>824.0</ele><time>2026-04-22T10:14:42Z</time></trkpt><trkpt lat="44.70805751816322" lon="9.54115033584791"><ele>824.0</ele><time>2026-04-22T10:14:46Z</time></trkpt><trkpt lat="44.70800194290688" lon="9.54120048170452"><ele>824.0000000000001</ele><time>2026-04-22T10:14:50Z</time></trkpt><trkpt lat="44.708074033103394" lon="9.541144684370304"><ele>824.0</ele><time>2026-04-22T10:14:53Z</time></trkpt><trkpt lat="44.70814101540651" lon="9.541172898552686"><ele>822.5000000000001</ele><time>2026-04-22T10:14:55Z</time></trkpt><trkpt lat="44.70818655034035" lon="9.541253347247427"><ele>821.0</ele><time>2026-04-22T10:14:57Z</time></trkpt><trkpt lat="44.70823773665294" lon="9.541383647321542"><ele>819.5</ele><time>2026-04-22T10:14:59Z</time></trkpt><trkpt lat="44.70829809864893" lon="9.541436718322798"><ele>818.0</ele><time>2026-04-22T10:15:00Z</time></trkpt><trkpt lat="44.70835096891114" lon="9.541492681106565"><ele>816.5000000000001</ele><time>2026-04-22T10:15:01Z</time></trkpt><trkpt lat="44.70841817762896" lon="9.541581705538903"><ele>815.0</ele><time>2026-04-22T10:15:02Z</time></trkpt><trkpt lat="44.70848979202502" lon="9.541674852921508"><ele>815.4</ele><time>2026-04-22T10:15:03Z</time></trkpt><trkpt lat="44.70858430390672" lon="9.54174817298632"><ele>815.8</ele><time>2026-04-22T10:15:04Z</time></trkpt><trkpt lat="44.70867774345927" lon="9.541789597528599"><ele>816.2</ele><time>2026-04-22T10:15:05Z</time></trkpt><trkpt lat="44.708776949729135" lon="9.541814776094375"><ele>816.6</ele><time>2026-04-22T10:15:06Z</time></trkpt><trkpt lat="44.70887888078874" lon="9.541875204353644"><ele>817.0</ele><time>2026-04-22T10:15:07Z</time></trkpt><trkpt lat="44.708964881481364" lon="9.541961689683335"><ele>817.0</ele><time>2026-04-22T10:15:08Z</time></trkpt><trkpt lat="44.70902330868648" lon="9.542034187346696"><ele>817.0</ele><time>2026-04-22T10:15:09Z</time></trkpt><trkpt lat="44.70910511845871" lon="9.542127903897555"><ele>817.0</ele><time>2026-04-22T10:15:11Z</time></trkpt><trkpt lat="44.70914407201213" lon="9.542238683708046"><ele>817.0</ele><time>2026-04-22T10:15:13Z</time></trkpt><trkpt lat="44.70906188295416" lon="9.542080837065113"><ele>817.0</ele><time>2026-04-22T10:15:25Z</time></trkpt><trkpt lat="44.709004108589816" lon="9.54197798828898"><ele>816.9999999999999</ele><time>2026-04-22T10:15:26Z</time></trkpt><trkpt lat="44.70894254897578" lon="9.541944979166313"><ele>817.0</ele><time>2026-04-22T10:15:27Z</time></trkpt><trkpt lat="44.70889239637985" lon="9.54187362508334"><ele>817.0</ele><time>2026-04-22T10:15:29Z</time></trkpt><trkpt lat="44.70882950277884" lon="9.541808528611242"><ele>817.0</ele><time>2026-04-22T10:15:32Z</time></trkpt><trkpt lat="44.70873939535077" lon="9.541766100244633"><ele>816.9999999999999</ele><time>2026-04-22T10:15:34Z</time></trkpt><trkpt lat="44.7086521292424" lon="9.541726118051189"><ele>817.0</ele><time>2026-04-22T10:15:36Z</time></trkpt><trkpt lat="44.708492153389585" lon="9.542184123277547"><ele>814.4285714285713</ele><time>2026-04-22T10:15:38Z</time></trkpt><trkpt lat="44.70845868155469" lon="9.54227170188338"><ele>811.8571428571429</ele><time>2026-04-22T10:15:39Z</time></trkpt><trkpt lat="44.708407434464476" lon="9.54237707505165"><ele>809.2857142857142</ele><time>2026-04-22T10:15:40Z</time></trkpt><trkpt lat="44.70835109255065" lon="9.542454057662857"><ele>806.7142857142857</ele><time>2026-04-22T10:15:41Z</time></trkpt><trkpt lat="44.70830499197201" lon="9.542520866350602"><ele>804.1428571428571</ele><time>2026-04-22T10:15:42Z</time></trkpt><trkpt lat="44.70825556789989" lon="9.542578926671172"><ele>801.5714285714286</ele><time>2026-04-22T10:15:44Z</time></trkpt><trkpt lat="44.70820667475444" lon="9.542638242892494"><ele>799.0</ele><time>2026-04-22T10:15:46Z</time></trkpt><trkpt lat="44.70815955433383" lon="9.542711510600606"><ele>799.0</ele><time>2026-04-22T10:15:47Z</time></trkpt><trkpt lat="44.70811554752634" lon="9.54283987837432"><ele>799.0</ele><time>2026-04-22T10:15:48Z</time></trkpt><trkpt lat="44.70807560785867" lon="9.542981390738701"><ele>799.0</ele><time>2026-04-22T10:15:49Z</time></trkpt><trkpt lat="44.70803914493506" lon="9.543141935683826"><ele>799.0</ele><time>2026-04-22T10:15:50Z</time></trkpt><trkpt lat="44.70801679034921" lon="9.543302532721833"><ele>799.0</ele><time>2026-04-22T10:15:51Z</time></trkpt><trkpt lat="44.70799584285908" lon="9.543427390430878"><ele>797.8000000000001</ele><time>2026-04-22T10:15:52Z</time></trkpt><trkpt lat="44.708004899318404" lon="9.543544074792736"><ele>796.6</ele><time>2026-04-22T10:15:53Z</time></trkpt><trkpt lat="44.70797396260134" lon="9.543683118085315"><ele>795.4</ele><time>2026-04-22T10:15:55Z</time></trkpt><trkpt lat="44.70792650074646" lon="9.543755092411635"><ele>794.2</ele><time>2026-04-22T10:15:56Z</time></trkpt><trkpt lat="44.70785618888758" lon="9.543874538410922"><ele>793.0</ele><time>2026-04-22T10:15:57Z</time></trkpt><trkpt lat="44.707799970755545" lon="9.543960678812809"><ele>790.4</ele><time>2026-04-22T10:15:58Z</time></trkpt><trkpt lat="44.70773675056997" lon="9.544041330010275"><ele>787.8</ele><time>2026-04-22T10:15:59Z</time></trkpt><trkpt lat="44.70767411343184" lon="9.544132772690448"><ele>785.2</ele><time>2026-04-22T10:16:00Z</time></trkpt><trkpt lat="44.70757861833507" lon="9.544170871912145"><ele>782.6</ele><time>2026-04-22T10:16:02Z</time></trkpt><trkpt lat="44.70746546575636" lon="9.544188479823296"><ele>780.0</ele><time>2026-04-22T10:16:04Z</time></trkpt><trkpt lat="44.70739481364007" lon="9.544258525175177"><ele>780.0</ele><time>2026-04-22T10:16:06Z</time></trkpt><trkpt lat="44.70729963335707" lon="9.544524075790942"><ele>780.0</ele><time>2026-04-22T10:16:09Z</time></trkpt><trkpt lat="44.707243217619244" lon="9.544649992370347"><ele>780.0</ele><time>2026-04-22T10:16:10Z</time></trkpt><trkpt lat="44.70723030407049" lon="9.54476989884794"><ele>780.0</ele><time>2026-04-22T10:16:11Z</time></trkpt><trkpt lat="44.707228231882446" lon="9.54488266031351"><ele>778.5</ele><time>2026-04-22T10:16:12Z</time></trkpt><trkpt lat="44.70724089730646" lon="9.544973215651677"><ele>777.0</ele><time>2026-04-22T10:16:13Z</time></trkpt><trkpt lat="44.70726828529853" lon="9.545106690614254"><ele>775.5</ele><time>2026-04-22T10:16:15Z</time></trkpt><trkpt lat="44.70728080278495" lon="9.545193836354736"><ele>774.0</ele><time>2026-04-22T10:16:16Z</time></trkpt><trkpt lat="44.70728081307355" lon="9.545286221081762"><ele>772.5</ele><time>2026-04-22T10:16:17Z</time></trkpt><trkpt lat="44.707266277290415" lon="9.545391791449925"><ele>771.0</ele><time>2026-04-22T10:16:18Z</time></trkpt><trkpt lat="44.70721769126457" lon="9.545507709508154"><ele>769.1666666666666</ele><time>2026-04-22T10:16:19Z</time></trkpt><trkpt lat="44.707176559009255" lon="9.545624432632213"><ele>767.3333333333334</ele><time>2026-04-22T10:16:20Z</time></trkpt><trkpt lat="44.7071397979767" lon="9.545719378263016"><ele>765.5</ele><time>2026-04-22T10:16:21Z</time></trkpt><trkpt lat="44.707108383501655" lon="9.545805786440882"><ele>763.6666666666667</ele><time>2026-04-22T10:16:22Z</time></trkpt><trkpt lat="44.70708502599661" lon="9.545942644922482"><ele>761.8333333333334</ele><time>2026-04-22T10:16:24Z</time></trkpt><trkpt lat="44.70699609700173" lon="9.545967630980208"><ele>760.0</ele><time>2026-04-22T10:16:29Z</time></trkpt><trkpt lat="44.70692495688915" lon="9.546025153534934"><ele>759.0</ele><time>2026-04-22T10:16:30Z</time></trkpt><trkpt lat="44.706853976125686" lon="9.546092720583408"><ele>758.0</ele><time>2026-04-22T10:16:31Z</time></trkpt><trkpt lat="44.70675423261158" lon="9.546084057935719"><ele>757.0</ele><time>2026-04-22T10:16:33Z</time></trkpt><trkpt lat="44.70670195487258" lon="9.54618968124093"><ele>756.0</ele><time>2026-04-22T10:16:35Z</time></trkpt><trkpt lat="44.70666164637857" lon="9.54629430362577"><ele>755.0</ele><time>2026-04-22T10:16:36Z</time></trkpt><trkpt lat="44.70664106158929" lon="9.546386920649697"><ele>754.0</ele><time>2026-04-22T10:16:37Z</time></trkpt><trkpt lat="44.70666332903631" lon="9.54656599098594"><ele>752.1666666666667</ele><time>2026-04-22T10:16:39Z</time></trkpt><trkpt lat="44.70666970744256" lon="9.546673496950257"><ele>750.3333333333334</ele><time>2026-04-22T10:16:40Z</time></trkpt><trkpt lat="44.7066583445197" lon="9.546806995210476"><ele>748.5</ele><time>2026-04-22T10:16:41Z</time></trkpt><trkpt lat="44.70664600487579" lon="9.546898790880748"><ele>746.6666666666666</ele><time>2026-04-22T10:16:44Z</time></trkpt><trkpt lat="44.70663925822954" lon="9.547006722471036"><ele>744.8333333333333</ele><time>2026-04-22T10:16:48Z</time></trkpt><trkpt lat="44.7065912008862" lon="9.54707255652528"><ele>743.0</ele><time>2026-04-22T10:16:50Z</time></trkpt><trkpt lat="44.7065393456733" lon="9.547162234247379"><ele>741.2</ele><time>2026-04-22T10:16:51Z</time></trkpt><trkpt lat="44.706498663420206" lon="9.547247954803249"><ele>739.4</ele><time>2026-04-22T10:16:52Z</time></trkpt><trkpt lat="44.70646672449442" lon="9.54732646928003"><ele>737.6</ele><time>2026-04-22T10:16:53Z</time></trkpt><trkpt lat="44.70639798024749" lon="9.54745347628965"><ele>735.8000000000001</ele><time>2026-04-22T10:16:55Z</time></trkpt><trkpt lat="44.706397962413625" lon="9.547622068479964"><ele>734.0</ele><time>2026-04-22T10:16:57Z</time></trkpt><trkpt lat="44.706381288635704" lon="9.547754483626637"><ele>731.4000000000001</ele><time>2026-04-22T10:16:58Z</time></trkpt><trkpt lat="44.70634046666493" lon="9.547887017510233"><ele>728.8</ele><time>2026-04-22T10:16:59Z</time></trkpt><trkpt lat="44.70636164754177" lon="9.548026309546888"><ele>726.2</ele><time>2026-04-22T10:17:01Z</time></trkpt><trkpt lat="44.7064151654911" lon="9.548153110178147"><ele>723.5999999999999</ele><time>2026-04-22T10:17:03Z</time></trkpt><trkpt lat="44.706412864881784" lon="9.548318869500115"><ele>721.0</ele><time>2026-04-22T10:17:05Z</time></trkpt><trkpt lat="44.70635665646448" lon="9.548452510904518"><ele>721.0</ele><time>2026-04-22T10:17:07Z</time></trkpt><trkpt lat="44.706315103951006" lon="9.54854983109393"><ele>721.0</ele><time>2026-04-22T10:17:08Z</time></trkpt><trkpt lat="44.70626138312865" lon="9.548641313294995"><ele>721.0</ele><time>2026-04-22T10:17:10Z</time></trkpt><trkpt lat="44.70616924100787" lon="9.548673890766679"><ele>721.0</ele><time>2026-04-22T10:17:13Z</time></trkpt><trkpt lat="44.70610317938286" lon="9.548750621463155"><ele>721.0</ele><time>2026-04-22T10:17:15Z</time></trkpt><trkpt lat="44.70604247985353" lon="9.548837258361221"><ele>721.0</ele><time>2026-04-22T10:17:18Z</time></trkpt><trkpt lat="44.705977556499334" lon="9.548881105203376"><ele>710.0</ele><time>2026-04-22T10:17:21Z</time></trkpt><trkpt lat="44.70564641537601" lon="9.549310390148259"><ele>710.0</ele><time>2026-04-22T10:17:24Z</time></trkpt><trkpt lat="44.705578435309164" lon="9.549375175976408"><ele>710.0</ele><time>2026-04-22T10:17:25Z</time></trkpt><trkpt lat="44.70551177840357" lon="9.549417621430083"><ele>710.0</ele><time>2026-04-22T10:17:26Z</time></trkpt><trkpt lat="44.705446495098904" lon="9.549465128093575"><ele>710.0</ele><time>2026-04-22T10:17:27Z</time></trkpt><trkpt lat="44.70539161662587" lon="9.549523674219781"><ele>710.0</ele><time>2026-04-22T10:17:28Z</time></trkpt><trkpt lat="44.70533435255253" lon="9.549571298652936"><ele>710.0</ele><time>2026-04-22T10:17:29Z</time></trkpt><trkpt lat="44.70531127398945" lon="9.549663617538606"><ele>710.0</ele><time>2026-04-22T10:17:32Z</time></trkpt><trkpt lat="44.70537797333912" lon="9.549687592711805"><ele>710.0</ele><time>2026-04-22T10:17:36Z</time></trkpt><trkpt lat="44.7054460932225" lon="9.549653805565747"><ele>710.0</ele><time>2026-04-22T10:17:52Z</time></trkpt><trkpt lat="44.705542052644276" lon="9.549604595657977"><ele>710.0</ele><time>2026-04-22T10:17:54Z</time></trkpt><trkpt lat="44.70562802627043" lon="9.549549755660163"><ele>710.0</ele><time>2026-04-22T10:17:56Z</time></trkpt><trkpt lat="44.70569162688272" lon="9.549528180625765"><ele>710.0</ele><time>2026-04-22T10:17:58Z</time></trkpt><trkpt lat="44.70578127440746" lon="9.549576418534178"><ele>710.0</ele><time>2026-04-22T10:18:02Z</time></trkpt><trkpt lat="44.70590743641743" lon="9.549535132885044"><ele>710.0</ele><time>2026-04-22T10:18:04Z</time></trkpt><trkpt lat="44.70597101883614" lon="9.54947497830194"><ele>710.0</ele><time>2026-04-22T10:18:05Z</time></trkpt><trkpt lat="44.70608530828145" lon="9.549459552483198"><ele>710.0</ele><time>2026-04-22T10:18:06Z</time></trkpt><trkpt lat="44.70617294469968" lon="9.549487383035583"><ele>710.0</ele><time>2026-04-22T10:18:07Z</time></trkpt><trkpt lat="44.70624192295114" lon="9.5495339989548"><ele>710.0</ele><time>2026-04-22T10:18:08Z</time></trkpt><trkpt lat="44.7062946770766" lon="9.549584651542817"><ele>710.0</ele><time>2026-04-22T10:18:09Z</time></trkpt><trkpt lat="44.70636192500477" lon="9.549761195476805"><ele>707.5</ele><time>2026-04-22T10:18:11Z</time></trkpt><trkpt lat="44.7064199584753" lon="9.54980992733896"><ele>705.0</ele><time>2026-04-22T10:18:13Z</time></trkpt><trkpt lat="44.70652644167782" lon="9.549803372083721"><ele>702.5</ele><time>2026-04-22T10:18:15Z</time></trkpt><trkpt lat="44.70659302549478" lon="9.549832420854857"><ele>700.0</ele><time>2026-04-22T10:18:16Z</time></trkpt><trkpt lat="44.70664583641066" lon="9.54996360652604"><ele>697.5</ele><time>2026-04-22T10:18:18Z</time></trkpt><trkpt lat="44.70668479901636" lon="9.550046667455938"><ele>695.0</ele><time>2026-04-22T10:18:19Z</time></trkpt><trkpt lat="44.706715310180265" lon="9.550124868576921"><ele>695.0</ele><time>2026-04-22T10:18:20Z</time></trkpt><trkpt lat="44.70677443784854" lon="9.5502373296571"><ele>695.0</ele><time>2026-04-22T10:18:23Z</time></trkpt><trkpt lat="44.70685338360355" lon="9.550367956804177"><ele>695.0</ele><time>2026-04-22T10:18:25Z</time></trkpt><trkpt lat="44.70690983391941" lon="9.550457048829664"><ele>695.0</ele><time>2026-04-22T10:18:26Z</time></trkpt><trkpt lat="44.70694820250741" lon="9.550542232826542"><ele>695.0</ele><time>2026-04-22T10:18:27Z</time></trkpt><trkpt lat="44.7069717381953" lon="9.550635841927491"><ele>695.0</ele><time>2026-04-22T10:18:28Z</time></trkpt><trkpt lat="44.70698818597333" lon="9.55077293325412"><ele>695.6</ele><time>2026-04-22T10:18:30Z</time></trkpt><trkpt lat="44.70697246911233" lon="9.550945738154445"><ele>696.2</ele><time>2026-04-22T10:18:32Z</time></trkpt><trkpt lat="44.706981510968376" lon="9.55103715168201"><ele>696.8</ele><time>2026-04-22T10:18:33Z</time></trkpt><trkpt lat="44.70703474687269" lon="9.551176959302484"><ele>697.4</ele><time>2026-04-22T10:18:35Z</time></trkpt><trkpt lat="44.707126371083596" lon="9.55133325541085"><ele>698.0</ele><time>2026-04-22T10:18:37Z</time></trkpt><trkpt lat="44.70721493643113" lon="9.551397152609887"><ele>695.2</ele><time>2026-04-22T10:18:38Z</time></trkpt><trkpt lat="44.70728621183202" lon="9.551456306898867"><ele>692.4</ele><time>2026-04-22T10:18:39Z</time></trkpt><trkpt lat="44.70727274371196" lon="9.551650015617872"><ele>689.6</ele><time>2026-04-22T10:18:41Z</time></trkpt><trkpt lat="44.70725946360383" lon="9.551760317095859"><ele>686.8000000000001</ele><time>2026-04-22T10:18:42Z</time></trkpt><trkpt lat="44.707276817891106" lon="9.551868101493135"><ele>684.0</ele><time>2026-04-22T10:18:43Z</time></trkpt><trkpt lat="44.707287775448364" lon="9.55199324622568"><ele>681.0</ele><time>2026-04-22T10:18:44Z</time></trkpt><trkpt lat="44.70731238701985" lon="9.552095081171778"><ele>678.0</ele><time>2026-04-22T10:18:45Z</time></trkpt><trkpt lat="44.70740133523053" lon="9.55219999780164"><ele>675.0</ele><time>2026-04-22T10:18:47Z</time></trkpt><trkpt lat="44.70751235395411" lon="9.552247554041355"><ele>672.0</ele><time>2026-04-22T10:18:48Z</time></trkpt><trkpt lat="44.70763388477109" lon="9.552347072884679"><ele>669.0</ele><time>2026-04-22T10:18:49Z</time></trkpt><trkpt lat="44.70773814876949" lon="9.552461945390032"><ele>668.6</ele><time>2026-04-22T10:18:50Z</time></trkpt><trkpt lat="44.70779505534657" lon="9.552516371234956"><ele>668.2</ele><time>2026-04-22T10:18:51Z</time></trkpt><trkpt lat="44.70787011254888" lon="9.552507465999444"><ele>667.8000000000001</ele><time>2026-04-22T10:18:53Z</time></trkpt><trkpt lat="44.707963833558644" lon="9.552422376122026"><ele>667.4000000000001</ele><time>2026-04-22T10:18:55Z</time></trkpt><trkpt lat="44.70801391066218" lon="9.552308368974549"><ele>667.0</ele><time>2026-04-22T10:18:57Z</time></trkpt><trkpt lat="44.708155364722195" lon="9.552082503052398"><ele>669.6</ele><time>2026-04-22T10:19:00Z</time></trkpt><trkpt lat="44.70819901595829" lon="9.551973587270279"><ele>672.2</ele><time>2026-04-22T10:19:01Z</time></trkpt><trkpt lat="44.70824603145292" lon="9.551856142221506"><ele>674.8</ele><time>2026-04-22T10:19:02Z</time></trkpt><trkpt lat="44.70830098048978" lon="9.551727476885931"><ele>677.4</ele><time>2026-04-22T10:19:03Z</time></trkpt><trkpt lat="44.708353563908716" lon="9.551605429738917"><ele>680.0</ele><time>2026-04-22T10:19:04Z</time></trkpt><trkpt lat="44.708407547207855" lon="9.551511010367873"><ele>680.0</ele><time>2026-04-22T10:19:05Z</time></trkpt><trkpt lat="44.70848541122476" lon="9.551416046118149"><ele>680.0</ele><time>2026-04-22T10:19:06Z</time></trkpt><trkpt lat="44.70854662567668" lon="9.551360955868255"><ele>680.0</ele><time>2026-04-22T10:19:07Z</time></trkpt><trkpt lat="44.70866484755117" lon="9.55135222144929"><ele>680.0</ele><time>2026-04-22T10:19:09Z</time></trkpt><trkpt lat="44.708732175372845" lon="9.551339725703816"><ele>680.0</ele><time>2026-04-22T10:19:10Z</time></trkpt><trkpt lat="44.7088442268672" lon="9.551259152506171"><ele>680.1428571428572</ele><time>2026-04-22T10:19:12Z</time></trkpt><trkpt lat="44.70890553181128" lon="9.551205382481312"><ele>680.2857142857142</ele><time>2026-04-22T10:19:13Z</time></trkpt><trkpt lat="44.70896759530444" lon="9.551142131930996"><ele>680.4285714285714</ele><time>2026-04-22T10:19:14Z</time></trkpt><trkpt lat="44.709034986751114" lon="9.551094735885933"><ele>680.5714285714287</ele><time>2026-04-22T10:19:15Z</time></trkpt><trkpt lat="44.70909851340543" lon="9.551057887644397"><ele>680.7142857142858</ele><time>2026-04-22T10:19:16Z</time></trkpt><trkpt lat="44.70916713246086" lon="9.551012872030121"><ele>680.8571428571429</ele><time>2026-04-22T10:19:17Z</time></trkpt><trkpt lat="44.70923683297609" lon="9.550967589729058"><ele>681.0</ele><time>2026-04-22T10:19:18Z</time></trkpt><trkpt lat="44.70930914570095" lon="9.550948853608137"><ele>681.1666666666666</ele><time>2026-04-22T10:19:19Z</time></trkpt><trkpt lat="44.70942101056201" lon="9.551001036762255"><ele>681.3333333333334</ele><time>2026-04-22T10:19:20Z</time></trkpt><trkpt lat="44.709514451387776" lon="9.55101701223416"><ele>681.5</ele><time>2026-04-22T10:19:21Z</time></trkpt><trkpt lat="44.709607781589014" lon="9.55099363038254"><ele>681.6666666666667</ele><time>2026-04-22T10:19:22Z</time></trkpt><trkpt lat="44.709677254267355" lon="9.550994416072921"><ele>681.8333333333334</ele><time>2026-04-22T10:19:23Z</time></trkpt><trkpt lat="44.70973298873362" lon="9.551041708836117"><ele>682.0</ele><time>2026-04-22T10:19:24Z</time></trkpt><trkpt lat="44.709810258004275" lon="9.551095390467157"><ele>682.0</ele><time>2026-04-22T10:19:25Z</time></trkpt><trkpt lat="44.7098951451279" lon="9.551121598366914"><ele>682.0</ele><time>2026-04-22T10:19:26Z</time></trkpt><trkpt lat="44.709969655294444" lon="9.551121617367746"><ele>682.0</ele><time>2026-04-22T10:19:27Z</time></trkpt><trkpt lat="44.71004780475192" lon="9.5511271580347"><ele>682.0</ele><time>2026-04-22T10:19:28Z</time></trkpt><trkpt lat="44.710150069559134" lon="9.55111941921773"><ele>682.0</ele><time>2026-04-22T10:19:29Z</time></trkpt><trkpt lat="44.71026364731401" lon="9.551129843925004"><ele>681.0</ele><time>2026-04-22T10:19:30Z</time></trkpt><trkpt lat="44.71036536553467" lon="9.551209486615408"><ele>680.0</ele><time>2026-04-22T10:19:31Z</time></trkpt><trkpt lat="44.71045808802768" lon="9.551284196179303"><ele>679.0</ele><time>2026-04-22T10:19:32Z</time></trkpt><trkpt lat="44.7105174806388" lon="9.551358736276669"><ele>678.0</ele><time>2026-04-22T10:19:33Z</time></trkpt><trkpt lat="44.710529332729834" lon="9.551497473968217"><ele>677.0</ele><time>2026-04-22T10:19:35Z</time></trkpt><trkpt lat="44.710589152918125" lon="9.551539533772232"><ele>677.0</ele><time>2026-04-22T10:19:44Z</time></trkpt><trkpt lat="44.7105988450743" lon="9.551672376028918"><ele>677.0</ele><time>2026-04-22T10:19:46Z</time></trkpt><trkpt lat="44.7106037373111" lon="9.551776904865363"><ele>677.0</ele><time>2026-04-22T10:19:47Z</time></trkpt><trkpt lat="44.710615727931305" lon="9.551909842879486"><ele>677.0</ele><time>2026-04-22T10:19:48Z</time></trkpt><trkpt lat="44.71063434725467" lon="9.552036529246596"><ele>677.0</ele><time>2026-04-22T10:19:49Z</time></trkpt><trkpt lat="44.71065922863569" lon="9.552138726493546"><ele>677.0</ele><time>2026-04-22T10:19:50Z</time></trkpt><trkpt lat="44.710681615016256" lon="9.552223109803567"><ele>675.5</ele><time>2026-04-22T10:19:51Z</time></trkpt><trkpt lat="44.71070467640149" lon="9.55231072287233"><ele>674.0</ele><time>2026-04-22T10:19:52Z</time></trkpt><trkpt lat="44.71071442232723" lon="9.552423876077707"><ele>672.5</ele><time>2026-04-22T10:19:53Z</time></trkpt><trkpt lat="44.71072341638543" lon="9.55253307759971"><ele>671.0</ele><time>2026-04-22T10:19:54Z</time></trkpt><trkpt lat="44.71072935663204" lon="9.552642126993211"><ele>669.5</ele><time>2026-04-22T10:19:55Z</time></trkpt><trkpt lat="44.710741995866286" lon="9.55274127345386"><ele>668.0</ele><time>2026-04-22T10:19:56Z</time></trkpt><trkpt lat="44.71076133853789" lon="9.552850996772888"><ele>667.0</ele><time>2026-04-22T10:19:57Z</time></trkpt><trkpt lat="44.710756455594684" lon="9.552975290013274"><ele>666.0</ele><time>2026-04-22T10:19:58Z</time></trkpt><trkpt lat="44.71074394429514" lon="9.553069063637272"><ele>665.0</ele><time>2026-04-22T10:19:59Z</time></trkpt><trkpt lat="44.71075998701823" lon="9.553192937302985"><ele>664.0</ele><time>2026-04-22T10:20:01Z</time></trkpt><trkpt lat="44.71080697337654" lon="9.553259575735128"><ele>663.0</ele><time>2026-04-22T10:20:02Z</time></trkpt><trkpt lat="44.71084193844283" lon="9.553382157946944"><ele>662.0</ele><time>2026-04-22T10:20:04Z</time></trkpt><trkpt lat="44.71085780078695" lon="9.553492674548151"><ele>662.0</ele><time>2026-04-22T10:20:06Z</time></trkpt><trkpt lat="44.71090604987312" lon="9.55359750548751"><ele>662.0</ele><time>2026-04-22T10:20:08Z</time></trkpt><trkpt lat="44.710966782663284" lon="9.553690292500047"><ele>662.0</ele><time>2026-04-22T10:20:10Z</time></trkpt><trkpt lat="44.71105683254366" lon="9.553760026143824"><ele>662.0</ele><time>2026-04-22T10:20:12Z</time></trkpt><trkpt lat="44.71109416168178" lon="9.553911762956481"><ele>662.0</ele><time>2026-04-22T10:20:14Z</time></trkpt><trkpt lat="44.71113824531511" lon="9.554036023624036"><ele>659.3333333333333</ele><time>2026-04-22T10:20:16Z</time></trkpt><trkpt lat="44.711194476250625" lon="9.554101803495348"><ele>656.6666666666666</ele><time>2026-04-22T10:20:17Z</time></trkpt><trkpt lat="44.711247957315074" lon="9.554160929900748"><ele>654.0</ele><time>2026-04-22T10:20:18Z</time></trkpt><trkpt lat="44.7113284313391" lon="9.55429942710713"><ele>651.3333333333334</ele><time>2026-04-22T10:20:20Z</time></trkpt><trkpt lat="44.71136089058599" lon="9.554388081991917"><ele>648.6666666666667</ele><time>2026-04-22T10:20:21Z</time></trkpt><trkpt lat="44.71138937866406" lon="9.554470983866205"><ele>646.0</ele><time>2026-04-22T10:20:22Z</time></trkpt><trkpt lat="44.71146064147974" lon="9.554596065109827"><ele>643.3333333333334</ele><time>2026-04-22T10:20:24Z</time></trkpt><trkpt lat="44.71150097270037" lon="9.554753581804171"><ele>640.6666666666667</ele><time>2026-04-22T10:20:26Z</time></trkpt><trkpt lat="44.7114878940816" lon="9.554860134996277"><ele>638.0</ele><time>2026-04-22T10:20:27Z</time></trkpt><trkpt lat="44.711483951997145" lon="9.554987471610545"><ele>635.3333333333334</ele><time>2026-04-22T10:20:28Z</time></trkpt><trkpt lat="44.711513485648865" lon="9.555067768257384"><ele>632.6666666666666</ele><time>2026-04-22T10:20:29Z</time></trkpt><trkpt lat="44.711593205043826" lon="9.555140469422147"><ele>630.0</ele><time>2026-04-22T10:20:31Z</time></trkpt><trkpt lat="44.71165893454806" lon="9.55524948800823"><ele>630.0</ele><time>2026-04-22T10:20:33Z</time></trkpt><trkpt lat="44.71163966121701" lon="9.55534300850354"><ele>630.0</ele><time>2026-04-22T10:20:36Z</time></trkpt><trkpt lat="44.71163009788682" lon="9.555610308833574"><ele>630.0</ele><time>2026-04-22T10:20:38Z</time></trkpt><trkpt lat="44.71158585269015" lon="9.555684526911667"><ele>630.0</ele><time>2026-04-22T10:20:41Z</time></trkpt><trkpt lat="44.711540242697836" lon="9.555807638161177"><ele>630.0</ele><time>2026-04-22T10:20:49Z</time></trkpt><trkpt lat="44.711555207526786" lon="9.555901011165021"><ele>627.2</ele><time>2026-04-22T10:20:50Z</time></trkpt><trkpt lat="44.71156813211697" lon="9.555997840550107"><ele>624.4</ele><time>2026-04-22T10:20:51Z</time></trkpt><trkpt lat="44.71156556342912" lon="9.556115129060558"><ele>621.6</ele><time>2026-04-22T10:20:52Z</time></trkpt><trkpt lat="44.711536819387604" lon="9.556248976844982"><ele>618.8</ele><time>2026-04-22T10:20:53Z</time></trkpt><trkpt lat="44.71150788948608" lon="9.556411568859325"><ele>616.0</ele><time>2026-04-22T10:20:54Z</time></trkpt><trkpt lat="44.71148355232149" lon="9.556562799702524"><ele>613.8</ele><time>2026-04-22T10:20:55Z</time></trkpt><trkpt lat="44.711469811179555" lon="9.556741179765877"><ele>611.6</ele><time>2026-04-22T10:20:56Z</time></trkpt><trkpt lat="44.71144741612537" lon="9.556866533278146"><ele>609.4</ele><time>2026-04-22T10:20:58Z</time></trkpt><trkpt lat="44.71141067571619" lon="9.556989073779501"><ele>607.2</ele><time>2026-04-22T10:21:00Z</time></trkpt><trkpt lat="44.71134269870672" lon="9.55707398740298"><ele>605.0</ele><time>2026-04-22T10:21:02Z</time></trkpt><trkpt lat="44.71127212988573" lon="9.557176666912598"><ele>603.1666666666666</ele><time>2026-04-22T10:21:04Z</time></trkpt><trkpt lat="44.71121462289648" lon="9.557239963140159"><ele>601.3333333333333</ele><time>2026-04-22T10:21:05Z</time></trkpt><trkpt lat="44.71116465479323" lon="9.557323059495152"><ele>599.5</ele><time>2026-04-22T10:21:06Z</time></trkpt><trkpt lat="44.711124988034726" lon="9.55740588944122"><ele>597.6666666666666</ele><time>2026-04-22T10:21:07Z</time></trkpt><trkpt lat="44.71108693013364" lon="9.557506098299767"><ele>595.8333333333334</ele><time>2026-04-22T10:21:08Z</time></trkpt><trkpt lat="44.71105612875272" lon="9.557639588554276"><ele>594.0</ele><time>2026-04-22T10:21:09Z</time></trkpt><trkpt lat="44.711025075222054" lon="9.557801950578623"><ele>592.6</ele><time>2026-04-22T10:21:10Z</time></trkpt><trkpt lat="44.711031580043155" lon="9.557978609912576"><ele>591.2</ele><time>2026-04-22T10:21:11Z</time></trkpt><trkpt lat="44.71102465480851" lon="9.558137678326924"><ele>589.8000000000001</ele><time>2026-04-22T10:21:12Z</time></trkpt><trkpt lat="44.711012793441114" lon="9.558253223424929"><ele>588.4</ele><time>2026-04-22T10:21:13Z</time></trkpt><trkpt lat="44.710988806317566" lon="9.55836988317041"><ele>587.0</ele><time>2026-04-22T10:21:14Z</time></trkpt><trkpt lat="44.71097248482901" lon="9.558481059931916"><ele>587.0</ele><time>2026-04-22T10:21:15Z</time></trkpt><trkpt lat="44.710972393485484" lon="9.558591694415469"><ele>587.0</ele><time>2026-04-22T10:21:16Z</time></trkpt><trkpt lat="44.71096934423763" lon="9.558734420622647"><ele>587.0</ele><time>2026-04-22T10:21:17Z</time></trkpt><trkpt lat="44.71094892258366" lon="9.55884407560513"><ele>587.0</ele><time>2026-04-22T10:21:18Z</time></trkpt><trkpt lat="44.710907601510115" lon="9.559005326536347"><ele>587.0</ele><time>2026-04-22T10:21:20Z</time></trkpt><trkpt lat="44.71088335596312" lon="9.559188885689183"><ele>585.2</ele><time>2026-04-22T10:21:22Z</time></trkpt><trkpt lat="44.71085573889597" lon="9.55930757003503"><ele>583.4000000000001</ele><time>2026-04-22T10:21:23Z</time></trkpt><trkpt lat="44.710815133861765" lon="9.559430084570675"><ele>581.5999999999999</ele><time>2026-04-22T10:21:24Z</time></trkpt><trkpt lat="44.710781201189256" lon="9.559534779260838"><ele>579.8</ele><time>2026-04-22T10:21:25Z</time></trkpt><trkpt lat="44.71074306800381" lon="9.559685005274215"><ele>578.0</ele><time>2026-04-22T10:21:27Z</time></trkpt><trkpt lat="44.71075491973362" lon="9.559787223928094"><ele>574.75</ele><time>2026-04-22T10:21:29Z</time></trkpt><trkpt lat="44.710805395235816" lon="9.559898530332276"><ele>571.5</ele><time>2026-04-22T10:21:31Z</time></trkpt><trkpt lat="44.7108364562614" lon="9.559990783892"><ele>568.25</ele><time>2026-04-22T10:21:32Z</time></trkpt><trkpt lat="44.71079329412132" lon="9.560081435907577"><ele>565.0</ele><time>2026-04-22T10:21:35Z</time></trkpt><trkpt lat="44.710669868546766" lon="9.560493061123923"><ele>562.0</ele><time>2026-04-22T10:21:39Z</time></trkpt><trkpt lat="44.710657700960816" lon="9.560641913817577"><ele>559.0</ele><time>2026-04-22T10:21:41Z</time></trkpt><trkpt lat="44.710639652132166" lon="9.560787826534607"><ele>556.0</ele><time>2026-04-22T10:21:43Z</time></trkpt><trkpt lat="44.710614043680934" lon="9.560929211094715"><ele>553.0</ele><time>2026-04-22T10:21:45Z</time></trkpt><trkpt lat="44.71059217298173" lon="9.56101559552473"><ele>550.0</ele><time>2026-04-22T10:21:49Z</time></trkpt><trkpt lat="44.710569605153665" lon="9.561123597490877"><ele>546.0</ele><time>2026-04-22T10:21:52Z</time></trkpt><trkpt lat="44.71060870898004" lon="9.561244797226168"><ele>542.0</ele><time>2026-04-22T10:21:55Z</time></trkpt><trkpt lat="44.7106011019589" lon="9.56141430471861"><ele>538.0</ele><time>2026-04-22T10:21:57Z</time></trkpt><trkpt lat="44.710534762384995" lon="9.561475703553876"><ele>534.0</ele><time>2026-04-22T10:21:58Z</time></trkpt><trkpt lat="44.71054787979789" lon="9.561583553060965"><ele>530.0</ele><time>2026-04-22T10:22:00Z</time></trkpt><trkpt lat="44.71062627145723" lon="9.561688721959744"><ele>530.0</ele><time>2026-04-22T10:22:02Z</time></trkpt><trkpt lat="44.71072586950136" lon="9.561765502489054"><ele>530.0</ele><time>2026-04-22T10:22:04Z</time></trkpt><trkpt lat="44.710792473294234" lon="9.56178490254491"><ele>530.0</ele><time>2026-04-22T10:22:05Z</time></trkpt><trkpt lat="44.710895849485304" lon="9.561857184986472"><ele>530.0</ele><time>2026-04-22T10:22:07Z</time></trkpt><trkpt lat="44.71086628504055" lon="9.561994249218992"><ele>530.0</ele><time>2026-04-22T10:22:09Z</time></trkpt><trkpt lat="44.71075752112914" lon="9.562025464625073"><ele>525.4</ele><time>2026-04-22T10:22:11Z</time></trkpt><trkpt lat="44.71063269813286" lon="9.56207012686708"><ele>520.8</ele><time>2026-04-22T10:22:13Z</time></trkpt><trkpt lat="44.71056888264304" lon="9.562104424713432"><ele>516.2</ele><time>2026-04-22T10:22:14Z</time></trkpt><trkpt lat="44.71050639584611" lon="9.562239610862536"><ele>511.6</ele><time>2026-04-22T10:22:16Z</time></trkpt><trkpt lat="44.710522954368216" lon="9.562345824298607"><ele>507.0</ele><time>2026-04-22T10:22:17Z</time></trkpt><trkpt lat="44.710559568502234" lon="9.562480118480497"><ele>507.0</ele><time>2026-04-22T10:22:18Z</time></trkpt><trkpt lat="44.71050974320363" lon="9.562609613765064"><ele>507.00000000000006</ele><time>2026-04-22T10:22:19Z</time></trkpt><trkpt lat="44.71044831647794" lon="9.562700297546943"><ele>507.00000000000006</ele><time>2026-04-22T10:22:20Z</time></trkpt><trkpt lat="44.710462204603665" lon="9.562872513694677"><ele>507.0</ele><time>2026-04-22T10:22:22Z</time></trkpt><trkpt lat="44.71039913525048" lon="9.562944265064154"><ele>507.0</ele><time>2026-04-22T10:22:24Z</time></trkpt><trkpt lat="44.710299375224984" lon="9.562775281632218"><ele>506.5</ele><time>2026-04-22T10:22:26Z</time></trkpt><trkpt lat="44.71022184511563" lon="9.562650312418576"><ele>506.0</ele><time>2026-04-22T10:22:27Z</time></trkpt><trkpt lat="44.71011890469232" lon="9.56251664053717"><ele>505.5</ele><time>2026-04-22T10:22:28Z</time></trkpt><trkpt lat="44.71001805428248" lon="9.562462549203191"><ele>505.0</ele><time>2026-04-22T10:22:29Z</time></trkpt><trkpt lat="44.70993314152578" lon="9.562460881616182"><ele>505.00000000000006</ele><time>2026-04-22T10:22:30Z</time></trkpt><trkpt lat="44.70985321637024" lon="9.562377768910492"><ele>505.0</ele><time>2026-04-22T10:22:32Z</time></trkpt><trkpt lat="44.70987101241194" lon="9.562263842600904"><ele>505.0</ele><time>2026-04-22T10:22:33Z</time></trkpt><trkpt lat="44.70983092171058" lon="9.562133812191467"><ele>505.0</ele><time>2026-04-22T10:22:34Z</time></trkpt><trkpt lat="44.709804256414834" lon="9.56203136303093"><ele>505.00000000000006</ele><time>2026-04-22T10:22:35Z</time></trkpt><trkpt lat="44.70978913122911" lon="9.561944189085784"><ele>505.0</ele><time>2026-04-22T10:22:36Z</time></trkpt><trkpt lat="44.70971166987826" lon="9.561852648766438"><ele>505.8</ele><time>2026-04-22T10:22:38Z</time></trkpt><trkpt lat="44.70952991600725" lon="9.56180683024842"><ele>506.6</ele><time>2026-04-22T10:22:40Z</time></trkpt><trkpt lat="44.70946717104237" lon="9.561838255611185"><ele>507.4</ele><time>2026-04-22T10:22:41Z</time></trkpt><trkpt lat="44.70939155042065" lon="9.56182599761996"><ele>508.2</ele><time>2026-04-22T10:22:42Z</time></trkpt><trkpt lat="44.70934070116725" lon="9.561744361936292"><ele>509.0</ele><time>2026-04-22T10:22:43Z</time></trkpt><trkpt lat="44.709219546279016" lon="9.561752544290291"><ele>509.0</ele><time>2026-04-22T10:22:45Z</time></trkpt><trkpt lat="44.70914840896291" lon="9.561756761254749"><ele>509.0</ele><time>2026-04-22T10:22:46Z</time></trkpt><trkpt lat="44.70903662085359" lon="9.56181757019312"><ele>509.0</ele><time>2026-04-22T10:22:48Z</time></trkpt><trkpt lat="44.7089256979725" lon="9.561776141989027"><ele>509.0</ele><time>2026-04-22T10:22:50Z</time></trkpt><trkpt lat="44.70880883552551" lon="9.561732708908359"><ele>509.0</ele><time>2026-04-22T10:22:52Z</time></trkpt><trkpt lat="44.708715801722825" lon="9.561833051026944"><ele>508.99999999999994</ele><time>2026-04-22T10:22:54Z</time></trkpt><trkpt lat="44.70863382894154" lon="9.561914379103401"><ele>509.0</ele><time>2026-04-22T10:22:56Z</time></trkpt><trkpt lat="44.708568526464425" lon="9.561881745040269"><ele>509.0</ele><time>2026-04-22T10:22:57Z</time></trkpt><trkpt lat="44.708506054108675" lon="9.561847350300598"><ele>509.0</ele><time>2026-04-22T10:22:58Z</time></trkpt><trkpt lat="44.708427143626636" lon="9.561837003673764"><ele>508.99999999999994</ele><time>2026-04-22T10:23:00Z</time></trkpt><trkpt lat="44.70830781282923" lon="9.561900520532083"><ele>509.0</ele><time>2026-04-22T10:23:02Z</time></trkpt><trkpt lat="44.70821385484532" lon="9.561957670607157"><ele>505.49999999999994</ele><time>2026-04-22T10:23:04Z</time></trkpt><trkpt lat="44.70822642526719" lon="9.562075226289608"><ele>502.0</ele><time>2026-04-22T10:23:05.999Z</time></trkpt><trkpt lat="44.70824675530878" lon="9.562170632851725"><ele>498.5</ele><time>2026-04-22T10:23:09Z</time></trkpt><trkpt lat="44.7083139777756" lon="9.56222279997218"><ele>495.0</ele><time>2026-04-22T10:23:14Z</time></trkpt><trkpt lat="44.70839044442496" lon="9.562228529997848"><ele>491.49999999999994</ele><time>2026-04-22T10:23:19Z</time></trkpt><trkpt lat="44.708411571004824" lon="9.562345077763364"><ele>488.0</ele><time>2026-04-22T10:23:22Z</time></trkpt><trkpt lat="44.70837415554694" lon="9.562418206774897"><ele>488.0</ele><time>2026-04-22T10:23:24Z</time></trkpt><trkpt lat="44.708346139406075" lon="9.562531689321757"><ele>487.99999999999994</ele><time>2026-04-22T10:23:26Z</time></trkpt><trkpt lat="44.7083064193429" lon="9.562750521433005"><ele>487.99999999999994</ele><time>2026-04-22T10:23:28Z</time></trkpt><trkpt lat="44.708248661145994" lon="9.562830750755964"><ele>488.0</ele><time>2026-04-22T10:23:29Z</time></trkpt><trkpt lat="44.70819712247227" lon="9.562916998144562"><ele>488.0</ele><time>2026-04-22T10:23:30Z</time></trkpt><trkpt lat="44.70813092596343" lon="9.563064397695875"><ele>485.4</ele><time>2026-04-22T10:23:32Z</time></trkpt><trkpt lat="44.708101873624635" lon="9.56316584145719"><ele>482.79999999999995</ele><time>2026-04-22T10:23:34Z</time></trkpt><trkpt lat="44.70799776143667" lon="9.563108919729814"><ele>480.2</ele><time>2026-04-22T10:23:37Z</time></trkpt><trkpt lat="44.70787929118246" lon="9.56307118819016"><ele>477.6</ele><time>2026-04-22T10:23:39Z</time></trkpt><trkpt lat="44.70779461329185" lon="9.563077391026797"><ele>475.0</ele><time>2026-04-22T10:23:40Z</time></trkpt><trkpt lat="44.70771477298437" lon="9.563077220191927"><ele>475.0</ele><time>2026-04-22T10:23:41Z</time></trkpt><trkpt lat="44.70762626946049" lon="9.563074953801035"><ele>475.0</ele><time>2026-04-22T10:23:42Z</time></trkpt><trkpt lat="44.70755257516082" lon="9.563103535718312"><ele>475.0</ele><time>2026-04-22T10:23:43Z</time></trkpt><trkpt lat="44.70745289479286" lon="9.56318121476468"><ele>475.0</ele><time>2026-04-22T10:23:45Z</time></trkpt><trkpt lat="44.70751551283182" lon="9.563231009298283"><ele>475.0</ele><time>2026-04-22T10:23:47Z</time></trkpt><trkpt lat="44.707619046677905" lon="9.563325218540031"><ele>475.00000000000006</ele><time>2026-04-22T10:23:48Z</time></trkpt><trkpt lat="44.70767216771158" lon="9.56339783689806"><ele>475.0</ele><time>2026-04-22T10:23:49Z</time></trkpt><trkpt lat="44.70773443382998" lon="9.563433107711537"><ele>475.0</ele><time>2026-04-22T10:23:51Z</time></trkpt><trkpt lat="44.70766103377485" lon="9.563551975293793"><ele>475.0</ele><time>2026-04-22T10:23:53Z</time></trkpt><trkpt lat="44.70762087994071" lon="9.56362370576855"><ele>475.00000000000006</ele><time>2026-04-22T10:23:54Z</time></trkpt><trkpt lat="44.70758079776348" lon="9.563711040732644"><ele>475.0</ele><time>2026-04-22T10:23:55Z</time></trkpt><trkpt lat="44.707518282066154" lon="9.563848883703422"><ele>472.50000000000006</ele><time>2026-04-22T10:23:57Z</time></trkpt><trkpt lat="44.70751460837941" lon="9.56394334977276"><ele>470.0</ele><time>2026-04-22T10:24:06Z</time></trkpt><trkpt lat="44.70760844910872" lon="9.56401366745051"><ele>467.5</ele><time>2026-04-22T10:24:08Z</time></trkpt><trkpt lat="44.70767816392654" lon="9.564064588386705"><ele>465.0</ele><time>2026-04-22T10:24:09Z</time></trkpt><trkpt lat="44.7077614828791" lon="9.564119222446877"><ele>462.50000000000006</ele><time>2026-04-22T10:24:10Z</time></trkpt><trkpt lat="44.707851051081015" lon="9.564185108038258"><ele>460.0</ele><time>2026-04-22T10:24:11Z</time></trkpt><trkpt lat="44.70792636827099" lon="9.564250066921042"><ele>460.00000000000006</ele><time>2026-04-22T10:24:12Z</time></trkpt><trkpt lat="44.707982664865796" lon="9.564299157965811"><ele>460.0</ele><time>2026-04-22T10:24:13Z</time></trkpt><trkpt lat="44.708084256849865" lon="9.564397840262552"><ele>460.0</ele><time>2026-04-22T10:24:15Z</time></trkpt><trkpt lat="44.70814761726414" lon="9.56445245002314"><ele>460.0</ele><time>2026-04-22T10:24:16Z</time></trkpt><trkpt lat="44.708224916979084" lon="9.564496688274783"><ele>460.00000000000006</ele><time>2026-04-22T10:24:17Z</time></trkpt><trkpt lat="44.70830552453063" lon="9.564528426562012"><ele>460.0</ele><time>2026-04-22T10:24:18Z</time></trkpt><trkpt lat="44.70837572283927" lon="9.56454497346469"><ele>459.50000000000006</ele><time>2026-04-22T10:24:19Z</time></trkpt><trkpt lat="44.70848115893183" lon="9.564594292368504"><ele>459.0</ele><time>2026-04-22T10:24:21Z</time></trkpt><trkpt lat="44.708567578865214" lon="9.564651147942122"><ele>458.5</ele><time>2026-04-22T10:24:23Z</time></trkpt><trkpt lat="44.708648846486" lon="9.564675803738973"><ele>458.0</ele><time>2026-04-22T10:24:26Z</time></trkpt><trkpt lat="44.7087265542898" lon="9.564728185102798"><ele>457.50000000000006</ele><time>2026-04-22T10:24:28Z</time></trkpt><trkpt lat="44.70878951664837" lon="9.564754737352136"><ele>457.0</ele><time>2026-04-22T10:24:30Z</time></trkpt><trkpt lat="44.70887137637107" lon="9.564790393455272"><ele>457.0</ele><time>2026-04-22T10:24:32Z</time></trkpt><trkpt lat="44.70899277005726" lon="9.564827796129663"><ele>457.00000000000006</ele><time>2026-04-22T10:24:34Z</time></trkpt><trkpt lat="44.70906999771478" lon="9.56484789608169"><ele>457.00000000000006</ele><time>2026-04-22T10:24:35Z</time></trkpt><trkpt lat="44.70915125136899" lon="9.56488659839529"><ele>457.0</ele><time>2026-04-22T10:24:36Z</time></trkpt><trkpt lat="44.70922782273731" lon="9.564945702241522"><ele>457.0</ele><time>2026-04-22T10:24:37Z</time></trkpt><trkpt lat="44.70930427468554" lon="9.56500994175433"><ele>457.00000000000006</ele><time>2026-04-22T10:24:38Z</time></trkpt><trkpt lat="44.70938549286253" lon="9.56508583222031"><ele>457.0</ele><time>2026-04-22T10:24:39Z</time></trkpt><trkpt lat="44.70946322033367" lon="9.56517170840639"><ele>457.0</ele><time>2026-04-22T10:24:40Z</time></trkpt><trkpt lat="44.70953566035928" lon="9.565222970050712"><ele>457.0</ele><time>2026-04-22T10:24:41Z</time></trkpt><trkpt lat="44.70960690535727" lon="9.565241928554757"><ele>457.00000000000006</ele><time>2026-04-22T10:24:42Z</time></trkpt><trkpt lat="44.709695598835026" lon="9.565226429568671"><ele>457.0</ele><time>2026-04-22T10:24:43Z</time></trkpt><trkpt lat="44.70979503982805" lon="9.565199190759433"><ele>458.20000000000005</ele><time>2026-04-22T10:24:44Z</time></trkpt><trkpt lat="44.70990308081389" lon="9.56519036009762"><ele>459.40000000000003</ele><time>2026-04-22T10:24:45Z</time></trkpt><trkpt lat="44.710011359478635" lon="9.565207282639081"><ele>460.59999999999997</ele><time>2026-04-22T10:24:46Z</time></trkpt><trkpt lat="44.71010321046611" lon="9.565291963401613"><ele>461.79999999999995</ele><time>2026-04-22T10:24:47Z</time></trkpt><trkpt lat="44.710188031094404" lon="9.565373425503866"><ele>463.0</ele><time>2026-04-22T10:24:48Z</time></trkpt><trkpt lat="44.71026572619087" lon="9.565442699691275"><ele>462.79999999999995</ele><time>2026-04-22T10:24:49Z</time></trkpt><trkpt lat="44.71035391645067" lon="9.56546064194627"><ele>462.59999999999997</ele><time>2026-04-22T10:24:51Z</time></trkpt><trkpt lat="44.710435482084435" lon="9.565437469848774"><ele>462.40000000000003</ele><time>2026-04-22T10:24:52Z</time></trkpt><trkpt lat="44.710488053187824" lon="9.565352374703384"><ele>462.20000000000005</ele><time>2026-04-22T10:24:53Z</time></trkpt><trkpt lat="44.710524932360556" lon="9.565224080331996"><ele>462.0</ele><time>2026-04-22T10:24:54Z</time></trkpt><trkpt lat="44.71057382679081" lon="9.56508020075042"><ele>462.0</ele><time>2026-04-22T10:24:55Z</time></trkpt><trkpt lat="44.71063228493249" lon="9.564961500463593"><ele>462.00000000000006</ele><time>2026-04-22T10:24:56Z</time></trkpt><trkpt lat="44.710713801542646" lon="9.56486409439644"><ele>462.00000000000006</ele><time>2026-04-22T10:24:57Z</time></trkpt><trkpt lat="44.71079866155059" lon="9.564795572883812"><ele>462.0</ele><time>2026-04-22T10:24:58Z</time></trkpt><trkpt lat="44.71086639834144" lon="9.564792648193729"><ele>462.0</ele><time>2026-04-22T10:24:59Z</time></trkpt><trkpt lat="44.71094373633929" lon="9.56482236556104"><ele>462.0</ele><time>2026-04-22T10:25:00Z</time></trkpt><trkpt lat="44.710996501905164" lon="9.564896129952162"><ele>462.0</ele><time>2026-04-22T10:25:01Z</time></trkpt><trkpt lat="44.71101135404401" lon="9.565005416945136"><ele>462.0</ele><time>2026-04-22T10:25:02Z</time></trkpt><trkpt lat="44.71100592110918" lon="9.56511848464996"><ele>462.0</ele><time>2026-04-22T10:25:03Z</time></trkpt><trkpt lat="44.71101649005007" lon="9.565253842632387"><ele>462.0</ele><time>2026-04-22T10:25:04Z</time></trkpt><trkpt lat="44.7110534844385" lon="9.565341610869835"><ele>462.0</ele><time>2026-04-22T10:25:05Z</time></trkpt><trkpt lat="44.71112075241271" lon="9.565436201130149"><ele>460.20000000000005</ele><time>2026-04-22T10:25:07Z</time></trkpt><trkpt lat="44.71120144330583" lon="9.565435115338271"><ele>458.40000000000003</ele><time>2026-04-22T10:25:08Z</time></trkpt><trkpt lat="44.71132497891725" lon="9.565426485552921"><ele>456.59999999999997</ele><time>2026-04-22T10:25:08.999Z</time></trkpt><trkpt lat="44.71141322598072" lon="9.56546394460547"><ele>454.79999999999995</ele><time>2026-04-22T10:25:09.999Z</time></trkpt><trkpt lat="44.71148585049604" lon="9.565544486344596"><ele>453.0</ele><time>2026-04-22T10:25:10.999Z</time></trkpt><trkpt lat="44.711562672192784" lon="9.565624303571871"><ele>453.0</ele><time>2026-04-22T10:25:11.999Z</time></trkpt><trkpt lat="44.71165581233714" lon="9.56571881155412"><ele>452.99999999999994</ele><time>2026-04-22T10:25:12.999Z</time></trkpt><trkpt lat="44.71175393111867" lon="9.5657913422955"><ele>452.99999999999994</ele><time>2026-04-22T10:25:14Z</time></trkpt><trkpt lat="44.71181601616023" lon="9.565831882280488"><ele>453.0</ele><time>2026-04-22T10:25:15Z</time></trkpt><trkpt lat="44.71194806661532" lon="9.565759776250548"><ele>453.0</ele><time>2026-04-22T10:25:17Z</time></trkpt><trkpt lat="44.71200600068629" lon="9.565650897095992"><ele>452.0</ele><time>2026-04-22T10:25:18Z</time></trkpt><trkpt lat="44.71205930584741" lon="9.565532237933965"><ele>450.99999999999994</ele><time>2026-04-22T10:25:19Z</time></trkpt><trkpt lat="44.71213094573713" lon="9.565449733701513"><ele>449.99999999999994</ele><time>2026-04-22T10:25:20Z</time></trkpt><trkpt lat="44.712212521249796" lon="9.565383704549308"><ele>449.0</ele><time>2026-04-22T10:25:21Z</time></trkpt><trkpt lat="44.712307453344636" lon="9.565327890698146"><ele>448.0</ele><time>2026-04-22T10:25:22Z</time></trkpt><trkpt lat="44.71239823727131" lon="9.565276917058062"><ele>450.33333333333337</ele><time>2026-04-22T10:25:23Z</time></trkpt><trkpt lat="44.712459743788436" lon="9.565246584110758"><ele>452.6666666666667</ele><time>2026-04-22T10:25:24Z</time></trkpt><trkpt lat="44.71252427681154" lon="9.565213806910023"><ele>455.0</ele><time>2026-04-22T10:25:25Z</time></trkpt><trkpt lat="44.712611089672635" lon="9.565186561211638"><ele>457.33333333333337</ele><time>2026-04-22T10:25:26Z</time></trkpt><trkpt lat="44.71271229817653" lon="9.56517859844857"><ele>459.6666666666667</ele><time>2026-04-22T10:25:27Z</time></trkpt><trkpt lat="44.71279886311539" lon="9.565182310631185"><ele>462.0</ele><time>2026-04-22T10:25:28Z</time></trkpt><trkpt lat="44.71287444615236" lon="9.565191789392301"><ele>462.0</ele><time>2026-04-22T10:25:29Z</time></trkpt><trkpt lat="44.712936884242275" lon="9.565219482443185"><ele>462.00000000000006</ele><time>2026-04-22T10:25:30Z</time></trkpt><trkpt lat="44.7130196583912" lon="9.56531876000963"><ele>462.00000000000006</ele><time>2026-04-22T10:25:32Z</time></trkpt><trkpt lat="44.71314702820353" lon="9.565179978836785"><ele>462.0</ele><time>2026-04-22T10:25:44Z</time></trkpt><trkpt lat="44.713201899335964" lon="9.565107534977969"><ele>462.0</ele><time>2026-04-22T10:25:45Z</time></trkpt><trkpt lat="44.71327123473986" lon="9.56501597298492"><ele>462.0</ele><time>2026-04-22T10:25:46Z</time></trkpt><trkpt lat="44.71334039613121" lon="9.564915990901168"><ele>462.0</ele><time>2026-04-22T10:25:47Z</time></trkpt><trkpt lat="44.71339198550144" lon="9.564846825902924"><ele>462.0</ele><time>2026-04-22T10:25:48Z</time></trkpt><trkpt lat="44.71345761635644" lon="9.564791447186325"><ele>462.0</ele><time>2026-04-22T10:25:51Z</time></trkpt><trkpt lat="44.71351769531991" lon="9.564656868464704"><ele>462.0</ele><time>2026-04-22T10:25:53Z</time></trkpt><trkpt lat="44.71357120288928" lon="9.564569796173394"><ele>462.0</ele><time>2026-04-22T10:25:54Z</time></trkpt><trkpt lat="44.713622069495436" lon="9.564465328012965"><ele>464.5</ele><time>2026-04-22T10:25:55Z</time></trkpt><trkpt lat="44.71366445896373" lon="9.564365593779995"><ele>467.0</ele><time>2026-04-22T10:25:56Z</time></trkpt><trkpt lat="44.7137030132121" lon="9.564283774349501"><ele>469.5</ele><time>2026-04-22T10:25:57Z</time></trkpt><trkpt lat="44.71379735861805" lon="9.564193935367824"><ele>472.0</ele><time>2026-04-22T10:25:59Z</time></trkpt><trkpt lat="44.71387667915035" lon="9.564107966776895"><ele>474.5</ele><time>2026-04-22T10:26:01Z</time></trkpt><trkpt lat="44.71387256336659" lon="9.564006721501034"><ele>477.0</ele><time>2026-04-22T10:26:04Z</time></trkpt><trkpt lat="44.71377403951733" lon="9.56404612441074"><ele>477.0</ele><time>2026-04-22T10:26:06Z</time></trkpt><trkpt lat="44.713699991604514" lon="9.564037107403939"><ele>477.0</ele><time>2026-04-22T10:26:08Z</time></trkpt><trkpt lat="44.7137123939701" lon="9.56389632105958"><ele>477.0</ele><time>2026-04-22T10:26:10Z</time></trkpt><trkpt lat="44.713732869124826" lon="9.563800333965103"><ele>477.0</ele><time>2026-04-22T10:26:12Z</time></trkpt><trkpt lat="44.713721585306025" lon="9.563712651512633"><ele>477.0</ele><time>2026-04-22T10:26:13Z</time></trkpt><trkpt lat="44.713763622556044" lon="9.56358029470776"><ele>477.0</ele><time>2026-04-22T10:26:15Z</time></trkpt><trkpt lat="44.71383061468765" lon="9.56354468562385"><ele>479.0</ele><time>2026-04-22T10:26:18Z</time></trkpt><trkpt lat="44.71401576695483" lon="9.563333525223658"><ele>481.0</ele><time>2026-04-22T10:26:21Z</time></trkpt><trkpt lat="44.71413307436133" lon="9.563292430642777"><ele>483.0</ele><time>2026-04-22T10:26:23Z</time></trkpt><trkpt lat="44.71419772380693" lon="9.56327948607076"><ele>485.0</ele><time>2026-04-22T10:26:24Z</time></trkpt><trkpt lat="44.714274362183" lon="9.563264427452944"><ele>484.99999999999994</ele><time>2026-04-22T10:26:25Z</time></trkpt><trkpt lat="44.714363554817176" lon="9.563234304024393"><ele>485.0</ele><time>2026-04-22T10:26:26Z</time></trkpt><trkpt lat="44.71444315739726" lon="9.56318400924397"><ele>485.0</ele><time>2026-04-22T10:26:27Z</time></trkpt><trkpt lat="44.714516723300534" lon="9.5631307320697"><ele>485.0</ele><time>2026-04-22T10:26:28Z</time></trkpt><trkpt lat="44.7145904113751" lon="9.563077278755701"><ele>484.99999999999994</ele><time>2026-04-22T10:26:29Z</time></trkpt><trkpt lat="44.71467995148375" lon="9.563048226206956"><ele>485.0</ele><time>2026-04-22T10:26:30Z</time></trkpt><trkpt lat="44.71477086485478" lon="9.563040802978437"><ele>485.99999999999994</ele><time>2026-04-22T10:26:31Z</time></trkpt><trkpt lat="44.71484339899224" lon="9.56305913435029"><ele>487.0</ele><time>2026-04-22T10:26:32Z</time></trkpt><trkpt lat="44.71489223692606" lon="9.563116394834173"><ele>488.0</ele><time>2026-04-22T10:26:33Z</time></trkpt><trkpt lat="44.71487819513201" lon="9.563235137076001"><ele>489.0</ele><time>2026-04-22T10:26:34Z</time></trkpt><trkpt lat="44.714855832769494" lon="9.563330385761772"><ele>489.99999999999994</ele><time>2026-04-22T10:26:35Z</time></trkpt><trkpt lat="44.7147737306984" lon="9.56343411729513"><ele>491.0</ele><time>2026-04-22T10:26:37Z</time></trkpt><trkpt lat="44.714872358506845" lon="9.563484321442614"><ele>491.0</ele><time>2026-04-22T10:26:41Z</time></trkpt><trkpt lat="44.715003677509145" lon="9.56347081641151"><ele>491.0</ele><time>2026-04-22T10:26:43Z</time></trkpt><trkpt lat="44.715066464546624" lon="9.563429940336787"><ele>491.0</ele><time>2026-04-22T10:26:45Z</time></trkpt><trkpt lat="44.71506992630152" lon="9.563331482007838"><ele>491.0</ele><time>2026-04-22T10:26:47Z</time></trkpt><trkpt lat="44.7150967819622" lon="9.563191015690714"><ele>491.0</ele><time>2026-04-22T10:26:49Z</time></trkpt><trkpt lat="44.715139344830405" lon="9.563029668579313"><ele>490.99999999999994</ele><time>2026-04-22T10:26:51Z</time></trkpt><trkpt lat="44.71511066398278" lon="9.562910856276456"><ele>491.0</ele><time>2026-04-22T10:26:53Z</time></trkpt><trkpt lat="44.715047675907265" lon="9.562895797806915"><ele>491.0</ele><time>2026-04-22T10:26:54Z</time></trkpt><trkpt lat="44.714985004886245" lon="9.562912448371078"><ele>491.0</ele><time>2026-04-22T10:26:55Z</time></trkpt><trkpt lat="44.71488313520693" lon="9.563032411299924"><ele>490.99999999999994</ele><time>2026-04-22T10:26:56Z</time></trkpt><trkpt lat="44.714827748438275" lon="9.562931986545331"><ele>491.0</ele><time>2026-04-22T10:26:58Z</time></trkpt><trkpt lat="44.714860435427624" lon="9.562846962682519"><ele>493.75</ele><time>2026-04-22T10:27:00Z</time></trkpt><trkpt lat="44.71490405866767" lon="9.562687005888295"><ele>496.5</ele><time>2026-04-22T10:27:02Z</time></trkpt><trkpt lat="44.715015678797585" lon="9.56269936558703"><ele>499.25</ele><time>2026-04-22T10:27:04Z</time></trkpt><trkpt lat="44.71512415850561" lon="9.562780884567214"><ele>502.0</ele><time>2026-04-22T10:27:06Z</time></trkpt><trkpt lat="44.71522383236162" lon="9.562853188755428"><ele>502.00000000000006</ele><time>2026-04-22T10:27:08Z</time></trkpt><trkpt lat="44.71529359483902" lon="9.562816299387707"><ele>502.0</ele><time>2026-04-22T10:27:09.999Z</time></trkpt><trkpt lat="44.71526406050432" lon="9.562660609932506"><ele>502.0</ele><time>2026-04-22T10:27:11.999Z</time></trkpt><trkpt lat="44.715220189787686" lon="9.562570917257593"><ele>502.0</ele><time>2026-04-22T10:27:12.999Z</time></trkpt><trkpt lat="44.715178845329" lon="9.562449874163315"><ele>502.00000000000006</ele><time>2026-04-22T10:27:13.999Z</time></trkpt><trkpt lat="44.71513781866833" lon="9.562345632761607"><ele>502.0</ele><time>2026-04-22T10:27:14.999Z</time></trkpt><trkpt lat="44.71509027435394" lon="9.562263023986873"><ele>502.00000000000006</ele><time>2026-04-22T10:27:15.999Z</time></trkpt><trkpt lat="44.71502982415761" lon="9.562216978270445"><ele>502.0</ele><time>2026-04-22T10:27:16.999Z</time></trkpt><trkpt lat="44.71491231715236" lon="9.56224861923712"><ele>502.0</ele><time>2026-04-22T10:27:18.999Z</time></trkpt><trkpt lat="44.71484451453903" lon="9.562304788568403"><ele>502.0</ele><time>2026-04-22T10:27:21Z</time></trkpt><trkpt lat="44.71487634335944" lon="9.562183363127618"><ele>502.00000000000006</ele><time>2026-04-22T10:27:24Z</time></trkpt><trkpt lat="44.71494271248089" lon="9.56217508732022"><ele>502.0</ele><time>2026-04-22T10:27:25Z</time></trkpt><trkpt lat="44.71502955468457" lon="9.56208287530278"><ele>502.00000000000006</ele><time>2026-04-22T10:27:27Z</time></trkpt><trkpt lat="44.71511349764481" lon="9.562053013265087"><ele>502.0</ele><time>2026-04-22T10:27:28Z</time></trkpt><trkpt lat="44.71520039651002" lon="9.562028022466778"><ele>502.0</ele><time>2026-04-22T10:27:29Z</time></trkpt><trkpt lat="44.71527632925611" lon="9.56202606064968"><ele>502.0</ele><time>2026-04-22T10:27:30Z</time></trkpt><trkpt lat="44.715339069854586" lon="9.562043835707051"><ele>502.00000000000006</ele><time>2026-04-22T10:27:31Z</time></trkpt><trkpt lat="44.71544829440459" lon="9.5620682435562"><ele>502.0</ele><time>2026-04-22T10:27:33Z</time></trkpt><trkpt lat="44.715564259226454" lon="9.562044416133693"><ele>506.20000000000005</ele><time>2026-04-22T10:27:35Z</time></trkpt><trkpt lat="44.7156559017377" lon="9.561986141141368"><ele>510.40000000000003</ele><time>2026-04-22T10:27:37Z</time></trkpt><trkpt lat="44.71557986937716" lon="9.56189234588737"><ele>514.5999999999999</ele><time>2026-04-22T10:27:39Z</time></trkpt><trkpt lat="44.71551276731251" lon="9.561884008459497"><ele>518.8</ele><time>2026-04-22T10:27:40Z</time></trkpt><trkpt lat="44.71536535388884" lon="9.561880490279911"><ele>523.0</ele><time>2026-04-22T10:27:42Z</time></trkpt><trkpt lat="44.715246927839644" lon="9.561865104845603"><ele>523.0</ele><time>2026-04-22T10:27:44Z</time></trkpt><trkpt lat="44.71529405672379" lon="9.561780164708273"><ele>523.0</ele><time>2026-04-22T10:27:46Z</time></trkpt><trkpt lat="44.7153297736314" lon="9.561683358838831"><ele>523.0</ele><time>2026-04-22T10:27:48Z</time></trkpt><trkpt lat="44.71542866023945" lon="9.561560830007409"><ele>523.0</ele><time>2026-04-22T10:27:50Z</time></trkpt><trkpt lat="44.71548248195729" lon="9.561502941639159"><ele>523.0</ele><time>2026-04-22T10:27:51Z</time></trkpt><trkpt lat="44.715528264792084" lon="9.561389453625203"><ele>523.0</ele><time>2026-04-22T10:27:53Z</time></trkpt><trkpt lat="44.71547225692803" lon="9.561316231694407"><ele>523.0</ele><time>2026-04-22T10:27:55Z</time></trkpt><trkpt lat="44.71537406148285" lon="9.56125485750419"><ele>523.0</ele><time>2026-04-22T10:27:57Z</time></trkpt><trkpt lat="44.71535190277705" lon="9.561152365027782"><ele>523.0</ele><time>2026-04-22T10:28:00Z</time></trkpt><trkpt lat="44.71542607370061" lon="9.561029998344646"><ele>523.0</ele><time>2026-04-22T10:28:02Z</time></trkpt><trkpt lat="44.715457901979335" lon="9.560951320518598"><ele>523.0</ele><time>2026-04-22T10:28:03Z</time></trkpt><trkpt lat="44.71548955616185" lon="9.560864352973171"><ele>523.0</ele><time>2026-04-22T10:28:04Z</time></trkpt><trkpt lat="44.715514742346905" lon="9.560711706175221"><ele>523.25</ele><time>2026-04-22T10:28:06Z</time></trkpt><trkpt lat="44.715418470624016" lon="9.560704605215728"><ele>523.5</ele><time>2026-04-22T10:28:11Z</time></trkpt><trkpt lat="44.71533592077374" lon="9.560765765597582"><ele>523.75</ele><time>2026-04-22T10:28:14Z</time></trkpt><trkpt lat="44.71517411962646" lon="9.561001422989118"><ele>524.0</ele><time>2026-04-22T10:28:17Z</time></trkpt><trkpt lat="44.71515686912614" lon="9.561111725952028"><ele>521.6666666666666</ele><time>2026-04-22T10:28:18Z</time></trkpt><trkpt lat="44.71517447277246" lon="9.561243469541065"><ele>519.3333333333333</ele><time>2026-04-22T10:28:20Z</time></trkpt><trkpt lat="44.71511821822926" lon="9.561350161586432"><ele>517.0</ele><time>2026-04-22T10:28:22Z</time></trkpt><trkpt lat="44.71506936581693" lon="9.56141373341388"><ele>514.6666666666666</ele><time>2026-04-22T10:28:23Z</time></trkpt><trkpt lat="44.715009236185246" lon="9.561457271905585"><ele>512.3333333333334</ele><time>2026-04-22T10:28:24Z</time></trkpt><trkpt lat="44.71491760735051" lon="9.56142725662806"><ele>510.0</ele><time>2026-04-22T10:28:26Z</time></trkpt><trkpt lat="44.71491546590144" lon="9.561584985431429"><ele>510.0</ele><time>2026-04-22T10:28:30Z</time></trkpt><trkpt lat="44.71493078221399" lon="9.561697145118663"><ele>510.0</ele><time>2026-04-22T10:28:31Z</time></trkpt><trkpt lat="44.71493565015803" lon="9.561793089549527"><ele>510.0</ele><time>2026-04-22T10:28:32Z</time></trkpt><trkpt lat="44.71488056415553" lon="9.561891346722636"><ele>510.0</ele><time>2026-04-22T10:28:34Z</time></trkpt><trkpt lat="44.714838394106195" lon="9.561958191325383"><ele>510.0</ele><time>2026-04-22T10:28:36Z</time></trkpt><trkpt lat="44.71481518928908" lon="9.562053959122109"><ele>510.0</ele><time>2026-04-22T10:28:37Z</time></trkpt><trkpt lat="44.71473612102779" lon="9.562129438803733"><ele>508.4</ele><time>2026-04-22T10:28:38Z</time></trkpt><trkpt lat="44.71466927557226" lon="9.562178612659245"><ele>506.8</ele><time>2026-04-22T10:28:39Z</time></trkpt><trkpt lat="44.714610670196635" lon="9.562302873370156"><ele>505.20000000000005</ele><time>2026-04-22T10:28:41Z</time></trkpt><trkpt lat="44.71456022471698" lon="9.562372671681516"><ele>503.6</ele><time>2026-04-22T10:28:42Z</time></trkpt><trkpt lat="44.71448061025694" lon="9.562445031996056"><ele>502.0</ele><time>2026-04-22T10:28:44Z</time></trkpt><trkpt lat="44.71438402090062" lon="9.56257233971764"><ele>500.33333333333337</ele><time>2026-04-22T10:28:46Z</time></trkpt><trkpt lat="44.714324897946106" lon="9.562632397808624"><ele>498.6666666666667</ele><time>2026-04-22T10:28:47Z</time></trkpt><trkpt lat="44.71430196071367" lon="9.562746704596497"><ele>497.0</ele><time>2026-04-22T10:28:49Z</time></trkpt><trkpt lat="44.71434828495301" lon="9.562850367341825"><ele>495.33333333333337</ele><time>2026-04-22T10:28:52Z</time></trkpt><trkpt lat="44.7144163027851" lon="9.562932327398876"><ele>493.6666666666667</ele><time>2026-04-22T10:28:54Z</time></trkpt><trkpt lat="44.7144680981393" lon="9.56298788683208"><ele>492.0</ele><time>2026-04-22T10:28:56Z</time></trkpt><trkpt lat="44.71443876475567" lon="9.563086473223715"><ele>490.6</ele><time>2026-04-22T10:28:59Z</time></trkpt><trkpt lat="44.71439729760339" lon="9.563160550936145"><ele>489.20000000000005</ele><time>2026-04-22T10:29:01Z</time></trkpt><trkpt lat="44.71431990837173" lon="9.563217152770681"><ele>487.8</ele><time>2026-04-22T10:29:03Z</time></trkpt><trkpt lat="44.714241706286664" lon="9.56323531275702"><ele>486.4</ele><time>2026-04-22T10:29:05Z</time></trkpt><trkpt lat="44.71411128355754" lon="9.56322707879923"><ele>485.0</ele><time>2026-04-22T10:29:06.999Z</time></trkpt><trkpt lat="44.71402386372276" lon="9.563199989126936"><ele>484.99999999999994</ele><time>2026-04-22T10:29:07.999Z</time></trkpt><trkpt lat="44.71396005188465" lon="9.563171221848645"><ele>485.0</ele><time>2026-04-22T10:29:08.999Z</time></trkpt><trkpt lat="44.713847110196305" lon="9.563255666329557"><ele>485.0</ele><time>2026-04-22T10:29:10.999Z</time></trkpt><trkpt lat="44.713799138990176" lon="9.563326289572558"><ele>485.0</ele><time>2026-04-22T10:29:11.999Z</time></trkpt><trkpt lat="44.713742722823234" lon="9.563383152368106"><ele>484.99999999999994</ele><time>2026-04-22T10:29:12.999Z</time></trkpt><trkpt lat="44.713691153104776" lon="9.563491535256142"><ele>485.0</ele><time>2026-04-22T10:29:14.999Z</time></trkpt><trkpt lat="44.713682072388494" lon="9.563581112295061"><ele>484.99999999999994</ele><time>2026-04-22T10:29:15.999Z</time></trkpt><trkpt lat="44.71367652516686" lon="9.563679892636126"><ele>485.0</ele><time>2026-04-22T10:29:16.999Z</time></trkpt><trkpt lat="44.71365379460324" lon="9.563781506379444"><ele>485.0</ele><time>2026-04-22T10:29:17.999Z</time></trkpt><trkpt lat="44.7135796396279" lon="9.563858307074023"><ele>485.0</ele><time>2026-04-22T10:29:19.999Z</time></trkpt><trkpt lat="44.71348406465655" lon="9.563877843282805"><ele>484.99999999999994</ele><time>2026-04-22T10:29:21.999Z</time></trkpt><trkpt lat="44.713458263499895" lon="9.5639938166746"><ele>485.0</ele><time>2026-04-22T10:29:23.999Z</time></trkpt><trkpt lat="44.71344815113679" lon="9.564116709363857"><ele>482.66666666666663</ele><time>2026-04-22T10:29:25Z</time></trkpt><trkpt lat="44.71342288082439" lon="9.564223106412156"><ele>480.3333333333333</ele><time>2026-04-22T10:29:26Z</time></trkpt><trkpt lat="44.71339600190875" lon="9.564324230393764"><ele>478.0</ele><time>2026-04-22T10:29:27Z</time></trkpt><trkpt lat="44.71337879961255" lon="9.564433433032153"><ele>475.66666666666663</ele><time>2026-04-22T10:29:29Z</time></trkpt><trkpt lat="44.713390713759004" lon="9.564532959931915"><ele>473.3333333333333</ele><time>2026-04-22T10:29:31Z</time></trkpt><trkpt lat="44.71341047542014" lon="9.564636018479414"><ele>471.0</ele><time>2026-04-22T10:31:42Z</time></trkpt><trkpt lat="44.71341346408446" lon="9.564781978878814"><ele>469.20000000000005</ele><time>2026-04-22T10:31:44Z</time></trkpt><trkpt lat="44.713402235311136" lon="9.564949096829436"><ele>467.40000000000003</ele><time>2026-04-22T10:31:46Z</time></trkpt><trkpt lat="44.71339319801193" lon="9.565040529215802"><ele>465.6</ele><time>2026-04-22T10:31:47Z</time></trkpt><trkpt lat="44.71337609724992" lon="9.565125892438196"><ele>463.8</ele><time>2026-04-22T10:31:48Z</time></trkpt><trkpt lat="44.713330681303134" lon="9.565271970006112"><ele>462.0</ele><time>2026-04-22T10:31:50Z</time></trkpt><trkpt lat="44.71327005229845" lon="9.565425012910032"><ele>460.25</ele><time>2026-04-22T10:31:52Z</time></trkpt><trkpt lat="44.71323223758902" lon="9.565513029311623"><ele>458.5</ele><time>2026-04-22T10:31:53Z</time></trkpt><trkpt lat="44.71303602436317" lon="9.565494705500056"><ele>456.75</ele><time>2026-04-22T10:31:54Z</time></trkpt><trkpt lat="44.71299576078949" lon="9.5656035074789"><ele>455.0</ele><time>2026-04-22T10:31:55Z</time></trkpt><trkpt lat="44.71295071514649" lon="9.565730340261501"><ele>454.99999999999994</ele><time>2026-04-22T10:31:56Z</time></trkpt><trkpt lat="44.71291956754736" lon="9.565873774703318"><ele>455.0</ele><time>2026-04-22T10:31:57Z</time></trkpt><trkpt lat="44.71290647219761" lon="9.565976531927669"><ele>455.0</ele><time>2026-04-22T10:31:58Z</time></trkpt><trkpt lat="44.712906303057146" lon="9.566103906295428"><ele>455.0</ele><time>2026-04-22T10:31:59Z</time></trkpt><trkpt lat="44.7129130880742" lon="9.566206150277413"><ele>454.99999999999994</ele><time>2026-04-22T10:32:00Z</time></trkpt><trkpt lat="44.71293719377716" lon="9.566312447405977"><ele>455.0</ele><time>2026-04-22T10:32:02Z</time></trkpt><trkpt lat="44.71295790958299" lon="9.56641118979287"><ele>454.6</ele><time>2026-04-22T10:32:04Z</time></trkpt><trkpt lat="44.71297359400787" lon="9.566508587096154"><ele>454.2</ele><time>2026-04-22T10:32:05Z</time></trkpt><trkpt lat="44.71300293893993" lon="9.566605950819596"><ele>453.79999999999995</ele><time>2026-04-22T10:32:06Z</time></trkpt><trkpt lat="44.713019854167875" lon="9.56675293868476"><ele>453.4</ele><time>2026-04-22T10:32:08Z</time></trkpt><trkpt lat="44.71287508772793" lon="9.566862224821799"><ele>453.0</ele><time>2026-04-22T10:32:10Z</time></trkpt><trkpt lat="44.71282449594604" lon="9.566933443845304"><ele>453.0</ele><time>2026-04-22T10:32:11Z</time></trkpt><trkpt lat="44.71277058237262" lon="9.567011715819163"><ele>453.0</ele><time>2026-04-22T10:32:12Z</time></trkpt><trkpt lat="44.712713848845176" lon="9.567095416781271"><ele>453.0</ele><time>2026-04-22T10:32:13Z</time></trkpt><trkpt lat="44.712646831739704" lon="9.567187710233277"><ele>453.0</ele><time>2026-04-22T10:32:14Z</time></trkpt><trkpt lat="44.71258505545045" lon="9.56726449039277"><ele>453.0</ele><time>2026-04-22T10:32:15Z</time></trkpt><trkpt lat="44.71250464772855" lon="9.56735884747097"><ele>453.0</ele><time>2026-04-22T10:32:17Z</time></trkpt><trkpt lat="44.71243287085106" lon="9.56725461373385"><ele>451.1666666666667</ele><time>2026-04-22T10:32:19Z</time></trkpt><trkpt lat="44.71239274466362" lon="9.567183774093447"><ele>449.33333333333337</ele><time>2026-04-22T10:32:20Z</time></trkpt><trkpt lat="44.71231913076527" lon="9.567053814553509"><ele>447.5</ele><time>2026-04-22T10:32:22Z</time></trkpt><trkpt lat="44.71227595477681" lon="9.566977590743694"><ele>445.6666666666667</ele><time>2026-04-22T10:32:25Z</time></trkpt><trkpt lat="44.71224917159305" lon="9.567102902654945"><ele>443.83333333333337</ele><time>2026-04-22T10:41:12.999Z</time></trkpt><trkpt lat="44.71224874756939" lon="9.567013235328444"><ele>442.0</ele><time>2026-04-22T10:50:43Z</time></trkpt><trkpt lat="44.71232416996304" lon="9.56697865428215"><ele>442.00000000000006</ele><time>2026-04-22T10:50:50Z</time></trkpt><trkpt lat="44.712245680763296" lon="9.566995647440221"><ele>442.0</ele><time>2026-04-22T10:50:51Z</time></trkpt><trkpt lat="44.712303278043564" lon="9.567052440782428"><ele>442.0</ele><time>2026-04-22T10:56:06Z</time></trkpt><trkpt lat="44.71233711268671" lon="9.567141277701529"><ele>442.0</ele><time>2026-04-22T10:56:08Z</time></trkpt><trkpt lat="44.712376774746296" lon="9.567224235417632"><ele>442.00000000000006</ele><time>2026-04-22T10:56:10Z</time></trkpt><trkpt lat="44.712433019210934" lon="9.567341727515247"><ele>442.0</ele><time>2026-04-22T10:56:12Z</time></trkpt><trkpt lat="44.71241430902668" lon="9.567507404190591"><ele>441.33333333333337</ele><time>2026-04-22T10:56:14Z</time></trkpt><trkpt lat="44.71236850547495" lon="9.567604290026171"><ele>440.6666666666667</ele><time>2026-04-22T10:56:15Z</time></trkpt><trkpt lat="44.71229710460717" lon="9.567689767257884"><ele>440.0</ele><time>2026-04-22T10:56:16Z</time></trkpt><trkpt lat="44.712208710430126" lon="9.567709768980786"><ele>439.33333333333337</ele><time>2026-04-22T10:56:17Z</time></trkpt><trkpt lat="44.71212794057746" lon="9.567761732011451"><ele>438.6666666666667</ele><time>2026-04-22T10:56:18Z</time></trkpt><trkpt lat="44.71205660289549" lon="9.567812555543558"><ele>438.0</ele><time>2026-04-22T10:56:19Z</time></trkpt><trkpt lat="44.71199603610189" lon="9.5678391802803"><ele>438.0</ele><time>2026-04-22T10:56:20Z</time></trkpt><trkpt lat="44.71191852698078" lon="9.567859619039988"><ele>438.0</ele><time>2026-04-22T10:56:23Z</time></trkpt><trkpt lat="44.7119171379148" lon="9.568015765879807"><ele>438.0</ele><time>2026-04-22T10:56:24Z</time></trkpt><trkpt lat="44.711967961269856" lon="9.568082929500225"><ele>438.0</ele><time>2026-04-22T10:56:25Z</time></trkpt><trkpt lat="44.7119996153713" lon="9.568191516415402"><ele>438.0</ele><time>2026-04-22T10:56:26Z</time></trkpt><trkpt lat="44.712050069409415" lon="9.568302235005593"><ele>438.0</ele><time>2026-04-22T10:56:27Z</time></trkpt><trkpt lat="44.7121160718373" lon="9.568405822127765"><ele>436.79999999999995</ele><time>2026-04-22T10:56:28Z</time></trkpt><trkpt lat="44.712169239016866" lon="9.568520142290781"><ele>435.59999999999997</ele><time>2026-04-22T10:56:29Z</time></trkpt><trkpt lat="44.712223443077214" lon="9.568634447922665"><ele>434.40000000000003</ele><time>2026-04-22T10:56:30Z</time></trkpt><trkpt lat="44.71227834378285" lon="9.568751536889907"><ele>433.20000000000005</ele><time>2026-04-22T10:56:31Z</time></trkpt><trkpt lat="44.71231470030928" lon="9.568870457662985"><ele>432.0</ele><time>2026-04-22T10:56:32Z</time></trkpt><trkpt lat="44.7123816507556" lon="9.568972992169945"><ele>431.20000000000005</ele><time>2026-04-22T10:56:33Z</time></trkpt><trkpt lat="44.71247871215844" lon="9.569021948376017"><ele>430.40000000000003</ele><time>2026-04-22T10:56:34Z</time></trkpt><trkpt lat="44.71253401603659" lon="9.569124771274918"><ele>429.59999999999997</ele><time>2026-04-22T10:56:35Z</time></trkpt><trkpt lat="44.71259868440105" lon="9.569225048461627"><ele>428.79999999999995</ele><time>2026-04-22T10:56:36Z</time></trkpt><trkpt lat="44.71262602443259" lon="9.569354006469652"><ele>428.0</ele><time>2026-04-22T10:56:37Z</time></trkpt><trkpt lat="44.712666712683166" lon="9.569463764243595"><ele>428.59999999999997</ele><time>2026-04-22T10:56:38Z</time></trkpt><trkpt lat="44.7127269372906" lon="9.569576588034224"><ele>429.19999999999993</ele><time>2026-04-22T10:56:39Z</time></trkpt><trkpt lat="44.712793609012216" lon="9.569679858676597"><ele>429.8</ele><time>2026-04-22T10:56:40Z</time></trkpt><trkpt lat="44.71286014281356" lon="9.569772775244777"><ele>430.4</ele><time>2026-04-22T10:56:41Z</time></trkpt><trkpt lat="44.712930986366715" lon="9.569863919017441"><ele>431.0</ele><time>2026-04-22T10:56:42Z</time></trkpt><trkpt lat="44.71300361019865" lon="9.569948528137491"><ele>430.99999999999994</ele><time>2026-04-22T10:56:43Z</time></trkpt><trkpt lat="44.71307779624989" lon="9.570040103852605"><ele>431.0</ele><time>2026-04-22T10:56:44Z</time></trkpt><trkpt lat="44.7131525570765" lon="9.570128682034147"><ele>431.0</ele><time>2026-04-22T10:56:45Z</time></trkpt><trkpt lat="44.713224110047015" lon="9.570215723221933"><ele>431.0</ele><time>2026-04-22T10:56:46Z</time></trkpt><trkpt lat="44.71328105250033" lon="9.570303547944368"><ele>430.99999999999994</ele><time>2026-04-22T10:56:47Z</time></trkpt><trkpt lat="44.71333987743664" lon="9.5703636947316"><ele>431.0</ele><time>2026-04-22T10:56:48Z</time></trkpt><trkpt lat="44.71341069341689" lon="9.570421077463836"><ele>430.8</ele><time>2026-04-22T10:56:49Z</time></trkpt><trkpt lat="44.71347863920417" lon="9.570460548211253"><ele>430.6</ele><time>2026-04-22T10:56:50Z</time></trkpt><trkpt lat="44.71353349325646" lon="9.570504970157067"><ele>430.4</ele><time>2026-04-22T10:56:51Z</time></trkpt><trkpt lat="44.7135669042322" lon="9.570723554902317"><ele>430.2</ele><time>2026-04-22T10:56:54Z</time></trkpt><trkpt lat="44.71362394985552" lon="9.570851456839174"><ele>430.0</ele><time>2026-04-22T10:56:56Z</time></trkpt><trkpt lat="44.71367504658672" lon="9.570913659828705"><ele>430.00000000000006</ele><time>2026-04-22T10:56:57Z</time></trkpt><trkpt lat="44.71373074125547" lon="9.570979973852914"><ele>430.0</ele><time>2026-04-22T10:56:58Z</time></trkpt><trkpt lat="44.71378145276239" lon="9.571049203533274"><ele>430.0</ele><time>2026-04-22T10:56:59Z</time></trkpt><trkpt lat="44.71383147062469" lon="9.57112970138928"><ele>430.0</ele><time>2026-04-22T10:57:00Z</time></trkpt><trkpt lat="44.71387693788378" lon="9.571231798640211"><ele>430.00000000000006</ele><time>2026-04-22T10:57:01Z</time></trkpt><trkpt lat="44.71397014631048" lon="9.571257010157755"><ele>430.0</ele><time>2026-04-22T10:57:02Z</time></trkpt><trkpt lat="44.71398879289004" lon="9.571425373296321"><ele>429.2857142857143</ele><time>2026-04-22T10:57:03Z</time></trkpt><trkpt lat="44.71404568262426" lon="9.571482116288417"><ele>428.5714285714286</ele><time>2026-04-22T10:57:04Z</time></trkpt><trkpt lat="44.714114452891" lon="9.571532674243675"><ele>427.8571428571429</ele><time>2026-04-22T10:57:05Z</time></trkpt><trkpt lat="44.71416351168554" lon="9.571593173376767"><ele>427.1428571428571</ele><time>2026-04-22T10:57:06Z</time></trkpt><trkpt lat="44.71421518095312" lon="9.571664553740703"><ele>426.42857142857144</ele><time>2026-04-22T10:57:07Z</time></trkpt><trkpt lat="44.71428937046577" lon="9.571709406765395"><ele>425.7142857142857</ele><time>2026-04-22T10:57:08Z</time></trkpt><trkpt lat="44.71436959943657" lon="9.571726271152386"><ele>425.0</ele><time>2026-04-22T10:57:09Z</time></trkpt><trkpt lat="44.71445085128484" lon="9.571765660710506"><ele>425.0</ele><time>2026-04-22T10:57:10Z</time></trkpt><trkpt lat="44.714534046704394" lon="9.571818502271654"><ele>425.0</ele><time>2026-04-22T10:57:11Z</time></trkpt><trkpt lat="44.71461613053133" lon="9.571845810870515"><ele>425.0</ele><time>2026-04-22T10:57:12Z</time></trkpt><trkpt lat="44.71469918832214" lon="9.571874587943851"><ele>425.0</ele><time>2026-04-22T10:57:13Z</time></trkpt><trkpt lat="44.714788773000144" lon="9.571919365483607"><ele>425.0</ele><time>2026-04-22T10:57:14Z</time></trkpt><trkpt lat="44.71488640473164" lon="9.57196191495036"><ele>423.75</ele><time>2026-04-22T10:57:15Z</time></trkpt><trkpt lat="44.71499901448991" lon="9.572029932903703"><ele>422.5</ele><time>2026-04-22T10:57:16Z</time></trkpt><trkpt lat="44.71512520976075" lon="9.572111370886232"><ele>421.25</ele><time>2026-04-22T10:57:17Z</time></trkpt><trkpt lat="44.71525417215737" lon="9.57217873671445"><ele>420.0</ele><time>2026-04-22T10:57:18Z</time></trkpt><trkpt lat="44.71539367519759" lon="9.57221890901141"><ele>419.5</ele><time>2026-04-22T10:57:19Z</time></trkpt><trkpt lat="44.71552182766716" lon="9.572186291565584"><ele>419.0</ele><time>2026-04-22T10:57:20Z</time></trkpt><trkpt lat="44.715637170727376" lon="9.572213304092694"><ele>418.5</ele><time>2026-04-22T10:57:21Z</time></trkpt><trkpt lat="44.71574855559648" lon="9.572221379452882"><ele>418.0</ele><time>2026-04-22T10:57:22Z</time></trkpt><trkpt lat="44.71585786449022" lon="9.572222736239604"><ele>418.0</ele><time>2026-04-22T10:57:23Z</time></trkpt><trkpt lat="44.71596564683262" lon="9.57222060669026"><ele>418.0</ele><time>2026-04-22T10:57:24Z</time></trkpt><trkpt lat="44.71607076354019" lon="9.57222831217978"><ele>418.0</ele><time>2026-04-22T10:57:25Z</time></trkpt><trkpt lat="44.7161788099125" lon="9.572237232773526"><ele>418.0</ele><time>2026-04-22T10:57:26Z</time></trkpt><trkpt lat="44.716300597630436" lon="9.572239600488171"><ele>418.0</ele><time>2026-04-22T10:57:27Z</time></trkpt><trkpt lat="44.7164167074054" lon="9.572263428736374"><ele>418.83333333333337</ele><time>2026-04-22T10:57:28Z</time></trkpt><trkpt lat="44.71650372787086" lon="9.572315844175513"><ele>419.6666666666667</ele><time>2026-04-22T10:57:29Z</time></trkpt><trkpt lat="44.71657490922719" lon="9.572363120500087"><ele>420.5</ele><time>2026-04-22T10:57:30Z</time></trkpt><trkpt lat="44.71664957735629" lon="9.572412712590857"><ele>421.33333333333337</ele><time>2026-04-22T10:57:31Z</time></trkpt><trkpt lat="44.71672593865581" lon="9.572463429228764"><ele>422.1666666666667</ele><time>2026-04-22T10:57:32Z</time></trkpt><trkpt lat="44.71678176609671" lon="9.572530628842065"><ele>423.0</ele><time>2026-04-22T10:57:33Z</time></trkpt><trkpt lat="44.71685263568331" lon="9.572572591778782"><ele>422.59999999999997</ele><time>2026-04-22T10:57:34Z</time></trkpt><trkpt lat="44.71693039018067" lon="9.57264572066096"><ele>422.2</ele><time>2026-04-22T10:57:35Z</time></trkpt><trkpt lat="44.716990376956744" lon="9.57272642783159"><ele>421.8</ele><time>2026-04-22T10:57:36Z</time></trkpt><trkpt lat="44.717023085143346" lon="9.572810942451916"><ele>421.4</ele><time>2026-04-22T10:57:37Z</time></trkpt><trkpt lat="44.71702708093025" lon="9.572942155182638"><ele>421.0</ele><time>2026-04-22T10:57:38Z</time></trkpt><trkpt lat="44.71702830970253" lon="9.573099499002517"><ele>421.0</ele><time>2026-04-22T10:57:39Z</time></trkpt><trkpt lat="44.71704241767678" lon="9.57322429335005"><ele>421.0</ele><time>2026-04-22T10:57:40Z</time></trkpt><trkpt lat="44.71711768865662" lon="9.573346502991916"><ele>421.0</ele><time>2026-04-22T10:57:42Z</time></trkpt><trkpt lat="44.717192645706284" lon="9.573415648587345"><ele>421.0</ele><time>2026-04-22T10:57:43Z</time></trkpt><trkpt lat="44.71727430759016" lon="9.573498862816338"><ele>421.0</ele><time>2026-04-22T10:57:44Z</time></trkpt><trkpt lat="44.71735174613609" lon="9.573578359951632"><ele>421.00000000000006</ele><time>2026-04-22T10:57:45Z</time></trkpt><trkpt lat="44.71743264643076" lon="9.573656274974175"><ele>421.0</ele><time>2026-04-22T10:57:46Z</time></trkpt><trkpt lat="44.71751111016337" lon="9.573728122258787"><ele>421.0</ele><time>2026-04-22T10:57:47Z</time></trkpt><trkpt lat="44.71758045346619" lon="9.573814727631467"><ele>421.0</ele><time>2026-04-22T10:57:48Z</time></trkpt><trkpt lat="44.71763505023757" lon="9.57388390947622"><ele>421.00000000000006</ele><time>2026-04-22T10:57:49Z</time></trkpt><trkpt lat="44.71770843329864" lon="9.57394345639363"><ele>421.0</ele><time>2026-04-22T10:57:51Z</time></trkpt><trkpt lat="44.71780866321917" lon="9.574006886229995"><ele>422.00000000000006</ele><time>2026-04-22T10:57:53Z</time></trkpt><trkpt lat="44.717871528515325" lon="9.574052465903318"><ele>423.0</ele><time>2026-04-22T10:57:54Z</time></trkpt><trkpt lat="44.717925562238044" lon="9.57411098966545"><ele>424.0</ele><time>2026-04-22T10:57:55Z</time></trkpt><trkpt lat="44.71796744021779" lon="9.574192898277378"><ele>425.0</ele><time>2026-04-22T10:57:56Z</time></trkpt><trkpt lat="44.71805311390523" lon="9.574321436119716"><ele>426.00000000000006</ele><time>2026-04-22T10:57:58Z</time></trkpt><trkpt lat="44.71809452715882" lon="9.574396780029058"><ele>427.0</ele><time>2026-04-22T10:57:59Z</time></trkpt><trkpt lat="44.718143287229374" lon="9.574482304624029"><ele>425.33333333333337</ele><time>2026-04-22T10:58:00Z</time></trkpt><trkpt lat="44.71819016233267" lon="9.57455677749256"><ele>423.6666666666667</ele><time>2026-04-22T10:58:01Z</time></trkpt><trkpt lat="44.71824965147869" lon="9.574626665458634"><ele>422.0</ele><time>2026-04-22T10:58:03Z</time></trkpt><trkpt lat="44.71833003838561" lon="9.574713283130984"><ele>420.33333333333337</ele><time>2026-04-22T10:58:05Z</time></trkpt><trkpt lat="44.71836736722837" lon="9.574878319538808"><ele>418.6666666666667</ele><time>2026-04-22T10:58:07Z</time></trkpt><trkpt lat="44.71840994108912" lon="9.574960924194022"><ele>417.0</ele><time>2026-04-22T10:58:08Z</time></trkpt><trkpt lat="44.71848175532292" lon="9.575043866083178"><ele>417.0</ele><time>2026-04-22T10:58:09Z</time></trkpt><trkpt lat="44.71853211400677" lon="9.575108806199944"><ele>417.0</ele><time>2026-04-22T10:58:10Z</time></trkpt><trkpt lat="44.71858742544505" lon="9.575158320718279"><ele>417.0</ele><time>2026-04-22T10:58:11Z</time></trkpt><trkpt lat="44.71864357401321" lon="9.575261331278035"><ele>417.0</ele><time>2026-04-22T10:58:12Z</time></trkpt><trkpt lat="44.71870724310908" lon="9.575399010614413"><ele>417.0</ele><time>2026-04-22T10:58:13Z</time></trkpt><trkpt lat="44.71878324646659" lon="9.57553393999034"><ele>417.20000000000005</ele><time>2026-04-22T10:58:14Z</time></trkpt><trkpt lat="44.718872561269826" lon="9.5756711829759"><ele>417.4</ele><time>2026-04-22T10:58:15Z</time></trkpt><trkpt lat="44.71895169774639" lon="9.575782429885495"><ele>417.6</ele><time>2026-04-22T10:58:16Z</time></trkpt><trkpt lat="44.71900095162234" lon="9.57589078503325"><ele>417.79999999999995</ele><time>2026-04-22T10:58:17Z</time></trkpt><trkpt lat="44.71903997387685" lon="9.575972474704042"><ele>418.0</ele><time>2026-04-22T10:58:18Z</time></trkpt><trkpt lat="44.71912753828368" lon="9.576067095163264"><ele>418.0</ele><time>2026-04-22T10:58:20Z</time></trkpt><trkpt lat="44.71921683949689" lon="9.576119781499841"><ele>418.0</ele><time>2026-04-22T10:58:21Z</time></trkpt><trkpt lat="44.719299184539445" lon="9.576196462491954"><ele>418.0</ele><time>2026-04-22T10:58:22Z</time></trkpt><trkpt lat="44.719349932854605" lon="9.576262026890253"><ele>418.0</ele><time>2026-04-22T10:58:23Z</time></trkpt><trkpt lat="44.719427514946254" lon="9.576385111797931"><ele>418.0</ele><time>2026-04-22T10:58:25Z</time></trkpt><trkpt lat="44.719557959191896" lon="9.576381556524462"><ele>416.0</ele><time>2026-04-22T10:58:27Z</time></trkpt><trkpt lat="44.71965851802484" lon="9.576376158077165"><ele>414.0</ele><time>2026-04-22T10:58:28Z</time></trkpt><trkpt lat="44.719779472448685" lon="9.576375499246913"><ele>412.0</ele><time>2026-04-22T10:58:29Z</time></trkpt><trkpt lat="44.71991341268126" lon="9.576388916410968"><ele>410.0</ele><time>2026-04-22T10:58:30Z</time></trkpt><trkpt lat="44.720031398337035" lon="9.576409765111723"><ele>410.0</ele><time>2026-04-22T10:58:31Z</time></trkpt><trkpt lat="44.720127578465636" lon="9.576424830475576"><ele>410.0</ele><time>2026-04-22T10:58:32Z</time></trkpt><trkpt lat="44.72022060433277" lon="9.576427010860417"><ele>410.0</ele><time>2026-04-22T10:58:33Z</time></trkpt><trkpt lat="44.72031543367441" lon="9.576434185803167"><ele>410.0</ele><time>2026-04-22T10:58:34Z</time></trkpt><trkpt lat="44.72040399495672" lon="9.576455113184325"><ele>410.0</ele><time>2026-04-22T10:58:35Z</time></trkpt><trkpt lat="44.72050358197147" lon="9.5764743301324"><ele>410.75</ele><time>2026-04-22T10:58:36Z</time></trkpt><trkpt lat="44.720616573730496" lon="9.57649944097623"><ele>411.5</ele><time>2026-04-22T10:58:37Z</time></trkpt><trkpt lat="44.72073024108349" lon="9.57652229569451"><ele>412.25</ele><time>2026-04-22T10:58:38Z</time></trkpt><trkpt lat="44.72084412073625" lon="9.576555142644027"><ele>413.0</ele><time>2026-04-22T10:58:39Z</time></trkpt><trkpt lat="44.720965661211046" lon="9.576580678075313"><ele>412.5</ele><time>2026-04-22T10:58:40Z</time></trkpt><trkpt lat="44.72109253956091" lon="9.57660831603316"><ele>412.0</ele><time>2026-04-22T10:58:41Z</time></trkpt><trkpt lat="44.72122605285438" lon="9.576638322915095"><ele>411.5</ele><time>2026-04-22T10:58:42Z</time></trkpt><trkpt lat="44.721365414675894" lon="9.576670266698082"><ele>411.0</ele><time>2026-04-22T10:58:43Z</time></trkpt><trkpt lat="44.72150796493907" lon="9.576709616885822"><ele>411.0</ele><time>2026-04-22T10:58:44Z</time></trkpt><trkpt lat="44.72163981380319" lon="9.576739848283056"><ele>411.0</ele><time>2026-04-22T10:58:45Z</time></trkpt><trkpt lat="44.721767325871916" lon="9.57676525750547"><ele>411.0</ele><time>2026-04-22T10:58:46Z</time></trkpt><trkpt lat="44.72189533486771" lon="9.576784081908345"><ele>411.0</ele><time>2026-04-22T10:58:47Z</time></trkpt><trkpt lat="44.722028464069304" lon="9.576802705001665"><ele>411.0</ele><time>2026-04-22T10:58:48Z</time></trkpt><trkpt lat="44.72216594284467" lon="9.576818645430262"><ele>411.0</ele><time>2026-04-22T10:58:49Z</time></trkpt><trkpt lat="44.722310059658255" lon="9.576843960871779"><ele>411.0</ele><time>2026-04-22T10:58:50Z</time></trkpt><trkpt lat="44.722452133379775" lon="9.576870949992916"><ele>411.0</ele><time>2026-04-22T10:58:51Z</time></trkpt><trkpt lat="44.72258327385573" lon="9.576896580470788"><ele>411.0</ele><time>2026-04-22T10:58:52Z</time></trkpt><trkpt lat="44.72269818677908" lon="9.576923419591145"><ele>411.0</ele><time>2026-04-22T10:58:53Z</time></trkpt><trkpt lat="44.722818203342285" lon="9.576955337855775"><ele>411.0</ele><time>2026-04-22T10:58:54Z</time></trkpt><trkpt lat="44.72294091038269" lon="9.577003994102403"><ele>411.0</ele><time>2026-04-22T10:58:55Z</time></trkpt><trkpt lat="44.723047812334116" lon="9.577063480921838"><ele>410.25</ele><time>2026-04-22T10:58:56Z</time></trkpt><trkpt lat="44.72315736888374" lon="9.577115087081769"><ele>409.5</ele><time>2026-04-22T10:58:57Z</time></trkpt><trkpt lat="44.7232715360093" lon="9.577133554239113"><ele>408.75</ele><time>2026-04-22T10:58:58Z</time></trkpt><trkpt lat="44.72341094156629" lon="9.577134195004064"><ele>408.0</ele><time>2026-04-22T10:58:59Z</time></trkpt><trkpt lat="44.72356812882921" lon="9.577156295843569"><ele>408.0</ele><time>2026-04-22T10:59:00Z</time></trkpt><trkpt lat="44.723729893819474" lon="9.57719600192989"><ele>408.0</ele><time>2026-04-22T10:59:01Z</time></trkpt><trkpt lat="44.723891356126614" lon="9.577235063073791"><ele>408.0</ele><time>2026-04-22T10:59:02Z</time></trkpt><trkpt lat="44.72405480413777" lon="9.577267581921829"><ele>408.0</ele><time>2026-04-22T10:59:03Z</time></trkpt><trkpt lat="44.7242068449894" lon="9.577302768367574"><ele>408.0</ele><time>2026-04-22T10:59:04Z</time></trkpt><trkpt lat="44.72435865284059" lon="9.577342188853148"><ele>408.0</ele><time>2026-04-22T10:59:05Z</time></trkpt><trkpt lat="44.724512325375784" lon="9.577377719748045"><ele>410.0</ele><time>2026-04-22T10:59:06Z</time></trkpt><trkpt lat="44.724672855260096" lon="9.57740561042668"><ele>412.0</ele><time>2026-04-22T10:59:07Z</time></trkpt><trkpt lat="44.72483234591105" lon="9.57743368516875"><ele>414.0</ele><time>2026-04-22T10:59:08Z</time></trkpt><trkpt lat="44.724972587163066" lon="9.577477711500757"><ele>414.0</ele><time>2026-04-22T10:59:09Z</time></trkpt><trkpt lat="44.725103511024216" lon="9.577550731115895"><ele>414.0</ele><time>2026-04-22T10:59:10Z</time></trkpt><trkpt lat="44.72524592466123" lon="9.577642360467683"><ele>414.0</ele><time>2026-04-22T10:59:11Z</time></trkpt><trkpt lat="44.72538237115716" lon="9.577716362083388"><ele>414.0</ele><time>2026-04-22T10:59:12Z</time></trkpt><trkpt lat="44.725488753124885" lon="9.577787046680397"><ele>412.8333333333333</ele><time>2026-04-22T10:59:13Z</time></trkpt><trkpt lat="44.72556943876401" lon="9.577859889085333"><ele>411.66666666666663</ele><time>2026-04-22T10:59:14Z</time></trkpt><trkpt lat="44.72563648814256" lon="9.577916358467196"><ele>410.5</ele><time>2026-04-22T10:59:15Z</time></trkpt><trkpt lat="44.72570255897992" lon="9.577943705352851"><ele>409.3333333333333</ele><time>2026-04-22T10:59:16Z</time></trkpt><trkpt lat="44.72578120472631" lon="9.577956935767485"><ele>408.16666666666663</ele><time>2026-04-22T10:59:17Z</time></trkpt><trkpt lat="44.72586720518307" lon="9.57794702025476"><ele>407.0</ele><time>2026-04-22T10:59:18Z</time></trkpt><trkpt lat="44.725962992461945" lon="9.577928848023607"><ele>406.99999999999994</ele><time>2026-04-22T10:59:19Z</time></trkpt><trkpt lat="44.72604790085444" lon="9.577958766522464"><ele>407.0</ele><time>2026-04-22T10:59:20Z</time></trkpt><trkpt lat="44.72614109723127" lon="9.578016260815124"><ele>407.0</ele><time>2026-04-22T10:59:21Z</time></trkpt><trkpt lat="44.72620431267865" lon="9.578047113353314"><ele>407.0</ele><time>2026-04-22T10:59:22Z</time></trkpt><trkpt lat="44.726151187545554" lon="9.577911628418747"><ele>406.99999999999994</ele><time>2026-04-22T10:59:26Z</time></trkpt><trkpt lat="44.726162324324854" lon="9.577818770431158"><ele>407.0</ele><time>2026-04-22T10:59:30Z</time></trkpt><trkpt lat="44.72624549264632" lon="9.577807787153374"><ele>414.40000000000003</ele><time>2026-04-22T10:59:31Z</time></trkpt><trkpt lat="44.72631576921481" lon="9.57780541506846"><ele>421.8</ele><time>2026-04-22T10:59:32Z</time></trkpt><trkpt lat="44.72639275375761" lon="9.57776120949202"><ele>429.2</ele><time>2026-04-22T10:59:33Z</time></trkpt><trkpt lat="44.726302321970095" lon="9.577672070853634"><ele>436.6</ele><time>2026-04-22T10:59:37Z</time></trkpt><trkpt lat="44.7262289973535" lon="9.577594224504093"><ele>444.0</ele><time>2026-04-22T10:59:40Z</time></trkpt><trkpt lat="44.72609770621401" lon="9.577520117376901"><ele>446.5</ele><time>2026-04-22T10:59:41Z</time></trkpt><trkpt lat="44.72601220352291" lon="9.577432189232951"><ele>449.0</ele><time>2026-04-22T10:59:42Z</time></trkpt><trkpt lat="44.7259306928178" lon="9.577316897028407"><ele>451.5</ele><time>2026-04-22T10:59:43Z</time></trkpt><trkpt lat="44.725833001912584" lon="9.577164457900349"><ele>454.0</ele><time>2026-04-22T10:59:44Z</time></trkpt><trkpt lat="44.72575280475085" lon="9.577010081345684"><ele>454.0</ele><time>2026-04-22T10:59:45Z</time></trkpt><trkpt lat="44.725677119975394" lon="9.576847754682538"><ele>454.0</ele><time>2026-04-22T10:59:46Z</time></trkpt><trkpt lat="44.72564639709779" lon="9.576737630807076"><ele>454.0</ele><time>2026-04-22T10:59:47Z</time></trkpt><trkpt lat="44.725640271202074" lon="9.57663988361095"><ele>454.0</ele><time>2026-04-22T10:59:49Z</time></trkpt><trkpt lat="44.72554106253766" lon="9.57650551776373"><ele>454.0</ele><time>2026-04-22T10:59:56Z</time></trkpt><trkpt lat="44.7254636324652" lon="9.576436814901705"><ele>454.0</ele><time>2026-04-22T10:59:57Z</time></trkpt><trkpt lat="44.7253304804971" lon="9.576359794055703"><ele>454.0</ele><time>2026-04-22T10:59:58Z</time></trkpt><trkpt lat="44.72520079837164" lon="9.57631348866194"><ele>454.0</ele><time>2026-04-22T10:59:59Z</time></trkpt><trkpt lat="44.72505792255093" lon="9.576292236030387"><ele>454.0</ele><time>2026-04-22T11:00:00Z</time></trkpt><trkpt lat="44.72490251996208" lon="9.576285940114678"><ele>449.33333333333337</ele><time>2026-04-22T11:00:01Z</time></trkpt><trkpt lat="44.72473140062313" lon="9.576283727023203"><ele>444.66666666666663</ele><time>2026-04-22T11:00:02Z</time></trkpt><trkpt lat="44.72454944404519" lon="9.576275062925816"><ele>440.0</ele><time>2026-04-22T11:00:03Z</time></trkpt><trkpt lat="44.72436921330041" lon="9.57626072551389"><ele>436.3333333333333</ele><time>2026-04-22T11:00:04Z</time></trkpt><trkpt lat="44.724198807598285" lon="9.57622170755886"><ele>432.66666666666663</ele><time>2026-04-22T11:00:05Z</time></trkpt><trkpt lat="44.724049609064764" lon="9.576145655106313"><ele>429.0</ele><time>2026-04-22T11:00:06Z</time></trkpt><trkpt lat="44.72394218826366" lon="9.576064792198197"><ele>433.0</ele><time>2026-04-22T11:00:07Z</time></trkpt><trkpt lat="44.72385580766362" lon="9.575994831322832"><ele>437.0</ele><time>2026-04-22T11:00:08Z</time></trkpt><trkpt lat="44.72379719348601" lon="9.575920219210156"><ele>441.0</ele><time>2026-04-22T11:00:09Z</time></trkpt><trkpt lat="44.723734207690185" lon="9.57587367368491"><ele>445.0</ele><time>2026-04-22T11:00:10Z</time></trkpt><trkpt lat="44.723662033417426" lon="9.575837436483328"><ele>449.0</ele><time>2026-04-22T11:00:11Z</time></trkpt><trkpt lat="44.72359095304055" lon="9.575805515255205"><ele>453.0</ele><time>2026-04-22T11:00:12Z</time></trkpt><trkpt lat="44.723542541844736" lon="9.57574556345265"><ele>453.0</ele><time>2026-04-22T11:00:13Z</time></trkpt><trkpt lat="44.723478936078806" lon="9.575707961367172"><ele>453.0</ele><time>2026-04-22T11:00:15Z</time></trkpt><trkpt lat="44.723398481116924" lon="9.575660383079924"><ele>453.0</ele><time>2026-04-22T11:00:17Z</time></trkpt><trkpt lat="44.72332862431724" lon="9.575558347599562"><ele>453.0</ele><time>2026-04-22T11:00:20Z</time></trkpt><trkpt lat="44.72326686204678" lon="9.575519327093884"><ele>453.0</ele><time>2026-04-22T11:00:21Z</time></trkpt><trkpt lat="44.72319197274697" lon="9.575482020786486"><ele>453.0</ele><time>2026-04-22T11:00:22Z</time></trkpt><trkpt lat="44.7230996258887" lon="9.575446622699301"><ele>453.0</ele><time>2026-04-22T11:00:23Z</time></trkpt><trkpt lat="44.72301336782795" lon="9.575422163980793"><ele>453.0</ele><time>2026-04-22T11:00:24Z</time></trkpt><trkpt lat="44.72293536376464" lon="9.575401449093164"><ele>453.0</ele><time>2026-04-22T11:00:25Z</time></trkpt><trkpt lat="44.72285956749359" lon="9.575381377608274"><ele>453.0</ele><time>2026-04-22T11:00:26Z</time></trkpt><trkpt lat="44.722785165450084" lon="9.575349083374817"><ele>453.0</ele><time>2026-04-22T11:00:27Z</time></trkpt><trkpt lat="44.7227063177693" lon="9.575293505551475"><ele>453.0</ele><time>2026-04-22T11:00:28Z</time></trkpt><trkpt lat="44.722582759946306" lon="9.57519992205354"><ele>458.0</ele><time>2026-04-22T11:00:30Z</time></trkpt><trkpt lat="44.722497919331914" lon="9.57513598059083"><ele>462.99999999999994</ele><time>2026-04-22T11:00:31Z</time></trkpt><trkpt lat="44.722404955121846" lon="9.575052524693302"><ele>467.99999999999994</ele><time>2026-04-22T11:00:32Z</time></trkpt><trkpt lat="44.72231052752306" lon="9.574945549171362"><ele>473.0</ele><time>2026-04-22T11:00:33Z</time></trkpt><trkpt lat="44.72224447020319" lon="9.574864457136117"><ele>478.0</ele><time>2026-04-22T11:00:34Z</time></trkpt><trkpt lat="44.72220242586505" lon="9.574791063877115"><ele>478.00000000000006</ele><time>2026-04-22T11:00:35Z</time></trkpt><trkpt lat="44.72215728579996" lon="9.57467818500561"><ele>478.0</ele><time>2026-04-22T11:00:36Z</time></trkpt><trkpt lat="44.72211566643763" lon="9.57459951177118"><ele>478.0</ele><time>2026-04-22T11:00:37Z</time></trkpt><trkpt lat="44.722087106628074" lon="9.574515492745837"><ele>478.0</ele><time>2026-04-22T11:00:38Z</time></trkpt><trkpt lat="44.72203994919739" lon="9.574382290334148"><ele>478.00000000000006</ele><time>2026-04-22T11:00:40Z</time></trkpt><trkpt lat="44.72201094307555" lon="9.574264898752146"><ele>478.0</ele><time>2026-04-22T11:00:42Z</time></trkpt><trkpt lat="44.72201464630036" lon="9.57412943819461"><ele>483.33333333333337</ele><time>2026-04-22T11:00:43Z</time></trkpt><trkpt lat="44.72198790545697" lon="9.574007803651194"><ele>488.6666666666667</ele><time>2026-04-22T11:00:44Z</time></trkpt><trkpt lat="44.72195398967231" lon="9.573927180430054"><ele>494.0</ele><time>2026-04-22T11:00:45Z</time></trkpt><trkpt lat="44.721922907862584" lon="9.573836269553182"><ele>499.33333333333337</ele><time>2026-04-22T11:00:46Z</time></trkpt><trkpt lat="44.72191291623674" lon="9.573746165606918"><ele>504.6666666666667</ele><time>2026-04-22T11:00:47Z</time></trkpt><trkpt lat="44.72190058407271" lon="9.573652006211056"><ele>510.0</ele><time>2026-04-22T11:00:48Z</time></trkpt><trkpt lat="44.721834065176346" lon="9.573536723363517"><ele>510.0</ele><time>2026-04-22T11:00:50Z</time></trkpt><trkpt lat="44.72177779526494" lon="9.573485038296965"><ele>510.00000000000006</ele><time>2026-04-22T11:00:51Z</time></trkpt><trkpt lat="44.72173937215175" lon="9.57341310219079"><ele>510.0</ele><time>2026-04-22T11:00:52Z</time></trkpt><trkpt lat="44.72173050785036" lon="9.573317550724406"><ele>510.0</ele><time>2026-04-22T11:00:58Z</time></trkpt><trkpt lat="44.721693798922075" lon="9.573244534906195"><ele>510.00000000000006</ele><time>2026-04-22T11:01:03Z</time></trkpt><trkpt lat="44.72169960726065" lon="9.57313949991671"><ele>510.0</ele><time>2026-04-22T11:01:36Z</time></trkpt><trkpt lat="44.721775930545036" lon="9.573146677049447"><ele>510.0</ele><time>2026-04-22T11:04:07Z</time></trkpt><trkpt lat="44.721843641774164" lon="9.573153631616629"><ele>516.0</ele><time>2026-04-22T11:04:55Z</time></trkpt><trkpt lat="44.72190755258428" lon="9.573161220443902"><ele>522.0</ele><time>2026-04-22T11:04:57Z</time></trkpt><trkpt lat="44.72197574139463" lon="9.573187586871061"><ele>528.0</ele><time>2026-04-22T11:04:59Z</time></trkpt><trkpt lat="44.722070066065484" lon="9.573231730921512"><ele>534.0</ele><time>2026-04-22T11:05:23Z</time></trkpt><trkpt lat="44.72215672019761" lon="9.573260744154695"><ele>540.0</ele><time>2026-04-22T11:05:27Z</time></trkpt><trkpt lat="44.72221998597872" lon="9.573324581121966"><ele>546.0</ele><time>2026-04-22T11:05:31Z</time></trkpt><trkpt lat="44.72231301962628" lon="9.573386649113283"><ele>546.0</ele><time>2026-04-22T11:06:11Z</time></trkpt><trkpt lat="44.722391680947034" lon="9.57344056759459"><ele>546.0</ele><time>2026-04-22T11:06:13Z</time></trkpt><trkpt lat="44.72245910723605" lon="9.573481595947822"><ele>546.0</ele><time>2026-04-22T11:06:14Z</time></trkpt><trkpt lat="44.722542013766365" lon="9.573523318837115"><ele>546.0</ele><time>2026-04-22T11:06:15Z</time></trkpt><trkpt lat="44.72266486651431" lon="9.573594730592815"><ele>546.0</ele><time>2026-04-22T11:06:16Z</time></trkpt><trkpt lat="44.722754973143964" lon="9.573669856245068"><ele>545.4</ele><time>2026-04-22T11:06:17Z</time></trkpt><trkpt lat="44.72288120767977" lon="9.573711856899136"><ele>544.8</ele><time>2026-04-22T11:06:18Z</time></trkpt><trkpt lat="44.722991355988235" lon="9.573740932300637"><ele>544.1999999999999</ele><time>2026-04-22T11:06:19Z</time></trkpt><trkpt lat="44.723095816638214" lon="9.573777067642562"><ele>543.6</ele><time>2026-04-22T11:06:21Z</time></trkpt><trkpt lat="44.72316059077353" lon="9.57379893155611"><ele>543.0</ele><time>2026-04-22T11:06:22Z</time></trkpt><trkpt lat="44.72324573966026" lon="9.573819430765846"><ele>543.0</ele><time>2026-04-22T11:06:25Z</time></trkpt><trkpt lat="44.72338129523048" lon="9.573871675163112"><ele>543.0</ele><time>2026-04-22T11:06:26Z</time></trkpt><trkpt lat="44.72349312362206" lon="9.573835095481607"><ele>543.0</ele><time>2026-04-22T11:06:29Z</time></trkpt><trkpt lat="44.7235893332633" lon="9.573813925742542"><ele>543.0</ele><time>2026-04-22T11:06:30Z</time></trkpt><trkpt lat="44.72365058003121" lon="9.573868977512504"><ele>543.0</ele><time>2026-04-22T11:06:32Z</time></trkpt><trkpt lat="44.72370735349825" lon="9.57381908810701"><ele>546.5</ele><time>2026-04-22T11:06:46Z</time></trkpt><trkpt lat="44.723798123180664" lon="9.57385735195187"><ele>550.0</ele><time>2026-04-22T11:06:49Z</time></trkpt><trkpt lat="44.72389039820513" lon="9.573899749994801"><ele>553.5</ele><time>2026-04-22T11:06:51Z</time></trkpt><trkpt lat="44.72394896467564" lon="9.573939857414475"><ele>557.0</ele><time>2026-04-22T11:06:52Z</time></trkpt><trkpt lat="44.72404188442532" lon="9.573951408291713"><ele>560.5</ele><time>2026-04-22T11:06:53Z</time></trkpt><trkpt lat="44.72413594245242" lon="9.573974637293665"><ele>564.0</ele><time>2026-04-22T11:06:54Z</time></trkpt><trkpt lat="44.72422970607267" lon="9.57404981634589"><ele>564.0</ele><time>2026-04-22T11:06:55Z</time></trkpt><trkpt lat="44.72430416130124" lon="9.57411746389658"><ele>564.0</ele><time>2026-04-22T11:06:56Z</time></trkpt><trkpt lat="44.7244517221463" lon="9.574158286265504"><ele>564.0</ele><time>2026-04-22T11:06:58Z</time></trkpt><trkpt lat="44.72455025908978" lon="9.574170834048086"><ele>564.0</ele><time>2026-04-22T11:06:59Z</time></trkpt><trkpt lat="44.72468886065965" lon="9.574097378834757"><ele>564.6</ele><time>2026-04-22T11:07:01Z</time></trkpt><trkpt lat="44.72476933003852" lon="9.574028344591829"><ele>565.2</ele><time>2026-04-22T11:07:02Z</time></trkpt><trkpt lat="44.72482219978666" lon="9.57395819869027"><ele>565.8000000000001</ele><time>2026-04-22T11:07:03Z</time></trkpt><trkpt lat="44.72491450802694" lon="9.573824818254474"><ele>566.4</ele><time>2026-04-22T11:07:04Z</time></trkpt><trkpt lat="44.72500270251426" lon="9.573768243214705"><ele>567.0</ele><time>2026-04-22T11:07:05Z</time></trkpt><trkpt lat="44.72509001352272" lon="9.57373803321142"><ele>567.0</ele><time>2026-04-22T11:07:06Z</time></trkpt><trkpt lat="44.72521710744522" lon="9.573717760571606"><ele>567.0</ele><time>2026-04-22T11:07:07Z</time></trkpt><trkpt lat="44.72531260684744" lon="9.573663375044918"><ele>567.0</ele><time>2026-04-22T11:07:09.999Z</time></trkpt><trkpt lat="44.72539155433444" lon="9.573584893578024"><ele>567.0</ele><time>2026-04-22T11:07:12Z</time></trkpt><trkpt lat="44.725410306696176" lon="9.573476965732558"><ele>567.0</ele><time>2026-04-22T11:07:15Z</time></trkpt><trkpt lat="44.72534403716478" lon="9.573421711677364"><ele>574.8000000000001</ele><time>2026-04-22T11:07:19Z</time></trkpt><trkpt lat="44.72526398700986" lon="9.573375859697846"><ele>582.6</ele><time>2026-04-22T11:07:21Z</time></trkpt><trkpt lat="44.725192700759365" lon="9.573349266994267"><ele>590.4000000000001</ele><time>2026-04-22T11:07:30Z</time></trkpt><trkpt lat="44.72531726515618" lon="9.57338830404102"><ele>598.2</ele><time>2026-04-22T11:07:36Z</time></trkpt><trkpt lat="44.72536944992973" lon="9.573325779126298"><ele>606.0</ele><time>2026-04-22T11:07:39Z</time></trkpt><trkpt lat="44.72537485812654" lon="9.573189727661102"><ele>606.0</ele><time>2026-04-22T11:07:41Z</time></trkpt><trkpt lat="44.725317404362706" lon="9.573132044926504"><ele>606.0</ele><time>2026-04-22T11:07:50Z</time></trkpt><trkpt lat="44.72526736108605" lon="9.573077582942478"><ele>606.0</ele><time>2026-04-22T11:07:53Z</time></trkpt><trkpt lat="44.72520692732892" lon="9.573016236813132"><ele>606.0</ele><time>2026-04-22T11:07:56Z</time></trkpt><trkpt lat="44.725088521856435" lon="9.572923442617304"><ele>606.0</ele><time>2026-04-22T11:08:15Z</time></trkpt><trkpt lat="44.72516544855633" lon="9.57289773697296"><ele>606.0</ele><time>2026-04-22T11:08:42.999Z</time></trkpt><trkpt lat="44.72524034937223" lon="9.572911549665706"><ele>606.3333333333334</ele><time>2026-04-22T11:08:44.999Z</time></trkpt><trkpt lat="44.72531870260899" lon="9.572789312813711"><ele>606.6666666666666</ele><time>2026-04-22T11:09:14.999Z</time></trkpt><trkpt lat="44.72525106948003" lon="9.572849354951973"><ele>607.0</ele><time>2026-04-22T11:09:30Z</time></trkpt><trkpt lat="44.72519063502492" lon="9.572914811504363"><ele>607.3333333333333</ele><time>2026-04-22T11:09:32Z</time></trkpt><trkpt lat="44.72511783690751" lon="9.572912062382684"><ele>607.6666666666666</ele><time>2026-04-22T11:09:38Z</time></trkpt><trkpt lat="44.725053697335305" lon="9.572912128883909"><ele>608.0</ele><time>2026-04-22T11:09:43Z</time></trkpt><trkpt lat="44.7249883902451" lon="9.572909224393438"><ele>608.0</ele><time>2026-04-22T11:10:44.999Z</time></trkpt><trkpt lat="44.72508181705543" lon="9.572938037221226"><ele>608.0</ele><time>2026-04-22T11:15:34Z</time></trkpt><trkpt lat="44.72498547953586" lon="9.572897004454902"><ele>608.0</ele><time>2026-04-22T11:15:35Z</time></trkpt><trkpt lat="44.72492780185424" lon="9.572944336956834"><ele>608.0</ele><time>2026-04-22T11:17:27Z</time></trkpt><trkpt lat="44.72481879020922" lon="9.572972948655016"><ele>608.0</ele><time>2026-04-22T11:17:30Z</time></trkpt><trkpt lat="44.724743815637304" lon="9.572985272787253"><ele>608.0</ele><time>2026-04-22T11:17:31Z</time></trkpt><trkpt lat="44.724658972307495" lon="9.572976896799917"><ele>608.0</ele><time>2026-04-22T11:17:32Z</time></trkpt><trkpt lat="44.72453019782662" lon="9.572918582268096"><ele>608.0</ele><time>2026-04-22T11:17:34Z</time></trkpt><trkpt lat="44.724437768712356" lon="9.572852169389249"><ele>608.0</ele><time>2026-04-22T11:17:35Z</time></trkpt><trkpt lat="44.7243412494673" lon="9.572794412296078"><ele>608.0</ele><time>2026-04-22T11:17:36Z</time></trkpt><trkpt lat="44.72425501614705" lon="9.572764006291335"><ele>608.0</ele><time>2026-04-22T11:17:37Z</time></trkpt><trkpt lat="44.72418193005707" lon="9.57276530470223"><ele>611.0</ele><time>2026-04-22T11:17:38Z</time></trkpt><trkpt lat="44.724109953312635" lon="9.572776191074308"><ele>614.0</ele><time>2026-04-22T11:17:39Z</time></trkpt><trkpt lat="44.72403410984417" lon="9.572792979566291"><ele>617.0</ele><time>2026-04-22T11:17:40Z</time></trkpt><trkpt lat="44.72394788524197" lon="9.572787743041204"><ele>620.0</ele><time>2026-04-22T11:17:42Z</time></trkpt><trkpt lat="44.723886802178974" lon="9.572734204140591"><ele>623.0</ele><time>2026-04-22T11:17:46Z</time></trkpt><trkpt lat="44.7238872229672" lon="9.572639922455037"><ele>626.0</ele><time>2026-04-22T11:17:49Z</time></trkpt><trkpt lat="44.72395229201984" lon="9.572576776028352"><ele>626.0</ele><time>2026-04-22T11:17:51Z</time></trkpt><trkpt lat="44.72401219287372" lon="9.572526425498628"><ele>626.0</ele><time>2026-04-22T11:17:52Z</time></trkpt><trkpt lat="44.7240699968753" lon="9.572487643610764"><ele>626.0</ele><time>2026-04-22T11:17:53Z</time></trkpt><trkpt lat="44.72413434341846" lon="9.57246851781381"><ele>626.0</ele><time>2026-04-22T11:17:54Z</time></trkpt><trkpt lat="44.724230783134566" lon="9.57248037885728"><ele>626.0</ele><time>2026-04-22T11:17:56Z</time></trkpt><trkpt lat="44.724322129420486" lon="9.572551940563493"><ele>626.0</ele><time>2026-04-22T11:17:58Z</time></trkpt><trkpt lat="44.72438900702347" lon="9.572584783135303"><ele>630.0</ele><time>2026-04-22T11:17:59Z</time></trkpt><trkpt lat="44.72447171741907" lon="9.572580951323449"><ele>634.0</ele><time>2026-04-22T11:18:01Z</time></trkpt><trkpt lat="44.724527648089634" lon="9.572529210953267"><ele>638.0</ele><time>2026-04-22T11:18:02Z</time></trkpt><trkpt lat="44.724602455290544" lon="9.572488187973063"><ele>642.0</ele><time>2026-04-22T11:18:03Z</time></trkpt><trkpt lat="44.7246890215183" lon="9.572415845771507"><ele>646.0</ele><time>2026-04-22T11:18:04Z</time></trkpt><trkpt lat="44.7247869793349" lon="9.572315193757003"><ele>646.0</ele><time>2026-04-22T11:18:05Z</time></trkpt><trkpt lat="44.7248470868184" lon="9.572287039649769"><ele>646.0</ele><time>2026-04-22T11:18:06Z</time></trkpt><trkpt lat="44.72496794625341" lon="9.57221844294336"><ele>646.0</ele><time>2026-04-22T11:18:08Z</time></trkpt><trkpt lat="44.725056615321336" lon="9.572155278808884"><ele>646.0</ele><time>2026-04-22T11:18:09Z</time></trkpt><trkpt lat="44.72513930830923" lon="9.572079962513557"><ele>646.0</ele><time>2026-04-22T11:18:10Z</time></trkpt><trkpt lat="44.72522135989881" lon="9.571991842320575"><ele>651.3333333333334</ele><time>2026-04-22T11:18:11Z</time></trkpt><trkpt lat="44.72528194509966" lon="9.571928341365204"><ele>656.6666666666667</ele><time>2026-04-22T11:18:12Z</time></trkpt><trkpt lat="44.72537972402355" lon="9.571910369424579"><ele>662.0</ele><time>2026-04-22T11:18:14Z</time></trkpt><trkpt lat="44.72544081001438" lon="9.571933604151763"><ele>667.3333333333334</ele><time>2026-04-22T11:18:17Z</time></trkpt><trkpt lat="44.7255077026039" lon="9.571886882643359"><ele>672.6666666666666</ele><time>2026-04-22T11:18:20Z</time></trkpt><trkpt lat="44.7255722742484" lon="9.571841291041366"><ele>678.0</ele><time>2026-04-22T11:18:33Z</time></trkpt><trkpt lat="44.72567778417037" lon="9.571816627408749"><ele>678.0</ele><time>2026-04-22T11:18:36Z</time></trkpt><trkpt lat="44.72560701860552" lon="9.571864398960168"><ele>678.0</ele><time>2026-04-22T11:19:00Z</time></trkpt><trkpt lat="44.7255062070332" lon="9.571907418294941"><ele>678.0</ele><time>2026-04-22T11:19:02Z</time></trkpt><trkpt lat="44.72541454810002" lon="9.571915389735125"><ele>678.0</ele><time>2026-04-22T11:19:04Z</time></trkpt><trkpt lat="44.72546560205639" lon="9.571801510218181"><ele>678.0</ele><time>2026-04-22T11:19:22Z</time></trkpt><trkpt lat="44.72552136923552" lon="9.571716533050356"><ele>678.0</ele><time>2026-04-22T11:19:26Z</time></trkpt><trkpt lat="44.725525135716666" lon="9.571618493854217"><ele>678.0</ele><time>2026-04-22T11:19:30Z</time></trkpt><trkpt lat="44.7255620112628" lon="9.571491534596758"><ele>678.0</ele><time>2026-04-22T11:21:25Z</time></trkpt><trkpt lat="44.72566996284782" lon="9.571443180982033"><ele>678.0</ele><time>2026-04-22T11:27:51Z</time></trkpt><trkpt lat="44.72574491259751" lon="9.57138591250125"><ele>678.0</ele><time>2026-04-22T11:27:52Z</time></trkpt><trkpt lat="44.7257971940057" lon="9.571315219461487"><ele>678.0</ele><time>2026-04-22T11:27:53Z</time></trkpt><trkpt lat="44.72582806492488" lon="9.571212810483807"><ele>679.5</ele><time>2026-04-22T11:27:54Z</time></trkpt><trkpt lat="44.72585770382879" lon="9.571125983021489"><ele>681.0</ele><time>2026-04-22T11:27:55Z</time></trkpt><trkpt lat="44.72593070103998" lon="9.570988846562203"><ele>682.5</ele><time>2026-04-22T11:27:57Z</time></trkpt><trkpt lat="44.7259740786734" lon="9.570904394336843"><ele>684.0</ele><time>2026-04-22T11:27:59Z</time></trkpt><trkpt lat="44.72604069160868" lon="9.570889974902594"><ele>685.5</ele><time>2026-04-22T11:28:28Z</time></trkpt><trkpt lat="44.72610409468538" lon="9.570935092169519"><ele>687.0</ele><time>2026-04-22T11:28:32Z</time></trkpt><trkpt lat="44.72617723305512" lon="9.570991915005767"><ele>689.3333333333334</ele><time>2026-04-22T11:28:34Z</time></trkpt><trkpt lat="44.72627047541313" lon="9.571026474763052"><ele>691.6666666666666</ele><time>2026-04-22T11:28:36Z</time></trkpt><trkpt lat="44.726292175016155" lon="9.570941350384825"><ele>694.0</ele><time>2026-04-22T11:28:38Z</time></trkpt><trkpt lat="44.726299810262695" lon="9.570847883758212"><ele>696.3333333333333</ele><time>2026-04-22T11:28:40Z</time></trkpt><trkpt lat="44.726334325941984" lon="9.57076231177873"><ele>698.6666666666666</ele><time>2026-04-22T11:28:42Z</time></trkpt><trkpt lat="44.726344057165484" lon="9.570674531213493"><ele>701.0</ele><time>2026-04-22T11:28:43Z</time></trkpt><trkpt lat="44.72647138149995" lon="9.57031471872421"><ele>701.0</ele><time>2026-04-22T11:28:46Z</time></trkpt><trkpt lat="44.72650094896534" lon="9.570231475867939"><ele>701.0</ele><time>2026-04-22T11:28:47Z</time></trkpt><trkpt lat="44.72652698293875" lon="9.570140136481081"><ele>701.0</ele><time>2026-04-22T11:28:49Z</time></trkpt><trkpt lat="44.72649127070909" lon="9.570221247451325"><ele>701.0</ele><time>2026-04-22T11:29:29Z</time></trkpt><trkpt lat="44.726443810607016" lon="9.570282664518503"><ele>701.0</ele><time>2026-04-22T11:29:32Z</time></trkpt><trkpt lat="44.72638340193495" lon="9.570375458095778"><ele>701.0</ele><time>2026-04-22T11:29:36Z</time></trkpt><trkpt lat="44.72634270610398" lon="9.570489108411598"><ele>701.0</ele><time>2026-04-22T11:29:39Z</time></trkpt><trkpt lat="44.72633304947749" lon="9.570603491120362"><ele>701.0</ele><time>2026-04-22T11:29:41Z</time></trkpt><trkpt lat="44.72630525234866" lon="9.570722176756867"><ele>701.0</ele><time>2026-04-22T11:29:44Z</time></trkpt><trkpt lat="44.72628633745418" lon="9.570815339819825"><ele>701.0</ele><time>2026-04-22T11:29:47Z</time></trkpt><trkpt lat="44.7262684898533" lon="9.570914216832081"><ele>701.0</ele><time>2026-04-22T11:29:50Z</time></trkpt><trkpt lat="44.72620068763209" lon="9.570940362019666"><ele>701.0</ele><time>2026-04-22T11:29:53Z</time></trkpt><trkpt lat="44.72612987775514" lon="9.570900316891082"><ele>701.0</ele><time>2026-04-22T11:29:57Z</time></trkpt><trkpt lat="44.72606615934574" lon="9.570851228887275"><ele>701.0</ele><time>2026-04-22T11:30:00Z</time></trkpt><trkpt lat="44.725992442451194" lon="9.570843695059926"><ele>698.1999999999999</ele><time>2026-04-22T11:32:14.001Z</time></trkpt><trkpt lat="44.72592829589425" lon="9.570938642127116"><ele>695.4</ele><time>2026-04-22T11:32:17.001Z</time></trkpt><trkpt lat="44.72587817580727" lon="9.571034550120817"><ele>692.6</ele><time>2026-04-22T11:32:19.001Z</time></trkpt><trkpt lat="44.725818657447746" lon="9.57115873845166"><ele>689.8</ele><time>2026-04-22T11:32:21.001Z</time></trkpt><trkpt lat="44.72576798296701" lon="9.571279743567686"><ele>687.0</ele><time>2026-04-22T11:32:23.001Z</time></trkpt><trkpt lat="44.72569671058428" lon="9.571380064374345"><ele>685.5</ele><time>2026-04-22T11:32:25.001Z</time></trkpt><trkpt lat="44.7256142219985" lon="9.571422112523365"><ele>684.0</ele><time>2026-04-22T11:32:27.001Z</time></trkpt><trkpt lat="44.72555929672477" lon="9.571478044852968"><ele>682.5</ele><time>2026-04-22T11:32:29.001Z</time></trkpt><trkpt lat="44.72555455978555" lon="9.571585745448198"><ele>681.0</ele><time>2026-04-22T11:32:31.001Z</time></trkpt><trkpt lat="44.725557102349526" lon="9.571674523483432"><ele>679.5</ele><time>2026-04-22T11:32:33.001Z</time></trkpt><trkpt lat="44.72547567171951" lon="9.571750709006054"><ele>678.0</ele><time>2026-04-22T11:32:35.001Z</time></trkpt><trkpt lat="44.72541095285662" lon="9.57180281045432"><ele>678.0</ele><time>2026-04-22T11:32:37.001Z</time></trkpt><trkpt lat="44.72543900889474" lon="9.571884472959844"><ele>678.0</ele><time>2026-04-22T11:32:44.001Z</time></trkpt><trkpt lat="44.725512584801415" lon="9.571874224729234"><ele>678.0</ele><time>2026-04-22T11:32:46.001Z</time></trkpt><trkpt lat="44.72557570880576" lon="9.571886674699776"><ele>678.0</ele><time>2026-04-22T11:32:49.001Z</time></trkpt><trkpt lat="44.72566289105293" lon="9.571890560259112"><ele>678.0</ele><time>2026-04-22T11:32:52.001Z</time></trkpt><trkpt lat="44.7257611567601" lon="9.57191826753659"><ele>678.0</ele><time>2026-04-22T11:32:54.001Z</time></trkpt><trkpt lat="44.725827370177235" lon="9.571910459841416"><ele>678.0</ele><time>2026-04-22T11:32:55.001Z</time></trkpt><trkpt lat="44.72595267601679" lon="9.571916491200886"><ele>678.0</ele><time>2026-04-22T11:32:57.001Z</time></trkpt><trkpt lat="44.72605493982844" lon="9.571946947421296"><ele>678.0</ele><time>2026-04-22T11:32:59.001Z</time></trkpt><trkpt lat="44.72617163344899" lon="9.57195398862956"><ele>678.0</ele><time>2026-04-22T11:33:01.001Z</time></trkpt><trkpt lat="44.726291386491894" lon="9.571959759289303"><ele>679.0</ele><time>2026-04-22T11:33:03.001Z</time></trkpt><trkpt lat="44.726359170390644" lon="9.571966088355667"><ele>680.0</ele><time>2026-04-22T11:33:04.001Z</time></trkpt><trkpt lat="44.726433422803794" lon="9.57197994414501"><ele>681.0</ele><time>2026-04-22T11:33:05.001Z</time></trkpt><trkpt lat="44.726527509764395" lon="9.571981559699932"><ele>682.0</ele><time>2026-04-22T11:33:06.001Z</time></trkpt><trkpt lat="44.72662585061893" lon="9.571973392968273"><ele>683.0</ele><time>2026-04-22T11:33:07.001Z</time></trkpt><trkpt lat="44.7266908948547" lon="9.571946606268508"><ele>684.0</ele><time>2026-04-22T11:33:08.001Z</time></trkpt><trkpt lat="44.726757392008196" lon="9.571851779738655"><ele>684.0</ele><time>2026-04-22T11:33:11.001Z</time></trkpt><trkpt lat="44.72682337618976" lon="9.571768251393731"><ele>684.0</ele><time>2026-04-22T11:33:13.001Z</time></trkpt><trkpt lat="44.726871348331976" lon="9.571688429161284"><ele>684.0</ele><time>2026-04-22T11:33:28.001Z</time></trkpt><trkpt lat="44.72690483628364" lon="9.571543766990159"><ele>684.0</ele><time>2026-04-22T11:33:40.001Z</time></trkpt><trkpt lat="44.72694452345967" lon="9.57142681196986"><ele>684.0</ele><time>2026-04-22T11:33:41.001Z</time></trkpt><trkpt lat="44.72699172676645" lon="9.57130217685691"><ele>683.6666666666666</ele><time>2026-04-22T11:33:42.001Z</time></trkpt><trkpt lat="44.72704766183379" lon="9.57120620822986"><ele>683.3333333333334</ele><time>2026-04-22T11:33:43.001Z</time></trkpt><trkpt lat="44.727111950136184" lon="9.571159282244615"><ele>683.0</ele><time>2026-04-22T11:33:44.001Z</time></trkpt><trkpt lat="44.72718817438349" lon="9.571124759484885"><ele>682.6666666666667</ele><time>2026-04-22T11:33:45.001Z</time></trkpt><trkpt lat="44.72718366646848" lon="9.570980713418043"><ele>682.3333333333334</ele><time>2026-04-22T11:33:49.001Z</time></trkpt><trkpt lat="44.72716598105132" lon="9.570893805678487"><ele>682.0</ele><time>2026-04-22T11:33:50.001Z</time></trkpt><trkpt lat="44.72715766342677" lon="9.570743330478695"><ele>682.0</ele><time>2026-04-22T11:33:52.001Z</time></trkpt><trkpt lat="44.72710405523649" lon="9.570578420969921"><ele>682.0</ele><time>2026-04-22T11:33:53.001Z</time></trkpt><trkpt lat="44.72707042244734" lon="9.570477924239263"><ele>682.0</ele><time>2026-04-22T11:33:54.001Z</time></trkpt><trkpt lat="44.727001234668116" lon="9.570418284385237"><ele>682.0</ele><time>2026-04-22T11:33:55.001Z</time></trkpt><trkpt lat="44.72693795174045" lon="9.570431941810961"><ele>682.0</ele><time>2026-04-22T11:33:56.001Z</time></trkpt><trkpt lat="44.726910495679306" lon="9.570325045687918"><ele>682.0</ele><time>2026-04-22T11:33:59.001Z</time></trkpt><trkpt lat="44.72696972685968" lon="9.570238028664777"><ele>682.0</ele><time>2026-04-22T11:34:01.001Z</time></trkpt><trkpt lat="44.727083872955596" lon="9.570274516471903"><ele>682.0</ele><time>2026-04-22T11:34:03.001Z</time></trkpt><trkpt lat="44.72714900481017" lon="9.570305948312127"><ele>682.0</ele><time>2026-04-22T11:34:04.001Z</time></trkpt><trkpt lat="44.72723828558828" lon="9.570384067974887"><ele>682.0</ele><time>2026-04-22T11:34:06.001Z</time></trkpt><trkpt lat="44.72732616608992" lon="9.570399265095944"><ele>682.0</ele><time>2026-04-22T11:34:08.001Z</time></trkpt><trkpt lat="44.72739007124803" lon="9.570353914550628"><ele>682.0</ele><time>2026-04-22T11:34:09.001Z</time></trkpt><trkpt lat="44.72745735409289" lon="9.57029565863029"><ele>682.0</ele><time>2026-04-22T11:34:10.001Z</time></trkpt><trkpt lat="44.72752856519794" lon="9.570385885513021"><ele>682.0</ele><time>2026-04-22T11:34:12.001Z</time></trkpt><trkpt lat="44.7276074724077" lon="9.57050916284303"><ele>682.0</ele><time>2026-04-22T11:34:14.001Z</time></trkpt><trkpt lat="44.72748439537029" lon="9.570619712095763"><ele>682.0</ele><time>2026-04-22T11:34:16.001Z</time></trkpt><trkpt lat="44.72736416248887" lon="9.570647668984138"><ele>682.0</ele><time>2026-04-22T11:34:17.001Z</time></trkpt><trkpt lat="44.72725754614692" lon="9.570646644704391"><ele>682.0</ele><time>2026-04-22T11:34:18.001Z</time></trkpt><trkpt lat="44.727221912996065" lon="9.570775861846096"><ele>682.0</ele><time>2026-04-22T11:34:20.001Z</time></trkpt><trkpt lat="44.727278740808934" lon="9.570857786591864"><ele>682.0</ele><time>2026-04-22T11:34:21.001Z</time></trkpt><trkpt lat="44.727355737938844" lon="9.57088844515033"><ele>682.0</ele><time>2026-04-22T11:34:23.001Z</time></trkpt><trkpt lat="44.727462649045876" lon="9.570873448729346"><ele>682.0</ele><time>2026-04-22T11:34:25.001Z</time></trkpt><trkpt lat="44.72759432855321" lon="9.570862601902988"><ele>682.0</ele><time>2026-04-22T11:34:27.001Z</time></trkpt><trkpt lat="44.72766727243043" lon="9.570839255706048"><ele>682.0</ele><time>2026-04-22T11:34:28.001Z</time></trkpt><trkpt lat="44.727683395963936" lon="9.570930092113747"><ele>682.0</ele><time>2026-04-22T11:34:30.001Z</time></trkpt><trkpt lat="44.727619389835304" lon="9.570945806918845"><ele>682.0</ele><time>2026-04-22T11:34:31.001Z</time></trkpt><trkpt lat="44.727498056734895" lon="9.57097259846"><ele>682.0</ele><time>2026-04-22T11:34:33.001Z</time></trkpt><trkpt lat="44.72747875903154" lon="9.57108629525969"><ele>682.0</ele><time>2026-04-22T11:34:35.001Z</time></trkpt><trkpt lat="44.72755941878642" lon="9.571130837577364"><ele>682.0</ele><time>2026-04-22T11:34:36.001Z</time></trkpt><trkpt lat="44.72762746350406" lon="9.57122800626377"><ele>682.0</ele><time>2026-04-22T11:34:37.001Z</time></trkpt><trkpt lat="44.727647968170956" lon="9.571326005528238"><ele>682.0</ele><time>2026-04-22T11:34:38.001Z</time></trkpt><trkpt lat="44.72758358197445" lon="9.571472178358261"><ele>680.5</ele><time>2026-04-22T11:34:40.001Z</time></trkpt><trkpt lat="44.72752284526596" lon="9.571550554510548"><ele>679.0</ele><time>2026-04-22T11:34:41.001Z</time></trkpt><trkpt lat="44.72745908237389" lon="9.571663877431607"><ele>677.5</ele><time>2026-04-22T11:34:42.001Z</time></trkpt><trkpt lat="44.72739156816143" lon="9.571738366039165"><ele>676.0</ele><time>2026-04-22T11:34:43.001Z</time></trkpt><trkpt lat="44.72729237959191" lon="9.571742592329658"><ele>674.5</ele><time>2026-04-22T11:34:45.001Z</time></trkpt><trkpt lat="44.72735075306214" lon="9.57177619575707"><ele>673.0</ele><time>2026-04-22T11:34:46.001Z</time></trkpt><trkpt lat="44.72744497274374" lon="9.57178089873276"><ele>673.0</ele><time>2026-04-22T11:34:47.001Z</time></trkpt><trkpt lat="44.72756178661408" lon="9.571757782458283"><ele>673.0</ele><time>2026-04-22T11:34:48.001Z</time></trkpt><trkpt lat="44.727637648830516" lon="9.571719301003064"><ele>673.0</ele><time>2026-04-22T11:34:49.001Z</time></trkpt><trkpt lat="44.72769765287164" lon="9.5716704880108"><ele>673.0</ele><time>2026-04-22T11:34:50.001Z</time></trkpt><trkpt lat="44.72774891689024" lon="9.571580830745749"><ele>673.0</ele><time>2026-04-22T11:34:51.001Z</time></trkpt><trkpt lat="44.727796630102006" lon="9.571464958845993"><ele>673.0</ele><time>2026-04-22T11:34:52.001Z</time></trkpt><trkpt lat="44.727821624485955" lon="9.57134106327842"><ele>673.4</ele><time>2026-04-22T11:34:53.001Z</time></trkpt><trkpt lat="44.727899430159816" lon="9.571337222245884"><ele>673.8</ele><time>2026-04-22T11:34:55.001Z</time></trkpt><trkpt lat="44.72797610259848" lon="9.571487549472184"><ele>674.2</ele><time>2026-04-22T11:34:57.001Z</time></trkpt><trkpt lat="44.728045259642606" lon="9.571413552374242"><ele>674.6</ele><time>2026-04-22T11:35:00.001Z</time></trkpt><trkpt lat="44.72799099538573" lon="9.571249733720656"><ele>675.0</ele><time>2026-04-22T11:35:02.001Z</time></trkpt><trkpt lat="44.72791062917626" lon="9.571173765929904"><ele>675.0</ele><time>2026-04-22T11:35:03.001Z</time></trkpt><trkpt lat="44.72781498867818" lon="9.571126058951709"><ele>675.0</ele><time>2026-04-22T11:35:04.001Z</time></trkpt><trkpt lat="44.727748029728424" lon="9.57108145547199"><ele>675.0</ele><time>2026-04-22T11:35:05.001Z</time></trkpt><trkpt lat="44.72777057460338" lon="9.57098474209776"><ele>675.0</ele><time>2026-04-22T11:35:07.001Z</time></trkpt><trkpt lat="44.727931938857886" lon="9.570979620744376"><ele>675.0</ele><time>2026-04-22T11:35:09.001Z</time></trkpt><trkpt lat="44.72805434265064" lon="9.571009026151652"><ele>675.0</ele><time>2026-04-22T11:35:10.001Z</time></trkpt><trkpt lat="44.72812037695155" lon="9.57101397082303"><ele>675.0</ele><time>2026-04-22T11:35:11.001Z</time></trkpt><trkpt lat="44.728235753737046" lon="9.570920592746395"><ele>675.0</ele><time>2026-04-22T11:35:13.001Z</time></trkpt><trkpt lat="44.728297333294705" lon="9.570830085098256"><ele>675.0</ele><time>2026-04-22T11:35:14.001Z</time></trkpt><trkpt lat="44.728339843231524" lon="9.5707642081392"><ele>675.0</ele><time>2026-04-22T11:35:15.001Z</time></trkpt><trkpt lat="44.728318798365294" lon="9.570625472066583"><ele>675.0</ele><time>2026-04-22T11:35:17.001Z</time></trkpt><trkpt lat="44.72817158944354" lon="9.570580888774625"><ele>675.0</ele><time>2026-04-22T11:35:19.001Z</time></trkpt><trkpt lat="44.72806731785804" lon="9.570555569802343"><ele>675.0</ele><time>2026-04-22T11:35:20.001Z</time></trkpt><trkpt lat="44.72792822596591" lon="9.57050180134248"><ele>675.0</ele><time>2026-04-22T11:35:21.001Z</time></trkpt><trkpt lat="44.727829925384235" lon="9.570411836635103"><ele>681.2</ele><time>2026-04-22T11:35:22.001Z</time></trkpt><trkpt lat="44.72775946861643" lon="9.5703553977814"><ele>687.4</ele><time>2026-04-22T11:35:23.001Z</time></trkpt><trkpt lat="44.72769326929753" lon="9.570307755494278"><ele>693.5999999999999</ele><time>2026-04-22T11:35:24.001Z</time></trkpt><trkpt lat="44.72757496689673" lon="9.5702056626595"><ele>699.8</ele><time>2026-04-22T11:35:26.001Z</time></trkpt><trkpt lat="44.72750086102603" lon="9.570146596791078"><ele>706.0</ele><time>2026-04-22T11:35:27.001Z</time></trkpt><trkpt lat="44.727409863541034" lon="9.57012092733322"><ele>706.8</ele><time>2026-04-22T11:35:29.001Z</time></trkpt><trkpt lat="44.72732576189837" lon="9.570097177511466"><ele>707.5999999999999</ele><time>2026-04-22T11:35:30.001Z</time></trkpt><trkpt lat="44.72721970496868" lon="9.570061811657494"><ele>708.4</ele><time>2026-04-22T11:35:31.001Z</time></trkpt><trkpt lat="44.72712263295971" lon="9.57003244840979"><ele>709.2</ele><time>2026-04-22T11:35:32.001Z</time></trkpt><trkpt lat="44.72702805688876" lon="9.570063522166022"><ele>710.0</ele><time>2026-04-22T11:35:33.001Z</time></trkpt><trkpt lat="44.726956506460745" lon="9.570121412859795"><ele>712.0</ele><time>2026-04-22T11:35:34.001Z</time></trkpt><trkpt lat="44.7268450758085" lon="9.57015145275069"><ele>714.0</ele><time>2026-04-22T11:35:35.001Z</time></trkpt><trkpt lat="44.72672039994992" lon="9.570168472868552"><ele>716.0</ele><time>2026-04-22T11:35:36.001Z</time></trkpt><trkpt lat="44.72660085057033" lon="9.570185361019252"><ele>718.0</ele><time>2026-04-22T11:35:37.001Z</time></trkpt><trkpt lat="44.7265093003918" lon="9.570201656059245"><ele>718.0</ele><time>2026-04-22T11:35:38.001Z</time></trkpt><trkpt lat="44.72647210636311" lon="9.570308271010147"><ele>718.0</ele><time>2026-04-22T11:35:41.001Z</time></trkpt><trkpt lat="44.7264393847906" lon="9.570402907709184"><ele>718.0</ele><time>2026-04-22T11:35:42.001Z</time></trkpt><trkpt lat="44.7264007336263" lon="9.570492610587161"><ele>718.0</ele><time>2026-04-22T11:35:43.001Z</time></trkpt><trkpt lat="44.72636305884012" lon="9.570577323958755"><ele>718.0</ele><time>2026-04-22T11:35:44.001Z</time></trkpt><trkpt lat="44.72633025067635" lon="9.570683906739633"><ele>718.0</ele><time>2026-04-22T11:35:45.001Z</time></trkpt><trkpt lat="44.726314501034416" lon="9.570823203329876"><ele>715.1666666666667</ele><time>2026-04-22T11:35:46.001Z</time></trkpt><trkpt lat="44.72630028993402" lon="9.570921514984901"><ele>712.3333333333334</ele><time>2026-04-22T11:35:47.001Z</time></trkpt><trkpt lat="44.72627649217502" lon="9.571009646887285"><ele>709.5</ele><time>2026-04-22T11:35:49.001Z</time></trkpt><trkpt lat="44.72620005595474" lon="9.57099152822972"><ele>706.6666666666666</ele><time>2026-04-22T11:35:51.001Z</time></trkpt><trkpt lat="44.72614587025445" lon="9.570939475009785"><ele>703.8333333333333</ele><time>2026-04-22T11:35:52.001Z</time></trkpt><trkpt lat="44.72606680553401" lon="9.57088063036991"><ele>701.0</ele><time>2026-04-22T11:35:54.001Z</time></trkpt><trkpt lat="44.725946675652196" lon="9.570831502836048"><ele>699.8</ele><time>2026-04-22T11:35:56.001Z</time></trkpt><trkpt lat="44.72588628619232" lon="9.57078435324749"><ele>698.5999999999999</ele><time>2026-04-22T11:35:57.001Z</time></trkpt><trkpt lat="44.72582621636237" lon="9.570624638444501"><ele>697.4</ele><time>2026-04-22T11:35:59.001Z</time></trkpt><trkpt lat="44.72580785791365" lon="9.570522973512347"><ele>696.2</ele><time>2026-04-22T11:36:00.001Z</time></trkpt><trkpt lat="44.725791035666894" lon="9.5704375382536"><ele>695.0</ele><time>2026-04-22T11:36:01.001Z</time></trkpt><trkpt lat="44.725713390097674" lon="9.570276064011615"><ele>695.0</ele><time>2026-04-22T11:36:03.001Z</time></trkpt><trkpt lat="44.725659954271165" lon="9.570211414838578"><ele>695.0</ele><time>2026-04-22T11:36:04.001Z</time></trkpt><trkpt lat="44.72559082629862" lon="9.570157437194245"><ele>695.0</ele><time>2026-04-22T11:36:05.001Z</time></trkpt><trkpt lat="44.725514454191796" lon="9.570099982352529"><ele>695.0</ele><time>2026-04-22T11:36:06.001Z</time></trkpt><trkpt lat="44.72544744864098" lon="9.570058103242557"><ele>695.0</ele><time>2026-04-22T11:36:07.001Z</time></trkpt><trkpt lat="44.725334501022004" lon="9.570055726820469"><ele>695.0</ele><time>2026-04-22T11:36:09.001Z</time></trkpt><trkpt lat="44.72526669471673" lon="9.570166293496337"><ele>695.0</ele><time>2026-04-22T11:36:11.001Z</time></trkpt><trkpt lat="44.72527070247995" lon="9.570338993751408"><ele>695.0</ele><time>2026-04-22T11:36:13.001Z</time></trkpt><trkpt lat="44.72530738172308" lon="9.57044218561365"><ele>695.0</ele><time>2026-04-22T11:36:14.001Z</time></trkpt><trkpt lat="44.725394496327326" lon="9.57063688062008"><ele>695.0</ele><time>2026-04-22T11:36:15.001Z</time></trkpt><trkpt lat="44.7254153267609" lon="9.570786170485803"><ele>693.4</ele><time>2026-04-22T11:36:16.001Z</time></trkpt><trkpt lat="44.72541743585682" lon="9.570902572211326"><ele>691.8</ele><time>2026-04-22T11:36:17.001Z</time></trkpt><trkpt lat="44.72545753949222" lon="9.571081490677784"><ele>690.2</ele><time>2026-04-22T11:36:19.001Z</time></trkpt><trkpt lat="44.725486699652066" lon="9.571186880146664"><ele>688.6</ele><time>2026-04-22T11:36:20.001Z</time></trkpt><trkpt lat="44.72552679523742" lon="9.571306878161263"><ele>687.0</ele><time>2026-04-22T11:36:21.001Z</time></trkpt><trkpt lat="44.72555741289201" lon="9.571421120284654"><ele>685.2</ele><time>2026-04-22T11:36:22.001Z</time></trkpt><trkpt lat="44.7255613328284" lon="9.571606172917788"><ele>683.4000000000001</ele><time>2026-04-22T11:36:24.001Z</time></trkpt><trkpt lat="44.72555918229284" lon="9.571700341980591"><ele>681.5999999999999</ele><time>2026-04-22T11:36:25.001Z</time></trkpt><trkpt lat="44.72547243632618" lon="9.57179674564479"><ele>679.8</ele><time>2026-04-22T11:36:28.001Z</time></trkpt><trkpt lat="44.72540640039592" lon="9.571861763820737"><ele>678.0</ele><time>2026-04-22T11:36:30.001Z</time></trkpt><trkpt lat="44.72549761723759" lon="9.571873237996982"><ele>678.0</ele><time>2026-04-22T11:36:37.001Z</time></trkpt><trkpt lat="44.72562340059831" lon="9.571901350160351"><ele>678.0</ele><time>2026-04-22T11:36:39.001Z</time></trkpt><trkpt lat="44.72575078851115" lon="9.571893248730278"><ele>678.0</ele><time>2026-04-22T11:36:40.001Z</time></trkpt><trkpt lat="44.72589782996809" lon="9.571884519698987"><ele>678.0</ele><time>2026-04-22T11:36:41.001Z</time></trkpt><trkpt lat="44.72602477712452" lon="9.57187558213449"><ele>679.2</ele><time>2026-04-22T11:36:42.001Z</time></trkpt><trkpt lat="44.7261339158346" lon="9.57187553532556"><ele>680.4</ele><time>2026-04-22T11:36:43.001Z</time></trkpt><trkpt lat="44.72622439802597" lon="9.571878114474622"><ele>681.6</ele><time>2026-04-22T11:36:44.001Z</time></trkpt><trkpt lat="44.72631313007864" lon="9.571894208236424"><ele>682.8000000000001</ele><time>2026-04-22T11:36:45.001Z</time></trkpt><trkpt lat="44.72640277635285" lon="9.571908379099652"><ele>684.0</ele><time>2026-04-22T11:36:46.001Z</time></trkpt><trkpt lat="44.72649996995898" lon="9.571916046624283"><ele>684.0</ele><time>2026-04-22T11:36:47.001Z</time></trkpt><trkpt lat="44.72660696439061" lon="9.571925082016282"><ele>684.0</ele><time>2026-04-22T11:36:48.001Z</time></trkpt><trkpt lat="44.72672954816647" lon="9.571931610005109"><ele>684.0</ele><time>2026-04-22T11:36:49.001Z</time></trkpt><trkpt lat="44.72683653830146" lon="9.57193025481039"><ele>684.0</ele><time>2026-04-22T11:36:50.001Z</time></trkpt><trkpt lat="44.72691633959535" lon="9.571919412965025"><ele>684.0</ele><time>2026-04-22T11:36:51.001Z</time></trkpt><trkpt lat="44.72700169892713" lon="9.571913528927325"><ele>681.8000000000001</ele><time>2026-04-22T11:36:52.001Z</time></trkpt><trkpt lat="44.72707178866794" lon="9.57188577885505"><ele>679.6</ele><time>2026-04-22T11:36:53.001Z</time></trkpt><trkpt lat="44.727038179155436" lon="9.57172939322601"><ele>677.4</ele><time>2026-04-22T11:36:55.001Z</time></trkpt><trkpt lat="44.72698430524551" lon="9.57167209671805"><ele>675.2</ele><time>2026-04-22T11:36:56.001Z</time></trkpt><trkpt lat="44.72692515421333" lon="9.57161252770719"><ele>673.0</ele><time>2026-04-22T11:36:57.001Z</time></trkpt><trkpt lat="44.726933630622185" lon="9.571436292701973"><ele>673.0</ele><time>2026-04-22T11:36:59.001Z</time></trkpt><trkpt lat="44.727017013390494" lon="9.571276139340158"><ele>673.0</ele><time>2026-04-22T11:37:00.001Z</time></trkpt><trkpt lat="44.727059458404064" lon="9.571156778257308"><ele>673.0</ele><time>2026-04-22T11:37:01.001Z</time></trkpt><trkpt lat="44.72712317211024" lon="9.571208794565186"><ele>673.0</ele><time>2026-04-22T11:37:03.001Z</time></trkpt><trkpt lat="44.72710573395943" lon="9.571300856172288"><ele>673.0</ele><time>2026-04-22T11:37:04.001Z</time></trkpt><trkpt lat="44.72703178627201" lon="9.571412230024135"><ele>673.0</ele><time>2026-04-22T11:37:05.001Z</time></trkpt><trkpt lat="44.72693317870879" lon="9.571531053754953"><ele>673.0</ele><time>2026-04-22T11:37:06.001Z</time></trkpt><trkpt lat="44.72690608923961" lon="9.571622102139289"><ele>673.0</ele><time>2026-04-22T11:37:08.001Z</time></trkpt><trkpt lat="44.726836113998615" lon="9.571731966204675"><ele>673.0</ele><time>2026-04-22T11:37:10.001Z</time></trkpt><trkpt lat="44.72677083776562" lon="9.571688127680826"><ele>673.0</ele><time>2026-04-22T11:37:12.001Z</time></trkpt><trkpt lat="44.72683229177131" lon="9.571630488375616"><ele>673.0</ele><time>2026-04-22T11:42:44Z</time></trkpt><trkpt lat="44.726887103124895" lon="9.571583563800068"><ele>673.0</ele><time>2026-04-22T11:43:25Z</time></trkpt><trkpt lat="44.72692124942025" lon="9.571499836183541"><ele>673.0</ele><time>2026-04-22T11:43:26Z</time></trkpt><trkpt lat="44.726954478742655" lon="9.571408731981451"><ele>673.0</ele><time>2026-04-22T11:43:27Z</time></trkpt><trkpt lat="44.72699858261739" lon="9.571319454315926"><ele>673.0</ele><time>2026-04-22T11:43:28Z</time></trkpt><trkpt lat="44.72704955960688" lon="9.571233737802785"><ele>673.0</ele><time>2026-04-22T11:43:29Z</time></trkpt><trkpt lat="44.72711112390614" lon="9.571177459834548"><ele>673.0</ele><time>2026-04-22T11:43:30Z</time></trkpt><trkpt lat="44.727173501208654" lon="9.571140931622722"><ele>674.8</ele><time>2026-04-22T11:43:31Z</time></trkpt><trkpt lat="44.72718132069664" lon="9.57098811357876"><ele>676.5999999999999</ele><time>2026-04-22T11:43:34Z</time></trkpt><trkpt lat="44.727163260760996" lon="9.57089747760977"><ele>678.4000000000001</ele><time>2026-04-22T11:43:35Z</time></trkpt><trkpt lat="44.72714229398142" lon="9.57074747582091"><ele>680.2</ele><time>2026-04-22T11:43:37Z</time></trkpt><trkpt lat="44.727128572684435" lon="9.570652222898069"><ele>682.0</ele><time>2026-04-22T11:43:38Z</time></trkpt><trkpt lat="44.72703241327003" lon="9.570393212529773"><ele>682.0</ele><time>2026-04-22T11:43:39Z</time></trkpt><trkpt lat="44.726975997899906" lon="9.570349856903627"><ele>682.0</ele><time>2026-04-22T11:43:40Z</time></trkpt><trkpt lat="44.72691006413438" lon="9.570381667229574"><ele>682.0</ele><time>2026-04-22T11:43:42Z</time></trkpt><trkpt lat="44.72691324905625" lon="9.570286756249365"><ele>682.0</ele><time>2026-04-22T11:43:44Z</time></trkpt><trkpt lat="44.72691491585888" lon="9.570188333206536"><ele>682.0</ele><time>2026-04-22T11:43:50Z</time></trkpt><trkpt lat="44.72701705909304" lon="9.570236805026836"><ele>682.0</ele><time>2026-04-22T11:44:14Z</time></trkpt><trkpt lat="44.727082164869756" lon="9.570279170872567"><ele>682.0</ele><time>2026-04-22T11:44:15Z</time></trkpt><trkpt lat="44.72718575652655" lon="9.570325330683806"><ele>682.0</ele><time>2026-04-22T11:44:17Z</time></trkpt><trkpt lat="44.72724718318397" lon="9.570390070866791"><ele>682.0</ele><time>2026-04-22T11:44:19Z</time></trkpt><trkpt lat="44.7273410486677" lon="9.570320043770915"><ele>682.0</ele><time>2026-04-22T11:44:21Z</time></trkpt><trkpt lat="44.727408411506964" lon="9.570277813132112"><ele>682.0</ele><time>2026-04-22T11:44:22Z</time></trkpt><trkpt lat="44.72747681623531" lon="9.570260870264951"><ele>682.0</ele><time>2026-04-22T11:44:23Z</time></trkpt><trkpt lat="44.72750788123157" lon="9.570367013428472"><ele>682.0</ele><time>2026-04-22T11:44:25Z</time></trkpt><trkpt lat="44.727581184603345" lon="9.570466221477448"><ele>682.0</ele><time>2026-04-22T11:44:27Z</time></trkpt><trkpt lat="44.727540709199985" lon="9.570580033795567"><ele>682.0</ele><time>2026-04-22T11:44:29Z</time></trkpt><trkpt lat="44.72746744886828" lon="9.570599318070869"><ele>682.0</ele><time>2026-04-22T11:44:30Z</time></trkpt><trkpt lat="44.72738304440288" lon="9.570617288427595"><ele>682.0</ele><time>2026-04-22T11:44:31Z</time></trkpt><trkpt lat="44.72729463257834" lon="9.570638147726669"><ele>682.0</ele><time>2026-04-22T11:44:32Z</time></trkpt><trkpt lat="44.72721465180973" lon="9.570653854932631"><ele>682.0</ele><time>2026-04-22T11:44:33Z</time></trkpt><trkpt lat="44.727146279626645" lon="9.570656342655816"><ele>682.0</ele><time>2026-04-22T11:44:34Z</time></trkpt><trkpt lat="44.7270741010833" lon="9.570537344003757"><ele>682.0</ele><time>2026-04-22T11:44:37Z</time></trkpt><trkpt lat="44.727005342258884" lon="9.570425710153403"><ele>682.0</ele><time>2026-04-22T11:44:38Z</time></trkpt><trkpt lat="44.72692261484591" lon="9.570356477846868"><ele>682.0</ele><time>2026-04-22T11:44:39Z</time></trkpt><trkpt lat="44.726910003292886" lon="9.570257199297298"><ele>682.0</ele><time>2026-04-22T11:44:47Z</time></trkpt><trkpt lat="44.72688150828749" lon="9.570339472711977"><ele>682.0</ele><time>2026-04-22T11:45:16Z</time></trkpt><trkpt lat="44.7269496679481" lon="9.570413879024697"><ele>682.0</ele><time>2026-04-22T11:45:34Z</time></trkpt><trkpt lat="44.72688872993861" lon="9.570380940334724"><ele>682.0</ele><time>2026-04-22T11:47:07Z</time></trkpt><trkpt lat="44.72687926731664" lon="9.570287221735635"><ele>682.0</ele><time>2026-04-22T11:47:16Z</time></trkpt><trkpt lat="44.726886085551286" lon="9.57038473333158"><ele>682.0</ele><time>2026-04-22T11:47:57Z</time></trkpt><trkpt lat="44.72689615710094" lon="9.57029672648714"><ele>682.0</ele><time>2026-04-22T11:50:33Z</time></trkpt><trkpt lat="44.72693021222545" lon="9.570192833253817"><ele>682.0</ele><time>2026-04-22T11:53:13Z</time></trkpt><trkpt lat="44.72700236325135" lon="9.57021859904099"><ele>682.0</ele><time>2026-04-22T11:53:19Z</time></trkpt><trkpt lat="44.72708038733667" lon="9.570256743253399"><ele>682.0</ele><time>2026-04-22T11:53:21Z</time></trkpt><trkpt lat="44.727186297760326" lon="9.57029963948688"><ele>682.0</ele><time>2026-04-22T11:53:23Z</time></trkpt><trkpt lat="44.727266477767174" lon="9.570380427489875"><ele>682.0</ele><time>2026-04-22T11:53:25Z</time></trkpt><trkpt lat="44.727354050418576" lon="9.570314472052582"><ele>682.0</ele><time>2026-04-22T11:53:27Z</time></trkpt><trkpt lat="44.72741466696134" lon="9.570274966624064"><ele>682.0</ele><time>2026-04-22T11:53:28Z</time></trkpt><trkpt lat="44.72751130644561" lon="9.570284049898463"><ele>682.0</ele><time>2026-04-22T11:53:30Z</time></trkpt><trkpt lat="44.72754332301145" lon="9.57038101495163"><ele>682.0</ele><time>2026-04-22T11:53:32Z</time></trkpt><trkpt lat="44.727645479725524" lon="9.570473869862326"><ele>682.0</ele><time>2026-04-22T11:53:34Z</time></trkpt><trkpt lat="44.72771315623471" lon="9.57041275499115"><ele>682.0</ele><time>2026-04-22T11:53:37Z</time></trkpt><trkpt lat="44.727791267636015" lon="9.570404460567312"><ele>680.6</ele><time>2026-04-22T11:53:41Z</time></trkpt><trkpt lat="44.72786833995972" lon="9.570479401166807"><ele>679.2</ele><time>2026-04-22T11:53:44Z</time></trkpt><trkpt lat="44.727928901498196" lon="9.57050742940826"><ele>677.8</ele><time>2026-04-22T11:53:46Z</time></trkpt><trkpt lat="44.72799779035445" lon="9.570566805024464"><ele>676.4</ele><time>2026-04-22T11:53:48Z</time></trkpt><trkpt lat="44.72812669701254" lon="9.57065606809487"><ele>675.0</ele><time>2026-04-22T11:53:50Z</time></trkpt><trkpt lat="44.7281992782497" lon="9.570700305949407"><ele>675.0</ele><time>2026-04-22T11:53:51Z</time></trkpt><trkpt lat="44.72830705858941" lon="9.570676082478224"><ele>675.0</ele><time>2026-04-22T11:53:53Z</time></trkpt><trkpt lat="44.728361651928815" lon="9.570627388746992"><ele>675.0</ele><time>2026-04-22T11:53:54Z</time></trkpt><trkpt lat="44.72842051822266" lon="9.570594683983598"><ele>675.0</ele><time>2026-04-22T11:53:55Z</time></trkpt><trkpt lat="44.72850932320856" lon="9.57058850266361"><ele>675.0</ele><time>2026-04-22T11:53:57Z</time></trkpt><trkpt lat="44.728570242455774" lon="9.570563646115627"><ele>675.0</ele><time>2026-04-22T11:54:00Z</time></trkpt><trkpt lat="44.72861587127052" lon="9.570661463217505"><ele>675.0</ele><time>2026-04-22T11:54:17Z</time></trkpt><trkpt lat="44.72860892582872" lon="9.570755251870883"><ele>675.0</ele><time>2026-04-22T11:54:24Z</time></trkpt><trkpt lat="44.728579322209974" lon="9.57087600173579"><ele>675.0</ele><time>2026-04-22T11:54:26Z</time></trkpt><trkpt lat="44.72853444811073" lon="9.571002715074945"><ele>675.0</ele><time>2026-04-22T11:54:28Z</time></trkpt><trkpt lat="44.728514409881456" lon="9.571141110018063"><ele>675.0</ele><time>2026-04-22T11:54:30Z</time></trkpt><trkpt lat="44.72849592457323" lon="9.57127320130822"><ele>672.6666666666666</ele><time>2026-04-22T11:54:32Z</time></trkpt><trkpt lat="44.72847427142128" lon="9.57136466532977"><ele>670.3333333333334</ele><time>2026-04-22T11:54:34Z</time></trkpt><trkpt lat="44.7285539592406" lon="9.571394538180646"><ele>668.0</ele><time>2026-04-22T11:54:38Z</time></trkpt><trkpt lat="44.72864288065553" lon="9.571371559425167"><ele>665.6666666666667</ele><time>2026-04-22T11:54:40Z</time></trkpt><trkpt lat="44.72875351301738" lon="9.571373766924564"><ele>663.3333333333334</ele><time>2026-04-22T11:54:42Z</time></trkpt><trkpt lat="44.72884473558131" lon="9.57137030000996"><ele>661.0</ele><time>2026-04-22T11:54:45Z</time></trkpt><trkpt lat="44.72890995901437" lon="9.57138789090564"><ele>663.1666666666667</ele><time>2026-04-22T11:54:47Z</time></trkpt><trkpt lat="44.72896586478101" lon="9.571442142569813"><ele>665.3333333333334</ele><time>2026-04-22T11:54:51Z</time></trkpt><trkpt lat="44.72901937695483" lon="9.571350021128612"><ele>667.5</ele><time>2026-04-22T11:54:55Z</time></trkpt><trkpt lat="44.72904545532332" lon="9.571261306638835"><ele>669.6666666666666</ele><time>2026-04-22T11:55:06Z</time></trkpt><trkpt lat="44.72907994168229" lon="9.571118803469233"><ele>671.8333333333333</ele><time>2026-04-22T11:58:29Z</time></trkpt><trkpt lat="44.72912161809086" lon="9.571047884976464"><ele>674.0</ele><time>2026-04-22T11:58:45Z</time></trkpt><trkpt lat="44.729176569956174" lon="9.570998762782358"><ele>674.0</ele><time>2026-04-22T11:59:09Z</time></trkpt><trkpt lat="44.72924558267023" lon="9.571028248301392"><ele>674.0</ele><time>2026-04-22T11:59:11Z</time></trkpt><trkpt lat="44.72933199619833" lon="9.571030833077295"><ele>674.0</ele><time>2026-04-22T11:59:13Z</time></trkpt><trkpt lat="44.72936365091039" lon="9.570949973909862"><ele>674.0</ele><time>2026-04-22T11:59:16Z</time></trkpt><trkpt lat="44.72936417336643" lon="9.57083367464639"><ele>674.0</ele><time>2026-04-22T11:59:19Z</time></trkpt><trkpt lat="44.729363482140435" lon="9.570736875197884"><ele>674.0</ele><time>2026-04-22T11:59:21Z</time></trkpt><trkpt lat="44.72931478708076" lon="9.570619272006736"><ele>674.0</ele><time>2026-04-22T11:59:23Z</time></trkpt><trkpt lat="44.72925233266774" lon="9.57055741749821"><ele>674.0</ele><time>2026-04-22T11:59:24Z</time></trkpt><trkpt lat="44.72917455184382" lon="9.570481014635343"><ele>674.0</ele><time>2026-04-22T11:59:26Z</time></trkpt><trkpt lat="44.729085026731184" lon="9.570408242209766"><ele>674.0</ele><time>2026-04-22T11:59:30Z</time></trkpt><trkpt lat="44.72901650417392" lon="9.570343611117249"><ele>674.0</ele><time>2026-04-22T11:59:32Z</time></trkpt><trkpt lat="44.72897230843214" lon="9.570254543396725"><ele>674.0</ele><time>2026-04-22T11:59:34Z</time></trkpt><trkpt lat="44.72888670516622" lon="9.570224717267688"><ele>680.4000000000001</ele><time>2026-04-22T11:59:35Z</time></trkpt><trkpt lat="44.72881805272921" lon="9.570188429510576"><ele>686.8</ele><time>2026-04-22T11:59:36Z</time></trkpt><trkpt lat="44.728732155628855" lon="9.570053658764142"><ele>693.2</ele><time>2026-04-22T11:59:37.001Z</time></trkpt><trkpt lat="44.728656692147084" lon="9.570051127635335"><ele>699.5999999999999</ele><time>2026-04-22T11:59:38.001Z</time></trkpt><trkpt lat="44.72853569401066" lon="9.570070442922022"><ele>706.0</ele><time>2026-04-22T11:59:39.001Z</time></trkpt><trkpt lat="44.72846901912252" lon="9.570085202583467"><ele>706.0</ele><time>2026-04-22T11:59:40.001Z</time></trkpt><trkpt lat="44.728395379613396" lon="9.570109343041462"><ele>706.0</ele><time>2026-04-22T11:59:41.001Z</time></trkpt><trkpt lat="44.72827955611448" lon="9.570236437227148"><ele>706.0</ele><time>2026-04-22T11:59:42.001Z</time></trkpt><trkpt lat="44.72819984557514" lon="9.570208772399214"><ele>706.0</ele><time>2026-04-22T11:59:44.001Z</time></trkpt><trkpt lat="44.72813853208357" lon="9.57018544885698"><ele>706.0</ele><time>2026-04-22T11:59:46.001Z</time></trkpt><trkpt lat="44.72802878647649" lon="9.570151391053122"><ele>706.0</ele><time>2026-04-22T11:59:48.001Z</time></trkpt><trkpt lat="44.72795878477986" lon="9.57013126650068"><ele>706.0</ele><time>2026-04-22T11:59:49.001Z</time></trkpt><trkpt lat="44.72787053533805" lon="9.570123365294544"><ele>706.0</ele><time>2026-04-22T11:59:50.001Z</time></trkpt><trkpt lat="44.727786451801386" lon="9.570135364806802"><ele>706.0</ele><time>2026-04-22T11:59:51.001Z</time></trkpt><trkpt lat="44.727723042120395" lon="9.57013687535677"><ele>706.0</ele><time>2026-04-22T11:59:52.001Z</time></trkpt><trkpt lat="44.727660208733546" lon="9.57011815221278"><ele>706.0</ele><time>2026-04-22T11:59:56.001Z</time></trkpt><trkpt lat="44.72750713986085" lon="9.570073846458284"><ele>706.8</ele><time>2026-04-22T12:00:11Z</time></trkpt><trkpt lat="44.72741408135777" lon="9.570043415272428"><ele>707.5999999999999</ele><time>2026-04-22T12:00:12Z</time></trkpt><trkpt lat="44.727291856814425" lon="9.570011782293372"><ele>708.4</ele><time>2026-04-22T12:00:13Z</time></trkpt><trkpt lat="44.72720437525084" lon="9.56998953297483"><ele>709.2</ele><time>2026-04-22T12:00:14Z</time></trkpt><trkpt lat="44.727137098572044" lon="9.570007282544012"><ele>710.0</ele><time>2026-04-22T12:00:15Z</time></trkpt><trkpt lat="44.72706019117199" lon="9.57006007981373"><ele>710.0</ele><time>2026-04-22T12:00:16Z</time></trkpt><trkpt lat="44.72693324630682" lon="9.570128399674859"><ele>710.0</ele><time>2026-04-22T12:00:17Z</time></trkpt><trkpt lat="44.726785272186945" lon="9.570172198687775"><ele>710.0</ele><time>2026-04-22T12:00:18Z</time></trkpt><trkpt lat="44.72665233471305" lon="9.570186344202984"><ele>710.0</ele><time>2026-04-22T12:00:19Z</time></trkpt><trkpt lat="44.726590703617966" lon="9.570107030193498"><ele>711.6</ele><time>2026-04-22T12:00:22Z</time></trkpt><trkpt lat="44.72654288395959" lon="9.570006671429718"><ele>713.2</ele><time>2026-04-22T12:00:24Z</time></trkpt><trkpt lat="44.726499001925795" lon="9.569894343915864"><ele>714.8</ele><time>2026-04-22T12:00:26Z</time></trkpt><trkpt lat="44.72644269517045" lon="9.56972138279887"><ele>716.4</ele><time>2026-04-22T12:00:28Z</time></trkpt><trkpt lat="44.72639652331236" lon="9.569592022765521"><ele>718.0</ele><time>2026-04-22T12:00:29Z</time></trkpt><trkpt lat="44.72635856649886" lon="9.569468152600562"><ele>722.5</ele><time>2026-04-22T12:00:30Z</time></trkpt><trkpt lat="44.72630379113257" lon="9.569336102267185"><ele>727.0</ele><time>2026-04-22T12:00:32Z</time></trkpt><trkpt lat="44.72625049888063" lon="9.569273765992907"><ele>731.5</ele><time>2026-04-22T12:00:34Z</time></trkpt><trkpt lat="44.72618448236285" lon="9.56919485076294"><ele>736.0</ele><time>2026-04-22T12:00:42Z</time></trkpt><trkpt lat="44.7261514949038" lon="9.569080768647956"><ele>740.5</ele><time>2026-04-22T12:00:45Z</time></trkpt><trkpt lat="44.726130275936264" lon="9.568963739717017"><ele>745.0</ele><time>2026-04-22T12:00:48Z</time></trkpt><trkpt lat="44.72610950729672" lon="9.568877263706673"><ele>745.0</ele><time>2026-04-22T12:00:50Z</time></trkpt><trkpt lat="44.72608671390523" lon="9.568775489107834"><ele>745.0</ele><time>2026-04-22T12:00:55Z</time></trkpt><trkpt lat="44.72606429217934" lon="9.568666482555289"><ele>745.0</ele><time>2026-04-22T12:00:59Z</time></trkpt><trkpt lat="44.72606506071697" lon="9.568511338992568"><ele>745.0</ele><time>2026-04-22T12:01:02Z</time></trkpt><trkpt lat="44.726055894357295" lon="9.568417084781894"><ele>745.0</ele><time>2026-04-22T12:01:03Z</time></trkpt><trkpt lat="44.726015004568794" lon="9.5683073447263"><ele>745.0</ele><time>2026-04-22T12:01:05Z</time></trkpt><trkpt lat="44.72600808504725" lon="9.5682127749956"><ele>746.7142857142857</ele><time>2026-04-22T12:01:07Z</time></trkpt><trkpt lat="44.7260061975348" lon="9.56809414203311"><ele>748.4285714285713</ele><time>2026-04-22T12:01:10Z</time></trkpt><trkpt lat="44.72602419706438" lon="9.567996603814654"><ele>750.1428571428571</ele><time>2026-04-22T12:01:13Z</time></trkpt><trkpt lat="44.72604186356822" lon="9.56790481484358"><ele>751.8571428571429</ele><time>2026-04-22T12:01:17Z</time></trkpt><trkpt lat="44.72603535768886" lon="9.567813880260523"><ele>753.5714285714286</ele><time>2026-04-22T12:01:45.001Z</time></trkpt><trkpt lat="44.72605803135252" lon="9.567728541801573"><ele>755.2857142857143</ele><time>2026-04-22T12:01:49.001Z</time></trkpt><trkpt lat="44.726088883461905" lon="9.56760827902577"><ele>757.0</ele><time>2026-04-22T12:01:52.001Z</time></trkpt><trkpt lat="44.7261203555858" lon="9.567507982118135"><ele>757.0</ele><time>2026-04-22T12:01:54.001Z</time></trkpt><trkpt lat="44.72616633547403" lon="9.567414106568474"><ele>757.0</ele><time>2026-04-22T12:01:58Z</time></trkpt><trkpt lat="44.726164314370074" lon="9.567306088707364"><ele>757.0</ele><time>2026-04-22T12:02:02Z</time></trkpt><trkpt lat="44.72610755327403" lon="9.567346632890652"><ele>757.0</ele><time>2026-04-22T12:02:04Z</time></trkpt><trkpt lat="44.72602171190738" lon="9.56745891600521"><ele>757.0</ele><time>2026-04-22T12:02:06Z</time></trkpt><trkpt lat="44.72597069399629" lon="9.567526316695982"><ele>757.0</ele><time>2026-04-22T12:02:07Z</time></trkpt><trkpt lat="44.725877522831546" lon="9.567564650600387"><ele>752.0</ele><time>2026-04-22T12:02:08Z</time></trkpt><trkpt lat="44.72582642667171" lon="9.567667726936877"><ele>747.0</ele><time>2026-04-22T12:02:09Z</time></trkpt><trkpt lat="44.725766674237434" lon="9.567755862698814"><ele>742.0</ele><time>2026-04-22T12:02:10Z</time></trkpt><trkpt lat="44.72568358911244" lon="9.567751268786786"><ele>737.0</ele><time>2026-04-22T12:02:12Z</time></trkpt><trkpt lat="44.72568258010014" lon="9.567555851134331"><ele>732.0</ele><time>2026-04-22T12:02:14Z</time></trkpt><trkpt lat="44.72571957536731" lon="9.567396325987055"><ele>732.0</ele><time>2026-04-22T12:02:15Z</time></trkpt><trkpt lat="44.725784003455416" lon="9.567226020592907"><ele>732.0</ele><time>2026-04-22T12:02:16Z</time></trkpt><trkpt lat="44.72583637294845" lon="9.567050882269246"><ele>732.0</ele><time>2026-04-22T12:02:17Z</time></trkpt><trkpt lat="44.72587965642573" lon="9.566865014204744"><ele>732.0</ele><time>2026-04-22T12:02:18Z</time></trkpt><trkpt lat="44.7259197247188" lon="9.566683557733931"><ele>729.5</ele><time>2026-04-22T12:02:19Z</time></trkpt><trkpt lat="44.725937147208086" lon="9.56650350447823"><ele>727.0</ele><time>2026-04-22T12:02:20Z</time></trkpt><trkpt lat="44.725920613962" lon="9.566306754100806"><ele>724.5</ele><time>2026-04-22T12:02:21Z</time></trkpt><trkpt lat="44.7258600893487" lon="9.56609305578031"><ele>722.0</ele><time>2026-04-22T12:02:22Z</time></trkpt><trkpt lat="44.725800374327875" lon="9.565880610853537"><ele>721.6666666666666</ele><time>2026-04-22T12:02:23Z</time></trkpt><trkpt lat="44.72576617077508" lon="9.565680347604983"><ele>721.3333333333334</ele><time>2026-04-22T12:02:24Z</time></trkpt><trkpt lat="44.72565578032964" lon="9.565506564130208"><ele>721.0</ele><time>2026-04-22T12:02:25Z</time></trkpt><trkpt lat="44.72557387483808" lon="9.565337138603322"><ele>721.0</ele><time>2026-04-22T12:02:26Z</time></trkpt><trkpt lat="44.72554638869832" lon="9.565150354874582"><ele>721.0</ele><time>2026-04-22T12:02:27Z</time></trkpt><trkpt lat="44.72552519275237" lon="9.564940914499768"><ele>721.0</ele><time>2026-04-22T12:02:28Z</time></trkpt><trkpt lat="44.72550507405687" lon="9.56468967731268"><ele>722.0</ele><time>2026-04-22T12:02:29Z</time></trkpt><trkpt lat="44.72545944007836" lon="9.564461676239851"><ele>723.0</ele><time>2026-04-22T12:02:30Z</time></trkpt><trkpt lat="44.72540130175534" lon="9.564261397455926"><ele>724.0</ele><time>2026-04-22T12:02:31Z</time></trkpt><trkpt lat="44.72531835557011" lon="9.564081002962844"><ele>720.3333333333334</ele><time>2026-04-22T12:02:32Z</time></trkpt><trkpt lat="44.725228366748944" lon="9.563907336969741"><ele>716.6666666666666</ele><time>2026-04-22T12:02:33Z</time></trkpt><trkpt lat="44.725116531630405" lon="9.563754777105478"><ele>713.0</ele><time>2026-04-22T12:02:34Z</time></trkpt><trkpt lat="44.724976373220244" lon="9.56363547276344"><ele>713.0</ele><time>2026-04-22T12:02:35Z</time></trkpt><trkpt lat="44.724836355777825" lon="9.56354192320266"><ele>713.0</ele><time>2026-04-22T12:02:36Z</time></trkpt><trkpt lat="44.72472641164183" lon="9.563480453743761"><ele>713.0</ele><time>2026-04-22T12:02:37Z</time></trkpt><trkpt lat="44.72462936169977" lon="9.563444582581873"><ele>713.0</ele><time>2026-04-22T12:02:38Z</time></trkpt><trkpt lat="44.724517562688675" lon="9.563457571513316"><ele>709.75</ele><time>2026-04-22T12:02:39Z</time></trkpt><trkpt lat="44.72438368904752" lon="9.563531317371899"><ele>706.5</ele><time>2026-04-22T12:02:40Z</time></trkpt><trkpt lat="44.72426145014737" lon="9.563590094816837"><ele>703.25</ele><time>2026-04-22T12:02:41Z</time></trkpt><trkpt lat="44.72416137167598" lon="9.563589627534377"><ele>700.0</ele><time>2026-04-22T12:02:42Z</time></trkpt><trkpt lat="44.72404235935123" lon="9.563493321172746"><ele>700.0</ele><time>2026-04-22T12:02:43Z</time></trkpt><trkpt lat="44.72390850375729" lon="9.563347156693826"><ele>700.0</ele><time>2026-04-22T12:02:44Z</time></trkpt><trkpt lat="44.723770632208435" lon="9.563179855716193"><ele>700.0</ele><time>2026-04-22T12:02:45Z</time></trkpt><trkpt lat="44.7236063864885" lon="9.563088048553437"><ele>700.8</ele><time>2026-04-22T12:02:46Z</time></trkpt><trkpt lat="44.723507200286676" lon="9.562969682315284"><ele>701.6</ele><time>2026-04-22T12:02:47Z</time></trkpt><trkpt lat="44.72339977228986" lon="9.56285473230596"><ele>702.4000000000001</ele><time>2026-04-22T12:02:48Z</time></trkpt><trkpt lat="44.72331622310314" lon="9.56279612225409"><ele>703.2</ele><time>2026-04-22T12:02:49Z</time></trkpt><trkpt lat="44.723251565053225" lon="9.562758028921643"><ele>704.0</ele><time>2026-04-22T12:02:50Z</time></trkpt><trkpt lat="44.72317284561155" lon="9.56282865843454"><ele>698.8000000000001</ele><time>2026-04-22T12:02:52Z</time></trkpt><trkpt lat="44.723146144694205" lon="9.562922273819131"><ele>693.6</ele><time>2026-04-22T12:02:53Z</time></trkpt><trkpt lat="44.72320361230354" lon="9.563023193403712"><ele>688.4</ele><time>2026-04-22T12:02:54Z</time></trkpt><trkpt lat="44.723293847266554" lon="9.563097293164988"><ele>683.2</ele><time>2026-04-22T12:02:55Z</time></trkpt><trkpt lat="44.72337140946946" lon="9.563142094640368"><ele>678.0</ele><time>2026-04-22T12:02:56Z</time></trkpt><trkpt lat="44.7234365289765" lon="9.563248792824629"><ele>678.0</ele><time>2026-04-22T12:02:57Z</time></trkpt><trkpt lat="44.7235053953279" lon="9.563346219112187"><ele>678.0</ele><time>2026-04-22T12:02:58Z</time></trkpt><trkpt lat="44.723565649408684" lon="9.563460513696239"><ele>678.0</ele><time>2026-04-22T12:02:59Z</time></trkpt><trkpt lat="44.72363187521644" lon="9.56355424715726"><ele>678.0</ele><time>2026-04-22T12:03:00Z</time></trkpt><trkpt lat="44.72369417015734" lon="9.563659238657303"><ele>678.0</ele><time>2026-04-22T12:03:01Z</time></trkpt><trkpt lat="44.72377828928342" lon="9.563724915655845"><ele>677.0</ele><time>2026-04-22T12:03:02Z</time></trkpt><trkpt lat="44.72384636977761" lon="9.56376694752335"><ele>676.0</ele><time>2026-04-22T12:03:03Z</time></trkpt><trkpt lat="44.72389118306927" lon="9.563851256377939"><ele>675.0</ele><time>2026-04-22T12:03:05Z</time></trkpt><trkpt lat="44.723838801215464" lon="9.563917365377941"><ele>674.0</ele><time>2026-04-22T12:03:06Z</time></trkpt><trkpt lat="44.723753201874565" lon="9.563920382712233"><ele>673.0</ele><time>2026-04-22T12:03:07Z</time></trkpt><trkpt lat="44.72366393328634" lon="9.563814428757023"><ele>672.0</ele><time>2026-04-22T12:03:08Z</time></trkpt><trkpt lat="44.72353387127574" lon="9.563735894451613"><ele>674.0</ele><time>2026-04-22T12:03:09Z</time></trkpt><trkpt lat="44.72341238979354" lon="9.563621367555323"><ele>676.0</ele><time>2026-04-22T12:03:10Z</time></trkpt><trkpt lat="44.72330409818614" lon="9.563469437939863"><ele>678.0</ele><time>2026-04-22T12:03:11Z</time></trkpt><trkpt lat="44.72317653576426" lon="9.563329337099011"><ele>678.0</ele><time>2026-04-22T12:03:12Z</time></trkpt><trkpt lat="44.72305197652871" lon="9.563199995289775"><ele>678.0</ele><time>2026-04-22T12:03:13Z</time></trkpt><trkpt lat="44.72289482587461" lon="9.563067026216121"><ele>678.0</ele><time>2026-04-22T12:03:14Z</time></trkpt><trkpt lat="44.722763755759516" lon="9.562930214051573"><ele>677.0</ele><time>2026-04-22T12:03:15Z</time></trkpt><trkpt lat="44.72265857892596" lon="9.562825993847499"><ele>676.0</ele><time>2026-04-22T12:03:16Z</time></trkpt><trkpt lat="44.722600500973314" lon="9.562757052198936"><ele>675.0</ele><time>2026-04-22T12:03:17Z</time></trkpt><trkpt lat="44.722540492095696" lon="9.562702393612868"><ele>674.0</ele><time>2026-04-22T12:03:18Z</time></trkpt><trkpt lat="44.72235887002443" lon="9.562620701298012"><ele>674.0</ele><time>2026-04-22T12:03:19Z</time></trkpt><trkpt lat="44.722223497628676" lon="9.562680802224413"><ele>674.0</ele><time>2026-04-22T12:03:20Z</time></trkpt><trkpt lat="44.7220637431296" lon="9.562654891984266"><ele>674.0</ele><time>2026-04-22T12:03:21Z</time></trkpt><trkpt lat="44.721898834396484" lon="9.56255748085257"><ele>669.0</ele><time>2026-04-22T12:03:22Z</time></trkpt><trkpt lat="44.721775078069236" lon="9.562452528629905"><ele>664.0</ele><time>2026-04-22T12:03:23Z</time></trkpt><trkpt lat="44.721677931430854" lon="9.56235861254864"><ele>659.0</ele><time>2026-04-22T12:03:24Z</time></trkpt><trkpt lat="44.721601869587026" lon="9.56228962977035"><ele>654.0</ele><time>2026-04-22T12:03:25Z</time></trkpt><trkpt lat="44.72152981369903" lon="9.562247880022623"><ele>649.0</ele><time>2026-04-22T12:03:26Z</time></trkpt><trkpt lat="44.72143573877922" lon="9.562317371566975"><ele>649.0</ele><time>2026-04-22T12:03:28Z</time></trkpt><trkpt lat="44.72140902926795" lon="9.562440920115897"><ele>649.0</ele><time>2026-04-22T12:03:29Z</time></trkpt><trkpt lat="44.72136489478699" lon="9.562580822601124"><ele>649.0</ele><time>2026-04-22T12:03:30Z</time></trkpt><trkpt lat="44.72131441841072" lon="9.56272120553857"><ele>649.0</ele><time>2026-04-22T12:03:31Z</time></trkpt><trkpt lat="44.72120535659216" lon="9.562784979239797"><ele>649.0</ele><time>2026-04-22T12:03:32Z</time></trkpt><trkpt lat="44.721090271475454" lon="9.562887499959619"><ele>647.2</ele><time>2026-04-22T12:03:33Z</time></trkpt><trkpt lat="44.72102061754572" lon="9.562967925496771"><ele>645.4000000000001</ele><time>2026-04-22T12:03:34Z</time></trkpt><trkpt lat="44.72094456171299" lon="9.56295789962019"><ele>643.6</ele><time>2026-04-22T12:03:35Z</time></trkpt><trkpt lat="44.72088722199584" lon="9.562903877850363"><ele>641.8</ele><time>2026-04-22T12:03:36Z</time></trkpt><trkpt lat="44.72083418766654" lon="9.562794016488008"><ele>640.0</ele><time>2026-04-22T12:03:37Z</time></trkpt><trkpt lat="44.7208516023157" lon="9.562578249985568"><ele>640.0</ele><time>2026-04-22T12:03:38Z</time></trkpt><trkpt lat="44.72086589800271" lon="9.56244911336773"><ele>640.0</ele><time>2026-04-22T12:03:39Z</time></trkpt><trkpt lat="44.72087736335335" lon="9.562280700622498"><ele>640.0</ele><time>2026-04-22T12:03:40Z</time></trkpt><trkpt lat="44.72091950285822" lon="9.562116590889294"><ele>640.0</ele><time>2026-04-22T12:03:41Z</time></trkpt><trkpt lat="44.72101575709482" lon="9.561861984292884"><ele>639.25</ele><time>2026-04-22T12:03:42Z</time></trkpt><trkpt lat="44.72107746526374" lon="9.561662809384236"><ele>638.5</ele><time>2026-04-22T12:03:43Z</time></trkpt><trkpt lat="44.72111162714214" lon="9.561499010027205"><ele>637.75</ele><time>2026-04-22T12:03:44Z</time></trkpt><trkpt lat="44.721109160208215" lon="9.561364770582033"><ele>637.0</ele><time>2026-04-22T12:03:45Z</time></trkpt><trkpt lat="44.72101640727973" lon="9.561238322208883"><ele>640.6666666666667</ele><time>2026-04-22T12:03:46Z</time></trkpt><trkpt lat="44.720930380290625" lon="9.561036952558313"><ele>644.3333333333334</ele><time>2026-04-22T12:03:47Z</time></trkpt><trkpt lat="44.72084046759634" lon="9.560829765774104"><ele>648.0</ele><time>2026-04-22T12:03:48Z</time></trkpt><trkpt lat="44.72075262238528" lon="9.5606912650758"><ele>648.0</ele><time>2026-04-22T12:03:49Z</time></trkpt><trkpt lat="44.72065049628453" lon="9.560590459365793"><ele>648.0</ele><time>2026-04-22T12:03:50Z</time></trkpt><trkpt lat="44.72056450327316" lon="9.560565505083826"><ele>648.0</ele><time>2026-04-22T12:03:51Z</time></trkpt><trkpt lat="44.720420772292655" lon="9.56053628168875"><ele>648.0</ele><time>2026-04-22T12:03:52Z</time></trkpt><trkpt lat="44.72031177263297" lon="9.560561104488048"><ele>642.5</ele><time>2026-04-22T12:03:53Z</time></trkpt><trkpt lat="44.720209960702256" lon="9.560549131928754"><ele>637.0</ele><time>2026-04-22T12:03:54Z</time></trkpt><trkpt lat="44.72012645019238" lon="9.56044194046464"><ele>631.5</ele><time>2026-04-22T12:03:55Z</time></trkpt><trkpt lat="44.72011305514653" lon="9.560286305393063"><ele>626.0</ele><time>2026-04-22T12:03:56Z</time></trkpt><trkpt lat="44.720047266536916" lon="9.5601331076863"><ele>626.0</ele><time>2026-04-22T12:03:57Z</time></trkpt><trkpt lat="44.71995773629342" lon="9.56006585307767"><ele>626.0</ele><time>2026-04-22T12:03:58Z</time></trkpt><trkpt lat="44.71984872781874" lon="9.560081894295779"><ele>626.0</ele><time>2026-04-22T12:03:59Z</time></trkpt><trkpt lat="44.71973212392696" lon="9.560144222917017"><ele>626.0</ele><time>2026-04-22T12:04:00Z</time></trkpt><trkpt lat="44.719623527273804" lon="9.560192365168367"><ele>626.0</ele><time>2026-04-22T12:04:01Z</time></trkpt><trkpt lat="44.719555048128015" lon="9.560095537895997"><ele>626.0</ele><time>2026-04-22T12:04:03Z</time></trkpt><trkpt lat="44.7195715368884" lon="9.55994197691798"><ele>626.0</ele><time>2026-04-22T12:04:05Z</time></trkpt><trkpt lat="44.71971155343792" lon="9.559848658603"><ele>626.0</ele><time>2026-04-22T12:04:06Z</time></trkpt><trkpt lat="44.719750938415295" lon="9.559655788336698"><ele>627.0</ele><time>2026-04-22T12:04:07Z</time></trkpt><trkpt lat="44.71972901507644" lon="9.55947659203266"><ele>628.0</ele><time>2026-04-22T12:04:08Z</time></trkpt><trkpt lat="44.71970121850598" lon="9.559317795643654"><ele>629.0</ele><time>2026-04-22T12:04:09Z</time></trkpt><trkpt lat="44.7196413634821" lon="9.559187370889344"><ele>630.0</ele><time>2026-04-22T12:04:10Z</time></trkpt><trkpt lat="44.719557204566" lon="9.559162720333909"><ele>631.0</ele><time>2026-04-22T12:04:11Z</time></trkpt><trkpt lat="44.71944781309537" lon="9.55916885420934"><ele>626.25</ele><time>2026-04-22T12:04:12Z</time></trkpt><trkpt lat="44.719350832363084" lon="9.559190503824345"><ele>621.5</ele><time>2026-04-22T12:04:13Z</time></trkpt><trkpt lat="44.71926344198353" lon="9.559310369371406"><ele>616.75</ele><time>2026-04-22T12:04:14Z</time></trkpt><trkpt lat="44.71916060704575" lon="9.559496706778397"><ele>612.0</ele><time>2026-04-22T12:04:15Z</time></trkpt><trkpt lat="44.71904574943868" lon="9.55974753945559"><ele>612.0</ele><time>2026-04-22T12:04:16Z</time></trkpt><trkpt lat="44.718980242722154" lon="9.55996762643814"><ele>612.0</ele><time>2026-04-22T12:04:17Z</time></trkpt><trkpt lat="44.71893120938447" lon="9.560202861059997"><ele>612.0</ele><time>2026-04-22T12:04:18Z</time></trkpt><trkpt lat="44.718891718110406" lon="9.560431396966976"><ele>613.0</ele><time>2026-04-22T12:04:19Z</time></trkpt><trkpt lat="44.71884233948369" lon="9.560646108386322"><ele>614.0</ele><time>2026-04-22T12:04:20Z</time></trkpt><trkpt lat="44.71880147747311" lon="9.560847774297105"><ele>615.0</ele><time>2026-04-22T12:04:21Z</time></trkpt><trkpt lat="44.71875410197639" lon="9.56104279117646"><ele>615.25</ele><time>2026-04-22T12:04:22Z</time></trkpt><trkpt lat="44.71869962160078" lon="9.561218138631174"><ele>615.5</ele><time>2026-04-22T12:04:23Z</time></trkpt><trkpt lat="44.71869055249717" lon="9.561363739884236"><ele>615.75</ele><time>2026-04-22T12:04:24Z</time></trkpt><trkpt lat="44.71872385374643" lon="9.56148913766188"><ele>616.0</ele><time>2026-04-22T12:04:25Z</time></trkpt><trkpt lat="44.71875967208027" lon="9.561671870372193"><ele>616.0</ele><time>2026-04-22T12:04:26Z</time></trkpt><trkpt lat="44.71875450701542" lon="9.561918263712482"><ele>616.0</ele><time>2026-04-22T12:04:27Z</time></trkpt><trkpt lat="44.718721106040896" lon="9.562137935769433"><ele>616.0</ele><time>2026-04-22T12:04:28Z</time></trkpt><trkpt lat="44.71870794426507" lon="9.562302404614808"><ele>615.75</ele><time>2026-04-22T12:04:29Z</time></trkpt><trkpt lat="44.718708068040556" lon="9.56245361286625"><ele>615.5</ele><time>2026-04-22T12:04:30Z</time></trkpt><trkpt lat="44.71874591490617" lon="9.562603014815455"><ele>615.25</ele><time>2026-04-22T12:04:31Z</time></trkpt><trkpt lat="44.71881425330177" lon="9.56278162552222"><ele>615.0</ele><time>2026-04-22T12:04:32Z</time></trkpt><trkpt lat="44.718888424765645" lon="9.56296326467165"><ele>611.25</ele><time>2026-04-22T12:04:33Z</time></trkpt><trkpt lat="44.71897088253654" lon="9.563134632260839"><ele>607.5</ele><time>2026-04-22T12:04:34Z</time></trkpt><trkpt lat="44.719055442137986" lon="9.563255704704712"><ele>603.75</ele><time>2026-04-22T12:04:35Z</time></trkpt><trkpt lat="44.71909460699777" lon="9.563367232547082"><ele>600.0</ele><time>2026-04-22T12:04:36Z</time></trkpt><trkpt lat="44.71901058160123" lon="9.563465833071938"><ele>600.0</ele><time>2026-04-22T12:04:38Z</time></trkpt><trkpt lat="44.718947195547635" lon="9.563465023959015"><ele>600.0</ele><time>2026-04-22T12:04:39Z</time></trkpt><trkpt lat="44.7187861098776" lon="9.563177637427485"><ele>600.0</ele><time>2026-04-22T12:04:41Z</time></trkpt><trkpt lat="44.718713307147425" lon="9.563020634892412"><ele>600.0</ele><time>2026-04-22T12:04:42Z</time></trkpt><trkpt lat="44.71862675639292" lon="9.56295170456254"><ele>600.0</ele><time>2026-04-22T12:04:43Z</time></trkpt><trkpt lat="44.71853856636023" lon="9.563047343821024"><ele>600.0</ele><time>2026-04-22T12:04:45Z</time></trkpt><trkpt lat="44.71850193716387" lon="9.563164997281934"><ele>600.0</ele><time>2026-04-22T12:04:46Z</time></trkpt><trkpt lat="44.718574844024126" lon="9.563370914268205"><ele>600.0</ele><time>2026-04-22T12:04:47Z</time></trkpt><trkpt lat="44.718693872039005" lon="9.563511361061687"><ele>600.0</ele><time>2026-04-22T12:04:48Z</time></trkpt><trkpt lat="44.71889436888706" lon="9.56368919905851"><ele>600.0</ele><time>2026-04-22T12:04:49Z</time></trkpt><trkpt lat="44.71907491518088" lon="9.563809977824773"><ele>596.25</ele><time>2026-04-22T12:04:50Z</time></trkpt><trkpt lat="44.71921714448964" lon="9.563945631794452"><ele>592.5</ele><time>2026-04-22T12:04:51Z</time></trkpt><trkpt lat="44.71932190338672" lon="9.564052293264837"><ele>588.75</ele><time>2026-04-22T12:04:52Z</time></trkpt><trkpt lat="44.71938019304263" lon="9.564158776329034"><ele>585.0</ele><time>2026-04-22T12:04:53Z</time></trkpt><trkpt lat="44.71939321202535" lon="9.56427531282677"><ele>585.0</ele><time>2026-04-22T12:04:54Z</time></trkpt><trkpt lat="44.71936702218374" lon="9.56441636506178"><ele>585.0</ele><time>2026-04-22T12:04:55Z</time></trkpt><trkpt lat="44.71925024520395" lon="9.564551246598544"><ele>585.0</ele><time>2026-04-22T12:04:56Z</time></trkpt><trkpt lat="44.71914327464028" lon="9.564761397970775"><ele>585.0</ele><time>2026-04-22T12:04:57Z</time></trkpt><trkpt lat="44.71904156258922" lon="9.564913239024637"><ele>584.0</ele><time>2026-04-22T12:04:58Z</time></trkpt><trkpt lat="44.718943083857155" lon="9.564978662069988"><ele>583.0</ele><time>2026-04-22T12:04:59Z</time></trkpt><trkpt lat="44.71881913285303" lon="9.564964219365805"><ele>582.0</ele><time>2026-04-22T12:05:00Z</time></trkpt><trkpt lat="44.7186495181957" lon="9.564936400098723"><ele>581.0</ele><time>2026-04-22T12:05:01Z</time></trkpt><trkpt lat="44.71851716883467" lon="9.564939462706862"><ele>578.0</ele><time>2026-04-22T12:05:02Z</time></trkpt><trkpt lat="44.71841979053357" lon="9.56495193683844"><ele>575.0</ele><time>2026-04-22T12:05:03Z</time></trkpt><trkpt lat="44.71834986220392" lon="9.565020173801292"><ele>572.0</ele><time>2026-04-22T12:05:04Z</time></trkpt><trkpt lat="44.718314521769486" lon="9.56512660452174"><ele>569.0</ele><time>2026-04-22T12:05:05Z</time></trkpt><trkpt lat="44.71831413051715" lon="9.565254200791863"><ele>566.0</ele><time>2026-04-22T12:05:06Z</time></trkpt><trkpt lat="44.71839637919908" lon="9.565394934423018"><ele>565.0</ele><time>2026-04-22T12:05:07Z</time></trkpt><trkpt lat="44.71849931967177" lon="9.565533233855371"><ele>564.0</ele><time>2026-04-22T12:05:08Z</time></trkpt><trkpt lat="44.7185862482892" lon="9.565659765205359"><ele>563.0</ele><time>2026-04-22T12:05:09Z</time></trkpt><trkpt lat="44.718627248104056" lon="9.565778145111706"><ele>562.0</ele><time>2026-04-22T12:05:10Z</time></trkpt><trkpt lat="44.71861063975065" lon="9.565873378562166"><ele>561.0</ele><time>2026-04-22T12:05:11Z</time></trkpt><trkpt lat="44.71856596091547" lon="9.565961473794731"><ele>561.0</ele><time>2026-04-22T12:05:12Z</time></trkpt><trkpt lat="44.71850411023956" lon="9.56609513818605"><ele>561.0</ele><time>2026-04-22T12:05:13Z</time></trkpt><trkpt lat="44.71839339047805" lon="9.56620684731575"><ele>561.0</ele><time>2026-04-22T12:05:14Z</time></trkpt><trkpt lat="44.71824622480323" lon="9.566223866202945"><ele>561.0</ele><time>2026-04-22T12:05:15Z</time></trkpt><trkpt lat="44.71811740490767" lon="9.566281756488129"><ele>562.8</ele><time>2026-04-22T12:05:16Z</time></trkpt><trkpt lat="44.718030602155636" lon="9.566322276671407"><ele>564.6</ele><time>2026-04-22T12:05:17Z</time></trkpt><trkpt lat="44.717979173139234" lon="9.566385255095783"><ele>566.4</ele><time>2026-04-22T12:05:18Z</time></trkpt><trkpt lat="44.717929181414775" lon="9.56648438567868"><ele>568.2</ele><time>2026-04-22T12:05:19Z</time></trkpt><trkpt lat="44.717886519955776" lon="9.566566114381049"><ele>570.0</ele><time>2026-04-22T12:05:20Z</time></trkpt><trkpt lat="44.717800624087246" lon="9.566805157972174"><ele>566.0</ele><time>2026-04-22T12:05:22Z</time></trkpt><trkpt lat="44.717700193229774" lon="9.56685098283231"><ele>562.0</ele><time>2026-04-22T12:05:23Z</time></trkpt><trkpt lat="44.717584887721216" lon="9.566705296100036"><ele>558.0</ele><time>2026-04-22T12:05:24Z</time></trkpt><trkpt lat="44.7175184080373" lon="9.566701543206111"><ele>554.0</ele><time>2026-04-22T12:05:25Z</time></trkpt><trkpt lat="44.717436730838884" lon="9.566673756227456"><ele>550.0</ele><time>2026-04-22T12:05:26Z</time></trkpt><trkpt lat="44.71734612504172" lon="9.5667031570784"><ele>550.0</ele><time>2026-04-22T12:05:28Z</time></trkpt><trkpt lat="44.71726855917973" lon="9.566710726525066"><ele>550.0</ele><time>2026-04-22T12:05:32Z</time></trkpt><trkpt lat="44.71719954567386" lon="9.566741086521631"><ele>550.0</ele><time>2026-04-22T12:05:33Z</time></trkpt><trkpt lat="44.71711007916616" lon="9.566767272858325"><ele>550.0</ele><time>2026-04-22T12:05:34Z</time></trkpt><trkpt lat="44.717010243991986" lon="9.566750774853897"><ele>550.0</ele><time>2026-04-22T12:05:35Z</time></trkpt><trkpt lat="44.71690118018907" lon="9.566789500906419"><ele>547.0</ele><time>2026-04-22T12:05:36Z</time></trkpt><trkpt lat="44.716819271075465" lon="9.566891815889436"><ele>544.0</ele><time>2026-04-22T12:05:37Z</time></trkpt><trkpt lat="44.71674608999547" lon="9.56701927588438"><ele>541.0</ele><time>2026-04-22T12:05:38Z</time></trkpt><trkpt lat="44.71669777486345" lon="9.567135738159077"><ele>538.0</ele><time>2026-04-22T12:05:39Z</time></trkpt><trkpt lat="44.716674072913115" lon="9.56723732638485"><ele>535.0</ele><time>2026-04-22T12:05:40Z</time></trkpt><trkpt lat="44.71671485403534" lon="9.567373864460722"><ele>534.8</ele><time>2026-04-22T12:05:41Z</time></trkpt><trkpt lat="44.71683013933041" lon="9.567455705443251"><ele>534.6</ele><time>2026-04-22T12:05:42Z</time></trkpt><trkpt lat="44.716920611577265" lon="9.567542057877784"><ele>534.4</ele><time>2026-04-22T12:05:43Z</time></trkpt><trkpt lat="44.716983266664386" lon="9.56764351706084"><ele>534.2</ele><time>2026-04-22T12:05:44Z</time></trkpt><trkpt lat="44.71702247221497" lon="9.567740529646738"><ele>534.0</ele><time>2026-04-22T12:05:45Z</time></trkpt><trkpt lat="44.71701865022346" lon="9.567872065106846"><ele>533.0</ele><time>2026-04-22T12:05:46Z</time></trkpt><trkpt lat="44.71698492087583" lon="9.568050823165555"><ele>532.0</ele><time>2026-04-22T12:05:47Z</time></trkpt><trkpt lat="44.71695125631138" lon="9.568233419772353"><ele>531.0</ele><time>2026-04-22T12:05:48Z</time></trkpt><trkpt lat="44.71692141895066" lon="9.568389912943926"><ele>530.0</ele><time>2026-04-22T12:05:49Z</time></trkpt><trkpt lat="44.716893464987294" lon="9.568510003769457"><ele>530.0</ele><time>2026-04-22T12:05:50Z</time></trkpt><trkpt lat="44.71688145367715" lon="9.568614334142277"><ele>530.0</ele><time>2026-04-22T12:05:51Z</time></trkpt><trkpt lat="44.71677968977647" lon="9.56868498220219"><ele>530.0</ele><time>2026-04-22T12:05:53Z</time></trkpt><trkpt lat="44.71671871029621" lon="9.568629466537885"><ele>530.0</ele><time>2026-04-22T12:05:54Z</time></trkpt><trkpt lat="44.716679499465066" lon="9.568525165866152"><ele>530.0</ele><time>2026-04-22T12:05:55Z</time></trkpt><trkpt lat="44.71673262692914" lon="9.568361213178076"><ele>530.0</ele><time>2026-04-22T12:05:56Z</time></trkpt><trkpt lat="44.71674274632669" lon="9.56817085767493"><ele>530.0</ele><time>2026-04-22T12:05:57Z</time></trkpt><trkpt lat="44.7167165148942" lon="9.568007185295668"><ele>530.0</ele><time>2026-04-22T12:05:58Z</time></trkpt><trkpt lat="44.716620219293844" lon="9.567927719475657"><ele>530.0</ele><time>2026-04-22T12:05:59Z</time></trkpt><trkpt lat="44.716503860729404" lon="9.567849580769325"><ele>531.0</ele><time>2026-04-22T12:06:00Z</time></trkpt><trkpt lat="44.71639421549352" lon="9.567730992802899"><ele>532.0</ele><time>2026-04-22T12:06:01Z</time></trkpt><trkpt lat="44.71631232179325" lon="9.567611479535817"><ele>533.0</ele><time>2026-04-22T12:06:02Z</time></trkpt><trkpt lat="44.716262864419164" lon="9.567496949481427"><ele>534.0</ele><time>2026-04-22T12:06:03Z</time></trkpt><trkpt lat="44.71628788532134" lon="9.567349984478048"><ele>534.0</ele><time>2026-04-22T12:06:04Z</time></trkpt><trkpt lat="44.716311296755286" lon="9.567247040721181"><ele>534.0</ele><time>2026-04-22T12:06:05Z</time></trkpt><trkpt lat="44.716188069630554" lon="9.567132811435402"><ele>534.0</ele><time>2026-04-22T12:06:07Z</time></trkpt><trkpt lat="44.71606739065678" lon="9.567206693351713"><ele>534.0</ele><time>2026-04-22T12:06:08Z</time></trkpt><trkpt lat="44.716004497908045" lon="9.567354805724067"><ele>528.75</ele><time>2026-04-22T12:06:09Z</time></trkpt><trkpt lat="44.71606021281965" lon="9.567487844200201"><ele>523.5</ele><time>2026-04-22T12:06:10Z</time></trkpt><trkpt lat="44.71602237133936" lon="9.567694258406357"><ele>518.25</ele><time>2026-04-22T12:06:11Z</time></trkpt><trkpt lat="44.71596873213434" lon="9.567895354002838"><ele>513.0</ele><time>2026-04-22T12:06:12Z</time></trkpt><trkpt lat="44.715961369037" lon="9.568068009178068"><ele>511.5</ele><time>2026-04-22T12:06:13Z</time></trkpt><trkpt lat="44.71601165731044" lon="9.56824059924627"><ele>510.0</ele><time>2026-04-22T12:06:14Z</time></trkpt><trkpt lat="44.71609604663598" lon="9.568404742383636"><ele>508.5</ele><time>2026-04-22T12:06:15Z</time></trkpt><trkpt lat="44.71621699776353" lon="9.568538162550855"><ele>507.0</ele><time>2026-04-22T12:06:16Z</time></trkpt><trkpt lat="44.71628420166105" lon="9.568635758355342"><ele>507.0</ele><time>2026-04-22T12:06:17Z</time></trkpt><trkpt lat="44.71625811961037" lon="9.56872753261387"><ele>507.00000000000006</ele><time>2026-04-22T12:06:20Z</time></trkpt><trkpt lat="44.71618619558805" lon="9.56867223280378"><ele>507.00000000000006</ele><time>2026-04-22T12:06:21Z</time></trkpt><trkpt lat="44.71608767668765" lon="9.568598324857065"><ele>507.0</ele><time>2026-04-22T12:06:22Z</time></trkpt><trkpt lat="44.716013404643114" lon="9.568530898348785"><ele>507.0</ele><time>2026-04-22T12:06:23Z</time></trkpt><trkpt lat="44.71586295567364" lon="9.568443497034798"><ele>507.0</ele><time>2026-04-22T12:06:24Z</time></trkpt><trkpt lat="44.71567696889541" lon="9.568326770021462"><ele>507.0</ele><time>2026-04-22T12:06:25Z</time></trkpt><trkpt lat="44.71559054995501" lon="9.56826067402721"><ele>507.0</ele><time>2026-04-22T12:06:26Z</time></trkpt><trkpt lat="44.7155150062029" lon="9.568167077213847"><ele>507.0</ele><time>2026-04-22T12:06:27Z</time></trkpt><trkpt lat="44.71548919297474" lon="9.56802196701563"><ele>507.0</ele><time>2026-04-22T12:06:28Z</time></trkpt><trkpt lat="44.715483925974894" lon="9.567870086663717"><ele>507.0</ele><time>2026-04-22T12:06:29Z</time></trkpt><trkpt lat="44.71551879740054" lon="9.567678162542087"><ele>507.0</ele><time>2026-04-22T12:06:30Z</time></trkpt><trkpt lat="44.71555857359973" lon="9.567439428828663"><ele>507.0</ele><time>2026-04-22T12:06:31Z</time></trkpt><trkpt lat="44.7155273576671" lon="9.56726663224592"><ele>508.5</ele><time>2026-04-22T12:06:32Z</time></trkpt><trkpt lat="44.715451632439965" lon="9.567103990683474"><ele>510.0</ele><time>2026-04-22T12:06:33Z</time></trkpt><trkpt lat="44.715356637319786" lon="9.566918545122162"><ele>511.5</ele><time>2026-04-22T12:06:34Z</time></trkpt><trkpt lat="44.71528785338171" lon="9.5667757027887"><ele>513.0</ele><time>2026-04-22T12:06:35Z</time></trkpt><trkpt lat="44.715169111392164" lon="9.566767860474666"><ele>513.0</ele><time>2026-04-22T12:06:37Z</time></trkpt><trkpt lat="44.71513938640928" lon="9.566848997918735"><ele>513.0</ele><time>2026-04-22T12:06:38Z</time></trkpt><trkpt lat="44.715188731224444" lon="9.5669707480615"><ele>513.0</ele><time>2026-04-22T12:06:40Z</time></trkpt><trkpt lat="44.715246658381645" lon="9.567102011506567"><ele>513.0</ele><time>2026-04-22T12:06:41Z</time></trkpt><trkpt lat="44.715296406224205" lon="9.567271578150287"><ele>513.0</ele><time>2026-04-22T12:06:42Z</time></trkpt><trkpt lat="44.7153200878852" lon="9.5673954932314"><ele>513.0</ele><time>2026-04-22T12:06:43Z</time></trkpt><trkpt lat="44.71532119177564" lon="9.567506632536267"><ele>513.0</ele><time>2026-04-22T12:06:44Z</time></trkpt><trkpt lat="44.71529482153035" lon="9.567661158610681"><ele>513.0</ele><time>2026-04-22T12:06:46Z</time></trkpt><trkpt lat="44.71526860475469" lon="9.567837116102496"><ele>513.0</ele><time>2026-04-22T12:06:48Z</time></trkpt><trkpt lat="44.715257605359504" lon="9.567937867634287"><ele>513.0</ele><time>2026-04-22T12:06:49Z</time></trkpt><trkpt lat="44.71525725007317" lon="9.568042855941615"><ele>511.5</ele><time>2026-04-22T12:06:50Z</time></trkpt><trkpt lat="44.71527034468838" lon="9.568176169071211"><ele>510.0</ele><time>2026-04-22T12:06:51Z</time></trkpt><trkpt lat="44.71525306417659" lon="9.568340633820672"><ele>508.5</ele><time>2026-04-22T12:06:52Z</time></trkpt><trkpt lat="44.71528840394174" lon="9.568498548755134"><ele>507.0</ele><time>2026-04-22T12:06:53Z</time></trkpt><trkpt lat="44.71531718004687" lon="9.568714219611326"><ele>504.75</ele><time>2026-04-22T12:06:54Z</time></trkpt><trkpt lat="44.71530717358291" lon="9.568918620335445"><ele>502.5</ele><time>2026-04-22T12:06:55Z</time></trkpt><trkpt lat="44.715279765082464" lon="9.569082084057783"><ele>500.25</ele><time>2026-04-22T12:06:56Z</time></trkpt><trkpt lat="44.715252890603445" lon="9.569187140953689"><ele>498.0</ele><time>2026-04-22T12:06:57Z</time></trkpt><trkpt lat="44.71514804435132" lon="9.569227875951345"><ele>493.0</ele><time>2026-04-22T12:06:59Z</time></trkpt><trkpt lat="44.7151297549454" lon="9.568904064449686"><ele>488.0</ele><time>2026-04-22T12:07:01Z</time></trkpt><trkpt lat="44.71517761889794" lon="9.568717324706533"><ele>483.0</ele><time>2026-04-22T12:07:02Z</time></trkpt><trkpt lat="44.71522878137293" lon="9.56854958637073"><ele>483.0</ele><time>2026-04-22T12:07:03Z</time></trkpt><trkpt lat="44.71519396410809" lon="9.56838541104314"><ele>483.0</ele><time>2026-04-22T12:07:04Z</time></trkpt><trkpt lat="44.71513337845369" lon="9.568249508872569"><ele>483.0</ele><time>2026-04-22T12:07:05Z</time></trkpt><trkpt lat="44.715068210549916" lon="9.568024061327261"><ele>483.0</ele><time>2026-04-22T12:07:06Z</time></trkpt><trkpt lat="44.71499903895991" lon="9.567822982822232"><ele>484.79999999999995</ele><time>2026-04-22T12:07:07Z</time></trkpt><trkpt lat="44.71494332894699" lon="9.567686009950325"><ele>486.59999999999997</ele><time>2026-04-22T12:07:08Z</time></trkpt><trkpt lat="44.714859055477426" lon="9.567587720262061"><ele>488.40000000000003</ele><time>2026-04-22T12:07:09Z</time></trkpt><trkpt lat="44.71475907599549" lon="9.56752601815269"><ele>490.20000000000005</ele><time>2026-04-22T12:07:10Z</time></trkpt><trkpt lat="44.714644935853514" lon="9.567517330385833"><ele>492.0</ele><time>2026-04-22T12:07:11Z</time></trkpt><trkpt lat="44.71452312351652" lon="9.56755206212305"><ele>489.20000000000005</ele><time>2026-04-22T12:07:12Z</time></trkpt><trkpt lat="44.714396799833715" lon="9.567576441680712"><ele>486.40000000000003</ele><time>2026-04-22T12:07:13Z</time></trkpt><trkpt lat="44.71427987430748" lon="9.567618733818856"><ele>483.59999999999997</ele><time>2026-04-22T12:07:14Z</time></trkpt><trkpt lat="44.71417560993067" lon="9.567647230725347"><ele>480.79999999999995</ele><time>2026-04-22T12:07:15Z</time></trkpt><trkpt lat="44.71408215198028" lon="9.567662848416987"><ele>478.0</ele><time>2026-04-22T12:07:16Z</time></trkpt><trkpt lat="44.71397619590024" lon="9.567670338224747"><ele>478.0</ele><time>2026-04-22T12:07:17Z</time></trkpt><trkpt lat="44.71386888123729" lon="9.567646395780393"><ele>477.99999999999994</ele><time>2026-04-22T12:07:18Z</time></trkpt><trkpt lat="44.71376580202428" lon="9.567585835709151"><ele>477.99999999999994</ele><time>2026-04-22T12:07:19Z</time></trkpt><trkpt lat="44.713705447044184" lon="9.567468063004222"><ele>478.0</ele><time>2026-04-22T12:07:20Z</time></trkpt><trkpt lat="44.71367991487362" lon="9.56733778769982"><ele>478.0</ele><time>2026-04-22T12:07:21Z</time></trkpt><trkpt lat="44.713669095852744" lon="9.567247390834254"><ele>473.25</ele><time>2026-04-22T12:07:22Z</time></trkpt><trkpt lat="44.713571085526745" lon="9.567158035695117"><ele>468.5</ele><time>2026-04-22T12:07:24Z</time></trkpt><trkpt lat="44.71348860554969" lon="9.567222907294717"><ele>463.75</ele><time>2026-04-22T12:07:25Z</time></trkpt><trkpt lat="44.713478232056225" lon="9.567397130372667"><ele>459.0</ele><time>2026-04-22T12:07:26Z</time></trkpt><trkpt lat="44.71354681957221" lon="9.567527631934466"><ele>459.0</ele><time>2026-04-22T12:07:27Z</time></trkpt><trkpt lat="44.713534503406656" lon="9.567694394847042"><ele>459.0</ele><time>2026-04-22T12:07:28Z</time></trkpt><trkpt lat="44.71351987921396" lon="9.567848036465767"><ele>459.0</ele><time>2026-04-22T12:07:29Z</time></trkpt><trkpt lat="44.713529026342876" lon="9.56800937623184"><ele>459.0</ele><time>2026-04-22T12:07:30Z</time></trkpt><trkpt lat="44.713526642721085" lon="9.568141403800773"><ele>459.0</ele><time>2026-04-22T12:07:31Z</time></trkpt><trkpt lat="44.713556505443044" lon="9.568254104820916"><ele>460.3333333333333</ele><time>2026-04-22T12:07:32Z</time></trkpt><trkpt lat="44.7136182863778" lon="9.568362966686625"><ele>461.66666666666663</ele><time>2026-04-22T12:07:33Z</time></trkpt><trkpt lat="44.71367359363245" lon="9.568451639423273"><ele>463.0</ele><time>2026-04-22T12:07:34Z</time></trkpt><trkpt lat="44.713641658388156" lon="9.568585523013303"><ele>464.3333333333333</ele><time>2026-04-22T12:07:36Z</time></trkpt><trkpt lat="44.71356332290812" lon="9.568559643229689"><ele>465.66666666666663</ele><time>2026-04-22T12:07:37Z</time></trkpt><trkpt lat="44.71349843435791" lon="9.568525033593836"><ele>467.0</ele><time>2026-04-22T12:07:38Z</time></trkpt><trkpt lat="44.71348564809943" lon="9.5683263353267"><ele>465.66666666666663</ele><time>2026-04-22T12:07:41Z</time></trkpt><trkpt lat="44.71344752369053" lon="9.568165924877647"><ele>464.3333333333333</ele><time>2026-04-22T12:07:42Z</time></trkpt><trkpt lat="44.71342142361406" lon="9.56807167714098"><ele>463.0</ele><time>2026-04-22T12:07:43Z</time></trkpt><trkpt lat="44.713393225650925" lon="9.567970025541669"><ele>461.66666666666663</ele><time>2026-04-22T12:07:44Z</time></trkpt><trkpt lat="44.713363997151845" lon="9.567864658861565"><ele>460.3333333333333</ele><time>2026-04-22T12:07:45Z</time></trkpt><trkpt lat="44.7133361772092" lon="9.567765046013816"><ele>459.0</ele><time>2026-04-22T12:07:46Z</time></trkpt><trkpt lat="44.71331087095694" lon="9.567683448595705"><ele>459.0</ele><time>2026-04-22T12:07:47Z</time></trkpt><trkpt lat="44.71324235194713" lon="9.567546872210443"><ele>459.0</ele><time>2026-04-22T12:07:49Z</time></trkpt><trkpt lat="44.71316959843231" lon="9.567546302390738"><ele>459.0</ele><time>2026-04-22T12:07:50Z</time></trkpt><trkpt lat="44.71311002369326" lon="9.567624625965825"><ele>459.0</ele><time>2026-04-22T12:07:51Z</time></trkpt><trkpt lat="44.7131765869347" lon="9.567817072926207"><ele>459.0</ele><time>2026-04-22T12:07:52Z</time></trkpt><trkpt lat="44.71322729657439" lon="9.567938166063497"><ele>457.4</ele><time>2026-04-22T12:07:53Z</time></trkpt><trkpt lat="44.71327614018727" lon="9.56806186156477"><ele>455.79999999999995</ele><time>2026-04-22T12:07:54Z</time></trkpt><trkpt lat="44.71331965034849" lon="9.568200170773839"><ele>454.20000000000005</ele><time>2026-04-22T12:07:55Z</time></trkpt><trkpt lat="44.713341455659425" lon="9.568335803911502"><ele>452.6</ele><time>2026-04-22T12:07:56Z</time></trkpt><trkpt lat="44.71337419346272" lon="9.568418580014109"><ele>451.0</ele><time>2026-04-22T12:07:57Z</time></trkpt><trkpt lat="44.71329436992197" lon="9.568464663329735"><ele>451.0</ele><time>2026-04-22T12:07:59Z</time></trkpt><trkpt lat="44.71324862747339" lon="9.568310365339373"><ele>451.0</ele><time>2026-04-22T12:08:01Z</time></trkpt><trkpt lat="44.71322504940996" lon="9.568189686050504"><ele>451.0</ele><time>2026-04-22T12:08:02Z</time></trkpt><trkpt lat="44.713170589872846" lon="9.568075851967624"><ele>451.0</ele><time>2026-04-22T12:08:03Z</time></trkpt><trkpt lat="44.71310491612918" lon="9.56797541257149"><ele>451.0</ele><time>2026-04-22T12:08:04Z</time></trkpt><trkpt lat="44.71302127694375" lon="9.567875919756363"><ele>451.00000000000006</ele><time>2026-04-22T12:08:05Z</time></trkpt><trkpt lat="44.71297396336335" lon="9.567799416643895"><ele>451.0</ele><time>2026-04-22T12:08:06Z</time></trkpt><trkpt lat="44.712911275920526" lon="9.567742125570438"><ele>451.0</ele><time>2026-04-22T12:08:07Z</time></trkpt><trkpt lat="44.712867295381" lon="9.567676624919047"><ele>451.0</ele><time>2026-04-22T12:08:09Z</time></trkpt><trkpt lat="44.712765024184876" lon="9.567706549100356"><ele>451.00000000000006</ele><time>2026-04-22T12:08:11Z</time></trkpt><trkpt lat="44.712730216618475" lon="9.567793609675817"><ele>451.0</ele><time>2026-04-22T12:08:12Z</time></trkpt><trkpt lat="44.712773025309446" lon="9.567921193198323"><ele>451.0</ele><time>2026-04-22T12:08:13Z</time></trkpt><trkpt lat="44.71286240998984" lon="9.567998788060857"><ele>451.0</ele><time>2026-04-22T12:08:14Z</time></trkpt><trkpt lat="44.71296139034848" lon="9.568040314131096"><ele>451.0</ele><time>2026-04-22T12:08:15Z</time></trkpt><trkpt lat="44.71303735671642" lon="9.568120311252816"><ele>451.0</ele><time>2026-04-22T12:08:16Z</time></trkpt><trkpt lat="44.713069853228745" lon="9.56825480970145"><ele>451.0</ele><time>2026-04-22T12:08:17Z</time></trkpt><trkpt lat="44.71308560276079" lon="9.56838073413442"><ele>451.00000000000006</ele><time>2026-04-22T12:08:18Z</time></trkpt><trkpt lat="44.71311011789115" lon="9.568512897711384"><ele>451.0</ele><time>2026-04-22T12:08:19Z</time></trkpt><trkpt lat="44.713134814468184" lon="9.568636678324433"><ele>451.0</ele><time>2026-04-22T12:08:20Z</time></trkpt><trkpt lat="44.713157948388606" lon="9.568748130434182"><ele>451.0</ele><time>2026-04-22T12:08:21Z</time></trkpt><trkpt lat="44.713176268906324" lon="9.568851691927497"><ele>451.00000000000006</ele><time>2026-04-22T12:08:23Z</time></trkpt><trkpt lat="44.71319786949006" lon="9.568971176124037"><ele>451.0</ele><time>2026-04-22T12:08:25Z</time></trkpt><trkpt lat="44.713347479416925" lon="9.568996206101632"><ele>449.6666666666667</ele><time>2026-04-22T12:08:26Z</time></trkpt><trkpt lat="44.7134009177435" lon="9.569064598365157"><ele>448.33333333333337</ele><time>2026-04-22T12:08:27Z</time></trkpt><trkpt lat="44.71345256866444" lon="9.569140358004818"><ele>447.0</ele><time>2026-04-22T12:08:28Z</time></trkpt><trkpt lat="44.7134920207799" lon="9.56922168278888"><ele>445.66666666666663</ele><time>2026-04-22T12:08:29Z</time></trkpt><trkpt lat="44.7135230659495" lon="9.569318986128035"><ele>444.3333333333333</ele><time>2026-04-22T12:08:30Z</time></trkpt><trkpt lat="44.71356559852624" lon="9.5694290307639"><ele>443.0</ele><time>2026-04-22T12:08:31Z</time></trkpt><trkpt lat="44.71360221680212" lon="9.569531233432304"><ele>442.99999999999994</ele><time>2026-04-22T12:08:32Z</time></trkpt><trkpt lat="44.713639136009924" lon="9.569634561784836"><ele>443.0</ele><time>2026-04-22T12:08:33Z</time></trkpt><trkpt lat="44.713673479885784" lon="9.56972702556538"><ele>443.0</ele><time>2026-04-22T12:08:34Z</time></trkpt><trkpt lat="44.713710187521045" lon="9.569824515004978"><ele>443.0</ele><time>2026-04-22T12:08:35Z</time></trkpt><trkpt lat="44.71374811906164" lon="9.569927750041368"><ele>442.99999999999994</ele><time>2026-04-22T12:08:36Z</time></trkpt><trkpt lat="44.71378773093198" lon="9.570035171389899"><ele>443.0</ele><time>2026-04-22T12:08:37Z</time></trkpt><trkpt lat="44.71383047161256" lon="9.570142599202617"><ele>443.0</ele><time>2026-04-22T12:08:38Z</time></trkpt><trkpt lat="44.71388452456885" lon="9.570260480225866"><ele>442.99999999999994</ele><time>2026-04-22T12:08:39Z</time></trkpt><trkpt lat="44.713953538371804" lon="9.570378957766565"><ele>442.99999999999994</ele><time>2026-04-22T12:08:40Z</time></trkpt><trkpt lat="44.71405470397944" lon="9.570457709525032"><ele>443.0</ele><time>2026-04-22T12:08:41Z</time></trkpt><trkpt lat="44.71416157774002" lon="9.570531836806765"><ele>443.0</ele><time>2026-04-22T12:08:42Z</time></trkpt><trkpt lat="44.7142949534983" lon="9.570577955464302"><ele>441.0</ele><time>2026-04-22T12:08:43Z</time></trkpt><trkpt lat="44.71443935313877" lon="9.570609144848245"><ele>439.0</ele><time>2026-04-22T12:08:44Z</time></trkpt><trkpt lat="44.714590220871735" lon="9.570648582304107"><ele>437.0</ele><time>2026-04-22T12:08:45Z</time></trkpt><trkpt lat="44.71474225326148" lon="9.570728034820242"><ele>437.0</ele><time>2026-04-22T12:08:46Z</time></trkpt><trkpt lat="44.714901082603895" lon="9.570795631081522"><ele>437.0</ele><time>2026-04-22T12:08:47Z</time></trkpt><trkpt lat="44.71504468948407" lon="9.570857806793114"><ele>437.0</ele><time>2026-04-22T12:08:48Z</time></trkpt><trkpt lat="44.71519635400596" lon="9.570899762196117"><ele>440.0</ele><time>2026-04-22T12:08:49Z</time></trkpt><trkpt lat="44.71535542900906" lon="9.570980824725195"><ele>443.0</ele><time>2026-04-22T12:08:50Z</time></trkpt><trkpt lat="44.71553986684103" lon="9.571025916542855"><ele>446.0</ele><time>2026-04-22T12:08:51Z</time></trkpt><trkpt lat="44.715733682401286" lon="9.57105916299806"><ele>446.0</ele><time>2026-04-22T12:08:52Z</time></trkpt><trkpt lat="44.71593418107296" lon="9.571074840445657"><ele>446.0</ele><time>2026-04-22T12:08:53Z</time></trkpt><trkpt lat="44.71612950292821" lon="9.571136675894454"><ele>446.0</ele><time>2026-04-22T12:08:54Z</time></trkpt><trkpt lat="44.716335846296964" lon="9.571237880368217"><ele>440.66666666666663</ele><time>2026-04-22T12:08:55Z</time></trkpt><trkpt lat="44.71653820065184" lon="9.57135278990003"><ele>435.33333333333337</ele><time>2026-04-22T12:08:56Z</time></trkpt><trkpt lat="44.71671296512318" lon="9.571426011229793"><ele>430.0</ele><time>2026-04-22T12:08:57Z</time></trkpt><trkpt lat="44.71688587108646" lon="9.571465916385094"><ele>434.6666666666667</ele><time>2026-04-22T12:08:58Z</time></trkpt><trkpt lat="44.71706431536105" lon="9.571500977752017"><ele>439.33333333333337</ele><time>2026-04-22T12:08:59Z</time></trkpt><trkpt lat="44.71721144493309" lon="9.5715906762532"><ele>444.0</ele><time>2026-04-22T12:09:00Z</time></trkpt><trkpt lat="44.717335502697466" lon="9.571744916265489"><ele>444.0</ele><time>2026-04-22T12:09:01Z</time></trkpt><trkpt lat="44.71744703726028" lon="9.571954677708547"><ele>444.0</ele><time>2026-04-22T12:09:02Z</time></trkpt><trkpt lat="44.717578681613666" lon="9.572164479247004"><ele>444.0</ele><time>2026-04-22T12:09:03Z</time></trkpt><trkpt lat="44.71772393743361" lon="9.572395973355096"><ele>443.0</ele><time>2026-04-22T12:09:04Z</time></trkpt><trkpt lat="44.71787910706961" lon="9.572641087898239"><ele>442.0</ele><time>2026-04-22T12:09:05Z</time></trkpt><trkpt lat="44.7180418751072" lon="9.572862854507038"><ele>442.0</ele><time>2026-04-22T12:09:06Z</time></trkpt><trkpt lat="44.718161119659314" lon="9.573088358177905"><ele>442.0</ele><time>2026-04-22T12:09:07Z</time></trkpt><trkpt lat="44.71829501855867" lon="9.573322503192106"><ele>442.0</ele><time>2026-04-22T12:09:08Z</time></trkpt><trkpt lat="44.718441283921244" lon="9.573546243003847"><ele>445.0</ele><time>2026-04-22T12:09:09Z</time></trkpt><trkpt lat="44.71857538499599" lon="9.573746807595285"><ele>448.0</ele><time>2026-04-22T12:09:10Z</time></trkpt><trkpt lat="44.71871648895309" lon="9.573957310444031"><ele>451.0</ele><time>2026-04-22T12:09:11Z</time></trkpt><trkpt lat="44.71885140591319" lon="9.574193160514625"><ele>451.0</ele><time>2026-04-22T12:09:12Z</time></trkpt><trkpt lat="44.718971429507576" lon="9.574389949463084"><ele>451.0</ele><time>2026-04-22T12:09:13Z</time></trkpt><trkpt lat="44.71908523895952" lon="9.574552733000578"><ele>451.0</ele><time>2026-04-22T12:09:14Z</time></trkpt><trkpt lat="44.71919922985308" lon="9.574672968316722"><ele>448.0</ele><time>2026-04-22T12:09:15Z</time></trkpt><trkpt lat="44.7193379321835" lon="9.574739543663084"><ele>445.0</ele><time>2026-04-22T12:09:16Z</time></trkpt><trkpt lat="44.719502988667536" lon="9.574764190480927"><ele>442.0</ele><time>2026-04-22T12:09:17Z</time></trkpt><trkpt lat="44.71968054622992" lon="9.574742205183393"><ele>442.0</ele><time>2026-04-22T12:09:18Z</time></trkpt><trkpt lat="44.71986727684634" lon="9.574683399982213"><ele>442.0</ele><time>2026-04-22T12:09:19Z</time></trkpt><trkpt lat="44.720061615540494" lon="9.574616792354556"><ele>442.0</ele><time>2026-04-22T12:09:20Z</time></trkpt><trkpt lat="44.7202678276495" lon="9.574546897348222"><ele>448.6666666666667</ele><time>2026-04-22T12:09:21Z</time></trkpt><trkpt lat="44.720445165150174" lon="9.574482660950457"><ele>455.33333333333337</ele><time>2026-04-22T12:09:22Z</time></trkpt><trkpt lat="44.72058499467155" lon="9.574423071769173"><ele>462.0</ele><time>2026-04-22T12:09:23Z</time></trkpt><trkpt lat="44.720718103502165" lon="9.574379454988243"><ele>462.0</ele><time>2026-04-22T12:09:24Z</time></trkpt><trkpt lat="44.720849931550426" lon="9.57436229781525"><ele>462.0</ele><time>2026-04-22T12:09:25Z</time></trkpt><trkpt lat="44.7209787776914" lon="9.574368956722113"><ele>462.0</ele><time>2026-04-22T12:09:26Z</time></trkpt><trkpt lat="44.72110436172492" lon="9.57442453907448"><ele>462.0</ele><time>2026-04-22T12:09:27Z</time></trkpt><trkpt lat="44.721199516339624" lon="9.574566642652478"><ele>461.0</ele><time>2026-04-22T12:09:28Z</time></trkpt><trkpt lat="44.72131968138969" lon="9.57473138857195"><ele>460.0</ele><time>2026-04-22T12:09:29Z</time></trkpt><trkpt lat="44.721450922932725" lon="9.574896921749085"><ele>459.0</ele><time>2026-04-22T12:09:30Z</time></trkpt><trkpt lat="44.721575878984396" lon="9.57506891276084"><ele>459.0</ele><time>2026-04-22T12:09:31Z</time></trkpt><trkpt lat="44.72171499214398" lon="9.575197010622066"><ele>459.0</ele><time>2026-04-22T12:09:32Z</time></trkpt><trkpt lat="44.72189505406711" lon="9.575289264577602"><ele>459.0</ele><time>2026-04-22T12:09:33Z</time></trkpt><trkpt lat="44.72207982300192" lon="9.575362193866573"><ele>452.0</ele><time>2026-04-22T12:09:34Z</time></trkpt><trkpt lat="44.7222699007314" lon="9.575443013172206"><ele>445.0</ele><time>2026-04-22T12:09:35Z</time></trkpt><trkpt lat="44.72248231845515" lon="9.57551581507736"><ele>438.0</ele><time>2026-04-22T12:09:36Z</time></trkpt><trkpt lat="44.72270760030033" lon="9.575576729930312"><ele>443.0</ele><time>2026-04-22T12:09:37Z</time></trkpt><trkpt lat="44.72290746831467" lon="9.575623361583117"><ele>448.0</ele><time>2026-04-22T12:09:38Z</time></trkpt><trkpt lat="44.72309260822624" lon="9.575671654285825"><ele>453.0</ele><time>2026-04-22T12:09:39Z</time></trkpt><trkpt lat="44.72329311677311" lon="9.575739388273497"><ele>453.0</ele><time>2026-04-22T12:09:40Z</time></trkpt><trkpt lat="44.72348243121655" lon="9.575832968127525"><ele>453.0</ele><time>2026-04-22T12:09:41Z</time></trkpt><trkpt lat="44.72361363392213" lon="9.575917188491514"><ele>453.0</ele><time>2026-04-22T12:09:42Z</time></trkpt><trkpt lat="44.723731014825496" lon="9.575995395613743"><ele>457.25</ele><time>2026-04-22T12:09:43Z</time></trkpt><trkpt lat="44.72385278285478" lon="9.576063744171632"><ele>461.5</ele><time>2026-04-22T12:09:44Z</time></trkpt><trkpt lat="44.72399128761632" lon="9.576134535007764"><ele>465.75</ele><time>2026-04-22T12:09:45Z</time></trkpt><trkpt lat="44.72414023432495" lon="9.576206410724375"><ele>470.0</ele><time>2026-04-22T12:09:46Z</time></trkpt><trkpt lat="44.724297227722595" lon="9.576275182196806"><ele>460.0</ele><time>2026-04-22T12:09:47Z</time></trkpt><trkpt lat="44.724469914588056" lon="9.576315393376404"><ele>450.0</ele><time>2026-04-22T12:09:48Z</time></trkpt><trkpt lat="44.72465642128237" lon="9.576329058356306"><ele>440.0</ele><time>2026-04-22T12:09:49Z</time></trkpt><trkpt lat="44.724824008886294" lon="9.576330605905053"><ele>440.0</ele><time>2026-04-22T12:09:50Z</time></trkpt><trkpt lat="44.724980150749936" lon="9.576339905483547"><ele>440.0</ele><time>2026-04-22T12:09:51Z</time></trkpt><trkpt lat="44.72513771824176" lon="9.576363506902688"><ele>440.0</ele><time>2026-04-22T12:09:52Z</time></trkpt><trkpt lat="44.72528826028991" lon="9.576401052369382"><ele>444.66666666666663</ele><time>2026-04-22T12:09:53Z</time></trkpt><trkpt lat="44.72543344859975" lon="9.576455342540255"><ele>449.33333333333337</ele><time>2026-04-22T12:09:54Z</time></trkpt><trkpt lat="44.72555808746172" lon="9.576566367674014"><ele>454.0</ele><time>2026-04-22T12:09:55Z</time></trkpt><trkpt lat="44.72569512202747" lon="9.57667681540544"><ele>454.0</ele><time>2026-04-22T12:09:56Z</time></trkpt><trkpt lat="44.725822435921046" lon="9.576812168785077"><ele>454.0</ele><time>2026-04-22T12:09:57Z</time></trkpt><trkpt lat="44.72594432735635" lon="9.576931946519899"><ele>454.0</ele><time>2026-04-22T12:09:58Z</time></trkpt><trkpt lat="44.7260680450332" lon="9.577036650949525"><ele>451.5</ele><time>2026-04-22T12:09:59Z</time></trkpt><trkpt lat="44.72619096929677" lon="9.577139944088177"><ele>449.0</ele><time>2026-04-22T12:10:00Z</time></trkpt><trkpt lat="44.726310312795704" lon="9.577222396229415"><ele>446.5</ele><time>2026-04-22T12:10:01Z</time></trkpt><trkpt lat="44.726429872249184" lon="9.5772433833384"><ele>444.0</ele><time>2026-04-22T12:10:02Z</time></trkpt><trkpt lat="44.72654426453308" lon="9.577211106743645"><ele>444.0</ele><time>2026-04-22T12:10:03Z</time></trkpt><trkpt lat="44.72664162762598" lon="9.577103829859942"><ele>444.0</ele><time>2026-04-22T12:10:04Z</time></trkpt><trkpt lat="44.72672696278175" lon="9.576944898841045"><ele>444.0</ele><time>2026-04-22T12:10:05Z</time></trkpt><trkpt lat="44.7268009151473" lon="9.576766632910292"><ele>444.0</ele><time>2026-04-22T12:10:06Z</time></trkpt><trkpt lat="44.72687630334736" lon="9.576627543894638"><ele>451.6666666666667</ele><time>2026-04-22T12:10:07Z</time></trkpt><trkpt lat="44.72694909809661" lon="9.576541290823235"><ele>459.33333333333337</ele><time>2026-04-22T12:10:08Z</time></trkpt><trkpt lat="44.727026482144716" lon="9.57649974940649"><ele>467.0</ele><time>2026-04-22T12:10:09Z</time></trkpt><trkpt lat="44.72710653709194" lon="9.576508850923704"><ele>474.6666666666667</ele><time>2026-04-22T12:10:10Z</time></trkpt><trkpt lat="44.727180708334885" lon="9.576586475985026"><ele>482.33333333333337</ele><time>2026-04-22T12:10:11Z</time></trkpt><trkpt lat="44.72726013788364" lon="9.576666164757752"><ele>490.0</ele><time>2026-04-22T12:10:12Z</time></trkpt><trkpt lat="44.727294633765304" lon="9.57678946269578"><ele>490.0</ele><time>2026-04-22T12:10:13Z</time></trkpt><trkpt lat="44.72724692116521" lon="9.576935907083998"><ele>490.0</ele><time>2026-04-22T12:10:14Z</time></trkpt><trkpt lat="44.727225223428135" lon="9.577137885496871"><ele>490.0</ele><time>2026-04-22T12:10:15Z</time></trkpt><trkpt lat="44.72719464726905" lon="9.57735733577368"><ele>490.0</ele><time>2026-04-22T12:10:16Z</time></trkpt><trkpt lat="44.72716043267344" lon="9.577553777936473"><ele>489.5</ele><time>2026-04-22T12:10:17Z</time></trkpt><trkpt lat="44.72712726785173" lon="9.577724558372584"><ele>489.0</ele><time>2026-04-22T12:10:18Z</time></trkpt><trkpt lat="44.72709360416103" lon="9.577889478267346"><ele>488.5</ele><time>2026-04-22T12:10:19Z</time></trkpt><trkpt lat="44.72707897012606" lon="9.578049745718113"><ele>488.0</ele><time>2026-04-22T12:10:20Z</time></trkpt><trkpt lat="44.72710242137461" lon="9.578209151264307"><ele>483.25</ele><time>2026-04-22T12:10:21Z</time></trkpt><trkpt lat="44.72716408081556" lon="9.578367735299711"><ele>478.5</ele><time>2026-04-22T12:10:22Z</time></trkpt><trkpt lat="44.72722624232238" lon="9.57853297943324"><ele>473.75</ele><time>2026-04-22T12:10:23Z</time></trkpt><trkpt lat="44.72727292985811" lon="9.578700822125759"><ele>469.0</ele><time>2026-04-22T12:10:24Z</time></trkpt><trkpt lat="44.727310731135624" lon="9.578863807428052"><ele>463.25</ele><time>2026-04-22T12:10:25Z</time></trkpt><trkpt lat="44.727348256928764" lon="9.579013111625096"><ele>457.5</ele><time>2026-04-22T12:10:26Z</time></trkpt><trkpt lat="44.727401764435456" lon="9.579143060667386"><ele>451.75</ele><time>2026-04-22T12:10:27Z</time></trkpt><trkpt lat="44.72746877583601" lon="9.579270266865652"><ele>446.0</ele><time>2026-04-22T12:10:28Z</time></trkpt><trkpt lat="44.72754467484322" lon="9.57940812900085"><ele>442.0</ele><time>2026-04-22T12:10:29Z</time></trkpt><trkpt lat="44.72760848850572" lon="9.57956136210326"><ele>438.0</ele><time>2026-04-22T12:10:30Z</time></trkpt><trkpt lat="44.727659702413106" lon="9.579729724139254"><ele>434.0</ele><time>2026-04-22T12:10:31Z</time></trkpt><trkpt lat="44.72770704171903" lon="9.579910324059602"><ele>430.0</ele><time>2026-04-22T12:10:32Z</time></trkpt><trkpt lat="44.7277307564789" lon="9.580111194715125"><ele>439.25</ele><time>2026-04-22T12:10:33Z</time></trkpt><trkpt lat="44.7277591677373" lon="9.580300456666295"><ele>448.5</ele><time>2026-04-22T12:10:34Z</time></trkpt><trkpt lat="44.72779832899565" lon="9.580483690973471"><ele>457.75</ele><time>2026-04-22T12:10:35Z</time></trkpt><trkpt lat="44.72781970176393" lon="9.580670601160822"><ele>467.0</ele><time>2026-04-22T12:10:36Z</time></trkpt><trkpt lat="44.72784599639218" lon="9.580845461518349"><ele>467.0</ele><time>2026-04-22T12:10:37Z</time></trkpt><trkpt lat="44.72787642329495" lon="9.581013926477342"><ele>467.0</ele><time>2026-04-22T12:10:38Z</time></trkpt><trkpt lat="44.72790964510097" lon="9.581183292032337"><ele>467.0</ele><time>2026-04-22T12:10:39Z</time></trkpt><trkpt lat="44.7279408119898" lon="9.581360250978355"><ele>467.0</ele><time>2026-04-22T12:10:40Z</time></trkpt><trkpt lat="44.7279713334278" lon="9.581542082943782"><ele>463.75</ele><time>2026-04-22T12:10:41Z</time></trkpt><trkpt lat="44.728000630640814" lon="9.5817261376531"><ele>460.5</ele><time>2026-04-22T12:10:42Z</time></trkpt><trkpt lat="44.7280295903929" lon="9.581893951152319"><ele>457.25</ele><time>2026-04-22T12:10:43Z</time></trkpt><trkpt lat="44.728060574741875" lon="9.582029750183667"><ele>454.0</ele><time>2026-04-22T12:10:44Z</time></trkpt><trkpt lat="44.72810879274634" lon="9.582152811520606"><ele>449.0</ele><time>2026-04-22T12:10:45Z</time></trkpt><trkpt lat="44.728186063656935" lon="9.582256334806658"><ele>444.0</ele><time>2026-04-22T12:10:46Z</time></trkpt><trkpt lat="44.72829486680672" lon="9.582324765575967"><ele>439.0</ele><time>2026-04-22T12:10:47Z</time></trkpt><trkpt lat="44.728413768197605" lon="9.582361845210071"><ele>434.0</ele><time>2026-04-22T12:10:48Z</time></trkpt><trkpt lat="44.72852654337561" lon="9.582394588481773"><ele>434.79999999999995</ele><time>2026-04-22T12:10:49Z</time></trkpt><trkpt lat="44.7286076439253" lon="9.582491246281286"><ele>435.59999999999997</ele><time>2026-04-22T12:10:50Z</time></trkpt><trkpt lat="44.728693426676564" lon="9.582574805971019"><ele>436.4</ele><time>2026-04-22T12:10:51Z</time></trkpt><trkpt lat="44.72873722618529" lon="9.582718152720032"><ele>437.2</ele><time>2026-04-22T12:10:52Z</time></trkpt><trkpt lat="44.72879266678014" lon="9.582858374143136"><ele>438.0</ele><time>2026-04-22T12:10:53Z</time></trkpt><trkpt lat="44.72887505391337" lon="9.582975403771757"><ele>438.0</ele><time>2026-04-22T12:10:54Z</time></trkpt><trkpt lat="44.72896230609282" lon="9.583090748550562"><ele>438.0</ele><time>2026-04-22T12:10:55Z</time></trkpt><trkpt lat="44.72905995079061" lon="9.583190449152475"><ele>438.0</ele><time>2026-04-22T12:10:56Z</time></trkpt><trkpt lat="44.72916086170346" lon="9.583280646278432"><ele>438.0</ele><time>2026-04-22T12:10:57Z</time></trkpt><trkpt lat="44.7292721345035" lon="9.583373245132277"><ele>438.0</ele><time>2026-04-22T12:10:58Z</time></trkpt><trkpt lat="44.72938485439251" lon="9.583475133017703"><ele>438.0</ele><time>2026-04-22T12:10:59Z</time></trkpt><trkpt lat="44.729505344830706" lon="9.583581454591418"><ele>438.0</ele><time>2026-04-22T12:11:00Z</time></trkpt><trkpt lat="44.72962789477742" lon="9.58369076807141"><ele>438.0</ele><time>2026-04-22T12:11:01Z</time></trkpt><trkpt lat="44.729748781993955" lon="9.583799321459313"><ele>438.0</ele><time>2026-04-22T12:11:02Z</time></trkpt><trkpt lat="44.729869930578744" lon="9.583897700660835"><ele>438.0</ele><time>2026-04-22T12:11:03Z</time></trkpt><trkpt lat="44.72999289057936" lon="9.58399262365414"><ele>438.0</ele><time>2026-04-22T12:11:04Z</time></trkpt><trkpt lat="44.73011060594104" lon="9.584091961742262"><ele>438.0</ele><time>2026-04-22T12:11:05Z</time></trkpt><trkpt lat="44.73021706254066" lon="9.584204908818498"><ele>440.75</ele><time>2026-04-22T12:11:06Z</time></trkpt><trkpt lat="44.73029952359311" lon="9.584351944632424"><ele>443.5</ele><time>2026-04-22T12:11:07Z</time></trkpt><trkpt lat="44.730338140207564" lon="9.584531091428735"><ele>446.25</ele><time>2026-04-22T12:11:08Z</time></trkpt><trkpt lat="44.730389808995334" lon="9.584703374619764"><ele>449.0</ele><time>2026-04-22T12:11:09Z</time></trkpt><trkpt lat="44.73043341043462" lon="9.584884612019293"><ele>449.0</ele><time>2026-04-22T12:11:10Z</time></trkpt><trkpt lat="44.730492420004445" lon="9.58506264702957"><ele>449.0</ele><time>2026-04-22T12:11:11Z</time></trkpt><trkpt lat="44.73056304583847" lon="9.58524679623467"><ele>449.0</ele><time>2026-04-22T12:11:12Z</time></trkpt><trkpt lat="44.73064924083191" lon="9.585434541375546"><ele>449.0</ele><time>2026-04-22T12:11:13Z</time></trkpt><trkpt lat="44.73074338371783" lon="9.58561304997335"><ele>448.4</ele><time>2026-04-22T12:11:14Z</time></trkpt><trkpt lat="44.73081252662393" lon="9.585720093376716"><ele>447.79999999999995</ele><time>2026-04-22T12:11:15Z</time></trkpt><trkpt lat="44.730858553749016" lon="9.585786244624803"><ele>447.20000000000005</ele><time>2026-04-22T12:11:16Z</time></trkpt><trkpt lat="44.73095382192196" lon="9.585886284552409"><ele>446.6</ele><time>2026-04-22T12:11:18Z</time></trkpt><trkpt lat="44.73105662532642" lon="9.585906988422478"><ele>446.0</ele><time>2026-04-22T12:11:20Z</time></trkpt><trkpt lat="44.731123111957466" lon="9.585941696598967"><ele>445.99999999999994</ele><time>2026-04-22T12:11:21Z</time></trkpt><trkpt lat="44.731197375529995" lon="9.585969160100149"><ele>446.0</ele><time>2026-04-22T12:11:22Z</time></trkpt><trkpt lat="44.73125981514252" lon="9.58598143707671"><ele>446.0</ele><time>2026-04-22T12:11:23Z</time></trkpt><trkpt lat="44.73133042166368" lon="9.585999627313717"><ele>446.0</ele><time>2026-04-22T12:11:25Z</time></trkpt><trkpt lat="44.73125200300151" lon="9.585959913275902"><ele>445.99999999999994</ele><time>2026-04-22T12:11:29Z</time></trkpt><trkpt lat="44.73115701354831" lon="9.585918868024502"><ele>446.0</ele><time>2026-04-22T12:11:30Z</time></trkpt><trkpt lat="44.73103497708055" lon="9.585896751493875"><ele>446.75</ele><time>2026-04-22T12:11:31Z</time></trkpt><trkpt lat="44.730904646116585" lon="9.585821409584986"><ele>447.5</ele><time>2026-04-22T12:11:32Z</time></trkpt><trkpt lat="44.73082433674212" lon="9.585688373396701"><ele>448.25</ele><time>2026-04-22T12:11:33Z</time></trkpt><trkpt lat="44.7307379566513" lon="9.585513276088168"><ele>449.0</ele><time>2026-04-22T12:11:34Z</time></trkpt><trkpt lat="44.730647455036205" lon="9.58532972892525"><ele>449.0</ele><time>2026-04-22T12:11:35Z</time></trkpt><trkpt lat="44.73056333504064" lon="9.585153033210204"><ele>449.0</ele><time>2026-04-22T12:11:36Z</time></trkpt><trkpt lat="44.73049329144761" lon="9.584966926593042"><ele>449.0</ele><time>2026-04-22T12:11:37Z</time></trkpt><trkpt lat="44.73043839468508" lon="9.584773141849151"><ele>449.0</ele><time>2026-04-22T12:11:38Z</time></trkpt><trkpt lat="44.73039044712738" lon="9.58457942774103"><ele>446.25</ele><time>2026-04-22T12:11:39Z</time></trkpt><trkpt lat="44.730341731454104" lon="9.584401975116336"><ele>443.5</ele><time>2026-04-22T12:11:40Z</time></trkpt><trkpt lat="44.730272282461236" lon="9.584244887752208"><ele>440.75</ele><time>2026-04-22T12:11:41Z</time></trkpt><trkpt lat="44.73016585957756" lon="9.58410945829348"><ele>438.0</ele><time>2026-04-22T12:11:42Z</time></trkpt><trkpt lat="44.730040247128976" lon="9.58399233421794"><ele>438.0</ele><time>2026-04-22T12:11:43Z</time></trkpt><trkpt lat="44.729921891744915" lon="9.58389704494847"><ele>437.99999999999994</ele><time>2026-04-22T12:11:44Z</time></trkpt><trkpt lat="44.72982738811859" lon="9.583804026149215"><ele>437.99999999999994</ele><time>2026-04-22T12:11:45Z</time></trkpt><trkpt lat="44.72973893614707" lon="9.583732939422852"><ele>438.0</ele><time>2026-04-22T12:11:46Z</time></trkpt><trkpt lat="44.72965372869556" lon="9.583689130654447"><ele>438.0</ele><time>2026-04-22T12:11:47Z</time></trkpt><trkpt lat="44.729589742863695" lon="9.583627466672864"><ele>438.0</ele><time>2026-04-22T12:11:48Z</time></trkpt><trkpt lat="44.72953883797982" lon="9.583572532809812"><ele>437.99999999999994</ele><time>2026-04-22T12:11:49Z</time></trkpt><trkpt lat="44.729485185468754" lon="9.583465782894985"><ele>437.99999999999994</ele><time>2026-04-22T12:11:51Z</time></trkpt><trkpt lat="44.7294069070927" lon="9.583353842172794"><ele>438.0</ele><time>2026-04-22T12:11:53Z</time></trkpt><trkpt lat="44.729331412120615" lon="9.583287267680038"><ele>438.0</ele><time>2026-04-22T12:11:56Z</time></trkpt><trkpt lat="44.72940807591959" lon="9.583031990275474"><ele>438.0</ele><time>2026-04-22T12:12:09Z</time></trkpt><trkpt lat="44.729344381738564" lon="9.582950919062057"><ele>437.99999999999994</ele><time>2026-04-22T12:13:34Z</time></trkpt><trkpt lat="44.72925303638861" lon="9.582864637678108"><ele>437.99999999999994</ele><time>2026-04-22T12:13:35Z</time></trkpt><trkpt lat="44.72917157310349" lon="9.582766494759435"><ele>438.0</ele><time>2026-04-22T12:13:36Z</time></trkpt><trkpt lat="44.729111738653145" lon="9.582676065345126"><ele>438.0</ele><time>2026-04-22T12:13:37Z</time></trkpt><trkpt lat="44.7290776919112" lon="9.582582139294079"><ele>442.79999999999995</ele><time>2026-04-22T12:13:38Z</time></trkpt><trkpt lat="44.72904089135581" lon="9.58244962861902"><ele>447.59999999999997</ele><time>2026-04-22T12:13:39Z</time></trkpt><trkpt lat="44.72899730688033" lon="9.582283381797946"><ele>452.40000000000003</ele><time>2026-04-22T12:13:40Z</time></trkpt><trkpt lat="44.72894594446729" lon="9.58215768107715"><ele>457.20000000000005</ele><time>2026-04-22T12:13:41Z</time></trkpt><trkpt lat="44.7289075672276" lon="9.582054948039763"><ele>462.0</ele><time>2026-04-22T12:13:42Z</time></trkpt><trkpt lat="44.72887538094889" lon="9.58196961844525"><ele>466.40000000000003</ele><time>2026-04-22T12:13:43Z</time></trkpt><trkpt lat="44.72881832522531" lon="9.581907437300428"><ele>470.80000000000007</ele><time>2026-04-22T12:13:44Z</time></trkpt><trkpt lat="44.72876412012338" lon="9.581820854621888"><ele>475.2</ele><time>2026-04-22T12:13:45Z</time></trkpt><trkpt lat="44.72873485113057" lon="9.581727433365948"><ele>479.6</ele><time>2026-04-22T12:13:46Z</time></trkpt><trkpt lat="44.72864011134868" lon="9.58161112572056"><ele>484.0</ele><time>2026-04-22T12:13:48Z</time></trkpt><trkpt lat="44.72859455306731" lon="9.581467548292162"><ele>484.0</ele><time>2026-04-22T12:13:50Z</time></trkpt><trkpt lat="44.72856533395216" lon="9.581332939774628"><ele>484.0</ele><time>2026-04-22T12:13:51Z</time></trkpt><trkpt lat="44.728537023922655" lon="9.581229306384976"><ele>484.0</ele><time>2026-04-22T12:13:52Z</time></trkpt><trkpt lat="44.728522363066205" lon="9.581112791998436"><ele>484.0</ele><time>2026-04-22T12:13:53Z</time></trkpt><trkpt lat="44.72850307364197" lon="9.580969306972628"><ele>484.0</ele><time>2026-04-22T12:13:54Z</time></trkpt><trkpt lat="44.72848419737275" lon="9.580834377983082"><ele>483.33333333333337</ele><time>2026-04-22T12:13:55Z</time></trkpt><trkpt lat="44.72846791586566" lon="9.580711390081758"><ele>482.6666666666667</ele><time>2026-04-22T12:13:56Z</time></trkpt><trkpt lat="44.72847794801681" lon="9.580613970291445"><ele>482.0</ele><time>2026-04-22T12:13:57Z</time></trkpt><trkpt lat="44.72846507447068" lon="9.580500541182301"><ele>481.33333333333337</ele><time>2026-04-22T12:13:58Z</time></trkpt><trkpt lat="44.728445307706856" lon="9.580373875942742"><ele>480.6666666666667</ele><time>2026-04-22T12:13:59Z</time></trkpt><trkpt lat="44.72845599654946" lon="9.580278865470643"><ele>480.0</ele><time>2026-04-22T12:14:00Z</time></trkpt><trkpt lat="44.728455931466634" lon="9.58016956979145"><ele>480.0</ele><time>2026-04-22T12:14:00.999Z</time></trkpt><trkpt lat="44.72851249847966" lon="9.580089562941998"><ele>480.0</ele><time>2026-04-22T12:14:02.999Z</time></trkpt><trkpt lat="44.72858579001045" lon="9.580084047882012"><ele>480.0</ele><time>2026-04-22T12:14:04.999Z</time></trkpt><trkpt lat="44.72863028372993" lon="9.580280425005913"><ele>480.0</ele><time>2026-04-22T12:14:06.999Z</time></trkpt><trkpt lat="44.72870053567753" lon="9.580345675001631"><ele>480.0</ele><time>2026-04-22T12:14:09.999Z</time></trkpt><trkpt lat="44.72873676333606" lon="9.580419446860038"><ele>480.0</ele><time>2026-04-22T12:14:11.999Z</time></trkpt><trkpt lat="44.72880350926624" lon="9.58044613545521"><ele>488.0</ele><time>2026-04-22T12:14:13.999Z</time></trkpt><trkpt lat="44.728876511022726" lon="9.580339844046403"><ele>496.0</ele><time>2026-04-22T12:14:17Z</time></trkpt><trkpt lat="44.72888084968923" lon="9.580240895909474"><ele>504.0</ele><time>2026-04-22T12:14:18Z</time></trkpt><trkpt lat="44.72891249775257" lon="9.580098937973354"><ele>512.0</ele><time>2026-04-22T12:14:20Z</time></trkpt><trkpt lat="44.72896212369217" lon="9.579923058876052"><ele>520.0</ele><time>2026-04-22T12:14:22Z</time></trkpt><trkpt lat="44.72897765258592" lon="9.579748283291273"><ele>520.0</ele><time>2026-04-22T12:14:23Z</time></trkpt><trkpt lat="44.72899035536013" lon="9.579614472498186"><ele>520.0</ele><time>2026-04-22T12:14:24Z</time></trkpt><trkpt lat="44.728994593757314" lon="9.579424197663444"><ele>520.0</ele><time>2026-04-22T12:14:26Z</time></trkpt><trkpt lat="44.72900797900868" lon="9.579311118760494"><ele>520.0</ele><time>2026-04-22T12:14:27Z</time></trkpt><trkpt lat="44.72899544675505" lon="9.579223188947491"><ele>520.0</ele><time>2026-04-22T12:14:28Z</time></trkpt><trkpt lat="44.728942211293955" lon="9.57914525141361"><ele>523.2</ele><time>2026-04-22T12:14:29Z</time></trkpt><trkpt lat="44.72888126511168" lon="9.579063699516064"><ele>526.4</ele><time>2026-04-22T12:14:30Z</time></trkpt><trkpt lat="44.72880226214959" lon="9.578919003130384"><ele>529.6</ele><time>2026-04-22T12:14:31Z</time></trkpt><trkpt lat="44.72875953955833" lon="9.578804644612699"><ele>532.8</ele><time>2026-04-22T12:14:32Z</time></trkpt><trkpt lat="44.7288051006636" lon="9.57865193907421"><ele>536.0</ele><time>2026-04-22T12:14:34Z</time></trkpt><trkpt lat="44.72880254968878" lon="9.57849107794623"><ele>538.6</ele><time>2026-04-22T12:14:35Z</time></trkpt><trkpt lat="44.728779580297015" lon="9.578358330390214"><ele>541.2</ele><time>2026-04-22T12:14:36Z</time></trkpt><trkpt lat="44.72874084492421" lon="9.578254557617775"><ele>543.8</ele><time>2026-04-22T12:14:37Z</time></trkpt><trkpt lat="44.72869617888184" lon="9.578139488862027"><ele>546.4</ele><time>2026-04-22T12:14:38Z</time></trkpt><trkpt lat="44.72865228074189" lon="9.578004727785945"><ele>549.0</ele><time>2026-04-22T12:14:39Z</time></trkpt><trkpt lat="44.72859677554875" lon="9.577904621809004"><ele>546.4</ele><time>2026-04-22T12:14:40Z</time></trkpt><trkpt lat="44.72853507167877" lon="9.57775131662169"><ele>543.8</ele><time>2026-04-22T12:14:42Z</time></trkpt><trkpt lat="44.72845509354709" lon="9.577685977354573"><ele>541.2</ele><time>2026-04-22T12:14:44Z</time></trkpt><trkpt lat="44.72841286800559" lon="9.577568425714771"><ele>538.6</ele><time>2026-04-22T12:14:46Z</time></trkpt><trkpt lat="44.72837287115935" lon="9.57748574424561"><ele>536.0</ele><time>2026-04-22T12:14:47Z</time></trkpt><trkpt lat="44.72832866744131" lon="9.577395113947167"><ele>536.0</ele><time>2026-04-22T12:14:48Z</time></trkpt><trkpt lat="44.72831672780019" lon="9.577278160257688"><ele>536.0</ele><time>2026-04-22T12:14:49Z</time></trkpt><trkpt lat="44.728305900479974" lon="9.577112258263025"><ele>536.0</ele><time>2026-04-22T12:14:51Z</time></trkpt><trkpt lat="44.728318494971816" lon="9.577017462313815"><ele>536.0</ele><time>2026-04-22T12:14:52Z</time></trkpt><trkpt lat="44.72836409582651" lon="9.576871409073364"><ele>536.0</ele><time>2026-04-22T12:14:53Z</time></trkpt><trkpt lat="44.72839551369016" lon="9.576771824716529"><ele>536.5</ele><time>2026-04-22T12:14:54Z</time></trkpt><trkpt lat="44.728395871780265" lon="9.576655191188632"><ele>537.0</ele><time>2026-04-22T12:14:55Z</time></trkpt><trkpt lat="44.728405142921424" lon="9.57653295948368"><ele>537.5</ele><time>2026-04-22T12:14:56Z</time></trkpt><trkpt lat="44.72845483477856" lon="9.576441587332992"><ele>538.0</ele><time>2026-04-22T12:14:57Z</time></trkpt><trkpt lat="44.72848805491624" lon="9.576335292725433"><ele>538.5</ele><time>2026-04-22T12:14:58Z</time></trkpt><trkpt lat="44.72851131215634" lon="9.576200831244023"><ele>539.0</ele><time>2026-04-22T12:14:59Z</time></trkpt><trkpt lat="44.728545770240835" lon="9.576086625212753"><ele>537.7142857142857</ele><time>2026-04-22T12:15:00Z</time></trkpt><trkpt lat="44.72855157725678" lon="9.575982215365798"><ele>536.4285714285714</ele><time>2026-04-22T12:15:01Z</time></trkpt><trkpt lat="44.72858736663813" lon="9.575900578779905"><ele>535.1428571428571</ele><time>2026-04-22T12:15:03Z</time></trkpt><trkpt lat="44.72866326199339" lon="9.575904687135054"><ele>533.8571428571429</ele><time>2026-04-22T12:15:05Z</time></trkpt><trkpt lat="44.728719182963516" lon="9.5758564254997"><ele>532.5714285714286</ele><time>2026-04-22T12:15:09Z</time></trkpt><trkpt lat="44.72876797501699" lon="9.575783773411626"><ele>531.2857142857142</ele><time>2026-04-22T12:15:11Z</time></trkpt><trkpt lat="44.72882300816605" lon="9.575691841269286"><ele>530.0</ele><time>2026-04-22T12:15:12Z</time></trkpt><trkpt lat="44.728891322195665" lon="9.575587099317685"><ele>536.5</ele><time>2026-04-22T12:15:13Z</time></trkpt><trkpt lat="44.728956355027854" lon="9.575519550048334"><ele>543.0</ele><time>2026-04-22T12:15:14Z</time></trkpt><trkpt lat="44.7290047557956" lon="9.575456825424977"><ele>549.5</ele><time>2026-04-22T12:15:15Z</time></trkpt><trkpt lat="44.729092308483196" lon="9.57542402215722"><ele>556.0</ele><time>2026-04-22T12:15:18Z</time></trkpt><trkpt lat="44.7291523319816" lon="9.57535323411545"><ele>562.5</ele><time>2026-04-22T12:15:20Z</time></trkpt><trkpt lat="44.72925823362885" lon="9.575276569958454"><ele>569.0</ele><time>2026-04-22T12:15:22Z</time></trkpt><trkpt lat="44.72933883650674" lon="9.575237555817337"><ele>576.0</ele><time>2026-04-22T12:15:23Z</time></trkpt><trkpt lat="44.72940370266683" lon="9.575196549064012"><ele>583.0</ele><time>2026-04-22T12:15:24Z</time></trkpt><trkpt lat="44.729532190404505" lon="9.575155051599985"><ele>590.0</ele><time>2026-04-22T12:15:26Z</time></trkpt><trkpt lat="44.729624754947196" lon="9.575114459920282"><ele>597.0</ele><time>2026-04-22T12:15:27Z</time></trkpt><trkpt lat="44.72971378775218" lon="9.575093708576823"><ele>604.0</ele><time>2026-04-22T12:15:28Z</time></trkpt><trkpt lat="44.729823457326454" lon="9.57513046699207"><ele>604.0</ele><time>2026-04-22T12:15:30Z</time></trkpt><trkpt lat="44.72979420073874" lon="9.57522721072914"><ele>604.0</ele><time>2026-04-22T12:15:36Z</time></trkpt><trkpt lat="44.72981329927792" lon="9.575335830536257"><ele>604.0</ele><time>2026-04-22T12:15:39Z</time></trkpt><trkpt lat="44.72982915580097" lon="9.57543622196636"><ele>604.0</ele><time>2026-04-22T12:15:42Z</time></trkpt><trkpt lat="44.72983598631561" lon="9.575533568777866"><ele>604.0</ele><time>2026-04-22T12:15:45Z</time></trkpt><trkpt lat="44.72981118014453" lon="9.575660288910438"><ele>604.0</ele><time>2026-04-22T12:15:48Z</time></trkpt><trkpt lat="44.729740373852785" lon="9.575610590671683"><ele>613.0</ele><time>2026-04-22T12:15:50Z</time></trkpt><trkpt lat="44.72959617918651" lon="9.576149958827719"><ele>622.0</ele><time>2026-04-22T12:15:53Z</time></trkpt><trkpt lat="44.729550264449834" lon="9.576245161135162"><ele>623.8333333333334</ele><time>2026-04-22T12:15:54Z</time></trkpt><trkpt lat="44.72949053240933" lon="9.576365268189432"><ele>625.6666666666667</ele><time>2026-04-22T12:15:56Z</time></trkpt><trkpt lat="44.72945952164964" lon="9.576443166905253"><ele>627.5</ele><time>2026-04-22T12:15:58Z</time></trkpt><trkpt lat="44.72943599680896" lon="9.576561682796854"><ele>629.3333333333334</ele><time>2026-04-22T12:16:00Z</time></trkpt><trkpt lat="44.72946498199001" lon="9.576676321380775"><ele>631.1666666666666</ele><time>2026-04-22T12:16:01.999Z</time></trkpt><trkpt lat="44.72952104640016" lon="9.576796739575508"><ele>633.0</ele><time>2026-04-22T12:16:03.999Z</time></trkpt><trkpt lat="44.729584589732056" lon="9.576840957786136"><ele>633.0</ele><time>2026-04-22T12:16:05.999Z</time></trkpt><trkpt lat="44.729675418822914" lon="9.576845731484024"><ele>633.0</ele><time>2026-04-22T12:16:07.999Z</time></trkpt><trkpt lat="44.72976585130863" lon="9.576816529318963"><ele>633.0</ele><time>2026-04-22T12:16:09.999Z</time></trkpt><trkpt lat="44.729847062033926" lon="9.576776083249491"><ele>633.0</ele><time>2026-04-22T12:16:11.999Z</time></trkpt><trkpt lat="44.7299316249504" lon="9.576747715819195"><ele>633.0</ele><time>2026-04-22T12:16:14.999Z</time></trkpt><trkpt lat="44.72999300839236" lon="9.576685846178044"><ele>633.0</ele><time>2026-04-22T12:16:17.999Z</time></trkpt><trkpt lat="44.730058683657255" lon="9.576694272279262"><ele>633.0</ele><time>2026-04-22T12:16:23Z</time></trkpt><trkpt lat="44.73013070744283" lon="9.576710278895003"><ele>633.0</ele><time>2026-04-22T12:16:43Z</time></trkpt><trkpt lat="44.73020654866687" lon="9.576728927436077"><ele>633.0</ele><time>2026-04-22T12:16:52Z</time></trkpt><trkpt lat="44.730273181847764" lon="9.576725753089901"><ele>633.0</ele><time>2026-04-22T12:16:55Z</time></trkpt><trkpt lat="44.730353144735865" lon="9.576727893636338"><ele>633.0</ele><time>2026-04-22T12:16:58Z</time></trkpt><trkpt lat="44.73040017304348" lon="9.576801743774173"><ele>633.0</ele><time>2026-04-22T12:17:00Z</time></trkpt><trkpt lat="44.73046557072133" lon="9.576825665681714"><ele>633.0</ele><time>2026-04-22T12:17:02Z</time></trkpt><trkpt lat="44.73054417631666" lon="9.576818395687518"><ele>640.4</ele><time>2026-04-22T12:17:05Z</time></trkpt><trkpt lat="44.730621883616564" lon="9.576775466601667"><ele>647.8</ele><time>2026-04-22T12:17:08Z</time></trkpt><trkpt lat="44.73067743879093" lon="9.576626477050528"><ele>655.2</ele><time>2026-04-22T12:17:11Z</time></trkpt><trkpt lat="44.73070641070928" lon="9.576546810630411"><ele>662.6</ele><time>2026-04-22T12:17:12Z</time></trkpt><trkpt lat="44.73076474286854" lon="9.576424405906087"><ele>670.0</ele><time>2026-04-22T12:17:13Z</time></trkpt><trkpt lat="44.73081540408925" lon="9.576324082219436"><ele>670.0</ele><time>2026-04-22T12:17:14Z</time></trkpt><trkpt lat="44.730882376142006" lon="9.576219788993003"><ele>670.0</ele><time>2026-04-22T12:17:15Z</time></trkpt><trkpt lat="44.73093021844343" lon="9.576127691040208"><ele>670.0</ele><time>2026-04-22T12:17:16Z</time></trkpt><trkpt lat="44.730950888167236" lon="9.576039656416954"><ele>670.0</ele><time>2026-04-22T12:17:19Z</time></trkpt><trkpt lat="44.73099382544466" lon="9.575939927482391"><ele>670.0</ele><time>2026-04-22T12:17:24Z</time></trkpt><trkpt lat="44.73104639161068" lon="9.575882093424815"><ele>670.0</ele><time>2026-04-22T12:17:52Z</time></trkpt><trkpt lat="44.73109120785651" lon="9.575819209853567"><ele>676.5</ele><time>2026-04-22T12:17:57Z</time></trkpt><trkpt lat="44.731145056328856" lon="9.575757680508758"><ele>683.0</ele><time>2026-04-22T12:18:16.999Z</time></trkpt><trkpt lat="44.73121976950432" lon="9.575815885477756"><ele>689.5</ele><time>2026-04-22T12:28:00Z</time></trkpt><trkpt lat="44.73120595224058" lon="9.575904640856018"><ele>696.0</ele><time>2026-04-22T12:29:06Z</time></trkpt><trkpt lat="44.7311986626493" lon="9.576000364348555"><ele>702.5</ele><time>2026-04-22T12:29:12Z</time></trkpt><trkpt lat="44.73123021315579" lon="9.576147583402257"><ele>709.0</ele><time>2026-04-22T12:30:00Z</time></trkpt><trkpt lat="44.73120337366452" lon="9.576047361692106"><ele>709.0000000000001</ele><time>2026-04-22T12:37:20.999Z</time></trkpt><trkpt lat="44.73122221158738" lon="9.575958099336127"><ele>709.0</ele><time>2026-04-22T12:37:29.999Z</time></trkpt><trkpt lat="44.731212474122756" lon="9.575870257910776"><ele>709.0</ele><time>2026-04-22T12:37:36.999Z</time></trkpt><trkpt lat="44.73116137839253" lon="9.575818292943223"><ele>709.0</ele><time>2026-04-22T12:37:58.999Z</time></trkpt><trkpt lat="44.73120615160597" lon="9.57589406933372"><ele>709.0</ele><time>2026-04-22T12:40:53.999Z</time></trkpt><trkpt lat="44.73120871168787" lon="9.575993552643403"><ele>709.0000000000001</ele><time>2026-04-22T12:41:08.999Z</time></trkpt><trkpt lat="44.73121329823422" lon="9.576083369552864"><ele>709.0</ele><time>2026-04-22T12:41:20.999Z</time></trkpt><trkpt lat="44.731269053647836" lon="9.576011429411844"><ele>709.0</ele><time>2026-04-22T12:42:46.999Z</time></trkpt><trkpt lat="44.73131393419329" lon="9.575873247424955"><ele>709.0</ele><time>2026-04-22T12:42:48.999Z</time></trkpt><trkpt lat="44.73135319977349" lon="9.575796041693456"><ele>709.0</ele><time>2026-04-22T12:42:49.999Z</time></trkpt><trkpt lat="44.7314098397424" lon="9.575707679076917"><ele>709.0</ele><time>2026-04-22T12:42:51.999Z</time></trkpt><trkpt lat="44.73145276545115" lon="9.575638269519281"><ele>709.0</ele><time>2026-04-22T12:42:54.999Z</time></trkpt><trkpt lat="44.73148730026618" lon="9.575539161357044"><ele>709.0</ele><time>2026-04-22T12:42:56.999Z</time></trkpt><trkpt lat="44.73153708430346" lon="9.575457157604934"><ele>709.1666666666667</ele><time>2026-04-22T12:42:58.999Z</time></trkpt><trkpt lat="44.73154120678616" lon="9.575286507314644"><ele>709.3333333333334</ele><time>2026-04-22T12:43:00.999Z</time></trkpt><trkpt lat="44.731531346949765" lon="9.575184448990619"><ele>709.5</ele><time>2026-04-22T12:43:01.999Z</time></trkpt><trkpt lat="44.73152554526496" lon="9.575086751280613"><ele>709.6666666666666</ele><time>2026-04-22T12:43:03.999Z</time></trkpt><trkpt lat="44.73157305874761" lon="9.575009327931753"><ele>709.8333333333333</ele><time>2026-04-22T12:43:07.999Z</time></trkpt><trkpt lat="44.731546233472365" lon="9.574914312821758"><ele>710.0</ele><time>2026-04-22T12:43:11.999Z</time></trkpt><trkpt lat="44.7315266877192" lon="9.574819159905973"><ele>710.0</ele><time>2026-04-22T12:43:14.999Z</time></trkpt><trkpt lat="44.7314613421098" lon="9.574581032953745"><ele>710.0</ele><time>2026-04-22T12:43:16.999Z</time></trkpt><trkpt lat="44.73145024599848" lon="9.574472709542535"><ele>710.0</ele><time>2026-04-22T12:43:18.999Z</time></trkpt><trkpt lat="44.731554928087895" lon="9.57446567021465"><ele>710.0</ele><time>2026-04-22T12:43:21.999Z</time></trkpt><trkpt lat="44.731659611516534" lon="9.574404281763316"><ele>709.0</ele><time>2026-04-22T12:43:23.999Z</time></trkpt><trkpt lat="44.73174612749506" lon="9.574406864853582"><ele>708.0</ele><time>2026-04-22T12:43:24.999Z</time></trkpt><trkpt lat="44.73182268088528" lon="9.574393573614678"><ele>707.0</ele><time>2026-04-22T12:43:25.999Z</time></trkpt><trkpt lat="44.73191625817952" lon="9.574351838509834"><ele>706.0</ele><time>2026-04-22T12:43:26.999Z</time></trkpt><trkpt lat="44.7320130475815" lon="9.574297304100979"><ele>705.0</ele><time>2026-04-22T12:43:27.999Z</time></trkpt><trkpt lat="44.73211374895227" lon="9.574225324708673"><ele>710.6</ele><time>2026-04-22T12:43:28.999Z</time></trkpt><trkpt lat="44.73220501314299" lon="9.574162788655949"><ele>716.2</ele><time>2026-04-22T12:43:29.999Z</time></trkpt><trkpt lat="44.73228970395103" lon="9.574113104846083"><ele>721.8</ele><time>2026-04-22T12:43:30.999Z</time></trkpt><trkpt lat="44.73238586064392" lon="9.574123432375165"><ele>727.4</ele><time>2026-04-22T12:43:32.999Z</time></trkpt><trkpt lat="44.73235219720419" lon="9.574239404874964"><ele>733.0</ele><time>2026-04-22T12:43:34.999Z</time></trkpt><trkpt lat="44.73232690619465" lon="9.574371422091449"><ele>735.2</ele><time>2026-04-22T12:43:37.999Z</time></trkpt><trkpt lat="44.7323165573439" lon="9.574525678809628"><ele>737.4</ele><time>2026-04-22T12:43:39.998Z</time></trkpt><trkpt lat="44.73234590286449" lon="9.574639667233695"><ele>739.6</ele><time>2026-04-22T12:43:41.998Z</time></trkpt><trkpt lat="44.73245368905533" lon="9.574691718822724"><ele>741.8000000000001</ele><time>2026-04-22T12:43:43.998Z</time></trkpt><trkpt lat="44.73252406355464" lon="9.574669260484939"><ele>744.0</ele><time>2026-04-22T12:43:48.999Z</time></trkpt><trkpt lat="44.7325924057725" lon="9.574655359152919"><ele>744.0</ele><time>2026-04-22T12:43:50.999Z</time></trkpt><trkpt lat="44.73267894930483" lon="9.57465662076213"><ele>744.0</ele><time>2026-04-22T12:43:53.999Z</time></trkpt><trkpt lat="44.7328775679009" lon="9.574668359215288"><ele>744.0</ele><time>2026-04-22T12:43:55.999Z</time></trkpt><trkpt lat="44.73293897116656" lon="9.574717153307995"><ele>744.0</ele><time>2026-04-22T12:43:57.999Z</time></trkpt><trkpt lat="44.733033917911044" lon="9.574733638917337"><ele>747.0</ele><time>2026-04-22T12:44:00.999Z</time></trkpt><trkpt lat="44.73311535074409" lon="9.574751780199282"><ele>750.0</ele><time>2026-04-22T12:44:02.999Z</time></trkpt><trkpt lat="44.733201028922586" lon="9.5747735519093"><ele>753.0</ele><time>2026-04-22T12:44:15.999Z</time></trkpt><trkpt lat="44.733287175692205" lon="9.574788345355817"><ele>756.0</ele><time>2026-04-22T12:44:17.999Z</time></trkpt><trkpt lat="44.73337785073712" lon="9.57480565518246"><ele>759.0</ele><time>2026-04-22T12:44:37.999Z</time></trkpt><trkpt lat="44.73328905085951" lon="9.574814614330508"><ele>762.0</ele><time>2026-04-22T12:44:43.999Z</time></trkpt><trkpt lat="44.7331919981803" lon="9.574866016664599"><ele>762.0</ele><time>2026-04-22T12:44:45.999Z</time></trkpt><trkpt lat="44.73318173925128" lon="9.574988521019081"><ele>762.0</ele><time>2026-04-22T12:44:47.999Z</time></trkpt><trkpt lat="44.73318160063403" lon="9.575094626363923"><ele>762.0</ele><time>2026-04-22T12:44:48.999Z</time></trkpt><trkpt lat="44.733172739513776" lon="9.575183040882774"><ele>762.0</ele><time>2026-04-22T12:44:49.999Z</time></trkpt><trkpt lat="44.733146473777225" lon="9.575301850081864"><ele>762.0</ele><time>2026-04-22T12:44:50.999Z</time></trkpt><trkpt lat="44.73309290505019" lon="9.575423593333527"><ele>762.0</ele><time>2026-04-22T12:44:51.999Z</time></trkpt><trkpt lat="44.73302277249174" lon="9.575550616430478"><ele>765.6</ele><time>2026-04-22T12:44:52.999Z</time></trkpt><trkpt lat="44.73292255888074" lon="9.575640356377953"><ele>769.2</ele><time>2026-04-22T12:44:53.999Z</time></trkpt><trkpt lat="44.732851319587155" lon="9.575740841389011"><ele>772.8</ele><time>2026-04-22T12:44:54.999Z</time></trkpt><trkpt lat="44.732799271203056" lon="9.575821141333593"><ele>776.4</ele><time>2026-04-22T12:44:55.999Z</time></trkpt><trkpt lat="44.732770364033485" lon="9.57593245797487"><ele>780.0</ele><time>2026-04-22T12:44:57Z</time></trkpt><trkpt lat="44.73276819133611" lon="9.576088853135289"><ele>782.8</ele><time>2026-04-22T12:44:58Z</time></trkpt><trkpt lat="44.73275101170949" lon="9.576263197012644"><ele>785.6</ele><time>2026-04-22T12:44:59Z</time></trkpt><trkpt lat="44.732735867716876" lon="9.576441008436955"><ele>788.4000000000001</ele><time>2026-04-22T12:45:00Z</time></trkpt><trkpt lat="44.73274924594153" lon="9.576589112793343"><ele>791.2</ele><time>2026-04-22T12:45:01Z</time></trkpt><trkpt lat="44.73278930416514" lon="9.576693808962192"><ele>794.0</ele><time>2026-04-22T12:45:02Z</time></trkpt><trkpt lat="44.73285010573725" lon="9.576793257770067"><ele>794.0</ele><time>2026-04-22T12:45:03Z</time></trkpt><trkpt lat="44.73291647821376" lon="9.576897207570044"><ele>794.0</ele><time>2026-04-22T12:45:04Z</time></trkpt><trkpt lat="44.73299239123937" lon="9.577005152646818"><ele>794.0</ele><time>2026-04-22T12:45:05Z</time></trkpt><trkpt lat="44.73307663855126" lon="9.5770999276571"><ele>794.0</ele><time>2026-04-22T12:45:06Z</time></trkpt><trkpt lat="44.7331683676942" lon="9.577191842353683"><ele>794.0</ele><time>2026-04-22T12:45:07Z</time></trkpt><trkpt lat="44.733267657728845" lon="9.577310669369744"><ele>793.25</ele><time>2026-04-22T12:45:08Z</time></trkpt><trkpt lat="44.73337477318405" lon="9.577414948267036"><ele>792.5</ele><time>2026-04-22T12:45:09Z</time></trkpt><trkpt lat="44.73346671047142" lon="9.577502185978792"><ele>791.75</ele><time>2026-04-22T12:45:10Z</time></trkpt><trkpt lat="44.733538320811306" lon="9.577590513684145"><ele>791.0</ele><time>2026-04-22T12:45:11Z</time></trkpt><trkpt lat="44.733621572311556" lon="9.57770814040756"><ele>791.0000000000001</ele><time>2026-04-22T12:45:12Z</time></trkpt><trkpt lat="44.73372046458095" lon="9.577795536861423"><ele>791.0</ele><time>2026-04-22T12:45:13Z</time></trkpt><trkpt lat="44.73380329576294" lon="9.577841447343328"><ele>791.0</ele><time>2026-04-22T12:45:14Z</time></trkpt><trkpt lat="44.733868393356836" lon="9.577869738384578"><ele>791.0</ele><time>2026-04-22T12:45:15Z</time></trkpt><trkpt lat="44.733945784025316" lon="9.577863856066303"><ele>791.0000000000001</ele><time>2026-04-22T12:45:16Z</time></trkpt><trkpt lat="44.73401166092224" lon="9.577844310447915"><ele>791.0</ele><time>2026-04-22T12:45:17Z</time></trkpt><trkpt lat="44.73409822456581" lon="9.577827727912517"><ele>791.0000000000001</ele><time>2026-04-22T12:45:18Z</time></trkpt><trkpt lat="44.73419081999508" lon="9.577841377367513"><ele>791.0</ele><time>2026-04-22T12:45:19Z</time></trkpt><trkpt lat="44.734285583243796" lon="9.577836375300413"><ele>791.0</ele><time>2026-04-22T12:45:20Z</time></trkpt><trkpt lat="44.734365620600414" lon="9.577801591635913"><ele>791.0</ele><time>2026-04-22T12:45:21Z</time></trkpt><trkpt lat="44.73445440284905" lon="9.577775819684053"><ele>791.0000000000001</ele><time>2026-04-22T12:45:22Z</time></trkpt><trkpt lat="44.734537305266166" lon="9.577773830041487"><ele>791.0</ele><time>2026-04-22T12:45:23Z</time></trkpt><trkpt lat="44.73461375553841" lon="9.577789799230148"><ele>788.6666666666667</ele><time>2026-04-22T12:45:24Z</time></trkpt><trkpt lat="44.73469491860822" lon="9.57781040434573"><ele>786.3333333333334</ele><time>2026-04-22T12:45:25Z</time></trkpt><trkpt lat="44.73476512920945" lon="9.577815348461879"><ele>784.0</ele><time>2026-04-22T12:45:26Z</time></trkpt><trkpt lat="44.73485114556877" lon="9.577785430673279"><ele>781.6666666666667</ele><time>2026-04-22T12:45:27Z</time></trkpt><trkpt lat="44.734931364745925" lon="9.577768839151101"><ele>779.3333333333334</ele><time>2026-04-22T12:45:28Z</time></trkpt><trkpt lat="44.73500936955484" lon="9.577724408825926"><ele>777.0</ele><time>2026-04-22T12:45:29Z</time></trkpt><trkpt lat="44.73511494755595" lon="9.577664648439045"><ele>777.0</ele><time>2026-04-22T12:45:30Z</time></trkpt><trkpt lat="44.7352053229259" lon="9.577624612061925"><ele>777.0</ele><time>2026-04-22T12:45:31Z</time></trkpt><trkpt lat="44.73528063516097" lon="9.57757522078418"><ele>777.0</ele><time>2026-04-22T12:45:32Z</time></trkpt><trkpt lat="44.73533312111877" lon="9.57752176826955"><ele>777.0</ele><time>2026-04-22T12:45:33Z</time></trkpt><trkpt lat="44.73537910147694" lon="9.577438936245217"><ele>777.0</ele><time>2026-04-22T12:45:34Z</time></trkpt><trkpt lat="44.735412875947404" lon="9.577346704030674"><ele>777.0</ele><time>2026-04-22T12:45:35Z</time></trkpt><trkpt lat="44.73544086876677" lon="9.577257832613958"><ele>772.0</ele><time>2026-04-22T12:45:36Z</time></trkpt><trkpt lat="44.735517296154704" lon="9.57717359761348"><ele>767.0</ele><time>2026-04-22T12:45:38Z</time></trkpt><trkpt lat="44.73562802132935" lon="9.57715689846171"><ele>762.0</ele><time>2026-04-22T12:45:40Z</time></trkpt><trkpt lat="44.73570881647667" lon="9.577136481032205"><ele>757.0</ele><time>2026-04-22T12:45:41Z</time></trkpt><trkpt lat="44.73580500603175" lon="9.577117511367518"><ele>752.0</ele><time>2026-04-22T12:45:42Z</time></trkpt><trkpt lat="44.73589054712159" lon="9.577127126211295"><ele>752.0</ele><time>2026-04-22T12:45:43Z</time></trkpt><trkpt lat="44.73599289161953" lon="9.577123186303668"><ele>752.0</ele><time>2026-04-22T12:45:44Z</time></trkpt><trkpt lat="44.7360822829956" lon="9.577130939063487"><ele>752.0</ele><time>2026-04-22T12:45:45Z</time></trkpt><trkpt lat="44.7361550530015" lon="9.577102679415818"><ele>752.0</ele><time>2026-04-22T12:45:46Z</time></trkpt><trkpt lat="44.736228585168554" lon="9.577055879256822"><ele>752.0</ele><time>2026-04-22T12:45:47Z</time></trkpt><trkpt lat="44.73629241668923" lon="9.57700999937722"><ele>752.0</ele><time>2026-04-22T12:45:48Z</time></trkpt><trkpt lat="44.73636139641924" lon="9.57706539443456"><ele>751.3333333333333</ele><time>2026-04-22T12:45:50Z</time></trkpt><trkpt lat="44.73655788356969" lon="9.57735762877224"><ele>750.6666666666666</ele><time>2026-04-22T12:45:54Z</time></trkpt><trkpt lat="44.73664288043992" lon="9.577360191912963"><ele>750.0</ele><time>2026-04-22T12:45:55Z</time></trkpt><trkpt lat="44.73672135703046" lon="9.577409586439975"><ele>750.0</ele><time>2026-04-22T12:45:56Z</time></trkpt><trkpt lat="44.736802387227215" lon="9.577446778774311"><ele>750.0</ele><time>2026-04-22T12:45:57Z</time></trkpt><trkpt lat="44.73687920483008" lon="9.577480944169682"><ele>750.0</ele><time>2026-04-22T12:45:58Z</time></trkpt><trkpt lat="44.73694826505888" lon="9.57752692421257"><ele>750.0</ele><time>2026-04-22T12:45:59Z</time></trkpt><trkpt lat="44.737062257919625" lon="9.57757629812807"><ele>750.0</ele><time>2026-04-22T12:46:01Z</time></trkpt><trkpt lat="44.73715134418186" lon="9.577607110602054"><ele>751.6</ele><time>2026-04-22T12:46:03Z</time></trkpt><trkpt lat="44.73723385671836" lon="9.577676248593738"><ele>753.2</ele><time>2026-04-22T12:46:05Z</time></trkpt><trkpt lat="44.73733153852268" lon="9.577771650429998"><ele>754.8</ele><time>2026-04-22T12:46:06Z</time></trkpt><trkpt lat="44.73740790934513" lon="9.577852683821973"><ele>756.4</ele><time>2026-04-22T12:46:07Z</time></trkpt><trkpt lat="44.73746659309691" lon="9.577924076272614"><ele>758.0</ele><time>2026-04-22T12:46:08Z</time></trkpt><trkpt lat="44.73753478988912" lon="9.57801056940761"><ele>754.2</ele><time>2026-04-22T12:46:09Z</time></trkpt><trkpt lat="44.737596055416816" lon="9.578091328382278"><ele>750.4</ele><time>2026-04-22T12:46:10Z</time></trkpt><trkpt lat="44.73766017175425" lon="9.5781329423772"><ele>746.6</ele><time>2026-04-22T12:46:11Z</time></trkpt><trkpt lat="44.73777522109853" lon="9.578162778401632"><ele>742.8000000000001</ele><time>2026-04-22T12:46:13Z</time></trkpt><trkpt lat="44.737892469347344" lon="9.578197135905054"><ele>739.0</ele><time>2026-04-22T12:46:14Z</time></trkpt><trkpt lat="44.7379865319095" lon="9.578216122551728"><ele>739.0</ele><time>2026-04-22T12:46:15Z</time></trkpt><trkpt lat="44.73809955134665" lon="9.578213534027137"><ele>739.0</ele><time>2026-04-22T12:46:16Z</time></trkpt><trkpt lat="44.73820343143946" lon="9.578240141229248"><ele>739.0</ele><time>2026-04-22T12:46:17Z</time></trkpt><trkpt lat="44.73826642763634" lon="9.57826608962303"><ele>739.0</ele><time>2026-04-22T12:46:18Z</time></trkpt><trkpt lat="44.73833182387536" lon="9.57826756862846"><ele>739.0</ele><time>2026-04-22T12:46:29Z</time></trkpt><trkpt lat="44.73839788610431" lon="9.57827630158663"><ele>739.0</ele><time>2026-04-22T12:46:32Z</time></trkpt><trkpt lat="44.73846964446327" lon="9.578263004563"><ele>739.0</ele><time>2026-04-22T12:46:36Z</time></trkpt><trkpt lat="44.738534220982174" lon="9.578216347862227"><ele>739.0</ele><time>2026-04-22T12:46:51Z</time></trkpt><trkpt lat="44.7386062187771" lon="9.578214411585193"><ele>739.0</ele><time>2026-04-22T12:46:53Z</time></trkpt><trkpt lat="44.738678524942" lon="9.578205548492205"><ele>739.0</ele><time>2026-04-22T12:46:54Z</time></trkpt><trkpt lat="44.73874264509113" lon="9.578189258118448"><ele>739.0</ele><time>2026-04-22T12:46:55Z</time></trkpt><trkpt lat="44.738934750338764" lon="9.578147941008625"><ele>737.1666666666667</ele><time>2026-04-22T12:46:57Z</time></trkpt><trkpt lat="44.73903118783453" lon="9.578119268043919"><ele>735.3333333333334</ele><time>2026-04-22T12:46:58Z</time></trkpt><trkpt lat="44.7391279270941" lon="9.578122060384162"><ele>733.5</ele><time>2026-04-22T12:46:59Z</time></trkpt><trkpt lat="44.73920003701041" lon="9.578139954791279"><ele>731.6666666666666</ele><time>2026-04-22T12:47:00Z</time></trkpt><trkpt lat="44.73927115806986" lon="9.578133194048235"><ele>729.8333333333333</ele><time>2026-04-22T12:47:02Z</time></trkpt><trkpt lat="44.73937502066793" lon="9.578112281776843"><ele>728.0</ele><time>2026-04-22T12:47:04Z</time></trkpt><trkpt lat="44.73947968887721" lon="9.57804455468049"><ele>725.5999999999999</ele><time>2026-04-22T12:47:06Z</time></trkpt><trkpt lat="44.73953234710096" lon="9.577893393953117"><ele>723.1999999999999</ele><time>2026-04-22T12:47:08Z</time></trkpt><trkpt lat="44.739613469453026" lon="9.577778865429877"><ele>720.8</ele><time>2026-04-22T12:47:10Z</time></trkpt><trkpt lat="44.73972984589443" lon="9.577760502468204"><ele>718.4</ele><time>2026-04-22T12:47:12Z</time></trkpt><trkpt lat="44.739809606652756" lon="9.577759396831905"><ele>716.0</ele><time>2026-04-22T12:47:13Z</time></trkpt><trkpt lat="44.73992367282688" lon="9.57773550247864"><ele>716.0</ele><time>2026-04-22T12:47:14Z</time></trkpt><trkpt lat="44.74001616395186" lon="9.577730734022753"><ele>716.0</ele><time>2026-04-22T12:47:15Z</time></trkpt><trkpt lat="44.74013752599761" lon="9.577667214378375"><ele>716.0</ele><time>2026-04-22T12:47:17Z</time></trkpt><trkpt lat="44.74021926733674" lon="9.577540241367801"><ele>716.0</ele><time>2026-04-22T12:47:19Z</time></trkpt><trkpt lat="44.74026628224487" lon="9.577442475920833"><ele>716.0</ele><time>2026-04-22T12:47:20Z</time></trkpt><trkpt lat="44.74032458689446" lon="9.577392483444674"><ele>715.1999999999999</ele><time>2026-04-22T12:47:21Z</time></trkpt><trkpt lat="44.74043220261706" lon="9.577356386986896"><ele>714.4</ele><time>2026-04-22T12:47:23Z</time></trkpt><trkpt lat="44.74051169361713" lon="9.577391144445919"><ele>713.6</ele><time>2026-04-22T12:47:25Z</time></trkpt><trkpt lat="44.74060450960319" lon="9.577444072830886"><ele>712.8</ele><time>2026-04-22T12:47:27Z</time></trkpt><trkpt lat="44.74067612364269" lon="9.577487841852335"><ele>712.0</ele><time>2026-04-22T12:47:29Z</time></trkpt><trkpt lat="44.740755988467924" lon="9.57758530239505"><ele>712.0</ele><time>2026-04-22T12:47:31Z</time></trkpt><trkpt lat="44.74086653614873" lon="9.57764814926266"><ele>712.0</ele><time>2026-04-22T12:47:33Z</time></trkpt><trkpt lat="44.740932025978175" lon="9.577787993564966"><ele>712.0</ele><time>2026-04-22T12:47:35Z</time></trkpt><trkpt lat="44.74092926800572" lon="9.577884001476436"><ele>712.0</ele><time>2026-04-22T12:47:36Z</time></trkpt><trkpt lat="44.74103328650144" lon="9.577998395577678"><ele>712.0</ele><time>2026-04-22T12:47:39Z</time></trkpt><trkpt lat="44.741109578831946" lon="9.578063112966126"><ele>709.4000000000001</ele><time>2026-04-22T12:47:40Z</time></trkpt><trkpt lat="44.74117625538313" lon="9.578144945324253"><ele>706.8000000000001</ele><time>2026-04-22T12:47:41Z</time></trkpt><trkpt lat="44.74124073956504" lon="9.578236034848176"><ele>704.2</ele><time>2026-04-22T12:47:42Z</time></trkpt><trkpt lat="44.74131042217169" lon="9.578335116454925"><ele>701.6</ele><time>2026-04-22T12:47:43Z</time></trkpt><trkpt lat="44.741395782253825" lon="9.578428499676768"><ele>699.0</ele><time>2026-04-22T12:47:44Z</time></trkpt><trkpt lat="44.74145461096872" lon="9.578495287795088"><ele>699.0</ele><time>2026-04-22T12:47:45Z</time></trkpt><trkpt lat="44.741517040894074" lon="9.57855084834494"><ele>699.0</ele><time>2026-04-22T12:47:47Z</time></trkpt><trkpt lat="44.741570347933425" lon="9.578614906084956"><ele>699.0</ele><time>2026-04-22T12:47:49Z</time></trkpt><trkpt lat="44.7416239079551" lon="9.5786887825631"><ele>699.0</ele><time>2026-04-22T12:47:50Z</time></trkpt><trkpt lat="44.741722617879255" lon="9.578788721351474"><ele>699.0</ele><time>2026-04-22T12:47:52Z</time></trkpt><trkpt lat="44.74180825628144" lon="9.578848477683403"><ele>699.0</ele><time>2026-04-22T12:47:53Z</time></trkpt><trkpt lat="44.741907959353526" lon="9.578918744386927"><ele>696.5</ele><time>2026-04-22T12:47:54Z</time></trkpt><trkpt lat="44.74197995961076" lon="9.578970604084025"><ele>694.0</ele><time>2026-04-22T12:47:55Z</time></trkpt><trkpt lat="44.74204890422747" lon="9.578999556333194"><ele>691.5</ele><time>2026-04-22T12:47:56Z</time></trkpt><trkpt lat="44.742116042357495" lon="9.57901093450387"><ele>689.0</ele><time>2026-04-22T12:47:57Z</time></trkpt><trkpt lat="44.74219247950611" lon="9.579017386290309"><ele>686.5</ele><time>2026-04-22T12:47:58Z</time></trkpt><trkpt lat="44.74226600673947" lon="9.579027100640218"><ele>684.0</ele><time>2026-04-22T12:47:59Z</time></trkpt><trkpt lat="44.74236941222409" lon="9.579000556839466"><ele>684.0</ele><time>2026-04-22T12:48:01Z</time></trkpt><trkpt lat="44.742460282632216" lon="9.579003893352345"><ele>684.0</ele><time>2026-04-22T12:48:03Z</time></trkpt><trkpt lat="44.742502966842856" lon="9.579109811565218"><ele>684.0</ele><time>2026-04-22T12:48:05Z</time></trkpt><trkpt lat="44.742576564983274" lon="9.579228691120521"><ele>684.0</ele><time>2026-04-22T12:48:07Z</time></trkpt><trkpt lat="44.74264770982843" lon="9.579348275979559"><ele>684.0</ele><time>2026-04-22T12:48:09Z</time></trkpt><trkpt lat="44.74267850237584" lon="9.579425797287046"><ele>685.1666666666666</ele><time>2026-04-22T12:48:10Z</time></trkpt><trkpt lat="44.742714789461736" lon="9.579516014780179"><ele>686.3333333333334</ele><time>2026-04-22T12:48:11Z</time></trkpt><trkpt lat="44.7427618694033" lon="9.579636981772959"><ele>687.5</ele><time>2026-04-22T12:48:12Z</time></trkpt><trkpt lat="44.74280967964934" lon="9.579764899807998"><ele>688.6666666666667</ele><time>2026-04-22T12:48:13Z</time></trkpt><trkpt lat="44.742860414860935" lon="9.579855099171215"><ele>689.8333333333334</ele><time>2026-04-22T12:48:14Z</time></trkpt><trkpt lat="44.742907421475486" lon="9.57992284716948"><ele>691.0</ele><time>2026-04-22T12:48:15Z</time></trkpt><trkpt lat="44.74296787383055" lon="9.580009593271717"><ele>691.0</ele><time>2026-04-22T12:48:16Z</time></trkpt><trkpt lat="44.743022912161216" lon="9.580140091740189"><ele>691.0</ele><time>2026-04-22T12:48:17Z</time></trkpt><trkpt lat="44.743083264852615" lon="9.580259856057491"><ele>691.0</ele><time>2026-04-22T12:48:18Z</time></trkpt><trkpt lat="44.74313442138666" lon="9.580349874964002"><ele>691.0</ele><time>2026-04-22T12:48:19Z</time></trkpt><trkpt lat="44.74321234471645" lon="9.580444796511236"><ele>691.0</ele><time>2026-04-22T12:48:21Z</time></trkpt><trkpt lat="44.743287567219966" lon="9.58056405965862"><ele>691.1666666666667</ele><time>2026-04-22T12:48:23Z</time></trkpt><trkpt lat="44.74334738812135" lon="9.580664905294142"><ele>691.3333333333334</ele><time>2026-04-22T12:48:24Z</time></trkpt><trkpt lat="44.74341704430003" lon="9.580760530761875"><ele>691.5</ele><time>2026-04-22T12:48:25Z</time></trkpt><trkpt lat="44.74349280175149" lon="9.580852120448473"><ele>691.6666666666666</ele><time>2026-04-22T12:48:26Z</time></trkpt><trkpt lat="44.74353693145855" lon="9.580932577974378"><ele>691.8333333333333</ele><time>2026-04-22T12:48:27Z</time></trkpt><trkpt lat="44.743566790006454" lon="9.581029382568287"><ele>692.0</ele><time>2026-04-22T12:48:28Z</time></trkpt><trkpt lat="44.74357444291043" lon="9.581167090887117"><ele>689.4000000000001</ele><time>2026-04-22T12:48:29Z</time></trkpt><trkpt lat="44.74358299002764" lon="9.581344852289421"><ele>686.8000000000001</ele><time>2026-04-22T12:48:30Z</time></trkpt><trkpt lat="44.74359614322359" lon="9.581517600191352"><ele>684.2</ele><time>2026-04-22T12:48:31Z</time></trkpt><trkpt lat="44.74363077521356" lon="9.581651924665895"><ele>681.6</ele><time>2026-04-22T12:48:32Z</time></trkpt><trkpt lat="44.74367667756785" lon="9.581748793493054"><ele>679.0</ele><time>2026-04-22T12:48:33Z</time></trkpt><trkpt lat="44.74376889172536" lon="9.581850731041364"><ele>679.0</ele><time>2026-04-22T12:48:35Z</time></trkpt><trkpt lat="44.74384963172603" lon="9.58188382813596"><ele>679.0</ele><time>2026-04-22T12:48:36Z</time></trkpt><trkpt lat="44.74391020179454" lon="9.581918835638385"><ele>679.0</ele><time>2026-04-22T12:48:37Z</time></trkpt><trkpt lat="44.743977455427796" lon="9.581944938801152"><ele>679.0</ele><time>2026-04-22T12:48:39Z</time></trkpt><trkpt lat="44.74405674892221" lon="9.58203542708946"><ele>679.0</ele><time>2026-04-22T12:48:41Z</time></trkpt><trkpt lat="44.744116470728706" lon="9.582085824527192"><ele>679.0</ele><time>2026-04-22T12:48:42Z</time></trkpt><trkpt lat="44.744232073210014" lon="9.582145735818665"><ele>679.0</ele><time>2026-04-22T12:48:44Z</time></trkpt><trkpt lat="44.74429965662779" lon="9.582207793394973"><ele>679.0</ele><time>2026-04-22T12:48:45Z</time></trkpt><trkpt lat="44.7443855047952" lon="9.58224274635714"><ele>679.0</ele><time>2026-04-22T12:49:04Z</time></trkpt><trkpt lat="44.74438259032848" lon="9.582137475290754"><ele>679.0</ele><time>2026-04-22T12:49:08Z</time></trkpt><trkpt lat="44.74432937478483" lon="9.582005362036014"><ele>679.0</ele><time>2026-04-22T12:49:10Z</time></trkpt><trkpt lat="44.744317252357256" lon="9.581910384290397"><ele>679.0</ele><time>2026-04-22T12:49:11Z</time></trkpt><trkpt lat="44.74428844717406" lon="9.581792061029866"><ele>679.0</ele><time>2026-04-22T12:49:13Z</time></trkpt><trkpt lat="44.74419129564639" lon="9.581667747088142"><ele>679.0</ele><time>2026-04-22T12:49:15Z</time></trkpt><trkpt lat="44.74414965961168" lon="9.581584881933729"><ele>679.0</ele><time>2026-04-22T12:49:16Z</time></trkpt><trkpt lat="44.74412288567543" lon="9.581497590011269"><ele>679.0</ele><time>2026-04-22T12:49:17Z</time></trkpt><trkpt lat="44.74409161296614" lon="9.581343273455182"><ele>679.0</ele><time>2026-04-22T12:49:19Z</time></trkpt><trkpt lat="44.744074088415196" lon="9.58120260950986"><ele>681.1666666666667</ele><time>2026-04-22T12:49:21Z</time></trkpt><trkpt lat="44.74410758148785" lon="9.581120400872486"><ele>683.3333333333334</ele><time>2026-04-22T12:49:22Z</time></trkpt><trkpt lat="44.744141920174854" lon="9.581012598581575"><ele>685.5</ele><time>2026-04-22T12:49:23Z</time></trkpt><trkpt lat="44.74411482343798" lon="9.580920120140702"><ele>687.6666666666666</ele><time>2026-04-22T12:49:24Z</time></trkpt><trkpt lat="44.74405198911722" lon="9.580829881177191"><ele>689.8333333333333</ele><time>2026-04-22T12:49:25Z</time></trkpt><trkpt lat="44.743987934368086" lon="9.580732702435185"><ele>692.0</ele><time>2026-04-22T12:49:26Z</time></trkpt><trkpt lat="44.743935896687375" lon="9.580655446362414"><ele>692.0</ele><time>2026-04-22T12:49:27Z</time></trkpt><trkpt lat="44.743958448029304" lon="9.580463980777298"><ele>692.0</ele><time>2026-04-22T12:49:29Z</time></trkpt><trkpt lat="44.74395282357423" lon="9.580329601609542"><ele>692.0</ele><time>2026-04-22T12:49:30Z</time></trkpt><trkpt lat="44.743934482961954" lon="9.580173413655938"><ele>692.0</ele><time>2026-04-22T12:49:31Z</time></trkpt><trkpt lat="44.74391334814235" lon="9.580033093607877"><ele>692.0</ele><time>2026-04-22T12:49:32Z</time></trkpt><trkpt lat="44.74388029488427" lon="9.579955383796435"><ele>694.0</ele><time>2026-04-22T12:49:33Z</time></trkpt><trkpt lat="44.743805021147615" lon="9.579845755527021"><ele>696.0</ele><time>2026-04-22T12:49:34Z</time></trkpt><trkpt lat="44.743749725146756" lon="9.579709723734318"><ele>698.0</ele><time>2026-04-22T12:49:35Z</time></trkpt><trkpt lat="44.743745613898334" lon="9.57959528337479"><ele>700.0</ele><time>2026-04-22T12:49:36Z</time></trkpt><trkpt lat="44.74378776435708" lon="9.579463710081338"><ele>702.0</ele><time>2026-04-22T12:49:37Z</time></trkpt><trkpt lat="44.743844889065436" lon="9.579341726351107"><ele>704.4000000000001</ele><time>2026-04-22T12:49:38Z</time></trkpt><trkpt lat="44.743883611052425" lon="9.57921528275597"><ele>706.8000000000001</ele><time>2026-04-22T12:49:39Z</time></trkpt><trkpt lat="44.743885773689456" lon="9.579120092387912"><ele>709.2</ele><time>2026-04-22T12:49:40Z</time></trkpt><trkpt lat="44.74384175238118" lon="9.579036363642224"><ele>711.6</ele><time>2026-04-22T12:49:41Z</time></trkpt><trkpt lat="44.743765425016" lon="9.578904376823793"><ele>714.0</ele><time>2026-04-22T12:49:42Z</time></trkpt><trkpt lat="44.743727954443195" lon="9.578760505055154"><ele>716.0</ele><time>2026-04-22T12:49:43Z</time></trkpt><trkpt lat="44.74375045474331" lon="9.578636980869849"><ele>718.0</ele><time>2026-04-22T12:49:44Z</time></trkpt><trkpt lat="44.74378302309333" lon="9.578498721753176"><ele>720.0</ele><time>2026-04-22T12:49:45Z</time></trkpt><trkpt lat="44.74378225091678" lon="9.57835908559762"><ele>722.0</ele><time>2026-04-22T12:49:46Z</time></trkpt><trkpt lat="44.74376965642185" lon="9.578233762499757"><ele>724.0</ele><time>2026-04-22T12:49:47.001Z</time></trkpt><trkpt lat="44.743761028619964" lon="9.57809553450546"><ele>724.0</ele><time>2026-04-22T12:49:48.001Z</time></trkpt><trkpt lat="44.74374326536357" lon="9.57797709836152"><ele>724.0</ele><time>2026-04-22T12:49:49.001Z</time></trkpt><trkpt lat="44.74370048806767" lon="9.577894123660771"><ele>724.0</ele><time>2026-04-22T12:49:50.001Z</time></trkpt><trkpt lat="44.74363764898126" lon="9.577823237702978"><ele>724.0</ele><time>2026-04-22T12:49:51.001Z</time></trkpt><trkpt lat="44.74358964660087" lon="9.577732404847524"><ele>724.0</ele><time>2026-04-22T12:49:53.001Z</time></trkpt><trkpt lat="44.743576200759605" lon="9.577622621672516"><ele>724.0</ele><time>2026-04-22T12:49:55.001Z</time></trkpt><trkpt lat="44.74361834277145" lon="9.57744388597238"><ele>728.6</ele><time>2026-04-22T12:49:57.001Z</time></trkpt><trkpt lat="44.74364799508227" lon="9.577359857839411"><ele>733.2</ele><time>2026-04-22T12:49:58.001Z</time></trkpt><trkpt lat="44.743675135415" lon="9.57720574514077"><ele>737.8000000000001</ele><time>2026-04-22T12:50:00.001Z</time></trkpt><trkpt lat="44.74370118427023" lon="9.577017551166035"><ele>742.4000000000001</ele><time>2026-04-22T12:50:02.001Z</time></trkpt><trkpt lat="44.74372654061777" lon="9.57692481755521"><ele>747.0</ele><time>2026-04-22T12:50:03.001Z</time></trkpt><trkpt lat="44.74382637378707" lon="9.576894754528855"><ele>751.3333333333334</ele><time>2026-04-22T12:50:05.001Z</time></trkpt><trkpt lat="44.74389057725549" lon="9.576889591086942"><ele>755.6666666666667</ele><time>2026-04-22T12:50:06.001Z</time></trkpt><trkpt lat="44.74395673816667" lon="9.576858463285053"><ele>760.0</ele><time>2026-04-22T12:50:07.001Z</time></trkpt><trkpt lat="44.744037037613666" lon="9.576811569194923"><ele>764.3333333333334</ele><time>2026-04-22T12:50:08.001Z</time></trkpt><trkpt lat="44.74413660349934" lon="9.576783425481791"><ele>768.6666666666667</ele><time>2026-04-22T12:50:09.001Z</time></trkpt><trkpt lat="44.74422941372706" lon="9.576806262251718"><ele>773.0</ele><time>2026-04-22T12:50:11Z</time></trkpt><trkpt lat="44.74433129205882" lon="9.576786786618538"><ele>773.0</ele><time>2026-04-22T12:50:13Z</time></trkpt><trkpt lat="44.744369400856" lon="9.576709233533018"><ele>773.0</ele><time>2026-04-22T12:50:17Z</time></trkpt><trkpt lat="44.74442968126875" lon="9.576663962589528"><ele>773.0</ele><time>2026-04-22T12:50:18Z</time></trkpt><trkpt lat="44.74452355385831" lon="9.576475918098904"><ele>773.0</ele><time>2026-04-22T12:50:21Z</time></trkpt><trkpt lat="44.74463532637722" lon="9.576419922973832"><ele>773.0</ele><time>2026-04-22T12:50:23Z</time></trkpt><trkpt lat="44.74472129955329" lon="9.576359247521534"><ele>773.0</ele><time>2026-04-22T12:50:24Z</time></trkpt><trkpt lat="44.74476444836886" lon="9.576278966271394"><ele>773.0</ele><time>2026-04-22T12:50:25Z</time></trkpt><trkpt lat="44.744726128261306" lon="9.576127159405459"><ele>773.0</ele><time>2026-04-22T12:50:27Z</time></trkpt><trkpt lat="44.74465543905965" lon="9.576006220724413"><ele>773.0</ele><time>2026-04-22T12:50:29Z</time></trkpt><trkpt lat="44.7446187850774" lon="9.57589308112758"><ele>773.0</ele><time>2026-04-22T12:50:30Z</time></trkpt><trkpt lat="44.74457415446591" lon="9.575771662580209"><ele>775.8333333333334</ele><time>2026-04-22T12:50:31Z</time></trkpt><trkpt lat="44.744531239878434" lon="9.575657494630336"><ele>778.6666666666667</ele><time>2026-04-22T12:50:32Z</time></trkpt><trkpt lat="44.74449230647629" lon="9.575548445526968"><ele>781.5</ele><time>2026-04-22T12:50:33Z</time></trkpt><trkpt lat="44.74447076194552" lon="9.575434245954613"><ele>784.3333333333333</ele><time>2026-04-22T12:50:34Z</time></trkpt><trkpt lat="44.744460151539265" lon="9.575310005199892"><ele>787.1666666666666</ele><time>2026-04-22T12:50:35Z</time></trkpt><trkpt lat="44.744463764595814" lon="9.575190262202533"><ele>790.0</ele><time>2026-04-22T12:50:36Z</time></trkpt><trkpt lat="44.74449330154027" lon="9.575065275379256"><ele>792.8</ele><time>2026-04-22T12:50:37Z</time></trkpt><trkpt lat="44.744508879739044" lon="9.574943399564765"><ele>795.6</ele><time>2026-04-22T12:50:38Z</time></trkpt><trkpt lat="44.74451378973884" lon="9.574837160620836"><ele>798.4000000000001</ele><time>2026-04-22T12:50:39Z</time></trkpt><trkpt lat="44.74460306167657" lon="9.574781235994825"><ele>801.2</ele><time>2026-04-22T12:50:41Z</time></trkpt><trkpt lat="44.744611622108124" lon="9.574630073996394"><ele>804.0</ele><time>2026-04-22T12:50:43Z</time></trkpt><trkpt lat="44.7446683904256" lon="9.574481511577027"><ele>807.4000000000001</ele><time>2026-04-22T12:50:45Z</time></trkpt><trkpt lat="44.74476022860256" lon="9.574402986567087"><ele>810.8</ele><time>2026-04-22T12:50:47Z</time></trkpt><trkpt lat="44.744816864609476" lon="9.574343129180042"><ele>814.2</ele><time>2026-04-22T12:50:48Z</time></trkpt><trkpt lat="44.74488039134933" lon="9.57426352573591"><ele>817.5999999999999</ele><time>2026-04-22T12:50:49Z</time></trkpt><trkpt lat="44.744966947543794" lon="9.574180325512355"><ele>821.0</ele><time>2026-04-22T12:50:50Z</time></trkpt><trkpt lat="44.7450304764134" lon="9.574093332560512"><ele>821.0</ele><time>2026-04-22T12:50:51Z</time></trkpt><trkpt lat="44.745070268854484" lon="9.57397685486064"><ele>821.0</ele><time>2026-04-22T12:50:53Z</time></trkpt><trkpt lat="44.744988429560195" lon="9.573887943410092"><ele>821.0</ele><time>2026-04-22T12:50:55Z</time></trkpt><trkpt lat="44.744758151016875" lon="9.573923470023802"><ele>821.0</ele><time>2026-04-22T12:50:57Z</time></trkpt><trkpt lat="44.74461961502781" lon="9.573822748660918"><ele>821.0</ele><time>2026-04-22T12:50:59Z</time></trkpt><trkpt lat="44.744555755475666" lon="9.573802707840072"><ele>821.0</ele><time>2026-04-22T12:51:00Z</time></trkpt><trkpt lat="44.74446067987892" lon="9.573828227936353"><ele>821.0</ele><time>2026-04-22T12:51:01Z</time></trkpt><trkpt lat="44.74433858281515" lon="9.57384543832943"><ele>821.0</ele><time>2026-04-22T12:51:02Z</time></trkpt><trkpt lat="44.744177064077164" lon="9.57382962076828"><ele>821.0</ele><time>2026-04-22T12:51:03Z</time></trkpt><trkpt lat="44.74405081676554" lon="9.573805401666672"><ele>823.1666666666667</ele><time>2026-04-22T12:51:04Z</time></trkpt><trkpt lat="44.74396841555654" lon="9.573792322689922"><ele>825.3333333333334</ele><time>2026-04-22T12:51:05Z</time></trkpt><trkpt lat="44.743900321459876" lon="9.573748599218176"><ele>827.5</ele><time>2026-04-22T12:51:06Z</time></trkpt><trkpt lat="44.7438212047343" lon="9.57372329799037"><ele>829.6666666666667</ele><time>2026-04-22T12:51:07Z</time></trkpt><trkpt lat="44.74373894827172" lon="9.57369897177551"><ele>831.8333333333334</ele><time>2026-04-22T12:51:08Z</time></trkpt><trkpt lat="44.743665041003666" lon="9.573632589436908"><ele>834.0</ele><time>2026-04-22T12:51:09Z</time></trkpt><trkpt lat="44.74359884927059" lon="9.573582770578776"><ele>838.4000000000001</ele><time>2026-04-22T12:51:10Z</time></trkpt><trkpt lat="44.74347270404608" lon="9.573595753996468"><ele>842.8</ele><time>2026-04-22T12:51:12Z</time></trkpt><trkpt lat="44.743377598187124" lon="9.573556495283785"><ele>847.1999999999999</ele><time>2026-04-22T12:51:13Z</time></trkpt><trkpt lat="44.743294392550055" lon="9.573536806950012"><ele>851.5999999999999</ele><time>2026-04-22T12:51:14Z</time></trkpt><trkpt lat="44.743202567689565" lon="9.573489650326465"><ele>856.0</ele><time>2026-04-22T12:51:15Z</time></trkpt><trkpt lat="44.74308951214113" lon="9.573395034015446"><ele>856.0</ele><time>2026-04-22T12:51:16Z</time></trkpt><trkpt lat="44.742978236286426" lon="9.573309604616515"><ele>855.9999999999999</ele><time>2026-04-22T12:51:17Z</time></trkpt><trkpt lat="44.74291677660496" lon="9.573257714037148"><ele>855.9999999999999</ele><time>2026-04-22T12:51:18Z</time></trkpt><trkpt lat="44.742851232084874" lon="9.573227650228864"><ele>856.0</ele><time>2026-04-22T12:51:20Z</time></trkpt><trkpt lat="44.74272612458461" lon="9.573235314365093"><ele>856.0</ele><time>2026-04-22T12:51:22Z</time></trkpt><trkpt lat="44.7426402545057" lon="9.573235068424058"><ele>859.0</ele><time>2026-04-22T12:51:23Z</time></trkpt><trkpt lat="44.74257273371836" lon="9.573227241198659"><ele>861.9999999999999</ele><time>2026-04-22T12:51:24Z</time></trkpt><trkpt lat="44.74251735556898" lon="9.57318209603029"><ele>864.9999999999999</ele><time>2026-04-22T12:51:26Z</time></trkpt><trkpt lat="44.742306877104056" lon="9.573039120057848"><ele>868.0</ele><time>2026-04-22T12:51:29Z</time></trkpt><trkpt lat="44.74230207111047" lon="9.572935022863032"><ele>871.0</ele><time>2026-04-22T12:51:32Z</time></trkpt><trkpt lat="44.74237142528934" lon="9.572798141308802"><ele>873.5999999999999</ele><time>2026-04-22T12:51:34Z</time></trkpt><trkpt lat="44.74234017761597" lon="9.572690153505734"><ele>876.1999999999999</ele><time>2026-04-22T12:51:35Z</time></trkpt><trkpt lat="44.74233398070859" lon="9.5725649021345"><ele>878.8000000000001</ele><time>2026-04-22T12:51:36Z</time></trkpt><trkpt lat="44.74232222694363" lon="9.572381328063113"><ele>881.4000000000001</ele><time>2026-04-22T12:51:37Z</time></trkpt><trkpt lat="44.742256619243335" lon="9.572250377777921"><ele>884.0</ele><time>2026-04-22T12:51:38Z</time></trkpt><trkpt lat="44.74217182816969" lon="9.572110306345573"><ele>885.25</ele><time>2026-04-22T12:51:39Z</time></trkpt><trkpt lat="44.74209357050839" lon="9.571958443362465"><ele>886.5</ele><time>2026-04-22T12:51:40Z</time></trkpt><trkpt lat="44.74203602587177" lon="9.571820505704741"><ele>887.75</ele><time>2026-04-22T12:51:41Z</time></trkpt><trkpt lat="44.741978915704856" lon="9.5716784697073"><ele>889.0</ele><time>2026-04-22T12:51:42Z</time></trkpt><trkpt lat="44.74191302220374" lon="9.57157664099496"><ele>890.9999999999999</ele><time>2026-04-22T12:51:43Z</time></trkpt><trkpt lat="44.74185544858101" lon="9.571516248569425"><ele>893.0</ele><time>2026-04-22T12:51:44Z</time></trkpt><trkpt lat="44.741801086548" lon="9.571433178688297"><ele>895.0</ele><time>2026-04-22T12:51:45Z</time></trkpt><trkpt lat="44.74176889726119" lon="9.571329178394942"><ele>897.0</ele><time>2026-04-22T12:51:46Z</time></trkpt><trkpt lat="44.74172388139178" lon="9.571195081068993"><ele>898.9999999999999</ele><time>2026-04-22T12:51:47Z</time></trkpt><trkpt lat="44.74167160680068" lon="9.571075857156407"><ele>901.0</ele><time>2026-04-22T12:51:48Z</time></trkpt><trkpt lat="44.741628975884716" lon="9.571006392298004"><ele>901.25</ele><time>2026-04-22T12:51:49Z</time></trkpt><trkpt lat="44.741528804845736" lon="9.570845641857089"><ele>901.5</ele><time>2026-04-22T12:51:51Z</time></trkpt><trkpt lat="44.74145835383645" lon="9.570735490036038"><ele>901.75</ele><time>2026-04-22T12:51:52Z</time></trkpt><trkpt lat="44.74136533536265" lon="9.570598727612225"><ele>902.0</ele><time>2026-04-22T12:51:53Z</time></trkpt><trkpt lat="44.74126084302626" lon="9.570482085160785"><ele>902.0</ele><time>2026-04-22T12:51:54Z</time></trkpt><trkpt lat="44.74117433384455" lon="9.570363729654188"><ele>902.0</ele><time>2026-04-22T12:51:55Z</time></trkpt><trkpt lat="44.741115950834036" lon="9.570235739343174"><ele>902.0</ele><time>2026-04-22T12:51:56Z</time></trkpt><trkpt lat="44.74107379285265" lon="9.570108355513929"><ele>902.0</ele><time>2026-04-22T12:51:57Z</time></trkpt><trkpt lat="44.74104355889923" lon="9.569987977703612"><ele>902.0</ele><time>2026-04-22T12:51:58Z</time></trkpt><trkpt lat="44.741035243365936" lon="9.569868467104333"><ele>904.0</ele><time>2026-04-22T12:51:59Z</time></trkpt><trkpt lat="44.7410362376036" lon="9.569736514747683"><ele>906.0</ele><time>2026-04-22T12:52:00Z</time></trkpt><trkpt lat="44.74105915455706" lon="9.569621754084649"><ele>908.0</ele><time>2026-04-22T12:52:01Z</time></trkpt><trkpt lat="44.74113806203746" lon="9.569538577830272"><ele>910.0</ele><time>2026-04-22T12:52:03.001Z</time></trkpt><trkpt lat="44.74126692345295" lon="9.56960145206572"><ele>912.0</ele><time>2026-04-22T12:52:05.001Z</time></trkpt><trkpt lat="44.741341468825965" lon="9.569543177256556"><ele>915.2</ele><time>2026-04-22T12:52:06.001Z</time></trkpt><trkpt lat="44.74146239396348" lon="9.569470697367723"><ele>918.4000000000001</ele><time>2026-04-22T12:52:08.001Z</time></trkpt><trkpt lat="44.741542474650764" lon="9.569415687471231"><ele>921.5999999999999</ele><time>2026-04-22T12:52:09.001Z</time></trkpt><trkpt lat="44.74160541222805" lon="9.569353846226374"><ele>924.8</ele><time>2026-04-22T12:52:10.001Z</time></trkpt><trkpt lat="44.741590145880785" lon="9.569141448754802"><ele>928.0</ele><time>2026-04-22T12:52:12.001Z</time></trkpt><trkpt lat="44.74154787438602" lon="9.56901126226041"><ele>928.0</ele><time>2026-04-22T12:52:13Z</time></trkpt><trkpt lat="44.74152825214969" lon="9.56888132907527"><ele>928.0</ele><time>2026-04-22T12:52:14Z</time></trkpt><trkpt lat="44.74148242035425" lon="9.568817474480314"><ele>928.0</ele><time>2026-04-22T12:52:15Z</time></trkpt><trkpt lat="44.74138537910833" lon="9.568734434622408"><ele>928.0</ele><time>2026-04-22T12:52:16Z</time></trkpt><trkpt lat="44.741310129214014" lon="9.568661574760245"><ele>928.0</ele><time>2026-04-22T12:52:17Z</time></trkpt><trkpt lat="44.74123469482443" lon="9.568569650999336"><ele>927.9999999999999</ele><time>2026-04-22T12:52:18Z</time></trkpt><trkpt lat="44.741135364062885" lon="9.56848809126556"><ele>928.0</ele><time>2026-04-22T12:52:19Z</time></trkpt><trkpt lat="44.741050470153986" lon="9.568419221051178"><ele>928.0</ele><time>2026-04-22T12:52:20Z</time></trkpt><trkpt lat="44.74100026147549" lon="9.56834325074992"><ele>928.0</ele><time>2026-04-22T12:52:22Z</time></trkpt><trkpt lat="44.74093509983671" lon="9.56836527331006"><ele>927.9999999999999</ele><time>2026-04-22T12:53:48.001Z</time></trkpt><trkpt lat="44.74084027352294" lon="9.56836771720247"><ele>928.0</ele><time>2026-04-22T12:53:50.001Z</time></trkpt><trkpt lat="44.74073818634892" lon="9.568359342200315"><ele>930.5999999999999</ele><time>2026-04-22T12:53:51.001Z</time></trkpt><trkpt lat="44.7406336188487" lon="9.568358457344639"><ele>933.1999999999999</ele><time>2026-04-22T12:53:52.001Z</time></trkpt><trkpt lat="44.74053567288524" lon="9.568367586329146"><ele>935.8</ele><time>2026-04-22T12:53:53.001Z</time></trkpt><trkpt lat="44.74043832464798" lon="9.568373110802115"><ele>938.4</ele><time>2026-04-22T12:53:54.001Z</time></trkpt><trkpt lat="44.74033279679365" lon="9.56833402512414"><ele>941.0</ele><time>2026-04-22T12:53:55.001Z</time></trkpt><trkpt lat="44.74026258948436" lon="9.568325711167553"><ele>943.1666666666667</ele><time>2026-04-22T12:53:56.001Z</time></trkpt><trkpt lat="44.74018490953928" lon="9.568331753040317"><ele>945.3333333333334</ele><time>2026-04-22T12:53:57.001Z</time></trkpt><trkpt lat="44.740108084367165" lon="9.568348730093001"><ele>947.5</ele><time>2026-04-22T12:53:58.001Z</time></trkpt><trkpt lat="44.74003682043098" lon="9.56835473761524"><ele>949.6666666666667</ele><time>2026-04-22T12:53:59.001Z</time></trkpt><trkpt lat="44.73997072744069" lon="9.568357414461712"><ele>951.8333333333334</ele><time>2026-04-22T12:54:00.001Z</time></trkpt><trkpt lat="44.7398837272719" lon="9.568341462590737"><ele>954.0</ele><time>2026-04-22T12:54:01.001Z</time></trkpt><trkpt lat="44.73979816930824" lon="9.568323426789325"><ele>954.0</ele><time>2026-04-22T12:54:02.001Z</time></trkpt><trkpt lat="44.73971253140114" lon="9.568294991704445"><ele>954.0000000000001</ele><time>2026-04-22T12:54:03.001Z</time></trkpt><trkpt lat="44.73960870919633" lon="9.568274008362344"><ele>954.0000000000001</ele><time>2026-04-22T12:54:04.001Z</time></trkpt><trkpt lat="44.73950658882546" lon="9.56824393343685"><ele>954.0</ele><time>2026-04-22T12:54:05.001Z</time></trkpt><trkpt lat="44.739405421916054" lon="9.568230210245073"><ele>954.0</ele><time>2026-04-22T12:54:06.001Z</time></trkpt><trkpt lat="44.73930141564353" lon="9.568206599997268"><ele>955.2</ele><time>2026-04-22T12:54:07.001Z</time></trkpt><trkpt lat="44.739223062435315" lon="9.568170277160212"><ele>956.4000000000001</ele><time>2026-04-22T12:54:08.001Z</time></trkpt><trkpt lat="44.739137552926636" lon="9.568118843103536"><ele>957.6</ele><time>2026-04-22T12:54:09.001Z</time></trkpt><trkpt lat="44.73904748385868" lon="9.568045311883276"><ele>958.8</ele><time>2026-04-22T12:54:10.001Z</time></trkpt><trkpt lat="44.73895057083234" lon="9.567994083716503"><ele>960.0</ele><time>2026-04-22T12:54:11.001Z</time></trkpt><trkpt lat="44.73882387703995" lon="9.567938225739315"><ele>960.0</ele><time>2026-04-22T12:54:12.001Z</time></trkpt><trkpt lat="44.73868342089792" lon="9.567878103254717"><ele>960.0</ele><time>2026-04-22T12:54:13.001Z</time></trkpt><trkpt lat="44.73859079173529" lon="9.567819021348235"><ele>960.0</ele><time>2026-04-22T12:54:14.001Z</time></trkpt><trkpt lat="44.73851223792202" lon="9.567773101020048"><ele>960.0</ele><time>2026-04-22T12:54:15.001Z</time></trkpt><trkpt lat="44.73844165242845" lon="9.567756468507506"><ele>960.0</ele><time>2026-04-22T12:54:16.001Z</time></trkpt><trkpt lat="44.738361771256486" lon="9.567737767577826"><ele>962.8</ele><time>2026-04-22T12:54:17.001Z</time></trkpt><trkpt lat="44.73828801177605" lon="9.567686069816748"><ele>965.6</ele><time>2026-04-22T12:54:18.001Z</time></trkpt><trkpt lat="44.73820636819125" lon="9.567628395329997"><ele>968.4000000000001</ele><time>2026-04-22T12:54:19.001Z</time></trkpt><trkpt lat="44.73812866594285" lon="9.5675419836674"><ele>971.2</ele><time>2026-04-22T12:54:20.001Z</time></trkpt><trkpt lat="44.73805612742983" lon="9.567438748599901"><ele>974.0</ele><time>2026-04-22T12:54:21.001Z</time></trkpt><trkpt lat="44.73797458246503" lon="9.56731833900863"><ele>974.0</ele><time>2026-04-22T12:54:22.001Z</time></trkpt><trkpt lat="44.737889482688175" lon="9.567200275612032"><ele>974.0</ele><time>2026-04-22T12:54:23.001Z</time></trkpt><trkpt lat="44.73780403419118" lon="9.567089651804396"><ele>974.0</ele><time>2026-04-22T12:54:24.001Z</time></trkpt><trkpt lat="44.737699363361386" lon="9.566998072308486"><ele>974.0</ele><time>2026-04-22T12:54:25.001Z</time></trkpt><trkpt lat="44.73758621632406" lon="9.566904861057793"><ele>977.5</ele><time>2026-04-22T12:54:26.001Z</time></trkpt><trkpt lat="44.737464447508" lon="9.56679610241389"><ele>981.0</ele><time>2026-04-22T12:54:27.001Z</time></trkpt><trkpt lat="44.73736927053617" lon="9.56669783943368"><ele>984.5</ele><time>2026-04-22T12:54:28.001Z</time></trkpt><trkpt lat="44.7372836244908" lon="9.56659758085903"><ele>988.0</ele><time>2026-04-22T12:54:29.001Z</time></trkpt><trkpt lat="44.73719900196321" lon="9.56648705252006"><ele>988.0</ele><time>2026-04-22T12:54:30.001Z</time></trkpt><trkpt lat="44.73709021522741" lon="9.566361174420665"><ele>988.0</ele><time>2026-04-22T12:54:31.001Z</time></trkpt><trkpt lat="44.736975924914475" lon="9.566251800878318"><ele>988.0</ele><time>2026-04-22T12:54:32.001Z</time></trkpt><trkpt lat="44.73689892432325" lon="9.566162105753119"><ele>988.0</ele><time>2026-04-22T12:54:33.001Z</time></trkpt><trkpt lat="44.73683310958904" lon="9.566056514181547"><ele>988.2</ele><time>2026-04-22T12:54:34.001Z</time></trkpt><trkpt lat="44.736772203166375" lon="9.565923947805283"><ele>988.4</ele><time>2026-04-22T12:54:35.001Z</time></trkpt><trkpt lat="44.73670898717641" lon="9.565813512316202"><ele>988.6000000000001</ele><time>2026-04-22T12:54:36.001Z</time></trkpt><trkpt lat="44.736644896066906" lon="9.565726923698467"><ele>988.8000000000001</ele><time>2026-04-22T12:54:37.001Z</time></trkpt><trkpt lat="44.73657835513537" lon="9.565650035710263"><ele>989.0</ele><time>2026-04-22T12:54:38.001Z</time></trkpt><trkpt lat="44.73649849071089" lon="9.56561069738287"><ele>989.0</ele><time>2026-04-22T12:54:39.001Z</time></trkpt><trkpt lat="44.73640789405409" lon="9.565574733041133"><ele>989.0000000000001</ele><time>2026-04-22T12:54:40.001Z</time></trkpt><trkpt lat="44.73628090798475" lon="9.565542742359494"><ele>989.0000000000001</ele><time>2026-04-22T12:54:41.001Z</time></trkpt><trkpt lat="44.73616110516492" lon="9.565505944293376"><ele>989.0</ele><time>2026-04-22T12:54:42.001Z</time></trkpt><trkpt lat="44.736094272758066" lon="9.565482953030818"><ele>989.0</ele><time>2026-04-22T12:54:43.001Z</time></trkpt><trkpt lat="44.73602727833632" lon="9.565342616443372"><ele>990.5</ele><time>2026-04-22T12:54:45.001Z</time></trkpt><trkpt lat="44.73599535809961" lon="9.565212407367794"><ele>992.0</ele><time>2026-04-22T12:54:46.001Z</time></trkpt><trkpt lat="44.73599807133942" lon="9.565070455336233"><ele>993.5</ele><time>2026-04-22T12:54:47.001Z</time></trkpt><trkpt lat="44.73599432121964" lon="9.564908296371922"><ele>995.0</ele><time>2026-04-22T12:54:48.001Z</time></trkpt><trkpt lat="44.73598987325911" lon="9.564661990191292"><ele>997.75</ele><time>2026-04-22T12:54:49.001Z</time></trkpt><trkpt lat="44.73595764058933" lon="9.564426271738148"><ele>1000.5</ele><time>2026-04-22T12:54:50.001Z</time></trkpt><trkpt lat="44.73592615007243" lon="9.564261561670662"><ele>1003.25</ele><time>2026-04-22T12:54:51.001Z</time></trkpt><trkpt lat="44.73581493169313" lon="9.564145850083149"><ele>1006.0</ele><time>2026-04-22T12:54:53.001Z</time></trkpt><trkpt lat="44.735714135141436" lon="9.56402814696761"><ele>1006.0</ele><time>2026-04-22T12:54:54.001Z</time></trkpt><trkpt lat="44.735626945168946" lon="9.563887432328567"><ele>1005.9999999999999</ele><time>2026-04-22T12:54:55.001Z</time></trkpt><trkpt lat="44.73558404463121" lon="9.563779493489905"><ele>1005.9999999999999</ele><time>2026-04-22T12:54:56.001Z</time></trkpt><trkpt lat="44.73556911090441" lon="9.563674866083526"><ele>1006.0</ele><time>2026-04-22T12:54:57.001Z</time></trkpt><trkpt lat="44.735537378188454" lon="9.56350100211182"><ele>1006.0</ele><time>2026-04-22T12:54:58.001Z</time></trkpt><trkpt lat="44.73549429937251" lon="9.563296372724341"><ele>1009.75</ele><time>2026-04-22T12:54:59.001Z</time></trkpt><trkpt lat="44.735448747757694" lon="9.563112837221238"><ele>1013.5</ele><time>2026-04-22T12:55:00.001Z</time></trkpt><trkpt lat="44.73539285192578" lon="9.56295666125485"><ele>1017.25</ele><time>2026-04-22T12:55:01.001Z</time></trkpt><trkpt lat="44.735308081988265" lon="9.562804490375989"><ele>1021.0</ele><time>2026-04-22T12:55:02.001Z</time></trkpt><trkpt lat="44.73524540875405" lon="9.562615329049267"><ele>1021.5999999999999</ele><time>2026-04-22T12:55:03.001Z</time></trkpt><trkpt lat="44.7352043871368" lon="9.562483671497686"><ele>1022.1999999999999</ele><time>2026-04-22T12:55:04.001Z</time></trkpt><trkpt lat="44.73520133388606" lon="9.56236777888442"><ele>1022.8000000000001</ele><time>2026-04-22T12:55:05.001Z</time></trkpt><trkpt lat="44.73522540687618" lon="9.562248018237062"><ele>1023.4000000000001</ele><time>2026-04-22T12:55:06.001Z</time></trkpt><trkpt lat="44.73525562578663" lon="9.56207773833662"><ele>1024.0</ele><time>2026-04-22T12:55:07.001Z</time></trkpt><trkpt lat="44.73525483572525" lon="9.561890066732825"><ele>1024.0</ele><time>2026-04-22T12:55:08.001Z</time></trkpt><trkpt lat="44.735250560391876" lon="9.561696160040615"><ele>1024.0</ele><time>2026-04-22T12:55:09.001Z</time></trkpt><trkpt lat="44.735261675422905" lon="9.561570614820296"><ele>1024.0</ele><time>2026-04-22T12:55:10.001Z</time></trkpt><trkpt lat="44.735254711227604" lon="9.561478020389753"><ele>1024.0</ele><time>2026-04-22T12:55:11.001Z</time></trkpt><trkpt lat="44.73520224120923" lon="9.561374949165694"><ele>1024.0</ele><time>2026-04-22T12:55:12.001Z</time></trkpt><trkpt lat="44.735122996632455" lon="9.561263586777146"><ele>1021.2</ele><time>2026-04-22T12:55:13.001Z</time></trkpt><trkpt lat="44.735036319615006" lon="9.561162482350001"><ele>1018.4000000000001</ele><time>2026-04-22T12:55:14.001Z</time></trkpt><trkpt lat="44.73493125903533" lon="9.561067152497406"><ele>1015.6</ele><time>2026-04-22T12:55:15.001Z</time></trkpt><trkpt lat="44.73482295794204" lon="9.560987428731432"><ele>1012.8</ele><time>2026-04-22T12:55:16.001Z</time></trkpt><trkpt lat="44.73474227278037" lon="9.560947597818371"><ele>1010.0</ele><time>2026-04-22T12:55:17.001Z</time></trkpt><trkpt lat="44.73465720290107" lon="9.560914942665232"><ele>1010.0000000000001</ele><time>2026-04-22T12:55:18.001Z</time></trkpt><trkpt lat="44.734592414138994" lon="9.560867359362165"><ele>1010.0</ele><time>2026-04-22T12:55:19.001Z</time></trkpt><trkpt lat="44.73452033983433" lon="9.560820405186558"><ele>1010.0</ele><time>2026-04-22T12:55:21.001Z</time></trkpt><trkpt lat="44.73445824180389" lon="9.560789643738982"><ele>1010.0</ele><time>2026-04-22T12:55:29.001Z</time></trkpt><trkpt lat="44.73438625783586" lon="9.560760317064062"><ele>1010.0000000000001</ele><time>2026-04-22T12:55:30.001Z</time></trkpt><trkpt lat="44.73427973036163" lon="9.560714802100385"><ele>1010.0</ele><time>2026-04-22T12:55:31.001Z</time></trkpt><trkpt lat="44.73415584510787" lon="9.560662863639482"><ele>1005.25</ele><time>2026-04-22T12:55:32.001Z</time></trkpt><trkpt lat="44.73401567198307" lon="9.56060767309737"><ele>1000.5</ele><time>2026-04-22T12:55:33.001Z</time></trkpt><trkpt lat="44.73386964502992" lon="9.560567251622109"><ele>995.75</ele><time>2026-04-22T12:55:34.001Z</time></trkpt><trkpt lat="44.733766309674024" lon="9.56055622184747"><ele>991.0</ele><time>2026-04-22T12:55:35.001Z</time></trkpt><trkpt lat="44.733695044009536" lon="9.560589230037454"><ele>991.0</ele><time>2026-04-22T12:55:36.001Z</time></trkpt><trkpt lat="44.73361898064787" lon="9.560650486774813"><ele>991.0</ele><time>2026-04-22T12:55:37.001Z</time></trkpt><trkpt lat="44.73350286315388" lon="9.560723927530514"><ele>991.0</ele><time>2026-04-22T12:55:38.001Z</time></trkpt><trkpt lat="44.73335311790878" lon="9.560780626602973"><ele>991.0</ele><time>2026-04-22T12:55:39.001Z</time></trkpt><trkpt lat="44.733220062710025" lon="9.560749336122843"><ele>991.25</ele><time>2026-04-22T12:55:40.001Z</time></trkpt><trkpt lat="44.73311080909209" lon="9.56071035415171"><ele>991.5</ele><time>2026-04-22T12:55:41.001Z</time></trkpt><trkpt lat="44.73299045254799" lon="9.560698673085641"><ele>991.75</ele><time>2026-04-22T12:55:42.001Z</time></trkpt><trkpt lat="44.73284407807137" lon="9.56069910212729"><ele>992.0</ele><time>2026-04-22T12:55:43.001Z</time></trkpt><trkpt lat="44.73264570445566" lon="9.560677493688557"><ele>992.0</ele><time>2026-04-22T12:55:44.001Z</time></trkpt><trkpt lat="44.73250073410641" lon="9.560654496633775"><ele>992.0</ele><time>2026-04-22T12:55:45.001Z</time></trkpt><trkpt lat="44.73238783554829" lon="9.560604768151011"><ele>992.0</ele><time>2026-04-22T12:55:46.001Z</time></trkpt><trkpt lat="44.732280685126014" lon="9.560536065804456"><ele>992.0</ele><time>2026-04-22T12:55:47.001Z</time></trkpt><trkpt lat="44.73214096018201" lon="9.560434157199817"><ele>991.75</ele><time>2026-04-22T12:55:48.001Z</time></trkpt><trkpt lat="44.7320066378671" lon="9.560344607158138"><ele>991.5</ele><time>2026-04-22T12:55:49.001Z</time></trkpt><trkpt lat="44.731889984728234" lon="9.560292697584812"><ele>991.25</ele><time>2026-04-22T12:55:50.001Z</time></trkpt><trkpt lat="44.73175063673938" lon="9.560226567529277"><ele>991.0</ele><time>2026-04-22T12:55:51.001Z</time></trkpt><trkpt lat="44.731617776876426" lon="9.560131478611524"><ele>991.0</ele><time>2026-04-22T12:55:52.001Z</time></trkpt><trkpt lat="44.73152069547267" lon="9.56000887344196"><ele>990.9999999999999</ele><time>2026-04-22T12:55:53.001Z</time></trkpt><trkpt lat="44.73146519174048" lon="9.55992427749795"><ele>990.9999999999999</ele><time>2026-04-22T12:55:55.001Z</time></trkpt><trkpt lat="44.73140281104436" lon="9.559790192741296"><ele>991.0</ele><time>2026-04-22T12:55:57.001Z</time></trkpt><trkpt lat="44.731358381732285" lon="9.559670705474085"><ele>991.0</ele><time>2026-04-22T12:55:58.001Z</time></trkpt><trkpt lat="44.73131644515467" lon="9.559492143954719"><ele>989.5</ele><time>2026-04-22T12:55:59.001Z</time></trkpt><trkpt lat="44.7313272377619" lon="9.559313934554675"><ele>988.0</ele><time>2026-04-22T12:56:00.001Z</time></trkpt><trkpt lat="44.73132696637981" lon="9.559123507203445"><ele>986.5</ele><time>2026-04-22T12:56:01.001Z</time></trkpt><trkpt lat="44.73131040635967" lon="9.558941912105551"><ele>985.0</ele><time>2026-04-22T12:56:02.001Z</time></trkpt><trkpt lat="44.731328180678105" lon="9.558810286658515"><ele>980.25</ele><time>2026-04-22T12:56:03.001Z</time></trkpt><trkpt lat="44.73138432104511" lon="9.55868127302239"><ele>975.5</ele><time>2026-04-22T12:56:04.001Z</time></trkpt><trkpt lat="44.73145919172293" lon="9.558537355018705"><ele>970.75</ele><time>2026-04-22T12:56:05.001Z</time></trkpt><trkpt lat="44.731547068886805" lon="9.558420568673242"><ele>966.0</ele><time>2026-04-22T12:56:06.001Z</time></trkpt><trkpt lat="44.73164959313316" lon="9.558294966104436"><ele>966.0</ele><time>2026-04-22T12:56:07.001Z</time></trkpt><trkpt lat="44.73173989804331" lon="9.558169951091221"><ele>965.9999999999999</ele><time>2026-04-22T12:56:08.001Z</time></trkpt><trkpt lat="44.73180173384135" lon="9.558057463045525"><ele>965.9999999999999</ele><time>2026-04-22T12:56:09.001Z</time></trkpt><trkpt lat="44.731852767771144" lon="9.557934436345272"><ele>966.0</ele><time>2026-04-22T12:56:10.001Z</time></trkpt><trkpt lat="44.73187778294684" lon="9.557825690103984"><ele>966.0</ele><time>2026-04-22T12:56:11.001Z</time></trkpt><trkpt lat="44.7318683491215" lon="9.557727106262304"><ele>965.8</ele><time>2026-04-22T12:56:12.001Z</time></trkpt><trkpt lat="44.7318655651985" lon="9.557599988654319"><ele>965.5999999999999</ele><time>2026-04-22T12:56:13.001Z</time></trkpt><trkpt lat="44.73188539338629" lon="9.557459456325088"><ele>965.4</ele><time>2026-04-22T12:56:14.001Z</time></trkpt><trkpt lat="44.73191616845534" lon="9.55731051643236"><ele>965.2</ele><time>2026-04-22T12:56:15.001Z</time></trkpt><trkpt lat="44.73192814884022" lon="9.557200179342749"><ele>965.0</ele><time>2026-04-22T12:56:16.001Z</time></trkpt><trkpt lat="44.7319086537241" lon="9.557063231800385"><ele>959.0</ele><time>2026-04-22T12:56:17.001Z</time></trkpt><trkpt lat="44.73188057888847" lon="9.556883095309844"><ele>953.0</ele><time>2026-04-22T12:56:18.001Z</time></trkpt><trkpt lat="44.73186397356415" lon="9.556639614045855"><ele>947.0</ele><time>2026-04-22T12:56:19.001Z</time></trkpt><trkpt lat="44.731849707970596" lon="9.556439085546137"><ele>941.0</ele><time>2026-04-22T12:56:20.001Z</time></trkpt><trkpt lat="44.73185534300496" lon="9.556317009789327"><ele>939.5</ele><time>2026-04-22T12:56:21.001Z</time></trkpt><trkpt lat="44.73187727781968" lon="9.556134870333032"><ele>938.0</ele><time>2026-04-22T12:56:22.001Z</time></trkpt><trkpt lat="44.73187630856603" lon="9.555946208649907"><ele>936.5</ele><time>2026-04-22T12:56:23.001Z</time></trkpt><trkpt lat="44.73183623584366" lon="9.555812716434083"><ele>935.0</ele><time>2026-04-22T12:56:24.001Z</time></trkpt><trkpt lat="44.7317719170154" lon="9.555673342662276"><ele>935.0</ele><time>2026-04-22T12:56:25.001Z</time></trkpt><trkpt lat="44.73168523769975" lon="9.555514789439794"><ele>935.0</ele><time>2026-04-22T12:56:26.001Z</time></trkpt><trkpt lat="44.73161419355365" lon="9.555322930016969"><ele>935.0</ele><time>2026-04-22T12:56:27.001Z</time></trkpt><trkpt lat="44.73154579991003" lon="9.55510015842279"><ele>936.0000000000001</ele><time>2026-04-22T12:56:28.001Z</time></trkpt><trkpt lat="44.7314788682593" lon="9.554990499254831"><ele>937.0</ele><time>2026-04-22T12:56:29.001Z</time></trkpt><trkpt lat="44.73141878800096" lon="9.554919385579845"><ele>938.0</ele><time>2026-04-22T12:56:30.001Z</time></trkpt><trkpt lat="44.731341392373366" lon="9.554829438435071"><ele>939.0</ele><time>2026-04-22T12:56:32.001Z</time></trkpt><trkpt lat="44.731270412693384" lon="9.554787776342208"><ele>940.0000000000001</ele><time>2026-04-22T12:56:33.001Z</time></trkpt><trkpt lat="44.7312030324781" lon="9.554729818959162"><ele>941.0</ele><time>2026-04-22T12:56:34.001Z</time></trkpt><trkpt lat="44.73116477722402" lon="9.55462246192338"><ele>941.4</ele><time>2026-04-22T12:56:35.001Z</time></trkpt><trkpt lat="44.73117981521016" lon="9.55448138617058"><ele>941.8</ele><time>2026-04-22T12:56:36.001Z</time></trkpt><trkpt lat="44.731213751721384" lon="9.554324925325808"><ele>942.1999999999999</ele><time>2026-04-22T12:56:37.001Z</time></trkpt><trkpt lat="44.731240179059974" lon="9.554165661587698"><ele>942.5999999999999</ele><time>2026-04-22T12:56:38.001Z</time></trkpt><trkpt lat="44.731254641749736" lon="9.554011783566555"><ele>943.0</ele><time>2026-04-22T12:56:39.001Z</time></trkpt><trkpt lat="44.73125846383989" lon="9.553845793483253"><ele>942.0</ele><time>2026-04-22T12:56:40.001Z</time></trkpt><trkpt lat="44.731268107383904" lon="9.553694321763373"><ele>941.0</ele><time>2026-04-22T12:56:41.001Z</time></trkpt><trkpt lat="44.731278506752275" lon="9.553553697509479"><ele>940.0</ele><time>2026-04-22T12:56:42.001Z</time></trkpt><trkpt lat="44.73127110771869" lon="9.553415989587739"><ele>939.0</ele><time>2026-04-22T12:56:43.001Z</time></trkpt><trkpt lat="44.73121221934339" lon="9.553290890492319"><ele>938.0</ele><time>2026-04-22T12:56:44.001Z</time></trkpt><trkpt lat="44.73113200466147" lon="9.553186913446805"><ele>936.0</ele><time>2026-04-22T12:56:45.001Z</time></trkpt><trkpt lat="44.7310394729813" lon="9.553108647349212"><ele>934.0</ele><time>2026-04-22T12:56:46.001Z</time></trkpt><trkpt lat="44.73095251009511" lon="9.553017160103204"><ele>932.0</ele><time>2026-04-22T12:56:47.001Z</time></trkpt><trkpt lat="44.730865343975715" lon="9.55293681492529"><ele>930.0</ele><time>2026-04-22T12:56:48.001Z</time></trkpt><trkpt lat="44.730775361364174" lon="9.55284427134229"><ele>928.0</ele><time>2026-04-22T12:56:49.001Z</time></trkpt><trkpt lat="44.73067972913528" lon="9.552752164096672"><ele>928.0</ele><time>2026-04-22T12:56:50.001Z</time></trkpt><trkpt lat="44.73057721792482" lon="9.552669542974995"><ele>928.0</ele><time>2026-04-22T12:56:51.001Z</time></trkpt><trkpt lat="44.73047485029169" lon="9.552595212440357"><ele>928.0</ele><time>2026-04-22T12:56:52.001Z</time></trkpt><trkpt lat="44.730376665332294" lon="9.552519049162784"><ele>928.0</ele><time>2026-04-22T12:56:53.001Z</time></trkpt><trkpt lat="44.73029237218755" lon="9.552427377893915"><ele>925.25</ele><time>2026-04-22T12:56:54.001Z</time></trkpt><trkpt lat="44.730218918227024" lon="9.55230905287378"><ele>922.5</ele><time>2026-04-22T12:56:55.001Z</time></trkpt><trkpt lat="44.73014787169185" lon="9.552172175329952"><ele>919.75</ele><time>2026-04-22T12:56:56.001Z</time></trkpt><trkpt lat="44.73007905317058" lon="9.552020043149346"><ele>917.0</ele><time>2026-04-22T12:56:57.001Z</time></trkpt><trkpt lat="44.73001156549338" lon="9.551870782538131"><ele>917.0</ele><time>2026-04-22T12:56:58.001Z</time></trkpt><trkpt lat="44.729940510727666" lon="9.551722967954252"><ele>917.0</ele><time>2026-04-22T12:56:59.001Z</time></trkpt><trkpt lat="44.7298605302564" lon="9.551568361932635"><ele>917.0</ele><time>2026-04-22T12:57:00.001Z</time></trkpt><trkpt lat="44.72978002318288" lon="9.551416830370773"><ele>917.0</ele><time>2026-04-22T12:57:01.001Z</time></trkpt><trkpt lat="44.72970070589222" lon="9.55126712858642"><ele>916.75</ele><time>2026-04-22T12:57:02.001Z</time></trkpt><trkpt lat="44.729620792533034" lon="9.551124979205849"><ele>916.5</ele><time>2026-04-22T12:57:03.001Z</time></trkpt><trkpt lat="44.72954382789657" lon="9.55098413472778"><ele>916.25</ele><time>2026-04-22T12:57:04.001Z</time></trkpt><trkpt lat="44.72948029195379" lon="9.550860237666338"><ele>916.0</ele><time>2026-04-22T12:57:05.001Z</time></trkpt><trkpt lat="44.729429511503824" lon="9.550755905587428"><ele>913.8333333333333</ele><time>2026-04-22T12:57:06.001Z</time></trkpt><trkpt lat="44.72938552763847" lon="9.550658152124274"><ele>911.6666666666666</ele><time>2026-04-22T12:57:07.001Z</time></trkpt><trkpt lat="44.72935954693647" lon="9.550575208698621"><ele>909.5</ele><time>2026-04-22T12:57:08.001Z</time></trkpt><trkpt lat="44.7293331878046" lon="9.550448974173156"><ele>907.3333333333333</ele><time>2026-04-22T12:57:10.001Z</time></trkpt><trkpt lat="44.729300262192766" lon="9.550359864223175"><ele>905.1666666666666</ele><time>2026-04-22T12:57:13.001Z</time></trkpt><trkpt lat="44.729268862672086" lon="9.550274134012652"><ele>903.0</ele><time>2026-04-22T12:57:37.001Z</time></trkpt><trkpt lat="44.72930099310634" lon="9.550411236999928"><ele>903.0</ele><time>2026-04-22T12:57:41.001Z</time></trkpt><trkpt lat="44.72936641427625" lon="9.550568626282208"><ele>903.0</ele><time>2026-04-22T12:57:43.001Z</time></trkpt><trkpt lat="44.72939875120791" lon="9.550668741492984"><ele>903.0</ele><time>2026-04-22T12:57:44.001Z</time></trkpt><trkpt lat="44.72944014713892" lon="9.55077682329463"><ele>903.0</ele><time>2026-04-22T12:57:45.001Z</time></trkpt><trkpt lat="44.7294893623917" lon="9.550880188788717"><ele>903.0</ele><time>2026-04-22T12:57:46.001Z</time></trkpt><trkpt lat="44.72954127073306" lon="9.550978730149271"><ele>905.5999999999999</ele><time>2026-04-22T12:57:47.001Z</time></trkpt><trkpt lat="44.72959532637358" lon="9.551075382065239"><ele>908.1999999999999</ele><time>2026-04-22T12:57:48.001Z</time></trkpt><trkpt lat="44.72964519038016" lon="9.551171582058549"><ele>910.8</ele><time>2026-04-22T12:57:49.001Z</time></trkpt><trkpt lat="44.72970460514149" lon="9.551281721579178"><ele>913.4</ele><time>2026-04-22T12:57:50.001Z</time></trkpt><trkpt lat="44.729763201080004" lon="9.5514027689441"><ele>916.0</ele><time>2026-04-22T12:57:51.001Z</time></trkpt><trkpt lat="44.729828097212746" lon="9.551537379005829"><ele>916.25</ele><time>2026-04-22T12:57:52.001Z</time></trkpt><trkpt lat="44.72989635990288" lon="9.55169321277066"><ele>916.5</ele><time>2026-04-22T12:57:53.001Z</time></trkpt><trkpt lat="44.729964225741355" lon="9.551840455472476"><ele>916.75</ele><time>2026-04-22T12:57:54.001Z</time></trkpt><trkpt lat="44.730026700370104" lon="9.55196209235434"><ele>917.0</ele><time>2026-04-22T12:57:55.001Z</time></trkpt><trkpt lat="44.73009775532421" lon="9.552085543937121"><ele>916.0</ele><time>2026-04-22T12:57:56.001Z</time></trkpt><trkpt lat="44.730174165040275" lon="9.552225555497744"><ele>915.0</ele><time>2026-04-22T12:57:57.001Z</time></trkpt><trkpt lat="44.730247457728005" lon="9.552360843238317"><ele>914.0</ele><time>2026-04-22T12:57:58.001Z</time></trkpt><trkpt lat="44.73033697865644" lon="9.552483725908436"><ele>913.0</ele><time>2026-04-22T12:57:59.001Z</time></trkpt><trkpt lat="44.73045518189662" lon="9.552597738313853"><ele>915.75</ele><time>2026-04-22T12:58:00.001Z</time></trkpt><trkpt lat="44.73059146617934" lon="9.552703483299965"><ele>918.5</ele><time>2026-04-22T12:58:01.001Z</time></trkpt><trkpt lat="44.73072995328565" lon="9.552803069853839"><ele>921.25</ele><time>2026-04-22T12:58:02.001Z</time></trkpt><trkpt lat="44.73083764701752" lon="9.55289552219814"><ele>924.0</ele><time>2026-04-22T12:58:03.001Z</time></trkpt><trkpt lat="44.73093313355032" lon="9.552996462875402"><ele>924.0</ele><time>2026-04-22T12:58:04.001Z</time></trkpt><trkpt lat="44.73103031351504" lon="9.553099639740731"><ele>924.0</ele><time>2026-04-22T12:58:05.001Z</time></trkpt><trkpt lat="44.7311238940939" lon="9.553208826503068"><ele>924.0</ele><time>2026-04-22T12:58:06.001Z</time></trkpt><trkpt lat="44.73120679699703" lon="9.553328052050631"><ele>924.0</ele><time>2026-04-22T12:58:07.001Z</time></trkpt><trkpt lat="44.73125044094127" lon="9.553465607713376"><ele>927.5</ele><time>2026-04-22T12:58:08.001Z</time></trkpt><trkpt lat="44.73125985265225" lon="9.553612797172065"><ele>931.0</ele><time>2026-04-22T12:58:09.001Z</time></trkpt><trkpt lat="44.73125467842585" lon="9.55377771641794"><ele>934.5</ele><time>2026-04-22T12:58:10.001Z</time></trkpt><trkpt lat="44.73124239966047" lon="9.553961351656142"><ele>938.0</ele><time>2026-04-22T12:58:11.001Z</time></trkpt><trkpt lat="44.731242807736166" lon="9.554159652631242"><ele>938.75</ele><time>2026-04-22T12:58:12.001Z</time></trkpt><trkpt lat="44.731221063754724" lon="9.55436996307586"><ele>939.5</ele><time>2026-04-22T12:58:13.001Z</time></trkpt><trkpt lat="44.73117720517288" lon="9.554567287570089"><ele>940.25</ele><time>2026-04-22T12:58:14.001Z</time></trkpt><trkpt lat="44.73116281036126" lon="9.554699493069274"><ele>941.0</ele><time>2026-04-22T12:58:15.001Z</time></trkpt><trkpt lat="44.73121146380351" lon="9.55480333779544"><ele>941.0000000000001</ele><time>2026-04-22T12:58:16.001Z</time></trkpt><trkpt lat="44.73128498770391" lon="9.554880667875445"><ele>941.0</ele><time>2026-04-22T12:58:17.001Z</time></trkpt><trkpt lat="44.73136871406132" lon="9.554908993256925"><ele>941.0</ele><time>2026-04-22T12:58:18.001Z</time></trkpt><trkpt lat="44.73146063503254" lon="9.554981906465018"><ele>941.0</ele><time>2026-04-22T12:58:20.001Z</time></trkpt><trkpt lat="44.731495445601276" lon="9.555092720279925"><ele>941.0000000000001</ele><time>2026-04-22T12:58:21.001Z</time></trkpt><trkpt lat="44.731553898523735" lon="9.555157138603612"><ele>941.0</ele><time>2026-04-22T12:58:22.001Z</time></trkpt><trkpt lat="44.731593351052744" lon="9.555245829936016"><ele>941.0</ele><time>2026-04-22T12:58:23.001Z</time></trkpt><trkpt lat="44.73163331890091" lon="9.55534845774013"><ele>940.9999999999999</ele><time>2026-04-22T12:58:24.001Z</time></trkpt><trkpt lat="44.73164355991642" lon="9.555493580403162"><ele>940.9999999999999</ele><time>2026-04-22T12:58:25.001Z</time></trkpt><trkpt lat="44.731699103516966" lon="9.555645659655472"><ele>941.0</ele><time>2026-04-22T12:58:26.001Z</time></trkpt><trkpt lat="44.731780965498345" lon="9.555795924541604"><ele>941.0</ele><time>2026-04-22T12:58:27.001Z</time></trkpt><trkpt lat="44.731855500707006" lon="9.55596923695563"><ele>941.0</ele><time>2026-04-22T12:58:28.001Z</time></trkpt><trkpt lat="44.731855037399995" lon="9.556121100222947"><ele>941.0</ele><time>2026-04-22T12:58:29.001Z</time></trkpt><trkpt lat="44.73183738018415" lon="9.556278038769163"><ele>941.0</ele><time>2026-04-22T12:58:30.001Z</time></trkpt><trkpt lat="44.73183086677392" lon="9.556486212667714"><ele>941.0</ele><time>2026-04-22T12:58:31.001Z</time></trkpt><trkpt lat="44.731827114958705" lon="9.556665215763251"><ele>941.0</ele><time>2026-04-22T12:58:32.001Z</time></trkpt><trkpt lat="44.73187358459049" lon="9.556854699907813"><ele>941.0</ele><time>2026-04-22T12:58:33.001Z</time></trkpt><trkpt lat="44.73190808621431" lon="9.557104471002457"><ele>941.0</ele><time>2026-04-22T12:58:34.001Z</time></trkpt><trkpt lat="44.731911364447114" lon="9.557310177280012"><ele>947.0</ele><time>2026-04-22T12:58:35.001Z</time></trkpt><trkpt lat="44.73192937871219" lon="9.557428972133435"><ele>953.0</ele><time>2026-04-22T12:58:36.001Z</time></trkpt><trkpt lat="44.731921278308675" lon="9.557604156874905"><ele>959.0</ele><time>2026-04-22T12:58:37.001Z</time></trkpt><trkpt lat="44.73189092683185" lon="9.557830068803575"><ele>965.0</ele><time>2026-04-22T12:58:38.001Z</time></trkpt><trkpt lat="44.731872703452595" lon="9.558033725919557"><ele>965.25</ele><time>2026-04-22T12:58:39.001Z</time></trkpt><trkpt lat="44.731806997912685" lon="9.558157837346986"><ele>965.5</ele><time>2026-04-22T12:58:40.001Z</time></trkpt><trkpt lat="44.73172077796243" lon="9.558310284586709"><ele>965.75</ele><time>2026-04-22T12:58:41.001Z</time></trkpt><trkpt lat="44.7315857797564" lon="9.558437384105925"><ele>966.0</ele><time>2026-04-22T12:58:42.001Z</time></trkpt><trkpt lat="44.73147259871865" lon="9.558534398176498"><ele>966.0</ele><time>2026-04-22T12:58:43.001Z</time></trkpt><trkpt lat="44.73139380233076" lon="9.55866521599889"><ele>965.9999999999999</ele><time>2026-04-22T12:58:44.001Z</time></trkpt><trkpt lat="44.73134547264546" lon="9.558799384130966"><ele>965.9999999999999</ele><time>2026-04-22T12:58:45.001Z</time></trkpt><trkpt lat="44.73131560704204" lon="9.558953760733132"><ele>966.0</ele><time>2026-04-22T12:58:46.001Z</time></trkpt><trkpt lat="44.731303887177916" lon="9.55907691460628"><ele>966.0</ele><time>2026-04-22T12:58:47.001Z</time></trkpt><trkpt lat="44.73134691637289" lon="9.559207961012227"><ele>970.75</ele><time>2026-04-22T12:58:48.001Z</time></trkpt><trkpt lat="44.731371168541905" lon="9.559365525669861"><ele>975.5</ele><time>2026-04-22T12:58:49.001Z</time></trkpt><trkpt lat="44.731331595809145" lon="9.559555890291675"><ele>980.25</ele><time>2026-04-22T12:58:50.001Z</time></trkpt><trkpt lat="44.73131755954871" lon="9.559736130718935"><ele>985.0</ele><time>2026-04-22T12:58:51.001Z</time></trkpt><trkpt lat="44.73137908666909" lon="9.559859462829257"><ele>986.2</ele><time>2026-04-22T12:58:52.001Z</time></trkpt><trkpt lat="44.731406569708945" lon="9.559999127908794"><ele>987.4</ele><time>2026-04-22T12:58:53.001Z</time></trkpt><trkpt lat="44.731510442251974" lon="9.560059801245101"><ele>988.5999999999999</ele><time>2026-04-22T12:58:54.001Z</time></trkpt><trkpt lat="44.73161093416758" lon="9.560093840438324"><ele>989.8</ele><time>2026-04-22T12:58:55.001Z</time></trkpt><trkpt lat="44.731698490803296" lon="9.560142428146142"><ele>991.0</ele><time>2026-04-22T12:58:56.001Z</time></trkpt><trkpt lat="44.731798350644965" lon="9.560220161763022"><ele>991.25</ele><time>2026-04-22T12:58:57.001Z</time></trkpt><trkpt lat="44.731912592730076" lon="9.560312109445837"><ele>991.5</ele><time>2026-04-22T12:58:58.001Z</time></trkpt><trkpt lat="44.732039643615835" lon="9.560376458272083"><ele>991.75</ele><time>2026-04-22T12:58:59.001Z</time></trkpt><trkpt lat="44.732169940785845" lon="9.560464842359067"><ele>992.0</ele><time>2026-04-22T12:59:00.001Z</time></trkpt><trkpt lat="44.73228474048197" lon="9.560539307451247"><ele>992.0</ele><time>2026-04-22T12:59:01.001Z</time></trkpt><trkpt lat="44.732406457400714" lon="9.56063467905629"><ele>992.0</ele><time>2026-04-22T12:59:02.001Z</time></trkpt><trkpt lat="44.73252619381765" lon="9.560720920460021"><ele>992.0</ele><time>2026-04-22T12:59:03.001Z</time></trkpt><trkpt lat="44.73263770392762" lon="9.560777563771683"><ele>992.0</ele><time>2026-04-22T12:59:04.001Z</time></trkpt><trkpt lat="44.732761418064584" lon="9.56076701789473"><ele>993.0</ele><time>2026-04-22T12:59:05.001Z</time></trkpt><trkpt lat="44.732930810155025" lon="9.560781858791769"><ele>994.0</ele><time>2026-04-22T12:59:06.001Z</time></trkpt><trkpt lat="44.73309476696011" lon="9.560790750672965"><ele>995.0</ele><time>2026-04-22T12:59:07.001Z</time></trkpt><trkpt lat="44.73323434529146" lon="9.56080694441619"><ele>995.0</ele><time>2026-04-22T12:59:08.001Z</time></trkpt><trkpt lat="44.73337461474797" lon="9.560815228511277"><ele>995.0</ele><time>2026-04-22T12:59:09.001Z</time></trkpt><trkpt lat="44.7334998143868" lon="9.560804818509201"><ele>995.0</ele><time>2026-04-22T12:59:10.001Z</time></trkpt><trkpt lat="44.73361336029599" lon="9.560755775486987"><ele>995.0</ele><time>2026-04-22T12:59:11.001Z</time></trkpt><trkpt lat="44.73369216231179" lon="9.560706885230006"><ele>994.2</ele><time>2026-04-22T12:59:12.001Z</time></trkpt><trkpt lat="44.733762807253036" lon="9.56066270943943"><ele>993.4</ele><time>2026-04-22T12:59:13.001Z</time></trkpt><trkpt lat="44.7338501517119" lon="9.560623732850335"><ele>992.5999999999999</ele><time>2026-04-22T12:59:14.001Z</time></trkpt><trkpt lat="44.73395087868068" lon="9.56061720251821"><ele>991.8</ele><time>2026-04-22T12:59:15.001Z</time></trkpt><trkpt lat="44.7340524090683" lon="9.560639537676794"><ele>991.0</ele><time>2026-04-22T12:59:16.001Z</time></trkpt><trkpt lat="44.73415869292924" lon="9.560669418808047"><ele>991.0</ele><time>2026-04-22T12:59:17.001Z</time></trkpt><trkpt lat="44.734269126915066" lon="9.560708755728568"><ele>990.9999999999999</ele><time>2026-04-22T12:59:18.001Z</time></trkpt><trkpt lat="44.73437553614608" lon="9.56075188625092"><ele>990.9999999999999</ele><time>2026-04-22T12:59:19.001Z</time></trkpt><trkpt lat="44.73447673226652" lon="9.560792256293276"><ele>991.0</ele><time>2026-04-22T12:59:20.001Z</time></trkpt><trkpt lat="44.7345532392115" lon="9.560834287807848"><ele>991.0</ele><time>2026-04-22T12:59:21.001Z</time></trkpt><trkpt lat="44.734551175026446" lon="9.560729539322725"><ele>994.1666666666666</ele><time>2026-04-22T12:59:25.001Z</time></trkpt><trkpt lat="44.734478334440965" lon="9.560699171692686"><ele>997.3333333333333</ele><time>2026-04-22T12:59:27.001Z</time></trkpt><trkpt lat="44.73441869812141" lon="9.560606097151163"><ele>1000.5</ele><time>2026-04-22T12:59:29.001Z</time></trkpt><trkpt lat="44.73441698042301" lon="9.560444756156008"><ele>1003.6666666666667</ele><time>2026-04-22T12:59:31.001Z</time></trkpt><trkpt lat="44.734423951040746" lon="9.560334774632276"><ele>1006.8333333333334</ele><time>2026-04-22T12:59:32.001Z</time></trkpt><trkpt lat="44.73442744431128" lon="9.560225532263859"><ele>1010.0</ele><time>2026-04-22T12:59:33.001Z</time></trkpt><trkpt lat="44.734429851914236" lon="9.560088886506284"><ele>1009.6666666666667</ele><time>2026-04-22T12:59:34.001Z</time></trkpt><trkpt lat="44.73438842366266" lon="9.559985177256102"><ele>1009.3333333333334</ele><time>2026-04-22T12:59:35.001Z</time></trkpt><trkpt lat="44.734345308033504" lon="9.559884251083329"><ele>1009.0</ele><time>2026-04-22T12:59:36.001Z</time></trkpt><trkpt lat="44.73428982867862" lon="9.559783415694072"><ele>1008.6666666666667</ele><time>2026-04-22T12:59:37.001Z</time></trkpt><trkpt lat="44.734224837026396" lon="9.559698176347457"><ele>1008.3333333333334</ele><time>2026-04-22T12:59:38.001Z</time></trkpt><trkpt lat="44.734146554990254" lon="9.559630891938433"><ele>1008.0</ele><time>2026-04-22T12:59:39.001Z</time></trkpt><trkpt lat="44.734051491512176" lon="9.559567844857513"><ele>1009.8</ele><time>2026-04-22T12:59:40.001Z</time></trkpt><trkpt lat="44.73393086244538" lon="9.559477980116581"><ele>1011.5999999999999</ele><time>2026-04-22T12:59:41.001Z</time></trkpt><trkpt lat="44.733839624017904" lon="9.559384597931508"><ele>1013.4000000000001</ele><time>2026-04-22T12:59:42.001Z</time></trkpt><trkpt lat="44.73378280664589" lon="9.559254357622564"><ele>1015.2</ele><time>2026-04-22T12:59:44.001Z</time></trkpt><trkpt lat="44.73374893243425" lon="9.559162842000482"><ele>1017.0</ele><time>2026-04-22T12:59:45.001Z</time></trkpt><trkpt lat="44.73373696037565" lon="9.559057824913006"><ele>1017.0</ele><time>2026-04-22T12:59:46.001Z</time></trkpt><trkpt lat="44.73372852128377" lon="9.558962814194825"><ele>1017.0</ele><time>2026-04-22T12:59:47.001Z</time></trkpt><trkpt lat="44.73378925139235" lon="9.558848177399048"><ele>1017.0</ele><time>2026-04-22T12:59:49.001Z</time></trkpt><trkpt lat="44.733854244968306" lon="9.558738945454717"><ele>1017.0</ele><time>2026-04-22T12:59:51Z</time></trkpt><trkpt lat="44.73390395579295" lon="9.558664743827832"><ele>1017.0</ele><time>2026-04-22T12:59:53Z</time></trkpt><trkpt lat="44.73394123715656" lon="9.558577520166066"><ele>1017.0</ele><time>2026-04-22T12:59:56Z</time></trkpt><trkpt lat="44.73397328027029" lon="9.558440650738973"><ele>1015.0</ele><time>2026-04-22T13:00:00Z</time></trkpt><trkpt lat="44.733966000420445" lon="9.558308585447493"><ele>1013.0</ele><time>2026-04-22T13:00:02Z</time></trkpt><trkpt lat="44.73390872400897" lon="9.558165159420923"><ele>1011.0</ele><time>2026-04-22T13:00:04Z</time></trkpt><trkpt lat="44.73387566240582" lon="9.558082668160031"><ele>1009.0</ele><time>2026-04-22T13:00:05Z</time></trkpt><trkpt lat="44.73384627320019" lon="9.557940961315914"><ele>1007.0</ele><time>2026-04-22T13:00:07Z</time></trkpt><trkpt lat="44.73384765249461" lon="9.55782863389697"><ele>1005.6666666666667</ele><time>2026-04-22T13:00:10Z</time></trkpt><trkpt lat="44.733862332254965" lon="9.557703690448363"><ele>1004.3333333333334</ele><time>2026-04-22T13:00:12Z</time></trkpt><trkpt lat="44.73387360808988" lon="9.55760998325023"><ele>1003.0</ele><time>2026-04-22T13:00:14Z</time></trkpt><trkpt lat="44.73391406447038" lon="9.557529764520336"><ele>1001.6666666666667</ele><time>2026-04-22T13:00:17Z</time></trkpt><trkpt lat="44.73385143222122" lon="9.557540586606695"><ele>1000.3333333333334</ele><time>2026-04-22T13:00:21Z</time></trkpt><trkpt lat="44.73386443673046" lon="9.557695463994008"><ele>999.0</ele><time>2026-04-22T13:00:23Z</time></trkpt><trkpt lat="44.733851943221175" lon="9.557812526058882"><ele>1001.0</ele><time>2026-04-22T13:00:24Z</time></trkpt><trkpt lat="44.733845630700515" lon="9.557969997618468"><ele>1003.0</ele><time>2026-04-22T13:00:25Z</time></trkpt><trkpt lat="44.7338661370611" lon="9.558119936576725"><ele>1005.0</ele><time>2026-04-22T13:00:26Z</time></trkpt><trkpt lat="44.73392760251016" lon="9.558254333798638"><ele>1007.0</ele><time>2026-04-22T13:00:27.001Z</time></trkpt><trkpt lat="44.733993419331796" lon="9.558396483688659"><ele>1007.0</ele><time>2026-04-22T13:00:28.001Z</time></trkpt><trkpt lat="44.73399544445724" lon="9.558490784031806"><ele>1007.0</ele><time>2026-04-22T13:00:29.001Z</time></trkpt><trkpt lat="44.73394171799256" lon="9.558597583285176"><ele>1007.0</ele><time>2026-04-22T13:00:30.001Z</time></trkpt><trkpt lat="44.733852824749675" lon="9.558754210328381"><ele>1007.0</ele><time>2026-04-22T13:00:31.001Z</time></trkpt><trkpt lat="44.733766446052606" lon="9.558909211828622"><ele>1007.0</ele><time>2026-04-22T13:00:32.001Z</time></trkpt><trkpt lat="44.73372528151368" lon="9.559041808005754"><ele>1008.6666666666667</ele><time>2026-04-22T13:00:33.001Z</time></trkpt><trkpt lat="44.73372921461185" lon="9.559150228394346"><ele>1010.3333333333334</ele><time>2026-04-22T13:00:34.001Z</time></trkpt><trkpt lat="44.73377752497646" lon="9.559280753515068"><ele>1012.0</ele><time>2026-04-22T13:00:35.001Z</time></trkpt><trkpt lat="44.73385264776584" lon="9.559388874406588"><ele>1013.6666666666667</ele><time>2026-04-22T13:00:36.001Z</time></trkpt><trkpt lat="44.733905703153084" lon="9.55944291612494"><ele>1015.3333333333334</ele><time>2026-04-22T13:00:37.001Z</time></trkpt><trkpt lat="44.73396015113872" lon="9.559493971415284"><ele>1017.0</ele><time>2026-04-22T13:00:42.001Z</time></trkpt><trkpt lat="44.73389551306638" lon="9.559423138242327"><ele>1017.0</ele><time>2026-04-22T13:01:03.001Z</time></trkpt><trkpt lat="44.73397288729416" lon="9.559349909583116"><ele>1017.0</ele><time>2026-04-22T13:01:06.001Z</time></trkpt><trkpt lat="44.73409663045179" lon="9.559301436838595"><ele>1017.0</ele><time>2026-04-22T13:01:08.001Z</time></trkpt><trkpt lat="44.7342091138704" lon="9.55931469095668"><ele>1017.0</ele><time>2026-04-22T13:01:10.001Z</time></trkpt><trkpt lat="44.73427308235557" lon="9.559354373708421"><ele>1017.0</ele><time>2026-04-22T13:01:11.001Z</time></trkpt><trkpt lat="44.73436494527817" lon="9.559400282790062"><ele>1020.5</ele><time>2026-04-22T13:01:12.001Z</time></trkpt><trkpt lat="44.734447003227324" lon="9.559415997960144"><ele>1024.0</ele><time>2026-04-22T13:01:13.001Z</time></trkpt><trkpt lat="44.73451554777863" lon="9.559398112618995"><ele>1027.5</ele><time>2026-04-22T13:01:14.001Z</time></trkpt><trkpt lat="44.734591748801385" lon="9.559378522897049"><ele>1031.0</ele><time>2026-04-22T13:01:15.001Z</time></trkpt><trkpt lat="44.734663542215976" lon="9.559363856759136"><ele>1034.5</ele><time>2026-04-22T13:01:16.001Z</time></trkpt><trkpt lat="44.73475157390125" lon="9.559413336984631"><ele>1038.0</ele><time>2026-04-22T13:01:18.001Z</time></trkpt><trkpt lat="44.734804563287696" lon="9.55949040914439"><ele>1036.6666666666667</ele><time>2026-04-22T13:01:19.001Z</time></trkpt><trkpt lat="44.734858450189876" lon="9.559568803712558"><ele>1035.3333333333333</ele><time>2026-04-22T13:01:20.001Z</time></trkpt><trkpt lat="44.73493700329319" lon="9.559580279079121"><ele>1034.0</ele><time>2026-04-22T13:01:22.001Z</time></trkpt><trkpt lat="44.7350213313628" lon="9.55961326824195"><ele>1032.6666666666665</ele><time>2026-04-22T13:01:24.001Z</time></trkpt><trkpt lat="44.73510933633643" lon="9.55961797035934"><ele>1031.3333333333333</ele><time>2026-04-22T13:01:26.001Z</time></trkpt><trkpt lat="44.73517174891223" lon="9.559603321792002"><ele>1030.0</ele><time>2026-04-22T13:01:28Z</time></trkpt><trkpt lat="44.73529040059819" lon="9.559561479101829"><ele>1034.1666666666665</ele><time>2026-04-22T13:01:30Z</time></trkpt><trkpt lat="44.73536311403347" lon="9.559569466984607"><ele>1038.3333333333333</ele><time>2026-04-22T13:01:31Z</time></trkpt><trkpt lat="44.73543448397097" lon="9.559590002491015"><ele>1042.5</ele><time>2026-04-22T13:01:32Z</time></trkpt><trkpt lat="44.73551170471303" lon="9.5595794896427"><ele>1046.6666666666667</ele><time>2026-04-22T13:01:33Z</time></trkpt><trkpt lat="44.73562540335974" lon="9.559514627427184"><ele>1050.8333333333335</ele><time>2026-04-22T13:01:35Z</time></trkpt><trkpt lat="44.73571281074775" lon="9.559514158521797"><ele>1055.0</ele><time>2026-04-22T13:01:36Z</time></trkpt><trkpt lat="44.7357859848617" lon="9.559504235803479"><ele>1055.8333333333335</ele><time>2026-04-22T13:01:37Z</time></trkpt><trkpt lat="44.73585244455293" lon="9.559491731455442"><ele>1056.6666666666667</ele><time>2026-04-22T13:01:38Z</time></trkpt><trkpt lat="44.73597269362638" lon="9.559467932110135"><ele>1057.5</ele><time>2026-04-22T13:01:40Z</time></trkpt><trkpt lat="44.736057224886025" lon="9.559471838891799"><ele>1058.3333333333333</ele><time>2026-04-22T13:01:42Z</time></trkpt><trkpt lat="44.73612570789586" lon="9.55947973179664"><ele>1059.1666666666665</ele><time>2026-04-22T13:01:44Z</time></trkpt><trkpt lat="44.73619915473222" lon="9.559477285038446"><ele>1060.0</ele><time>2026-04-22T13:01:46Z</time></trkpt><trkpt lat="44.73626221034616" lon="9.55947724034036"><ele>1062.2</ele><time>2026-04-22T13:01:48Z</time></trkpt><trkpt lat="44.7363279468782" lon="9.55947316133181"><ele>1064.4</ele><time>2026-04-22T13:01:50Z</time></trkpt><trkpt lat="44.73642727099856" lon="9.55948837019277"><ele>1066.6</ele><time>2026-04-22T13:01:54Z</time></trkpt><trkpt lat="44.73643252942979" lon="9.559591626314477"><ele>1068.8</ele><time>2026-04-22T13:01:55Z</time></trkpt><trkpt lat="44.73650198967691" lon="9.559686718399131"><ele>1071.0</ele><time>2026-04-22T13:01:56Z</time></trkpt><trkpt lat="44.736554981255516" lon="9.55984160796626"><ele>1071.0</ele><time>2026-04-22T13:01:58Z</time></trkpt><trkpt lat="44.736622750267124" lon="9.559944065031887"><ele>1071.0</ele><time>2026-04-22T13:01:59Z</time></trkpt><trkpt lat="44.73669334425105" lon="9.560023039466516"><ele>1071.0</ele><time>2026-04-22T13:02:00Z</time></trkpt><trkpt lat="44.736764524328734" lon="9.560071035640803"><ele>1071.0</ele><time>2026-04-22T13:02:01Z</time></trkpt><trkpt lat="44.73682732119169" lon="9.560144477596872"><ele>1071.0</ele><time>2026-04-22T13:02:02Z</time></trkpt><trkpt lat="44.73688618050097" lon="9.560236386167634"><ele>1071.0</ele><time>2026-04-22T13:02:03Z</time></trkpt><trkpt lat="44.737004189766076" lon="9.560284010285416"><ele>1073.5</ele><time>2026-04-22T13:02:05Z</time></trkpt><trkpt lat="44.7370870511614" lon="9.560290715911657"><ele>1076.0</ele><time>2026-04-22T13:02:06Z</time></trkpt><trkpt lat="44.737179040325024" lon="9.560306056015275"><ele>1078.5</ele><time>2026-04-22T13:02:07Z</time></trkpt><trkpt lat="44.737265162246" lon="9.560321985617003"><ele>1081.0</ele><time>2026-04-22T13:02:08Z</time></trkpt><trkpt lat="44.73734848583367" lon="9.560337543218012"><ele>1083.5</ele><time>2026-04-22T13:02:09Z</time></trkpt><trkpt lat="44.737416381332665" lon="9.560339656618417"><ele>1086.0</ele><time>2026-04-22T13:02:10Z</time></trkpt><trkpt lat="44.7374789435546" lon="9.560326945570482"><ele>1086.0</ele><time>2026-04-22T13:02:11Z</time></trkpt><trkpt lat="44.73760748642716" lon="9.560294105664266"><ele>1086.0</ele><time>2026-04-22T13:02:13Z</time></trkpt><trkpt lat="44.73768000258537" lon="9.560279766710515"><ele>1086.0</ele><time>2026-04-22T13:02:14Z</time></trkpt><trkpt lat="44.737745643410534" lon="9.560157852301538"><ele>1086.0</ele><time>2026-04-22T13:02:16Z</time></trkpt><trkpt lat="44.73773224937304" lon="9.560020304724857"><ele>1086.0</ele><time>2026-04-22T13:02:18Z</time></trkpt><trkpt lat="44.73771056029251" lon="9.559869858816443"><ele>1086.0</ele><time>2026-04-22T13:02:19Z</time></trkpt><trkpt lat="44.73768200398617" lon="9.55976287733071"><ele>1086.0</ele><time>2026-04-22T13:02:20Z</time></trkpt><trkpt lat="44.737677895707" lon="9.559661501126133"><ele>1086.0</ele><time>2026-04-22T13:02:21Z</time></trkpt><trkpt lat="44.73766659600925" lon="9.559543863060988"><ele>1086.0</ele><time>2026-04-22T13:02:22Z</time></trkpt><trkpt lat="44.73767329942754" lon="9.55942235207251"><ele>1086.0</ele><time>2026-04-22T13:02:23Z</time></trkpt><trkpt lat="44.737697472543246" lon="9.559279693395755"><ele>1086.0</ele><time>2026-04-22T13:02:24Z</time></trkpt><trkpt lat="44.73771962166516" lon="9.559105489968914"><ele>1084.3999999999999</ele><time>2026-04-22T13:02:26Z</time></trkpt><trkpt lat="44.73772651177987" lon="9.559009589939397"><ele>1082.8</ele><time>2026-04-22T13:02:27Z</time></trkpt><trkpt lat="44.73774285277423" lon="9.558824477090877"><ele>1081.1999999999998</ele><time>2026-04-22T13:02:29Z</time></trkpt><trkpt lat="44.737755780913965" lon="9.558698834888265"><ele>1079.6</ele><time>2026-04-22T13:02:30Z</time></trkpt><trkpt lat="44.73777413851378" lon="9.558548039709883"><ele>1078.0</ele><time>2026-04-22T13:02:31Z</time></trkpt><trkpt lat="44.7378005433673" lon="9.55839216625877"><ele>1078.0</ele><time>2026-04-22T13:02:32Z</time></trkpt><trkpt lat="44.73781901343625" lon="9.558277861279034"><ele>1078.0</ele><time>2026-04-22T13:02:33.001Z</time></trkpt><trkpt lat="44.73782434317369" lon="9.558170385524345"><ele>1078.0</ele><time>2026-04-22T13:02:35.001Z</time></trkpt><trkpt lat="44.73787009658874" lon="9.558033258990493"><ele>1078.0</ele><time>2026-04-22T13:02:56.001Z</time></trkpt><trkpt lat="44.73789777206659" lon="9.557942544687748"><ele>1078.0</ele><time>2026-04-22T13:02:58.001Z</time></trkpt><trkpt lat="44.73789798781939" lon="9.557807123099941"><ele>1078.0</ele><time>2026-04-22T13:03:00.001Z</time></trkpt><trkpt lat="44.73792565356377" lon="9.557721576733476"><ele>1079.0</ele><time>2026-04-22T13:03:01Z</time></trkpt><trkpt lat="44.73794940752785" lon="9.557622954701795"><ele>1080.0</ele><time>2026-04-22T13:03:02Z</time></trkpt><trkpt lat="44.738002765841884" lon="9.557559092612594"><ele>1081.0</ele><time>2026-04-22T13:03:05Z</time></trkpt><trkpt lat="44.73805941891276" lon="9.557432484331368"><ele>1082.0</ele><time>2026-04-22T13:03:07Z</time></trkpt><trkpt lat="44.738126694236726" lon="9.557366739072119"><ele>1083.0</ele><time>2026-04-22T13:03:12Z</time></trkpt><trkpt lat="44.73816784234257" lon="9.557243775390056"><ele>1084.0</ele><time>2026-04-22T13:03:14Z</time></trkpt><trkpt lat="44.73817216149397" lon="9.557067911217334"><ele>1084.5</ele><time>2026-04-22T13:03:16Z</time></trkpt><trkpt lat="44.738163583900075" lon="9.556970989865857"><ele>1085.0</ele><time>2026-04-22T13:03:17Z</time></trkpt><trkpt lat="44.738132512402835" lon="9.556871111601758"><ele>1085.5</ele><time>2026-04-22T13:03:18Z</time></trkpt><trkpt lat="44.738127269538175" lon="9.556761404762188"><ele>1086.0</ele><time>2026-04-22T13:03:19Z</time></trkpt><trkpt lat="44.738152315803" lon="9.55665593206654"><ele>1086.5</ele><time>2026-04-22T13:03:20Z</time></trkpt><trkpt lat="44.73817973265367" lon="9.556548548409408"><ele>1087.0</ele><time>2026-04-22T13:03:21Z</time></trkpt><trkpt lat="44.73818572736096" lon="9.556437223989915"><ele>1087.0</ele><time>2026-04-22T13:03:22Z</time></trkpt><trkpt lat="44.73818440167678" lon="9.556343385753921"><ele>1087.0</ele><time>2026-04-22T13:03:23Z</time></trkpt><trkpt lat="44.73818735814871" lon="9.556247784252754"><ele>1087.0</ele><time>2026-04-22T13:03:26Z</time></trkpt><trkpt lat="44.73819805725131" lon="9.556158055638171"><ele>1087.0</ele><time>2026-04-22T13:03:28Z</time></trkpt><trkpt lat="44.73827944424293" lon="9.555855688299777"><ele>1087.0</ele><time>2026-04-22T13:03:30Z</time></trkpt><trkpt lat="44.73831794970235" lon="9.55576720736273"><ele>1087.1666666666665</ele><time>2026-04-22T13:03:31Z</time></trkpt><trkpt lat="44.73834542981519" lon="9.555660438930323"><ele>1087.3333333333333</ele><time>2026-04-22T13:03:34Z</time></trkpt><trkpt lat="44.738318363049444" lon="9.555533837627527"><ele>1087.5</ele><time>2026-04-22T13:03:37Z</time></trkpt><trkpt lat="44.73834906577929" lon="9.555445751145461"><ele>1087.6666666666667</ele><time>2026-04-22T13:03:39Z</time></trkpt><trkpt lat="44.738354819545954" lon="9.555340697591685"><ele>1087.8333333333335</ele><time>2026-04-22T13:03:41Z</time></trkpt><trkpt lat="44.73836020062685" lon="9.555207692791305"><ele>1088.0</ele><time>2026-04-22T13:03:43Z</time></trkpt><trkpt lat="44.738377171960146" lon="9.555064201569628"><ele>1087.2</ele><time>2026-04-22T13:03:44Z</time></trkpt><trkpt lat="44.73839025961213" lon="9.554924714990012"><ele>1086.4</ele><time>2026-04-22T13:03:45Z</time></trkpt><trkpt lat="44.73839562327864" lon="9.55478865328261"><ele>1085.6000000000001</ele><time>2026-04-22T13:03:46Z</time></trkpt><trkpt lat="44.738398527586796" lon="9.554656191667828"><ele>1084.8</ele><time>2026-04-22T13:03:47Z</time></trkpt><trkpt lat="44.73840069521166" lon="9.554532056975516"><ele>1084.0</ele><time>2026-04-22T13:03:48Z</time></trkpt><trkpt lat="44.73839682077349" lon="9.554432732091787"><ele>1082.6666666666665</ele><time>2026-04-22T13:03:49Z</time></trkpt><trkpt lat="44.73837552867822" lon="9.554311796580535"><ele>1081.3333333333333</ele><time>2026-04-22T13:03:52Z</time></trkpt><trkpt lat="44.73832964786439" lon="9.554219260934996"><ele>1080.0</ele><time>2026-04-22T13:03:54Z</time></trkpt><trkpt lat="44.73825567363585" lon="9.554105836530226"><ele>1078.6666666666667</ele><time>2026-04-22T13:03:56Z</time></trkpt><trkpt lat="44.738190693449916" lon="9.554061600982061"><ele>1077.3333333333335</ele><time>2026-04-22T13:03:58Z</time></trkpt><trkpt lat="44.738157995496216" lon="9.553977925679126"><ele>1076.0</ele><time>2026-04-22T13:04:00Z</time></trkpt><trkpt lat="44.73811783517449" lon="9.553894712795891"><ele>1076.0</ele><time>2026-04-22T13:04:01Z</time></trkpt><trkpt lat="44.73813694659629" lon="9.553808134209689"><ele>1076.0</ele><time>2026-04-22T13:04:03Z</time></trkpt><trkpt lat="44.738128955554465" lon="9.553684599934739"><ele>1076.0</ele><time>2026-04-22T13:04:05Z</time></trkpt><trkpt lat="44.73810155931957" lon="9.55359800670521"><ele>1076.0</ele><time>2026-04-22T13:04:08Z</time></trkpt><trkpt lat="44.73807268165285" lon="9.55349707106224"><ele>1076.0</ele><time>2026-04-22T13:04:09Z</time></trkpt><trkpt lat="44.73800882064003" lon="9.553228499113214"><ele>1074.1666666666667</ele><time>2026-04-22T13:04:11Z</time></trkpt><trkpt lat="44.737981227618356" lon="9.55310387627878"><ele>1072.3333333333335</ele><time>2026-04-22T13:04:13Z</time></trkpt><trkpt lat="44.737984741529594" lon="9.552989653042198"><ele>1070.5</ele><time>2026-04-22T13:04:15Z</time></trkpt><trkpt lat="44.737975939026505" lon="9.552883743149092"><ele>1068.6666666666667</ele><time>2026-04-22T13:04:17Z</time></trkpt><trkpt lat="44.737961806883966" lon="9.552744044069458"><ele>1066.8333333333333</ele><time>2026-04-22T13:04:19Z</time></trkpt><trkpt lat="44.737944532479844" lon="9.552651129920779"><ele>1065.0</ele><time>2026-04-22T13:04:20Z</time></trkpt><trkpt lat="44.73787552824547" lon="9.552634079515629"><ele>1065.0</ele><time>2026-04-22T13:05:42Z</time></trkpt><trkpt lat="44.73793838404136" lon="9.552592388030249"><ele>1065.0</ele><time>2026-04-22T13:06:04Z</time></trkpt><trkpt lat="44.73795442467013" lon="9.552689672369231"><ele>1065.0</ele><time>2026-04-22T13:07:15Z</time></trkpt><trkpt lat="44.73797981128492" lon="9.552795101285607"><ele>1065.0</ele><time>2026-04-22T13:07:18Z</time></trkpt><trkpt lat="44.737930292826746" lon="9.552855753915996"><ele>1065.0</ele><time>2026-04-22T13:07:21Z</time></trkpt><trkpt lat="44.737850954369236" lon="9.552929584547707"><ele>1065.0</ele><time>2026-04-22T13:07:29Z</time></trkpt><trkpt lat="44.73774930438536" lon="9.552958932263994"><ele>1062.8333333333333</ele><time>2026-04-22T13:07:31Z</time></trkpt><trkpt lat="44.73765852891472" lon="9.552960097666924"><ele>1060.6666666666667</ele><time>2026-04-22T13:07:33Z</time></trkpt><trkpt lat="44.737575371221546" lon="9.55293412918602"><ele>1058.5</ele><time>2026-04-22T13:07:36Z</time></trkpt><trkpt lat="44.73750331624466" lon="9.552887638304192"><ele>1056.3333333333335</ele><time>2026-04-22T13:07:39Z</time></trkpt><trkpt lat="44.737403214293394" lon="9.552823733826306"><ele>1054.1666666666667</ele><time>2026-04-22T13:07:41Z</time></trkpt><trkpt lat="44.73735302308038" lon="9.552769686973097"><ele>1052.0</ele><time>2026-04-22T13:07:42Z</time></trkpt><trkpt lat="44.73730428247333" lon="9.55269968718619"><ele>1052.0</ele><time>2026-04-22T13:07:43Z</time></trkpt><trkpt lat="44.73724814687727" lon="9.552611105060436"><ele>1052.0</ele><time>2026-04-22T13:07:44Z</time></trkpt><trkpt lat="44.737190217598325" lon="9.552530987520353"><ele>1052.0</ele><time>2026-04-22T13:07:45Z</time></trkpt><trkpt lat="44.737126011722026" lon="9.552431443288619"><ele>1052.0</ele><time>2026-04-22T13:07:46Z</time></trkpt><trkpt lat="44.737075667836336" lon="9.552324517397544"><ele>1052.0</ele><time>2026-04-22T13:07:47Z</time></trkpt><trkpt lat="44.737035227036415" lon="9.552233734022732"><ele>1052.0</ele><time>2026-04-22T13:07:48Z</time></trkpt><trkpt lat="44.736998519240494" lon="9.552159632884614"><ele>1052.0</ele><time>2026-04-22T13:07:49Z</time></trkpt><trkpt lat="44.73689272767924" lon="9.552080943392093"><ele>1052.0</ele><time>2026-04-22T13:07:51Z</time></trkpt><trkpt lat="44.736847642017345" lon="9.5520189528195"><ele>1052.0</ele><time>2026-04-22T13:07:52Z</time></trkpt><trkpt lat="44.736803489436426" lon="9.5519257569913"><ele>1052.0</ele><time>2026-04-22T13:07:53Z</time></trkpt><trkpt lat="44.736745470770046" lon="9.551825436582194"><ele>1052.0</ele><time>2026-04-22T13:07:54Z</time></trkpt><trkpt lat="44.73669004413862" lon="9.551730557763474"><ele>1052.0</ele><time>2026-04-22T13:07:55Z</time></trkpt><trkpt lat="44.73664208392898" lon="9.55164653367082"><ele>1048.1666666666667</ele><time>2026-04-22T13:07:56Z</time></trkpt><trkpt lat="44.73659448078473" lon="9.551579950722383"><ele>1044.3333333333335</ele><time>2026-04-22T13:07:57Z</time></trkpt><trkpt lat="44.736527399368704" lon="9.55155165058363"><ele>1040.5</ele><time>2026-04-22T13:07:58Z</time></trkpt><trkpt lat="44.73643624213952" lon="9.551539776200123"><ele>1036.6666666666667</ele><time>2026-04-22T13:07:59Z</time></trkpt><trkpt lat="44.736357888171916" lon="9.551529149810332"><ele>1032.8333333333333</ele><time>2026-04-22T13:08:00Z</time></trkpt><trkpt lat="44.73628375269352" lon="9.551493488848669"><ele>1029.0</ele><time>2026-04-22T13:08:01Z</time></trkpt><trkpt lat="44.73621739206711" lon="9.551433986848389"><ele>1029.0</ele><time>2026-04-22T13:08:02Z</time></trkpt><trkpt lat="44.73616142457579" lon="9.55133607761797"><ele>1029.0</ele><time>2026-04-22T13:08:03Z</time></trkpt><trkpt lat="44.736106823623544" lon="9.551221821807744"><ele>1029.0</ele><time>2026-04-22T13:08:04Z</time></trkpt><trkpt lat="44.73600247153828" lon="9.551164580296604"><ele>1029.0</ele><time>2026-04-22T13:08:06Z</time></trkpt><trkpt lat="44.73592227527525" lon="9.551165936913181"><ele>1029.0</ele><time>2026-04-22T13:08:07Z</time></trkpt><trkpt lat="44.73583376502439" lon="9.551147862518405"><ele>1026.3333333333333</ele><time>2026-04-22T13:08:08Z</time></trkpt><trkpt lat="44.735765135752075" lon="9.551115210975917"><ele>1023.6666666666667</ele><time>2026-04-22T13:08:09Z</time></trkpt><trkpt lat="44.735696185742725" lon="9.551040140470352"><ele>1021.0</ele><time>2026-04-22T13:08:10Z</time></trkpt><trkpt lat="44.73562927899928" lon="9.550954783242993"><ele>1018.3333333333334</ele><time>2026-04-22T13:08:11Z</time></trkpt><trkpt lat="44.7355679249933" lon="9.55088802626311"><ele>1015.6666666666667</ele><time>2026-04-22T13:08:12Z</time></trkpt><trkpt lat="44.73547453351686" lon="9.550839936033043"><ele>1013.0</ele><time>2026-04-22T13:08:14Z</time></trkpt><trkpt lat="44.73540581683032" lon="9.550833146107177"><ele>1013.0000000000001</ele><time>2026-04-22T13:08:15Z</time></trkpt><trkpt lat="44.73533533827742" lon="9.5508334313029"><ele>1013.0</ele><time>2026-04-22T13:08:16Z</time></trkpt><trkpt lat="44.735244748418175" lon="9.550837559734548"><ele>1013.0</ele><time>2026-04-22T13:08:17Z</time></trkpt><trkpt lat="44.7351540610818" lon="9.550861773690041"><ele>1013.0</ele><time>2026-04-22T13:08:18Z</time></trkpt><trkpt lat="44.73505610920876" lon="9.550869865289487"><ele>1013.0000000000001</ele><time>2026-04-22T13:08:19Z</time></trkpt><trkpt lat="44.73496923333481" lon="9.550876643103306"><ele>1013.0</ele><time>2026-04-22T13:08:20Z</time></trkpt><trkpt lat="44.73488076367224" lon="9.550868637846134"><ele>1010.4</ele><time>2026-04-22T13:08:21Z</time></trkpt><trkpt lat="44.73480695340646" lon="9.550839516697621"><ele>1007.8</ele><time>2026-04-22T13:08:22Z</time></trkpt><trkpt lat="44.73472718932715" lon="9.55082214346775"><ele>1005.2</ele><time>2026-04-22T13:08:23Z</time></trkpt><trkpt lat="44.73464667434239" lon="9.550804775014953"><ele>1002.6</ele><time>2026-04-22T13:08:24Z</time></trkpt><trkpt lat="44.73450664156363" lon="9.550841811891495"><ele>1000.0</ele><time>2026-04-22T13:08:25Z</time></trkpt><trkpt lat="44.73442926170945" lon="9.550805528956914"><ele>998.8333333333333</ele><time>2026-04-22T13:08:26Z</time></trkpt><trkpt lat="44.73437365091456" lon="9.550727508835024"><ele>997.6666666666666</ele><time>2026-04-22T13:08:27Z</time></trkpt><trkpt lat="44.734330078310215" lon="9.550634920679322"><ele>996.5</ele><time>2026-04-22T13:08:28Z</time></trkpt><trkpt lat="44.73430331197313" lon="9.550510849838588"><ele>995.3333333333333</ele><time>2026-04-22T13:08:30Z</time></trkpt><trkpt lat="44.73429512215694" lon="9.550404228509066"><ele>994.1666666666666</ele><time>2026-04-22T13:08:31Z</time></trkpt><trkpt lat="44.73426106795798" lon="9.550318378131637"><ele>993.0</ele><time>2026-04-22T13:08:32Z</time></trkpt><trkpt lat="44.734209350380446" lon="9.550258187594679"><ele>993.0</ele><time>2026-04-22T13:08:33Z</time></trkpt><trkpt lat="44.734137103489516" lon="9.550180440689688"><ele>993.0</ele><time>2026-04-22T13:08:34Z</time></trkpt><trkpt lat="44.73405746902141" lon="9.550112418989437"><ele>993.0</ele><time>2026-04-22T13:08:35Z</time></trkpt><trkpt lat="44.73395748855691" lon="9.550036212381949"><ele>993.0</ele><time>2026-04-22T13:08:36Z</time></trkpt><trkpt lat="44.73385846943195" lon="9.549960508708917"><ele>993.0</ele><time>2026-04-22T13:08:37Z</time></trkpt><trkpt lat="44.73378986231669" lon="9.54990367177175"><ele>993.0</ele><time>2026-04-22T13:08:38Z</time></trkpt><trkpt lat="44.73369077347826" lon="9.549769749193729"><ele>993.0</ele><time>2026-04-22T13:08:40Z</time></trkpt><trkpt lat="44.733639455546225" lon="9.549691827675275"><ele>993.0</ele><time>2026-04-22T13:08:41Z</time></trkpt><trkpt lat="44.73351330589621" lon="9.549705256027382"><ele>993.0</ele><time>2026-04-22T13:08:43Z</time></trkpt><trkpt lat="44.73342573222761" lon="9.549709217967036"><ele>993.0</ele><time>2026-04-22T13:08:45Z</time></trkpt><trkpt lat="44.73343006531662" lon="9.5495580191346"><ele>989.8333333333334</ele><time>2026-04-22T13:08:47Z</time></trkpt><trkpt lat="44.73342241214258" lon="9.549435898641303"><ele>986.6666666666667</ele><time>2026-04-22T13:08:48Z</time></trkpt><trkpt lat="44.73339231329247" lon="9.54932672329859"><ele>983.5</ele><time>2026-04-22T13:08:49Z</time></trkpt><trkpt lat="44.73335933089546" lon="9.54924403210237"><ele>980.3333333333334</ele><time>2026-04-22T13:08:50Z</time></trkpt><trkpt lat="44.733361020780244" lon="9.54907643130891"><ele>977.1666666666667</ele><time>2026-04-22T13:08:52Z</time></trkpt><trkpt lat="44.73334141490707" lon="9.548982003465197"><ele>974.0</ele><time>2026-04-22T13:08:53Z</time></trkpt><trkpt lat="44.73327171153916" lon="9.548909016841735"><ele>974.0</ele><time>2026-04-22T13:08:54Z</time></trkpt><trkpt lat="44.733261478596106" lon="9.548753050088182"><ele>974.0</ele><time>2026-04-22T13:08:55Z</time></trkpt><trkpt lat="44.73323503359049" lon="9.54856230391239"><ele>974.0</ele><time>2026-04-22T13:08:56Z</time></trkpt><trkpt lat="44.733201557496876" lon="9.548337477214053"><ele>974.0</ele><time>2026-04-22T13:08:57Z</time></trkpt><trkpt lat="44.73317082082188" lon="9.548151142652234"><ele>973.5</ele><time>2026-04-22T13:08:58Z</time></trkpt><trkpt lat="44.7331048045142" lon="9.548021039554317"><ele>973.0</ele><time>2026-04-22T13:08:59Z</time></trkpt><trkpt lat="44.73303259802531" lon="9.547937243309045"><ele>972.5</ele><time>2026-04-22T13:09:00Z</time></trkpt><trkpt lat="44.732903472686274" lon="9.547792640936867"><ele>972.0</ele><time>2026-04-22T13:09:01Z</time></trkpt><trkpt lat="44.7327626074736" lon="9.547678895526081"><ele>968.2</ele><time>2026-04-22T13:09:02Z</time></trkpt><trkpt lat="44.732683827796535" lon="9.54753484535249"><ele>964.4000000000001</ele><time>2026-04-22T13:09:03Z</time></trkpt><trkpt lat="44.732606945505104" lon="9.547463942092637"><ele>960.5999999999999</ele><time>2026-04-22T13:09:04Z</time></trkpt><trkpt lat="44.73252146075092" lon="9.547386954863521"><ele>956.8</ele><time>2026-04-22T13:09:05Z</time></trkpt><trkpt lat="44.73246724880864" lon="9.547290240378855"><ele>953.0</ele><time>2026-04-22T13:09:06Z</time></trkpt><trkpt lat="44.732441284689735" lon="9.547207577786143"><ele>953.0</ele><time>2026-04-22T13:09:07Z</time></trkpt><trkpt lat="44.732356012233836" lon="9.547111605388931"><ele>953.0</ele><time>2026-04-22T13:09:09Z</time></trkpt><trkpt lat="44.73225565534939" lon="9.547140650871846"><ele>953.0</ele><time>2026-04-22T13:09:11Z</time></trkpt><trkpt lat="44.732175135101464" lon="9.547140290951532"><ele>953.0</ele><time>2026-04-22T13:09:13Z</time></trkpt><trkpt lat="44.732184466466535" lon="9.547020705454765"><ele>953.0</ele><time>2026-04-22T13:09:15Z</time></trkpt><trkpt lat="44.732282867440716" lon="9.546931765064485"><ele>952.0000000000001</ele><time>2026-04-22T13:09:17Z</time></trkpt><trkpt lat="44.7323462306876" lon="9.546890963583138"><ele>951.0</ele><time>2026-04-22T13:09:18Z</time></trkpt><trkpt lat="44.73241667387047" lon="9.546858597940583"><ele>950.0</ele><time>2026-04-22T13:09:20Z</time></trkpt><trkpt lat="44.73248148919744" lon="9.546793193976162"><ele>949.0</ele><time>2026-04-22T13:09:23Z</time></trkpt><trkpt lat="44.73239875757158" lon="9.546732691927522"><ele>948.0000000000001</ele><time>2026-04-22T13:09:27Z</time></trkpt><trkpt lat="44.73232595716038" lon="9.546749740133162"><ele>947.0</ele><time>2026-04-22T13:09:28Z</time></trkpt><trkpt lat="44.73223308571545" lon="9.54677503124822"><ele>947.0</ele><time>2026-04-22T13:09:29Z</time></trkpt><trkpt lat="44.7321215750138" lon="9.546805004529244"><ele>947.0</ele><time>2026-04-22T13:09:30Z</time></trkpt><trkpt lat="44.731996980426004" lon="9.54683868944962"><ele>947.0</ele><time>2026-04-22T13:09:31Z</time></trkpt><trkpt lat="44.731871030676125" lon="9.546860058201089"><ele>947.0</ele><time>2026-04-22T13:09:32Z</time></trkpt><trkpt lat="44.73176318520401" lon="9.546885581473296"><ele>944.6</ele><time>2026-04-22T13:09:33Z</time></trkpt><trkpt lat="44.731680465858155" lon="9.54693289628932"><ele>942.2</ele><time>2026-04-22T13:09:34Z</time></trkpt><trkpt lat="44.73161294080944" lon="9.547012050014079"><ele>939.8</ele><time>2026-04-22T13:09:35Z</time></trkpt><trkpt lat="44.73158406334522" lon="9.547176595005185"><ele>937.4</ele><time>2026-04-22T13:09:36Z</time></trkpt><trkpt lat="44.73156584934824" lon="9.547362940851665"><ele>935.0</ele><time>2026-04-22T13:09:37Z</time></trkpt><trkpt lat="44.73155929026839" lon="9.5475888837583"><ele>934.5</ele><time>2026-04-22T13:09:38Z</time></trkpt><trkpt lat="44.73154916299247" lon="9.547809176521312"><ele>934.0</ele><time>2026-04-22T13:09:39Z</time></trkpt><trkpt lat="44.73152709858132" lon="9.547999187062311"><ele>933.5</ele><time>2026-04-22T13:09:40Z</time></trkpt><trkpt lat="44.731477622298335" lon="9.54817506735645"><ele>933.0</ele><time>2026-04-22T13:09:41Z</time></trkpt><trkpt lat="44.73137255032987" lon="9.548356979580113"><ele>932.5</ele><time>2026-04-22T13:09:42Z</time></trkpt><trkpt lat="44.73124888386647" lon="9.548485512223053"><ele>932.0</ele><time>2026-04-22T13:09:43Z</time></trkpt><trkpt lat="44.73112458291577" lon="9.548587024766125"><ele>931.5</ele><time>2026-04-22T13:09:44Z</time></trkpt><trkpt lat="44.73101851216751" lon="9.548707257435128"><ele>931.0</ele><time>2026-04-22T13:09:45Z</time></trkpt><trkpt lat="44.730937871421546" lon="9.54885624612835"><ele>926.5</ele><time>2026-04-22T13:09:46Z</time></trkpt><trkpt lat="44.730880689434834" lon="9.549016117207337"><ele>922.0</ele><time>2026-04-22T13:09:47Z</time></trkpt><trkpt lat="44.730849481690356" lon="9.549163385343661"><ele>917.5</ele><time>2026-04-22T13:09:48Z</time></trkpt><trkpt lat="44.73086052306657" lon="9.549337141050202"><ele>913.0</ele><time>2026-04-22T13:09:49Z</time></trkpt><trkpt lat="44.730905440535395" lon="9.54952670399432"><ele>913.75</ele><time>2026-04-22T13:09:50Z</time></trkpt><trkpt lat="44.73092604684951" lon="9.549698028903071"><ele>914.5</ele><time>2026-04-22T13:09:51Z</time></trkpt><trkpt lat="44.730893652201345" lon="9.549838307725834"><ele>915.25</ele><time>2026-04-22T13:09:52Z</time></trkpt><trkpt lat="44.73079195021233" lon="9.549938035285276"><ele>916.0</ele><time>2026-04-22T13:09:53Z</time></trkpt><trkpt lat="44.73064527099601" lon="9.54997527579959"><ele>916.0</ele><time>2026-04-22T13:09:54Z</time></trkpt><trkpt lat="44.730498855263626" lon="9.54998305262561"><ele>916.0</ele><time>2026-04-22T13:09:55Z</time></trkpt><trkpt lat="44.73034553146571" lon="9.549985799189217"><ele>916.0</ele><time>2026-04-22T13:09:56Z</time></trkpt><trkpt lat="44.730190821882296" lon="9.550001200990947"><ele>913.5</ele><time>2026-04-22T13:09:57Z</time></trkpt><trkpt lat="44.730046805809955" lon="9.550026656721542"><ele>911.0</ele><time>2026-04-22T13:09:58Z</time></trkpt><trkpt lat="44.729913974079885" lon="9.550066541373273"><ele>908.5</ele><time>2026-04-22T13:09:59Z</time></trkpt><trkpt lat="44.72978573403601" lon="9.55012883260733"><ele>906.0</ele><time>2026-04-22T13:10:00Z</time></trkpt><trkpt lat="44.729663608113704" lon="9.550205932906561"><ele>906.0</ele><time>2026-04-22T13:10:01Z</time></trkpt><trkpt lat="44.72954086939363" lon="9.550271398510343"><ele>906.0</ele><time>2026-04-22T13:10:02Z</time></trkpt><trkpt lat="44.729415151332404" lon="9.550310763457672"><ele>906.0</ele><time>2026-04-22T13:10:03Z</time></trkpt><trkpt lat="44.72928567407428" lon="9.550300535854284"><ele>906.0</ele><time>2026-04-22T13:10:04Z</time></trkpt><trkpt lat="44.72916472583863" lon="9.550273212224083"><ele>905.4</ele><time>2026-04-22T13:10:05Z</time></trkpt><trkpt lat="44.72906941437978" lon="9.550281366807571"><ele>904.8</ele><time>2026-04-22T13:10:06Z</time></trkpt><trkpt lat="44.72899300620382" lon="9.55035695947442"><ele>904.1999999999999</ele><time>2026-04-22T13:10:07Z</time></trkpt><trkpt lat="44.72891850047809" lon="9.55048441937824"><ele>903.5999999999999</ele><time>2026-04-22T13:10:08Z</time></trkpt><trkpt lat="44.72884091644303" lon="9.550641504094509"><ele>903.0</ele><time>2026-04-22T13:10:09Z</time></trkpt><trkpt lat="44.72876953721893" lon="9.550785715565626"><ele>903.0</ele><time>2026-04-22T13:10:10Z</time></trkpt><trkpt lat="44.72872041184395" lon="9.550935240456583"><ele>903.0</ele><time>2026-04-22T13:10:11Z</time></trkpt><trkpt lat="44.72868277442476" lon="9.55110350302206"><ele>903.0</ele><time>2026-04-22T13:10:12Z</time></trkpt><trkpt lat="44.72864048317639" lon="9.551279797600285"><ele>903.0</ele><time>2026-04-22T13:10:13Z</time></trkpt><trkpt lat="44.72856899092082" lon="9.551407528498945"><ele>901.25</ele><time>2026-04-22T13:10:14Z</time></trkpt><trkpt lat="44.72846312438599" lon="9.55147743960893"><ele>899.5</ele><time>2026-04-22T13:10:15Z</time></trkpt><trkpt lat="44.72832763979177" lon="9.551463449816413"><ele>897.75</ele><time>2026-04-22T13:10:16Z</time></trkpt><trkpt lat="44.72818876449863" lon="9.551393868546494"><ele>896.0</ele><time>2026-04-22T13:10:17Z</time></trkpt><trkpt lat="44.72804659609386" lon="9.55126934270103"><ele>894.6666666666667</ele><time>2026-04-22T13:10:18Z</time></trkpt><trkpt lat="44.72791658574361" lon="9.551114916553264"><ele>893.3333333333333</ele><time>2026-04-22T13:10:19Z</time></trkpt><trkpt lat="44.72781502225983" lon="9.550924270831178"><ele>892.0</ele><time>2026-04-22T13:10:20Z</time></trkpt><trkpt lat="44.727753255541764" lon="9.550744822346843"><ele>890.25</ele><time>2026-04-22T13:10:21Z</time></trkpt><trkpt lat="44.72768012214632" lon="9.550620903490485"><ele>888.5</ele><time>2026-04-22T13:10:22Z</time></trkpt><trkpt lat="44.727570061645" lon="9.550558657516472"><ele>886.75</ele><time>2026-04-22T13:10:23Z</time></trkpt><trkpt lat="44.72744109094446" lon="9.550548510597107"><ele>885.0</ele><time>2026-04-22T13:10:24Z</time></trkpt><trkpt lat="44.7272943725978" lon="9.550595267365631"><ele>885.0</ele><time>2026-04-22T13:10:25Z</time></trkpt><trkpt lat="44.72717283536198" lon="9.550664181967008"><ele>885.0</ele><time>2026-04-22T13:10:26Z</time></trkpt><trkpt lat="44.727096091975795" lon="9.550745602180323"><ele>885.0</ele><time>2026-04-22T13:10:27Z</time></trkpt><trkpt lat="44.72705491238138" lon="9.550886750644178"><ele>885.0</ele><time>2026-04-22T13:10:28Z</time></trkpt><trkpt lat="44.72704264132106" lon="9.551085785452958"><ele>885.3333333333333</ele><time>2026-04-22T13:10:29Z</time></trkpt><trkpt lat="44.72704743553342" lon="9.55131895730556"><ele>885.6666666666666</ele><time>2026-04-22T13:10:30Z</time></trkpt><trkpt lat="44.72708029252021" lon="9.551581239001022"><ele>886.0</ele><time>2026-04-22T13:10:31Z</time></trkpt><trkpt lat="44.7271204995355" lon="9.551838873418994"><ele>883.6666666666666</ele><time>2026-04-22T13:10:32Z</time></trkpt><trkpt lat="44.72717656266521" lon="9.552127832997087"><ele>881.3333333333333</ele><time>2026-04-22T13:10:33Z</time></trkpt><trkpt lat="44.727206314019234" lon="9.552415237568944"><ele>879.0</ele><time>2026-04-22T13:10:34Z</time></trkpt><trkpt lat="44.727176216454524" lon="9.552652020740748"><ele>879.0</ele><time>2026-04-22T13:10:35Z</time></trkpt><trkpt lat="44.72709544848522" lon="9.552829087817559"><ele>879.0000000000001</ele><time>2026-04-22T13:10:36Z</time></trkpt><trkpt lat="44.727018781765764" lon="9.55295171221365"><ele>879.0000000000001</ele><time>2026-04-22T13:10:37Z</time></trkpt><trkpt lat="44.7269905331243" lon="9.553044988817042"><ele>879.0</ele><time>2026-04-22T13:10:38Z</time></trkpt><trkpt lat="44.72705363088842" lon="9.553159085425582"><ele>879.0</ele><time>2026-04-22T13:10:39Z</time></trkpt><trkpt lat="44.72714226202706" lon="9.553260073905419"><ele>877.3333333333333</ele><time>2026-04-22T13:10:40Z</time></trkpt><trkpt lat="44.727260427764975" lon="9.553369829740141"><ele>875.6666666666666</ele><time>2026-04-22T13:10:41Z</time></trkpt><trkpt lat="44.72736098539731" lon="9.553573609797327"><ele>874.0</ele><time>2026-04-22T13:10:42Z</time></trkpt><trkpt lat="44.72744598915501" lon="9.553849484001935"><ele>870.3333333333333</ele><time>2026-04-22T13:10:43Z</time></trkpt><trkpt lat="44.72750498365429" lon="9.554111875251984"><ele>866.6666666666667</ele><time>2026-04-22T13:10:44Z</time></trkpt><trkpt lat="44.72758948208841" lon="9.554309997572972"><ele>863.0</ele><time>2026-04-22T13:10:45Z</time></trkpt><trkpt lat="44.7276698132815" lon="9.554452461951591"><ele>861.3333333333334</ele><time>2026-04-22T13:10:46Z</time></trkpt><trkpt lat="44.72779201015635" lon="9.554591086975533"><ele>859.6666666666667</ele><time>2026-04-22T13:10:47Z</time></trkpt><trkpt lat="44.727963613172186" lon="9.554719497016254"><ele>858.0</ele><time>2026-04-22T13:10:48Z</time></trkpt><trkpt lat="44.72815538284707" lon="9.55487536449345"><ele>858.0</ele><time>2026-04-22T13:10:49Z</time></trkpt><trkpt lat="44.728331418928" lon="9.555082035207608"><ele>858.0</ele><time>2026-04-22T13:10:50Z</time></trkpt><trkpt lat="44.728466424281635" lon="9.555254527312831"><ele>858.0</ele><time>2026-04-22T13:10:51Z</time></trkpt><trkpt lat="44.72853751458215" lon="9.555378835320319"><ele>859.25</ele><time>2026-04-22T13:10:52Z</time></trkpt><trkpt lat="44.72858130771942" lon="9.555494942229384"><ele>860.5</ele><time>2026-04-22T13:10:53Z</time></trkpt><trkpt lat="44.72855408070395" lon="9.555653475178266"><ele>861.75</ele><time>2026-04-22T13:10:54Z</time></trkpt><trkpt lat="44.728450703608594" lon="9.5558748248918"><ele>863.0</ele><time>2026-04-22T13:10:55Z</time></trkpt><trkpt lat="44.72833331553784" lon="9.556099312747461"><ele>859.6666666666667</ele><time>2026-04-22T13:10:56Z</time></trkpt><trkpt lat="44.72818745278744" lon="9.556362227981834"><ele>856.3333333333333</ele><time>2026-04-22T13:10:57Z</time></trkpt><trkpt lat="44.72805329754195" lon="9.556583191350766"><ele>853.0</ele><time>2026-04-22T13:10:58Z</time></trkpt><trkpt lat="44.7279193103615" lon="9.556844213196532"><ele>855.5</ele><time>2026-04-22T13:10:59Z</time></trkpt><trkpt lat="44.72783328809007" lon="9.557055032656464"><ele>858.0</ele><time>2026-04-22T13:11:00Z</time></trkpt><trkpt lat="44.7277912149431" lon="9.557197953847789"><ele>860.5</ele><time>2026-04-22T13:11:01Z</time></trkpt><trkpt lat="44.7277944548015" lon="9.557339116902451"><ele>863.0</ele><time>2026-04-22T13:11:02Z</time></trkpt><trkpt lat="44.72784045585063" lon="9.55754970778341"><ele>863.0</ele><time>2026-04-22T13:11:03Z</time></trkpt><trkpt lat="44.727841505720185" lon="9.557779224868476"><ele>863.0</ele><time>2026-04-22T13:11:04Z</time></trkpt><trkpt lat="44.72776731579974" lon="9.558001128551803"><ele>863.0</ele><time>2026-04-22T13:11:05Z</time></trkpt><trkpt lat="44.72763102933282" lon="9.55818887813174"><ele>861.0</ele><time>2026-04-22T13:11:06Z</time></trkpt><trkpt lat="44.72749174465439" lon="9.5583807069001"><ele>859.0</ele><time>2026-04-22T13:11:07Z</time></trkpt><trkpt lat="44.72736065819847" lon="9.55859779968726"><ele>857.0</ele><time>2026-04-22T13:11:08Z</time></trkpt><trkpt lat="44.727239056506534" lon="9.55879114894637"><ele>857.0</ele><time>2026-04-22T13:11:09Z</time></trkpt><trkpt lat="44.72708131824426" lon="9.558860096762215"><ele>857.0</ele><time>2026-04-22T13:11:10Z</time></trkpt><trkpt lat="44.726898313284146" lon="9.55891412781194"><ele>857.0</ele><time>2026-04-22T13:11:11Z</time></trkpt><trkpt lat="44.72674598811308" lon="9.558972596910495"><ele>851.5</ele><time>2026-04-22T13:11:12Z</time></trkpt><trkpt lat="44.72664047860575" lon="9.559046189635351"><ele>846.0</ele><time>2026-04-22T13:11:13Z</time></trkpt><trkpt lat="44.726581653003656" lon="9.559168879794633"><ele>840.5</ele><time>2026-04-22T13:11:14Z</time></trkpt><trkpt lat="44.72655666186392" lon="9.559325157646281"><ele>835.0</ele><time>2026-04-22T13:11:15Z</time></trkpt><trkpt lat="44.72652369665742" lon="9.559530281075435"><ele>834.75</ele><time>2026-04-22T13:11:16Z</time></trkpt><trkpt lat="44.72646852348684" lon="9.559710876084097"><ele>834.5</ele><time>2026-04-22T13:11:17Z</time></trkpt><trkpt lat="44.726386641285" lon="9.559888284991038"><ele>834.25</ele><time>2026-04-22T13:11:18Z</time></trkpt><trkpt lat="44.72627829766306" lon="9.560044415440727"><ele>834.0</ele><time>2026-04-22T13:11:19Z</time></trkpt><trkpt lat="44.72615328433382" lon="9.560161147784928"><ele>830.0</ele><time>2026-04-22T13:11:20Z</time></trkpt><trkpt lat="44.72599379359241" lon="9.560224421754643"><ele>826.0</ele><time>2026-04-22T13:11:21Z</time></trkpt><trkpt lat="44.725821235231095" lon="9.560235486439852"><ele>822.0</ele><time>2026-04-22T13:11:22Z</time></trkpt><trkpt lat="44.725673449977144" lon="9.560276137792219"><ele>822.0</ele><time>2026-04-22T13:11:23Z</time></trkpt><trkpt lat="44.72557081600474" lon="9.560383244824774"><ele>822.0</ele><time>2026-04-22T13:11:24Z</time></trkpt><trkpt lat="44.72551705811701" lon="9.560530654850393"><ele>822.0</ele><time>2026-04-22T13:11:25Z</time></trkpt><trkpt lat="44.725446145423646" lon="9.560699339434821"><ele>822.0</ele><time>2026-04-22T13:11:26Z</time></trkpt><trkpt lat="44.72537116418849" lon="9.560818794310979"><ele>822.0</ele><time>2026-04-22T13:11:27Z</time></trkpt><trkpt lat="44.72533432188442" lon="9.560917215837204"><ele>822.0</ele><time>2026-04-22T13:11:28Z</time></trkpt><trkpt lat="44.72538759729669" lon="9.561064997284092"><ele>822.0</ele><time>2026-04-22T13:11:30Z</time></trkpt><trkpt lat="44.725493278953635" lon="9.561129265138158"><ele>822.0</ele><time>2026-04-22T13:11:31Z</time></trkpt><trkpt lat="44.72564079267456" lon="9.56120725621442"><ele>816.0</ele><time>2026-04-22T13:11:32Z</time></trkpt><trkpt lat="44.72582933040178" lon="9.561301997219639"><ele>810.0</ele><time>2026-04-22T13:11:33Z</time></trkpt><trkpt lat="44.725985685489476" lon="9.561396820180738"><ele>804.0</ele><time>2026-04-22T13:11:34Z</time></trkpt><trkpt lat="44.726102260348306" lon="9.561505814708529"><ele>804.0</ele><time>2026-04-22T13:11:35Z</time></trkpt><trkpt lat="44.726212720914376" lon="9.561597992974844"><ele>804.0</ele><time>2026-04-22T13:11:36Z</time></trkpt><trkpt lat="44.726355083017104" lon="9.561638331357006"><ele>804.0</ele><time>2026-04-22T13:11:37Z</time></trkpt><trkpt lat="44.726518963133444" lon="9.561641450730646"><ele>804.0</ele><time>2026-04-22T13:11:38Z</time></trkpt><trkpt lat="44.72668385639477" lon="9.561603157260494"><ele>804.0</ele><time>2026-04-22T13:11:39Z</time></trkpt><trkpt lat="44.72686181584104" lon="9.561556941278909"><ele>804.0</ele><time>2026-04-22T13:11:40Z</time></trkpt><trkpt lat="44.727063399855965" lon="9.561522818529996"><ele>804.0</ele><time>2026-04-22T13:11:41Z</time></trkpt><trkpt lat="44.727251636246685" lon="9.561538877967633"><ele>804.3333333333333</ele><time>2026-04-22T13:11:42Z</time></trkpt><trkpt lat="44.72741661362974" lon="9.561589454714582"><ele>804.6666666666666</ele><time>2026-04-22T13:11:43Z</time></trkpt><trkpt lat="44.727568563933474" lon="9.561671184000927"><ele>805.0</ele><time>2026-04-22T13:11:44Z</time></trkpt><trkpt lat="44.727714117237824" lon="9.561804029332992"><ele>812.0</ele><time>2026-04-22T13:11:45Z</time></trkpt><trkpt lat="44.72786868800342" lon="9.561913905371206"><ele>819.0</ele><time>2026-04-22T13:11:46Z</time></trkpt><trkpt lat="44.72806220770026" lon="9.561972768534476"><ele>826.0</ele><time>2026-04-22T13:11:47Z</time></trkpt><trkpt lat="44.72828001935596" lon="9.562001795534755"><ele>821.0</ele><time>2026-04-22T13:11:48Z</time></trkpt><trkpt lat="44.72847751686061" lon="9.56203327930848"><ele>816.0</ele><time>2026-04-22T13:11:49Z</time></trkpt><trkpt lat="44.728587017616455" lon="9.56208753003386"><ele>811.0</ele><time>2026-04-22T13:11:50Z</time></trkpt><trkpt lat="44.72869768719787" lon="9.562170534261652"><ele>806.0</ele><time>2026-04-22T13:11:51Z</time></trkpt><trkpt lat="44.72879154019378" lon="9.562272282031172"><ele>806.0</ele><time>2026-04-22T13:11:52Z</time></trkpt><trkpt lat="44.728875493429435" lon="9.56240789294618"><ele>806.0</ele><time>2026-04-22T13:11:53Z</time></trkpt><trkpt lat="44.72894210680163" lon="9.562543303603261"><ele>806.0</ele><time>2026-04-22T13:11:54Z</time></trkpt><trkpt lat="44.72897389344118" lon="9.562663480346789"><ele>806.0</ele><time>2026-04-22T13:11:55Z</time></trkpt><trkpt lat="44.72896839789204" lon="9.56278343220925"><ele>806.0</ele><time>2026-04-22T13:11:56Z</time></trkpt><trkpt lat="44.72891397529252" lon="9.562909668344714"><ele>803.6666666666667</ele><time>2026-04-22T13:11:57Z</time></trkpt><trkpt lat="44.72880952508374" lon="9.563028389656349"><ele>801.3333333333333</ele><time>2026-04-22T13:11:58Z</time></trkpt><trkpt lat="44.728655148560875" lon="9.563136836566523"><ele>799.0</ele><time>2026-04-22T13:11:59Z</time></trkpt><trkpt lat="44.72848832266677" lon="9.56322892309768"><ele>794.75</ele><time>2026-04-22T13:12:00Z</time></trkpt><trkpt lat="44.7283573678022" lon="9.563310600887354"><ele>790.5</ele><time>2026-04-22T13:12:01Z</time></trkpt><trkpt lat="44.728262664478905" lon="9.563427061545092"><ele>786.25</ele><time>2026-04-22T13:12:02Z</time></trkpt><trkpt lat="44.72818052927491" lon="9.563538768781758"><ele>782.0</ele><time>2026-04-22T13:12:03Z</time></trkpt><trkpt lat="44.728118368759986" lon="9.563660660867335"><ele>782.25</ele><time>2026-04-22T13:12:04Z</time></trkpt><trkpt lat="44.72808197364816" lon="9.563793812369079"><ele>782.5</ele><time>2026-04-22T13:12:05Z</time></trkpt><trkpt lat="44.72810843532587" lon="9.563965231926552"><ele>782.75</ele><time>2026-04-22T13:12:06Z</time></trkpt><trkpt lat="44.72816361710482" lon="9.56414008190291"><ele>783.0</ele><time>2026-04-22T13:12:07Z</time></trkpt><trkpt lat="44.72826685280238" lon="9.564318206006535"><ele>783.0</ele><time>2026-04-22T13:12:08Z</time></trkpt><trkpt lat="44.728397233817155" lon="9.56451111841084"><ele>783.0</ele><time>2026-04-22T13:12:09Z</time></trkpt><trkpt lat="44.728484132014074" lon="9.564693287413913"><ele>783.0</ele><time>2026-04-22T13:12:10Z</time></trkpt><trkpt lat="44.72850001630467" lon="9.564886129722503"><ele>783.6666666666667</ele><time>2026-04-22T13:12:11Z</time></trkpt><trkpt lat="44.72846757860059" lon="9.56513170903855"><ele>784.3333333333334</ele><time>2026-04-22T13:12:12Z</time></trkpt><trkpt lat="44.72839394893742" lon="9.565400842197842"><ele>785.0</ele><time>2026-04-22T13:12:13Z</time></trkpt><trkpt lat="44.728257007014385" lon="9.565657126615449"><ele>785.0</ele><time>2026-04-22T13:12:14Z</time></trkpt><trkpt lat="44.72808794450889" lon="9.565886394550125"><ele>785.0</ele><time>2026-04-22T13:12:15Z</time></trkpt><trkpt lat="44.72790606021751" lon="9.566034374798427"><ele>785.0</ele><time>2026-04-22T13:12:16Z</time></trkpt><trkpt lat="44.72776661059538" lon="9.566109876154794"><ele>781.25</ele><time>2026-04-22T13:12:17Z</time></trkpt><trkpt lat="44.72765390174986" lon="9.566183673589235"><ele>777.5</ele><time>2026-04-22T13:12:18Z</time></trkpt><trkpt lat="44.72756645366355" lon="9.566334468177072"><ele>773.75</ele><time>2026-04-22T13:12:19Z</time></trkpt><trkpt lat="44.727471106319676" lon="9.56654241724959"><ele>770.0</ele><time>2026-04-22T13:12:20Z</time></trkpt><trkpt lat="44.72740411244273" lon="9.566692530080118"><ele>770.0</ele><time>2026-04-22T13:12:21Z</time></trkpt><trkpt lat="44.727352572771366" lon="9.566821189943608"><ele>770.0</ele><time>2026-04-22T13:12:22Z</time></trkpt><trkpt lat="44.727280374276724" lon="9.566890712528505"><ele>770.0</ele><time>2026-04-22T13:12:23Z</time></trkpt><trkpt lat="44.72721771201464" lon="9.566877741030018"><ele>770.0</ele><time>2026-04-22T13:12:24Z</time></trkpt><trkpt lat="44.727170725184735" lon="9.567004534157151"><ele>770.0</ele><time>2026-04-22T13:12:25Z</time></trkpt><trkpt lat="44.72719945534126" lon="9.56673661015164"><ele>770.0000000000001</ele><time>2026-04-22T13:12:26Z</time></trkpt><trkpt lat="44.72726122800159" lon="9.566622706251753"><ele>770.0</ele><time>2026-04-22T13:12:27Z</time></trkpt><trkpt lat="44.72727923507206" lon="9.566516559457074"><ele>770.0</ele><time>2026-04-22T13:12:28Z</time></trkpt><trkpt lat="44.7272824343793" lon="9.566415523517716"><ele>770.0</ele><time>2026-04-22T13:12:29Z</time></trkpt><trkpt lat="44.727308139072775" lon="9.566313325319227"><ele>770.0000000000001</ele><time>2026-04-22T13:12:30Z</time></trkpt><trkpt lat="44.727338631737354" lon="9.566191885395956"><ele>770.0</ele><time>2026-04-22T13:12:31Z</time></trkpt><trkpt lat="44.72737079616386" lon="9.566072004349524"><ele>768.75</ele><time>2026-04-22T13:12:32Z</time></trkpt><trkpt lat="44.72742388206102" lon="9.565932215487186"><ele>767.5</ele><time>2026-04-22T13:12:33Z</time></trkpt><trkpt lat="44.72749252552331" lon="9.565773851717264"><ele>766.25</ele><time>2026-04-22T13:12:34Z</time></trkpt><trkpt lat="44.7275850559179" lon="9.565595352117214"><ele>765.0</ele><time>2026-04-22T13:12:35Z</time></trkpt><trkpt lat="44.72762071943699" lon="9.565444546395254"><ele>763.25</ele><time>2026-04-22T13:12:36Z</time></trkpt><trkpt lat="44.727588918602535" lon="9.565313027400322"><ele>761.5</ele><time>2026-04-22T13:12:37Z</time></trkpt><trkpt lat="44.72754437925935" lon="9.565160883774814"><ele>759.75</ele><time>2026-04-22T13:12:38Z</time></trkpt><trkpt lat="44.72746771676251" lon="9.564954500128314"><ele>758.0</ele><time>2026-04-22T13:12:39Z</time></trkpt><trkpt lat="44.72741105876905" lon="9.564793737294226"><ele>758.0</ele><time>2026-04-22T13:12:40Z</time></trkpt><trkpt lat="44.72739368204874" lon="9.564635985556873"><ele>758.0</ele><time>2026-04-22T13:12:41Z</time></trkpt><trkpt lat="44.727376851005275" lon="9.564537221470685"><ele>758.0</ele><time>2026-04-22T13:12:42Z</time></trkpt><trkpt lat="44.72723127404169" lon="9.56447893969878"><ele>758.0</ele><time>2026-04-22T13:12:44Z</time></trkpt><trkpt lat="44.72715908992327" lon="9.564510495527268"><ele>758.0</ele><time>2026-04-22T13:12:45Z</time></trkpt><trkpt lat="44.72705941892464" lon="9.56463081163933"><ele>758.0</ele><time>2026-04-22T13:12:46Z</time></trkpt><trkpt lat="44.72697884966559" lon="9.564796815177054"><ele>758.0</ele><time>2026-04-22T13:12:47Z</time></trkpt><trkpt lat="44.72694777412033" lon="9.564968664118103"><ele>758.0</ele><time>2026-04-22T13:12:48Z</time></trkpt><trkpt lat="44.726939661387604" lon="9.565209923283396"><ele>758.0</ele><time>2026-04-22T13:12:49Z</time></trkpt><trkpt lat="44.72693900248632" lon="9.56549533356154"><ele>759.75</ele><time>2026-04-22T13:12:50Z</time></trkpt><trkpt lat="44.72692898898795" lon="9.565785919303172"><ele>761.5</ele><time>2026-04-22T13:12:51Z</time></trkpt><trkpt lat="44.7268927731399" lon="9.565928289463418"><ele>763.25</ele><time>2026-04-22T13:12:52Z</time></trkpt><trkpt lat="44.72681746260652" lon="9.566066755013793"><ele>765.0</ele><time>2026-04-22T13:12:53Z</time></trkpt><trkpt lat="44.72666467453964" lon="9.566181208756513"><ele>760.5</ele><time>2026-04-22T13:12:54Z</time></trkpt><trkpt lat="44.726565222997394" lon="9.566300163048211"><ele>756.0</ele><time>2026-04-22T13:12:55Z</time></trkpt><trkpt lat="44.726496482617875" lon="9.566464613113633"><ele>751.5</ele><time>2026-04-22T13:12:56Z</time></trkpt><trkpt lat="44.72644319985384" lon="9.566703662534188"><ele>747.0</ele><time>2026-04-22T13:12:57Z</time></trkpt><trkpt lat="44.72632876591383" lon="9.566957492637048"><ele>750.3333333333334</ele><time>2026-04-22T13:12:58Z</time></trkpt><trkpt lat="44.7262313052879" lon="9.56721555774186"><ele>753.6666666666667</ele><time>2026-04-22T13:12:59Z</time></trkpt><trkpt lat="44.72611001098202" lon="9.5673540873564"><ele>757.0</ele><time>2026-04-22T13:13:00Z</time></trkpt><trkpt lat="44.72601026490376" lon="9.567450615510072"><ele>750.75</ele><time>2026-04-22T13:13:01Z</time></trkpt><trkpt lat="44.7259070972877" lon="9.56756625572406"><ele>744.5</ele><time>2026-04-22T13:13:02Z</time></trkpt><trkpt lat="44.7258249293055" lon="9.56767797108745"><ele>738.25</ele><time>2026-04-22T13:13:03Z</time></trkpt><trkpt lat="44.7257288909113" lon="9.567885192445067"><ele>732.0</ele><time>2026-04-22T13:13:04Z</time></trkpt><trkpt lat="44.72561960119231" lon="9.567745422458293"><ele>732.0</ele><time>2026-04-22T13:13:06Z</time></trkpt><trkpt lat="44.72565255948498" lon="9.567594407545627"><ele>732.0</ele><time>2026-04-22T13:13:07Z</time></trkpt><trkpt lat="44.725675191180024" lon="9.5674186772735"><ele>732.0</ele><time>2026-04-22T13:13:08Z</time></trkpt><trkpt lat="44.725736825502715" lon="9.567198053440116"><ele>732.0</ele><time>2026-04-22T13:13:09Z</time></trkpt><trkpt lat="44.725792688480205" lon="9.567043273045265"><ele>730.0</ele><time>2026-04-22T13:13:10Z</time></trkpt><trkpt lat="44.725837578366345" lon="9.566902969751284"><ele>728.0</ele><time>2026-04-22T13:13:11Z</time></trkpt><trkpt lat="44.72586779698148" lon="9.566808345240611"><ele>726.0</ele><time>2026-04-22T13:13:12Z</time></trkpt><trkpt lat="44.72590404284977" lon="9.566682770331829"><ele>724.0</ele><time>2026-04-22T13:13:13Z</time></trkpt><trkpt lat="44.725918388533486" lon="9.56653583855318"><ele>722.0</ele><time>2026-04-22T13:13:15Z</time></trkpt><trkpt lat="44.72591354536038" lon="9.566368036989948"><ele>722.0</ele><time>2026-04-22T13:13:17Z</time></trkpt><trkpt lat="44.7258893181989" lon="9.566282396866631"><ele>722.0</ele><time>2026-04-22T13:13:18Z</time></trkpt><trkpt lat="44.725860184354104" lon="9.566196876791079"><ele>722.0</ele><time>2026-04-22T13:13:19Z</time></trkpt><trkpt lat="44.725833913901724" lon="9.566111926308267"><ele>722.0</ele><time>2026-04-22T13:13:20Z</time></trkpt><trkpt lat="44.725815645458034" lon="9.566021356315877"><ele>722.0</ele><time>2026-04-22T13:13:21Z</time></trkpt><trkpt lat="44.725795801970506" lon="9.565934211050925"><ele>722.0</ele><time>2026-04-22T13:13:22Z</time></trkpt><trkpt lat="44.725780583079754" lon="9.565843556844914"><ele>722.0</ele><time>2026-04-22T13:13:23Z</time></trkpt><trkpt lat="44.72576316380892" lon="9.565752486337699"><ele>721.8571428571429</ele><time>2026-04-22T13:13:24Z</time></trkpt><trkpt lat="44.72573010841691" lon="9.565664774595335"><ele>721.7142857142857</ele><time>2026-04-22T13:13:25Z</time></trkpt><trkpt lat="44.72570443277433" lon="9.56557655544032"><ele>721.5714285714286</ele><time>2026-04-22T13:13:26Z</time></trkpt><trkpt lat="44.725661300661855" lon="9.565503400606161"><ele>721.4285714285714</ele><time>2026-04-22T13:13:27Z</time></trkpt><trkpt lat="44.725617108343755" lon="9.56542619584789"><ele>721.2857142857142</ele><time>2026-04-22T13:13:28Z</time></trkpt><trkpt lat="44.72558262916155" lon="9.565338297922585"><ele>721.1428571428571</ele><time>2026-04-22T13:13:29Z</time></trkpt><trkpt lat="44.725554145012616" lon="9.56524532306063"><ele>721.0</ele><time>2026-04-22T13:13:30Z</time></trkpt><trkpt lat="44.72553564922303" lon="9.565141249605041"><ele>721.0</ele><time>2026-04-22T13:13:31Z</time></trkpt><trkpt lat="44.72551955281565" lon="9.564946419405269"><ele>721.0</ele><time>2026-04-22T13:13:33Z</time></trkpt><trkpt lat="44.7255169909445" lon="9.564844464397456"><ele>721.0</ele><time>2026-04-22T13:13:34Z</time></trkpt><trkpt lat="44.725506752489466" lon="9.56474658869228"><ele>721.0</ele><time>2026-04-22T13:13:35Z</time></trkpt><trkpt lat="44.72549031275089" lon="9.56465049193896"><ele>721.0</ele><time>2026-04-22T13:13:36Z</time></trkpt><trkpt lat="44.72547255528749" lon="9.564557049641547"><ele>721.0</ele><time>2026-04-22T13:13:37Z</time></trkpt><trkpt lat="44.725454471613304" lon="9.564463761551329"><ele>721.5999999999999</ele><time>2026-04-22T13:13:38Z</time></trkpt><trkpt lat="44.72542993415537" lon="9.564370368790623"><ele>722.2</ele><time>2026-04-22T13:13:39Z</time></trkpt><trkpt lat="44.7253943995725" lon="9.564260465513414"><ele>722.8</ele><time>2026-04-22T13:13:40Z</time></trkpt><trkpt lat="44.725335687405824" lon="9.564121305013797"><ele>723.4000000000001</ele><time>2026-04-22T13:13:41Z</time></trkpt><trkpt lat="44.72527347391452" lon="9.563996066966016"><ele>724.0</ele><time>2026-04-22T13:13:42Z</time></trkpt><trkpt lat="44.725214767895054" lon="9.563885197022529"><ele>721.8000000000001</ele><time>2026-04-22T13:13:43Z</time></trkpt><trkpt lat="44.72515147294577" lon="9.563790960363074"><ele>719.6</ele><time>2026-04-22T13:13:44Z</time></trkpt><trkpt lat="44.72507410947745" lon="9.563720168038213"><ele>717.4</ele><time>2026-04-22T13:13:45Z</time></trkpt><trkpt lat="44.72500355672425" lon="9.563643179316164"><ele>715.2</ele><time>2026-04-22T13:13:46Z</time></trkpt><trkpt lat="44.72490240851838" lon="9.563587103673411"><ele>713.0</ele><time>2026-04-22T13:13:47Z</time></trkpt><trkpt lat="44.7247826236409" lon="9.563502463671352"><ele>713.0</ele><time>2026-04-22T13:13:48Z</time></trkpt><trkpt lat="44.724668553927856" lon="9.563447622344349"><ele>713.0</ele><time>2026-04-22T13:13:49Z</time></trkpt><trkpt lat="44.72455774355864" lon="9.563434208585917"><ele>713.0</ele><time>2026-04-22T13:13:50Z</time></trkpt><trkpt lat="44.72443205661131" lon="9.563484712585888"><ele>713.0</ele><time>2026-04-22T13:13:51Z</time></trkpt><trkpt lat="44.72431142086075" lon="9.563550470587359"><ele>709.75</ele><time>2026-04-22T13:13:52Z</time></trkpt><trkpt lat="44.72419739587945" lon="9.563577431499425"><ele>706.5</ele><time>2026-04-22T13:13:53Z</time></trkpt><trkpt lat="44.72409643916831" lon="9.563539673478074"><ele>703.25</ele><time>2026-04-22T13:13:54Z</time></trkpt><trkpt lat="44.72398378187475" lon="9.563432474845918"><ele>700.0</ele><time>2026-04-22T13:13:55Z</time></trkpt><trkpt lat="44.7238517652106" lon="9.563293461946296"><ele>700.0</ele><time>2026-04-22T13:13:56Z</time></trkpt><trkpt lat="44.723690154976744" lon="9.563162352715198"><ele>700.0</ele><time>2026-04-22T13:13:57Z</time></trkpt><trkpt lat="44.72351417568611" lon="9.563015410914758"><ele>700.0</ele><time>2026-04-22T13:13:58Z</time></trkpt><trkpt lat="44.72340614339766" lon="9.562885087593019"><ele>700.6666666666667</ele><time>2026-04-22T13:13:59Z</time></trkpt><trkpt lat="44.72333426502037" lon="9.56280625461005"><ele>701.3333333333334</ele><time>2026-04-22T13:14:00Z</time></trkpt><trkpt lat="44.72326860226958" lon="9.562762522685729"><ele>702.0</ele><time>2026-04-22T13:14:01Z</time></trkpt><trkpt lat="44.72317183297281" lon="9.562802813073882"><ele>702.6666666666666</ele><time>2026-04-22T13:14:03Z</time></trkpt><trkpt lat="44.72316470206102" lon="9.562959984179292"><ele>703.3333333333333</ele><time>2026-04-22T13:14:05Z</time></trkpt><trkpt lat="44.723213862814205" lon="9.56302849042013"><ele>704.0</ele><time>2026-04-22T13:14:06Z</time></trkpt><trkpt lat="44.72329506753828" lon="9.563093409373495"><ele>703.0</ele><time>2026-04-22T13:14:07Z</time></trkpt><trkpt lat="44.72340287771015" lon="9.563182953530038"><ele>702.0</ele><time>2026-04-22T13:14:08Z</time></trkpt><trkpt lat="44.7235193729829" lon="9.563327158771912"><ele>701.0</ele><time>2026-04-22T13:14:09Z</time></trkpt><trkpt lat="44.72361815657415" lon="9.56349574183306"><ele>700.0</ele><time>2026-04-22T13:14:10Z</time></trkpt><trkpt lat="44.723691028759376" lon="9.563636636308587"><ele>695.3333333333334</ele><time>2026-04-22T13:14:11Z</time></trkpt><trkpt lat="44.72378560191443" lon="9.563707089566275"><ele>690.6666666666667</ele><time>2026-04-22T13:14:12Z</time></trkpt><trkpt lat="44.72385681298588" lon="9.563776210267113"><ele>686.0</ele><time>2026-04-22T13:14:13Z</time></trkpt><trkpt lat="44.72389420732408" lon="9.563849501100249"><ele>681.3333333333334</ele><time>2026-04-22T13:14:15Z</time></trkpt><trkpt lat="44.72384484270794" lon="9.563905678297203"><ele>676.6666666666666</ele><time>2026-04-22T13:14:16Z</time></trkpt><trkpt lat="44.72378030129258" lon="9.563921462433905"><ele>672.0</ele><time>2026-04-22T13:14:17Z</time></trkpt><trkpt lat="44.72372227314419" lon="9.563844091934673"><ele>672.0</ele><time>2026-04-22T13:14:18Z</time></trkpt><trkpt lat="44.72362881526389" lon="9.563794891605047"><ele>672.0</ele><time>2026-04-22T13:14:19Z</time></trkpt><trkpt lat="44.72354405692887" lon="9.56376319628765"><ele>672.0</ele><time>2026-04-22T13:14:20Z</time></trkpt><trkpt lat="44.7234686020274" lon="9.56369288521368"><ele>672.0</ele><time>2026-04-22T13:14:21Z</time></trkpt><trkpt lat="44.72337601296608" lon="9.56359310133666"><ele>672.0</ele><time>2026-04-22T13:14:22Z</time></trkpt><trkpt lat="44.7232719563219" lon="9.563426438545479"><ele>674.0</ele><time>2026-04-22T13:14:23Z</time></trkpt><trkpt lat="44.72311063114076" lon="9.563278662330172"><ele>676.0</ele><time>2026-04-22T13:14:24Z</time></trkpt><trkpt lat="44.722941389748456" lon="9.563116065677411"><ele>678.0</ele><time>2026-04-22T13:14:25Z</time></trkpt><trkpt lat="44.72276516473176" lon="9.562955987577253"><ele>677.0</ele><time>2026-04-22T13:14:26Z</time></trkpt><trkpt lat="44.722646426867385" lon="9.56282123437357"><ele>676.0</ele><time>2026-04-22T13:14:27Z</time></trkpt><trkpt lat="44.72254945422669" lon="9.562724061872398"><ele>675.0</ele><time>2026-04-22T13:14:28Z</time></trkpt><trkpt lat="44.722426846476516" lon="9.562702451605002"><ele>674.0</ele><time>2026-04-22T13:14:29Z</time></trkpt><trkpt lat="44.72227292074948" lon="9.562706168634667"><ele>674.0</ele><time>2026-04-22T13:14:30Z</time></trkpt><trkpt lat="44.72210644554983" lon="9.56272311275459"><ele>674.0</ele><time>2026-04-22T13:14:31Z</time></trkpt><trkpt lat="44.7219470143438" lon="9.562670033560122"><ele>674.0</ele><time>2026-04-22T13:14:32Z</time></trkpt><trkpt lat="44.72181622932873" lon="9.562558551091605"><ele>669.0</ele><time>2026-04-22T13:14:33Z</time></trkpt><trkpt lat="44.72168768490789" lon="9.5624550532337"><ele>664.0</ele><time>2026-04-22T13:14:34Z</time></trkpt><trkpt lat="44.721591190556666" lon="9.562357968008078"><ele>659.0</ele><time>2026-04-22T13:14:35Z</time></trkpt><trkpt lat="44.7215254450403" lon="9.562270529786534"><ele>654.0</ele><time>2026-04-22T13:14:37Z</time></trkpt><trkpt lat="44.72144894758088" lon="9.562303174483201"><ele>649.0</ele><time>2026-04-22T13:14:38Z</time></trkpt><trkpt lat="44.72142372256184" lon="9.562449247768564"><ele>649.0</ele><time>2026-04-22T13:14:39Z</time></trkpt><trkpt lat="44.721395656236254" lon="9.562593891296396"><ele>649.0</ele><time>2026-04-22T13:14:40Z</time></trkpt><trkpt lat="44.721369713452525" lon="9.562728227462273"><ele>649.0</ele><time>2026-04-22T13:14:41Z</time></trkpt><trkpt lat="44.72128335942396" lon="9.562831770657514"><ele>649.0</ele><time>2026-04-22T13:14:42Z</time></trkpt><trkpt lat="44.721164577466915" lon="9.56290904923887"><ele>647.2</ele><time>2026-04-22T13:14:43Z</time></trkpt><trkpt lat="44.72106302987218" lon="9.562972775477009"><ele>645.4000000000001</ele><time>2026-04-22T13:14:44Z</time></trkpt><trkpt lat="44.72098319967969" lon="9.563016901289652"><ele>643.6</ele><time>2026-04-22T13:14:45Z</time></trkpt><trkpt lat="44.72086431477182" lon="9.562917186836653"><ele>641.8</ele><time>2026-04-22T13:14:47Z</time></trkpt><trkpt lat="44.720844704463815" lon="9.562792906463427"><ele>640.0</ele><time>2026-04-22T13:14:48Z</time></trkpt><trkpt lat="44.720845363724024" lon="9.562648466132053"><ele>640.0</ele><time>2026-04-22T13:14:49Z</time></trkpt><trkpt lat="44.72084761517548" lon="9.562487813979455"><ele>640.0</ele><time>2026-04-22T13:14:50Z</time></trkpt><trkpt lat="44.720863974978464" lon="9.562315151303023"><ele>640.0</ele><time>2026-04-22T13:14:51Z</time></trkpt><trkpt lat="44.720910012198324" lon="9.562156264573625"><ele>640.0</ele><time>2026-04-22T13:14:52Z</time></trkpt><trkpt lat="44.72097875979799" lon="9.561994159774866"><ele>639.4</ele><time>2026-04-22T13:14:53Z</time></trkpt><trkpt lat="44.72103702018828" lon="9.561821481513526"><ele>638.8</ele><time>2026-04-22T13:14:54Z</time></trkpt><trkpt lat="44.72107519101704" lon="9.561661088808386"><ele>638.2</ele><time>2026-04-22T13:14:55Z</time></trkpt><trkpt lat="44.72108672540703" lon="9.561539085897644"><ele>637.6</ele><time>2026-04-22T13:14:56Z</time></trkpt><trkpt lat="44.72107029702297" lon="9.561409163128795"><ele>637.0</ele><time>2026-04-22T13:14:57Z</time></trkpt><trkpt lat="44.72101604897177" lon="9.56126250863902"><ele>639.75</ele><time>2026-04-22T13:14:58Z</time></trkpt><trkpt lat="44.72093739918157" lon="9.56110504765899"><ele>642.5</ele><time>2026-04-22T13:14:59Z</time></trkpt><trkpt lat="44.72086002609484" lon="9.560931688600565"><ele>645.25</ele><time>2026-04-22T13:15:00Z</time></trkpt><trkpt lat="44.72078511002575" lon="9.560774472015092"><ele>648.0</ele><time>2026-04-22T13:15:01Z</time></trkpt><trkpt lat="44.72068854141539" lon="9.560663314024305"><ele>648.0</ele><time>2026-04-22T13:15:02Z</time></trkpt><trkpt lat="44.72057553482451" lon="9.560593835795737"><ele>648.0</ele><time>2026-04-22T13:15:03Z</time></trkpt><trkpt lat="44.720443615221505" lon="9.560587008551293"><ele>648.0</ele><time>2026-04-22T13:15:04Z</time></trkpt><trkpt lat="44.72031397019336" lon="9.560615907855423"><ele>648.0</ele><time>2026-04-22T13:15:05Z</time></trkpt><trkpt lat="44.720208466081175" lon="9.560584658909304"><ele>643.6</ele><time>2026-04-22T13:15:06Z</time></trkpt><trkpt lat="44.72014148781754" lon="9.560465164485368"><ele>639.1999999999999</ele><time>2026-04-22T13:15:07Z</time></trkpt><trkpt lat="44.72009300126569" lon="9.5602876214242"><ele>634.8</ele><time>2026-04-22T13:15:08Z</time></trkpt><trkpt lat="44.7200562277619" lon="9.560121856565528"><ele>630.4</ele><time>2026-04-22T13:15:09Z</time></trkpt><trkpt lat="44.71998113174519" lon="9.56007937405986"><ele>626.0</ele><time>2026-04-22T13:15:10Z</time></trkpt><trkpt lat="44.719881432984565" lon="9.560086098964181"><ele>626.0</ele><time>2026-04-22T13:15:11Z</time></trkpt><trkpt lat="44.71977721630528" lon="9.560158740697688"><ele>626.0</ele><time>2026-04-22T13:15:12Z</time></trkpt><trkpt lat="44.71972817202128" lon="9.560216579558498"><ele>626.0</ele><time>2026-04-22T13:15:13Z</time></trkpt><trkpt lat="44.719657584199176" lon="9.560230087262838"><ele>626.0</ele><time>2026-04-22T13:15:14Z</time></trkpt><trkpt lat="44.71956903264525" lon="9.560141211089235"><ele>626.0</ele><time>2026-04-22T13:15:16Z</time></trkpt><trkpt lat="44.71963297300914" lon="9.559980657744056"><ele>626.0</ele><time>2026-04-22T13:15:18Z</time></trkpt><trkpt lat="44.71969948883617" lon="9.55988956838516"><ele>626.0</ele><time>2026-04-22T13:15:19Z</time></trkpt><trkpt lat="44.719754359379614" lon="9.559783897578644"><ele>626.0</ele><time>2026-04-22T13:15:20Z</time></trkpt><trkpt lat="44.71977029641991" lon="9.559649018458092"><ele>626.0</ele><time>2026-04-22T13:15:21Z</time></trkpt><trkpt lat="44.719738665736024" lon="9.559509337439273"><ele>626.0</ele><time>2026-04-22T13:15:22Z</time></trkpt><trkpt lat="44.7197122518305" lon="9.559413415290729"><ele>626.8333333333333</ele><time>2026-04-22T13:15:23Z</time></trkpt><trkpt lat="44.71968338317848" lon="9.559326225674305"><ele>627.6666666666666</ele><time>2026-04-22T13:15:24Z</time></trkpt><trkpt lat="44.71959467805514" lon="9.559242232406357"><ele>628.5</ele><time>2026-04-22T13:15:26Z</time></trkpt><trkpt lat="44.719501404751334" lon="9.55923414470804"><ele>629.3333333333334</ele><time>2026-04-22T13:15:27Z</time></trkpt><trkpt lat="44.71941243681878" lon="9.55924549890882"><ele>630.1666666666667</ele><time>2026-04-22T13:15:28Z</time></trkpt><trkpt lat="44.71933144636527" lon="9.559293565840177"><ele>631.0</ele><time>2026-04-22T13:15:29Z</time></trkpt><trkpt lat="44.71925975822725" lon="9.559402967870993"><ele>626.25</ele><time>2026-04-22T13:15:30Z</time></trkpt><trkpt lat="44.719181455113706" lon="9.55954441057851"><ele>621.5</ele><time>2026-04-22T13:15:31Z</time></trkpt><trkpt lat="44.71910831892339" lon="9.559685601848528"><ele>616.75</ele><time>2026-04-22T13:15:32Z</time></trkpt><trkpt lat="44.719054726938865" lon="9.559817220712194"><ele>612.0</ele><time>2026-04-22T13:15:33Z</time></trkpt><trkpt lat="44.719010815963536" lon="9.559952080101754"><ele>612.0</ele><time>2026-04-22T13:15:34Z</time></trkpt><trkpt lat="44.71896888868658" lon="9.560109746503565"><ele>612.0</ele><time>2026-04-22T13:15:35Z</time></trkpt><trkpt lat="44.71893258432225" lon="9.560305640561356"><ele>612.0</ele><time>2026-04-22T13:15:36Z</time></trkpt><trkpt lat="44.71889254031596" lon="9.560533579865151"><ele>612.0</ele><time>2026-04-22T13:15:37Z</time></trkpt><trkpt lat="44.718843022127594" lon="9.560798975945655"><ele>612.75</ele><time>2026-04-22T13:15:38Z</time></trkpt><trkpt lat="44.718782685112735" lon="9.561038924292571"><ele>613.5</ele><time>2026-04-22T13:15:39Z</time></trkpt><trkpt lat="44.718731948748825" lon="9.561217039652908"><ele>614.25</ele><time>2026-04-22T13:15:40Z</time></trkpt><trkpt lat="44.71870063504933" lon="9.561353887333112"><ele>615.0</ele><time>2026-04-22T13:15:41Z</time></trkpt><trkpt lat="44.71872073305128" lon="9.5615208815894"><ele>615.0</ele><time>2026-04-22T13:15:42Z</time></trkpt><trkpt lat="44.71876674961743" lon="9.561743488380381"><ele>615.0</ele><time>2026-04-22T13:15:43Z</time></trkpt><trkpt lat="44.718734748210196" lon="9.562001375115866"><ele>615.0</ele><time>2026-04-22T13:15:44Z</time></trkpt><trkpt lat="44.71870842444434" lon="9.562242816097038"><ele>615.0</ele><time>2026-04-22T13:15:45Z</time></trkpt><trkpt lat="44.71870359143778" lon="9.562398086130832"><ele>615.0</ele><time>2026-04-22T13:15:46Z</time></trkpt><trkpt lat="44.718728946600166" lon="9.5625310793069"><ele>615.0</ele><time>2026-04-22T13:15:47Z</time></trkpt><trkpt lat="44.7187883622391" lon="9.562694036070393"><ele>615.0</ele><time>2026-04-22T13:15:48Z</time></trkpt><trkpt lat="44.718865476238896" lon="9.562893358415122"><ele>611.25</ele><time>2026-04-22T13:15:49Z</time></trkpt><trkpt lat="44.718956384061116" lon="9.563082131442123"><ele>607.5</ele><time>2026-04-22T13:15:50Z</time></trkpt><trkpt lat="44.71903398697644" lon="9.56322851596839"><ele>603.75</ele><time>2026-04-22T13:15:51Z</time></trkpt><trkpt lat="44.7190824843927" lon="9.563336706122358"><ele>600.0</ele><time>2026-04-22T13:15:52Z</time></trkpt><trkpt lat="44.71904934028211" lon="9.563449887875057"><ele>600.0</ele><time>2026-04-22T13:15:54Z</time></trkpt><trkpt lat="44.71898126317519" lon="9.56348214982965"><ele>600.0</ele><time>2026-04-22T13:15:55Z</time></trkpt><trkpt lat="44.71889539663338" lon="9.56348539192397"><ele>600.0</ele><time>2026-04-22T13:15:56Z</time></trkpt><trkpt lat="44.718857807909956" lon="9.563330555221256"><ele>600.0</ele><time>2026-04-22T13:15:57Z</time></trkpt><trkpt lat="44.71878121136828" lon="9.56322163425853"><ele>600.0</ele><time>2026-04-22T13:15:58Z</time></trkpt><trkpt lat="44.718694937448696" lon="9.56306635775136"><ele>600.0</ele><time>2026-04-22T13:15:59Z</time></trkpt><trkpt lat="44.71863752893908" lon="9.562988155187483"><ele>600.0</ele><time>2026-04-22T13:16:00Z</time></trkpt><trkpt lat="44.71856904330823" lon="9.562999688513136"><ele>600.0</ele><time>2026-04-22T13:16:01Z</time></trkpt><trkpt lat="44.71850492408651" lon="9.563079516896694"><ele>600.0</ele><time>2026-04-22T13:16:02Z</time></trkpt><trkpt lat="44.7184917657772" lon="9.563219036640945"><ele>600.0</ele><time>2026-04-22T13:16:03Z</time></trkpt><trkpt lat="44.71855870464997" lon="9.563372348282039"><ele>600.0</ele><time>2026-04-22T13:16:04Z</time></trkpt><trkpt lat="44.71865192309219" lon="9.56348059602273"><ele>600.0</ele><time>2026-04-22T13:16:05Z</time></trkpt><trkpt lat="44.71876449350895" lon="9.563576132248164"><ele>600.0</ele><time>2026-04-22T13:16:06Z</time></trkpt><trkpt lat="44.7188886006534" lon="9.563673790430691"><ele>600.0</ele><time>2026-04-22T13:16:07Z</time></trkpt><trkpt lat="44.71901838174036" lon="9.56375952313858"><ele>597.0</ele><time>2026-04-22T13:16:08Z</time></trkpt><trkpt lat="44.71913220948324" lon="9.563871296996238"><ele>594.0</ele><time>2026-04-22T13:16:09Z</time></trkpt><trkpt lat="44.7191930376882" lon="9.563935452471119"><ele>591.0</ele><time>2026-04-22T13:16:10Z</time></trkpt><trkpt lat="44.7192935699327" lon="9.564016073596868"><ele>588.0</ele><time>2026-04-22T13:16:11Z</time></trkpt><trkpt lat="44.719371276935625" lon="9.56411773053615"><ele>585.0</ele><time>2026-04-22T13:16:12Z</time></trkpt><trkpt lat="44.719398699859994" lon="9.564236667478928"><ele>585.0</ele><time>2026-04-22T13:16:13Z</time></trkpt><trkpt lat="44.719375359279844" lon="9.56437803410381"><ele>585.0</ele><time>2026-04-22T13:16:14Z</time></trkpt><trkpt lat="44.719278211921136" lon="9.56449542936507"><ele>585.0</ele><time>2026-04-22T13:16:15Z</time></trkpt><trkpt lat="44.719195470759644" lon="9.564657593911127"><ele>585.0</ele><time>2026-04-22T13:16:16Z</time></trkpt><trkpt lat="44.719079382786035" lon="9.564869144130794"><ele>584.0</ele><time>2026-04-22T13:16:17Z</time></trkpt><trkpt lat="44.71895223705619" lon="9.564980327124001"><ele>583.0</ele><time>2026-04-22T13:16:18Z</time></trkpt><trkpt lat="44.71885310361705" lon="9.564965295134256"><ele>582.0</ele><time>2026-04-22T13:16:20Z</time></trkpt><trkpt lat="44.718745817614305" lon="9.564950290482157"><ele>581.0</ele><time>2026-04-22T13:16:21Z</time></trkpt><trkpt lat="44.71863749268999" lon="9.564935667710175"><ele>578.5</ele><time>2026-04-22T13:16:22Z</time></trkpt><trkpt lat="44.71854738500046" lon="9.564930190044995"><ele>576.0</ele><time>2026-04-22T13:16:23Z</time></trkpt><trkpt lat="44.71845546965481" lon="9.564964657458013"><ele>573.5</ele><time>2026-04-22T13:16:24Z</time></trkpt><trkpt lat="44.718380502911664" lon="9.564997586075329"><ele>571.0</ele><time>2026-04-22T13:16:25Z</time></trkpt><trkpt lat="44.71831660707614" lon="9.565066474269896"><ele>568.5</ele><time>2026-04-22T13:16:26Z</time></trkpt><trkpt lat="44.718288329971635" lon="9.565174266431473"><ele>566.0</ele><time>2026-04-22T13:16:27Z</time></trkpt><trkpt lat="44.7182779054964" lon="9.565309588841572"><ele>564.3333333333333</ele><time>2026-04-22T13:16:28Z</time></trkpt><trkpt lat="44.71826409016768" lon="9.565418205190433"><ele>562.6666666666666</ele><time>2026-04-22T13:16:29Z</time></trkpt><trkpt lat="44.71859427934328" lon="9.565654483541868"><ele>561.0</ele><time>2026-04-22T13:16:30Z</time></trkpt><trkpt lat="44.71866051523823" lon="9.56580460808177"><ele>561.0</ele><time>2026-04-22T13:16:31Z</time></trkpt><trkpt lat="44.71862935795464" lon="9.565997616479901"><ele>561.0</ele><time>2026-04-22T13:16:32Z</time></trkpt><trkpt lat="44.71853743513061" lon="9.566128407050977"><ele>561.0</ele><time>2026-04-22T13:16:33Z</time></trkpt><trkpt lat="44.71839498092636" lon="9.566251008136266"><ele>561.0</ele><time>2026-04-22T13:16:34Z</time></trkpt><trkpt lat="44.71819192904416" lon="9.566329943003694"><ele>563.25</ele><time>2026-04-22T13:16:35Z</time></trkpt><trkpt lat="44.718060175238065" lon="9.566374868574218"><ele>565.5</ele><time>2026-04-22T13:16:36Z</time></trkpt><trkpt lat="44.71795386673692" lon="9.566455756665649"><ele>567.75</ele><time>2026-04-22T13:16:37Z</time></trkpt><trkpt lat="44.71790981102436" lon="9.56661185441756"><ele>570.0</ele><time>2026-04-22T13:16:38Z</time></trkpt><trkpt lat="44.71786793482223" lon="9.566846608237679"><ele>570.0</ele><time>2026-04-22T13:16:39Z</time></trkpt><trkpt lat="44.71779257315528" lon="9.566977094595806"><ele>570.0</ele><time>2026-04-22T13:16:40Z</time></trkpt><trkpt lat="44.71767881526097" lon="9.566965665384929"><ele>570.0</ele><time>2026-04-22T13:16:41Z</time></trkpt><trkpt lat="44.717591987183525" lon="9.566983529321579"><ele>570.0</ele><time>2026-04-22T13:16:42Z</time></trkpt><trkpt lat="44.7175094026039" lon="9.566869660806386"><ele>570.0</ele><time>2026-04-22T13:16:43Z</time></trkpt><trkpt lat="44.71726090485677" lon="9.566789129140458"><ele>563.3333333333334</ele><time>2026-04-22T13:16:44Z</time></trkpt><trkpt lat="44.717022334249904" lon="9.566818754606665"><ele>556.6666666666667</ele><time>2026-04-22T13:16:45Z</time></trkpt><trkpt lat="44.716856496686084" lon="9.56686950536785"><ele>550.0</ele><time>2026-04-22T13:16:46Z</time></trkpt><trkpt lat="44.716758354998085" lon="9.566977892548138"><ele>546.0</ele><time>2026-04-22T13:16:47Z</time></trkpt><trkpt lat="44.71668875850568" lon="9.567144565346956"><ele>542.0</ele><time>2026-04-22T13:16:48Z</time></trkpt><trkpt lat="44.71668409060551" lon="9.56727442871829"><ele>538.0</ele><time>2026-04-22T13:16:49Z</time></trkpt><trkpt lat="44.71674527422279" lon="9.56742582072662"><ele>534.0</ele><time>2026-04-22T13:16:50Z</time></trkpt><trkpt lat="44.716864054062185" lon="9.567530105565325"><ele>535.75</ele><time>2026-04-22T13:16:51Z</time></trkpt><trkpt lat="44.71696406957236" lon="9.567647434542247"><ele>537.5</ele><time>2026-04-22T13:16:52Z</time></trkpt><trkpt lat="44.71704925750729" lon="9.56780521733935"><ele>539.25</ele><time>2026-04-22T13:16:53Z</time></trkpt><trkpt lat="44.717060666986946" lon="9.567986143577187"><ele>541.0</ele><time>2026-04-22T13:16:54Z</time></trkpt><trkpt lat="44.716991499400905" lon="9.568301520455575"><ele>541.0</ele><time>2026-04-22T13:16:55Z</time></trkpt><trkpt lat="44.7169412446987" lon="9.568560962449984"><ele>541.0</ele><time>2026-04-22T13:16:56Z</time></trkpt><trkpt lat="44.716875174052085" lon="9.568789150910641"><ele>541.0</ele><time>2026-04-22T13:16:57Z</time></trkpt><trkpt lat="44.716796457898376" lon="9.568796529501679"><ele>541.0</ele><time>2026-04-22T13:16:58Z</time></trkpt><trkpt lat="44.71669343453246" lon="9.568711955706794"><ele>538.25</ele><time>2026-04-22T13:17:00Z</time></trkpt><trkpt lat="44.716626743214626" lon="9.568624630817986"><ele>535.5</ele><time>2026-04-22T13:17:01Z</time></trkpt><trkpt lat="44.716565252979194" lon="9.568501241333578"><ele>532.75</ele><time>2026-04-22T13:17:02Z</time></trkpt><trkpt lat="44.716564579411674" lon="9.568256295571677"><ele>530.0</ele><time>2026-04-22T13:17:03Z</time></trkpt><trkpt lat="44.71648157305417" lon="9.56793482934216"><ele>531.3333333333333</ele><time>2026-04-22T13:17:04Z</time></trkpt><trkpt lat="44.71633085210964" lon="9.567752332457461"><ele>532.6666666666666</ele><time>2026-04-22T13:17:05Z</time></trkpt><trkpt lat="44.71627248022384" lon="9.567545457023392"><ele>534.0</ele><time>2026-04-22T13:17:06Z</time></trkpt><trkpt lat="44.71631927884958" lon="9.567355069926284"><ele>534.0</ele><time>2026-04-22T13:17:07Z</time></trkpt><trkpt lat="44.716290946344124" lon="9.567273584967653"><ele>534.0</ele><time>2026-04-22T13:17:08Z</time></trkpt><trkpt lat="44.71627535321159" lon="9.567151095776962"><ele>534.0</ele><time>2026-04-22T13:17:09Z</time></trkpt><trkpt lat="44.71621582023569" lon="9.567104793976975"><ele>534.0</ele><time>2026-04-22T13:17:10Z</time></trkpt><trkpt lat="44.71612138828236" lon="9.567155667442956"><ele>534.0</ele><time>2026-04-22T13:17:12Z</time></trkpt><trkpt lat="44.716072200984115" lon="9.567259104478108"><ele>534.0</ele><time>2026-04-22T13:17:13Z</time></trkpt><trkpt lat="44.7160504895205" lon="9.56744626628043"><ele>528.75</ele><time>2026-04-22T13:17:14Z</time></trkpt><trkpt lat="44.71602112443209" lon="9.567652710086433"><ele>523.5</ele><time>2026-04-22T13:17:15Z</time></trkpt><trkpt lat="44.71599386154441" lon="9.567833346737258"><ele>518.25</ele><time>2026-04-22T13:17:16Z</time></trkpt><trkpt lat="44.71596557759644" lon="9.56800162589601"><ele>513.0</ele><time>2026-04-22T13:17:17Z</time></trkpt><trkpt lat="44.71597781001086" lon="9.568157961596347"><ele>511.5</ele><time>2026-04-22T13:17:18Z</time></trkpt><trkpt lat="44.71602844935152" lon="9.568301116952558"><ele>510.0</ele><time>2026-04-22T13:17:19Z</time></trkpt><trkpt lat="44.71611077115623" lon="9.568445197283655"><ele>508.5</ele><time>2026-04-22T13:17:20Z</time></trkpt><trkpt lat="44.716189052100596" lon="9.568560731016454"><ele>507.0</ele><time>2026-04-22T13:17:21Z</time></trkpt><trkpt lat="44.71628118047527" lon="9.568641872501598"><ele>507.0</ele><time>2026-04-22T13:17:22Z</time></trkpt><trkpt lat="44.71627051837635" lon="9.56874685268708"><ele>507.00000000000006</ele><time>2026-04-22T13:17:24Z</time></trkpt><trkpt lat="44.71615483751866" lon="9.568729478718394"><ele>507.00000000000006</ele><time>2026-04-22T13:17:26Z</time></trkpt><trkpt lat="44.71610152238054" lon="9.56867713738373"><ele>507.0</ele><time>2026-04-22T13:17:27Z</time></trkpt><trkpt lat="44.71601201119717" lon="9.568596320902971"><ele>507.0</ele><time>2026-04-22T13:17:28Z</time></trkpt><trkpt lat="44.71587696715543" lon="9.568502555657213"><ele>507.0</ele><time>2026-04-22T13:17:29Z</time></trkpt><trkpt lat="44.715771484113496" lon="9.568429890460749"><ele>507.0</ele><time>2026-04-22T13:17:30Z</time></trkpt><trkpt lat="44.71566446066063" lon="9.568365413707006"><ele>507.0</ele><time>2026-04-22T13:17:31Z</time></trkpt><trkpt lat="44.71556714105067" lon="9.568280620626023"><ele>507.0</ele><time>2026-04-22T13:17:32Z</time></trkpt><trkpt lat="44.71550277596769" lon="9.568162067097427"><ele>507.0</ele><time>2026-04-22T13:17:33Z</time></trkpt><trkpt lat="44.71545662583293" lon="9.568063864366035"><ele>507.0</ele><time>2026-04-22T13:17:34Z</time></trkpt><trkpt lat="44.715483705675645" lon="9.567922785878547"><ele>507.0</ele><time>2026-04-22T13:17:35Z</time></trkpt><trkpt lat="44.715503446863394" lon="9.567737975896662"><ele>507.0</ele><time>2026-04-22T13:17:36Z</time></trkpt><trkpt lat="44.715537944949844" lon="9.567550555485768"><ele>508.20000000000005</ele><time>2026-04-22T13:17:37Z</time></trkpt><trkpt lat="44.715557970028826" lon="9.567416531745891"><ele>509.40000000000003</ele><time>2026-04-22T13:17:38Z</time></trkpt><trkpt lat="44.71554027437457" lon="9.567306314319154"><ele>510.59999999999997</ele><time>2026-04-22T13:17:39Z</time></trkpt><trkpt lat="44.71548156641863" lon="9.567170003810086"><ele>511.79999999999995</ele><time>2026-04-22T13:17:40Z</time></trkpt><trkpt lat="44.71541446643195" lon="9.567045796419949"><ele>513.0</ele><time>2026-04-22T13:17:41Z</time></trkpt><trkpt lat="44.71535604988923" lon="9.566937539155498"><ele>514.0</ele><time>2026-04-22T13:17:42Z</time></trkpt><trkpt lat="44.715315792115184" lon="9.566859697024718"><ele>515.0</ele><time>2026-04-22T13:17:43Z</time></trkpt><trkpt lat="44.71522359585344" lon="9.566800280806165"><ele>516.0</ele><time>2026-04-22T13:17:45Z</time></trkpt><trkpt lat="44.71516047224742" lon="9.56689023896051"><ele>517.0</ele><time>2026-04-22T13:17:47Z</time></trkpt><trkpt lat="44.71517159380492" lon="9.567014607083616"><ele>518.0</ele><time>2026-04-22T13:17:48Z</time></trkpt><trkpt lat="44.71523015040597" lon="9.567133425412598"><ele>516.75</ele><time>2026-04-22T13:17:49Z</time></trkpt><trkpt lat="44.71525525093832" lon="9.567280529542769"><ele>515.5</ele><time>2026-04-22T13:17:50Z</time></trkpt><trkpt lat="44.7152755030401" lon="9.567446985897307"><ele>514.25</ele><time>2026-04-22T13:17:51Z</time></trkpt><trkpt lat="44.71526850342674" lon="9.567670827732677"><ele>513.0</ele><time>2026-04-22T13:17:52Z</time></trkpt><trkpt lat="44.71525210658308" lon="9.567959970758688"><ele>511.0</ele><time>2026-04-22T13:17:53Z</time></trkpt><trkpt lat="44.71525575195401" lon="9.568223897926922"><ele>509.0</ele><time>2026-04-22T13:17:54Z</time></trkpt><trkpt lat="44.715299427964666" lon="9.568450697121516"><ele>507.0</ele><time>2026-04-22T13:17:55Z</time></trkpt><trkpt lat="44.71534793417706" lon="9.56866362915566"><ele>505.20000000000005</ele><time>2026-04-22T13:17:56Z</time></trkpt><trkpt lat="44.71532558501296" lon="9.568853804179588"><ele>503.40000000000003</ele><time>2026-04-22T13:17:57Z</time></trkpt><trkpt lat="44.715307908798444" lon="9.569028373910227"><ele>501.59999999999997</ele><time>2026-04-22T13:17:58Z</time></trkpt><trkpt lat="44.71529422014393" lon="9.569145969701278"><ele>499.79999999999995</ele><time>2026-04-22T13:17:59Z</time></trkpt><trkpt lat="44.715267634490395" lon="9.56926550161924"><ele>498.0</ele><time>2026-04-22T13:18:00Z</time></trkpt><trkpt lat="44.71518952969466" lon="9.569265869330014"><ele>494.25</ele><time>2026-04-22T13:18:02Z</time></trkpt><trkpt lat="44.715171578085645" lon="9.569062797892382"><ele>490.5</ele><time>2026-04-22T13:18:04Z</time></trkpt><trkpt lat="44.71519281966615" lon="9.56889220720636"><ele>486.75</ele><time>2026-04-22T13:18:05Z</time></trkpt><trkpt lat="44.71521104961727" lon="9.568733542471351"><ele>483.0</ele><time>2026-04-22T13:18:06Z</time></trkpt><trkpt lat="44.71520844124594" lon="9.568528909763206"><ele>483.0</ele><time>2026-04-22T13:18:07Z</time></trkpt><trkpt lat="44.71515941811676" lon="9.56835874948394"><ele>483.0</ele><time>2026-04-22T13:18:08Z</time></trkpt><trkpt lat="44.71510438362646" lon="9.56815676055405"><ele>483.0</ele><time>2026-04-22T13:18:09Z</time></trkpt><trkpt lat="44.715043714241595" lon="9.567969223656222"><ele>483.0</ele><time>2026-04-22T13:18:10Z</time></trkpt><trkpt lat="44.7149862616128" lon="9.567798778667115"><ele>485.25</ele><time>2026-04-22T13:18:11Z</time></trkpt><trkpt lat="44.71491095827892" lon="9.567659120759393"><ele>487.5</ele><time>2026-04-22T13:18:12Z</time></trkpt><trkpt lat="44.7148170771562" lon="9.56756199630357"><ele>489.75</ele><time>2026-04-22T13:18:13Z</time></trkpt><trkpt lat="44.71470771742662" lon="9.567510718003124"><ele>492.0</ele><time>2026-04-22T13:18:14Z</time></trkpt><trkpt lat="44.71460087226476" lon="9.567480727031743"><ele>492.0</ele><time>2026-04-22T13:18:15Z</time></trkpt><trkpt lat="44.71447445237338" lon="9.567546775805656"><ele>492.0</ele><time>2026-04-22T13:18:16Z</time></trkpt><trkpt lat="44.714345477462075" lon="9.5676086122765"><ele>492.0</ele><time>2026-04-22T13:18:17Z</time></trkpt><trkpt lat="44.71422012832792" lon="9.567651782891325"><ele>492.0</ele><time>2026-04-22T13:18:18Z</time></trkpt><trkpt lat="44.714089525123796" lon="9.567661522430752"><ele>489.20000000000005</ele><time>2026-04-22T13:18:19Z</time></trkpt><trkpt lat="44.71396762653428" lon="9.567717482259589"><ele>486.40000000000003</ele><time>2026-04-22T13:18:20Z</time></trkpt><trkpt lat="44.71387129785735" lon="9.567703860317176"><ele>483.59999999999997</ele><time>2026-04-22T13:18:21Z</time></trkpt><trkpt lat="44.71378293968597" lon="9.567634282794748"><ele>480.79999999999995</ele><time>2026-04-22T13:18:22Z</time></trkpt><trkpt lat="44.7137102641068" lon="9.567523289103956"><ele>478.0</ele><time>2026-04-22T13:18:23Z</time></trkpt><trkpt lat="44.71367200427112" lon="9.567399920600284"><ele>478.00000000000006</ele><time>2026-04-22T13:18:24Z</time></trkpt><trkpt lat="44.71365982387866" lon="9.567275617347653"><ele>478.0</ele><time>2026-04-22T13:18:25Z</time></trkpt><trkpt lat="44.71362845531925" lon="9.567187775602061"><ele>478.0</ele><time>2026-04-22T13:18:26Z</time></trkpt><trkpt lat="44.71353400011352" lon="9.567218938273305"><ele>478.0</ele><time>2026-04-22T13:18:28Z</time></trkpt><trkpt lat="44.71351869522034" lon="9.567337631964639"><ele>478.00000000000006</ele><time>2026-04-22T13:18:29Z</time></trkpt><trkpt lat="44.71352977425734" lon="9.567483934650708"><ele>478.0</ele><time>2026-04-22T13:18:30Z</time></trkpt><trkpt lat="44.713541564712294" lon="9.567664900753288"><ele>475.79999999999995</ele><time>2026-04-22T13:18:31Z</time></trkpt><trkpt lat="44.713548089598895" lon="9.567836310946362"><ele>473.59999999999997</ele><time>2026-04-22T13:18:32Z</time></trkpt><trkpt lat="44.71353440189198" lon="9.567990459982703"><ele>471.40000000000003</ele><time>2026-04-22T13:18:33Z</time></trkpt><trkpt lat="44.71352474387374" lon="9.568148803754942"><ele>469.20000000000005</ele><time>2026-04-22T13:18:34Z</time></trkpt><trkpt lat="44.71354880137835" lon="9.568286055691292"><ele>467.0</ele><time>2026-04-22T13:18:35Z</time></trkpt><trkpt lat="44.71361111949237" lon="9.568400133115123"><ele>467.0</ele><time>2026-04-22T13:18:36Z</time></trkpt><trkpt lat="44.71367936466939" lon="9.568488732000793"><ele>467.00000000000006</ele><time>2026-04-22T13:18:37Z</time></trkpt><trkpt lat="44.71366939873911" lon="9.568604004885184"><ele>467.00000000000006</ele><time>2026-04-22T13:18:39Z</time></trkpt><trkpt lat="44.713544417561174" lon="9.568544360601411"><ele>467.0</ele><time>2026-04-22T13:18:41Z</time></trkpt><trkpt lat="44.7134905742288" lon="9.568419430630316"><ele>467.0</ele><time>2026-04-22T13:18:42Z</time></trkpt><trkpt lat="44.713455592356986" lon="9.568238950020753"><ele>465.40000000000003</ele><time>2026-04-22T13:18:43Z</time></trkpt><trkpt lat="44.713429139037004" lon="9.56808799176369"><ele>463.80000000000007</ele><time>2026-04-22T13:18:44Z</time></trkpt><trkpt lat="44.71337463214399" lon="9.567931732167924"><ele>462.2</ele><time>2026-04-22T13:18:45Z</time></trkpt><trkpt lat="44.713334903856804" lon="9.567791311075194"><ele>460.6</ele><time>2026-04-22T13:18:46Z</time></trkpt><trkpt lat="44.71329509087612" lon="9.567658276147567"><ele>459.0</ele><time>2026-04-22T13:18:47Z</time></trkpt><trkpt lat="44.71325886821734" lon="9.567560693366177"><ele>459.0</ele><time>2026-04-22T13:18:48Z</time></trkpt><trkpt lat="44.71318469046649" lon="9.567488467479878"><ele>459.0</ele><time>2026-04-22T13:18:50Z</time></trkpt><trkpt lat="44.71318381887301" lon="9.567363818721246"><ele>459.0</ele><time>2026-04-22T13:18:53Z</time></trkpt><trkpt lat="44.71314810860536" lon="9.56744107322282"><ele>459.0</ele><time>2026-04-22T13:18:55Z</time></trkpt><trkpt lat="44.71312302811011" lon="9.567332621621786"><ele>459.0</ele><time>2026-04-22T13:18:57Z</time></trkpt><trkpt lat="44.71318301177518" lon="9.567164320870331"><ele>459.0</ele><time>2026-04-22T13:18:59Z</time></trkpt><trkpt lat="44.71312855766681" lon="9.56703086568429"><ele>459.0</ele><time>2026-04-22T13:19:01Z</time></trkpt><trkpt lat="44.71310959552521" lon="9.566941575613342"><ele>459.0</ele><time>2026-04-22T13:19:02Z</time></trkpt><trkpt lat="44.71307244345276" lon="9.566863514184599"><ele>459.0</ele><time>2026-04-22T13:19:03Z</time></trkpt><trkpt lat="44.71297923070159" lon="9.566817099756717"><ele>459.0</ele><time>2026-04-22T13:19:05Z</time></trkpt><trkpt lat="44.71286753433646" lon="9.566935267492688"><ele>459.0</ele><time>2026-04-22T13:19:07Z</time></trkpt><trkpt lat="44.71280418262075" lon="9.567041791986416"><ele>459.0</ele><time>2026-04-22T13:19:08Z</time></trkpt><trkpt lat="44.71272816184485" lon="9.567175944794014"><ele>459.0</ele><time>2026-04-22T13:19:09Z</time></trkpt><trkpt lat="44.712636252586975" lon="9.567316590257784"><ele>459.0</ele><time>2026-04-22T13:19:10Z</time></trkpt><trkpt lat="44.712570458691204" lon="9.567385924774127"><ele>459.0</ele><time>2026-04-22T13:19:11Z</time></trkpt><trkpt lat="44.71249110465003" lon="9.567397869574368"><ele>438.0</ele><time>2026-04-22T13:19:13Z</time></trkpt><trkpt lat="44.712417209937996" lon="9.567301582867458"><ele>438.0</ele><time>2026-04-22T13:19:15Z</time></trkpt><trkpt lat="44.71237418631083" lon="9.567222396286766"><ele>438.0</ele><time>2026-04-22T13:19:16Z</time></trkpt><trkpt lat="44.712329192513295" lon="9.56714033355009"><ele>438.0</ele><time>2026-04-22T13:19:17Z</time></trkpt><trkpt lat="44.712282831825036" lon="9.567047948518518"><ele>438.0</ele><time>2026-04-22T13:19:19Z</time></trkpt></trkseg></trk></gpx>